AXGD100 Flymaster F1, V1.21, S/N 1200
HFDTE140612
HOPLTPILOT: Alain Marco Curion Cirerol
HOGTYGLIDERTYPE: Cayenne 4
HOGIDGLIDERID: None
HODTM100GPSDATUM: WGS-84
HOCIDCOMPETITIONID: 
HOCCLCOMPETITION CLASS: Sport
HOSITSite: None
B1200223745147N00338776WA0085300934
B1200233745148N00338779WA0085300934
B1200243745148N00338782WA0085500934
B1200253745149N00338786WA0085600935
B1200263745149N00338790WA0085800935
B1200273745149N00338794WA0085500935
B1200283745149N00338796WA0086100936
B1200293745149N00338797WA0086300938
B1200303745149N00338798WA0086200940
B1200313745151N00338800WA0086000941
B1200323745152N00338804WA0085800941
B1200333745152N00338808WA0085800941
B1200343745153N00338812WA0086000942
B1200353745153N00338814WA0086200943
B1200363745155N00338816WA0086200943
B1200373745158N00338818WA0086100943
B1200383745161N00338818WA0086200944
B1200393745164N00338819WA0086300945
B1200403745167N00338819WA0086300946
B1200413745169N00338821WA0086400946
B1200423745172N00338824WA0086600947
B1200433745174N00338826WA0086700949
B1200443745175N00338830WA0086900950
B1200453745175N00338833WA0087100953
B1200463745175N00338836WA0087300955
B1200473745176N00338839WA0087500957
B1200483745176N00338841WA0087700959
B1200493745176N00338844WA0087800961
B1200503745175N00338847WA0087800962
B1200513745174N00338851WA0087500962
B1200523745173N00338855WA0087800963
B1200533745172N00338857WA0087900964
B1200543745173N00338859WA0088100966
B1200553745174N00338860WA0088000965
B1200563745176N00338862WA0088000964
B1200573745178N00338866WA0088100964
B1200583745179N00338869WA0088100964
B1200593745182N00338871WA0088200966
B1201003745184N00338872WA0088600968
B1201013745186N00338872WA0088700970
B1201023745189N00338870WA0088700971
B1201033745192N00338869WA0088600972
B1201043745194N00338869WA0088500971
B1201053745195N00338871WA0088400970
B1201063745195N00338876WA0088100969
B1201073745193N00338882WA0087800967
B1201083745189N00338888WA0087500965
B1201093745184N00338893WA0087300963
B1201103745179N00338897WA0087600964
B1201113745174N00338901WA0088100964
B1201123745171N00338904WA0088500968
B1201133745170N00338906WA0088800973
B1201143745170N00338907WA0089000975
B1201153745172N00338907WA0089000975
B1201163745175N00338907WA0089100976
B1201173745177N00338905WA0089300977
B1201183745179N00338902WA0089500979
B1201193745180N00338896WA0089600981
B1201203745180N00338889WA0089500982
B1201213745180N00338883WA0089300982
B1201223745181N00338876WA0089300980
B1201233745182N00338871WA0089300979
B1201243745185N00338869WA0089100979
B1201253745188N00338869WA0089000978
B1201263745190N00338872WA0088800976
B1201273745190N00338877WA0088800974
B1201283745188N00338883WA0088200973
B1201293745185N00338889WA0088300971
B1201303745181N00338895WA0088600971
B1201313745178N00338900WA0088900971
B1201323745175N00338905WA0089000972
B1201333745172N00338911WA0088900973
B1201343745169N00338917WA0088800973
B1201353745166N00338923WA0088800972
B1201363745162N00338929WA0088900972
B1201373745157N00338934WA0088800971
B1201383745152N00338939WA0088800971
B1201393745148N00338945WA0088800971
B1201403745144N00338951WA0088800971
B1201413745141N00338956WA0088900972
B1201423745137N00338962WA0089000973
B1201433745134N00338968WA0089100974
B1201443745132N00338973WA0089100975
B1201453745131N00338977WA0089300977
B1201463745131N00338981WA0089400978
B1201473745132N00338986WA0089400979
B1201483745133N00338990WA0089600980
B1201493745132N00338994WA0089700981
B1201503745131N00338999WA0089800982
B1201513745127N00339003WA0089600982
B1201523745124N00339008WA0089700983
B1201533745122N00339012WA0089800983
B1201543745120N00339016WA0090000984
B1201553745117N00339019WA0090100985
B1201563745113N00339024WA0090100985
B1201573745110N00339029WA0090100986
B1201583745107N00339034WA0090300986
B1201593745106N00339040WA0090500988
B1202003745106N00339045WA0090800991
B1202013745105N00339049WA0091100994
B1202023745105N00339051WA0091600998
B1202033745106N00339053WA0091901002
B1202043745106N00339056WA0092101005
B1202053745105N00339059WA0092301007
B1202063745102N00339064WA0092501009
B1202073745099N00339068WA0092701012
B1202083745095N00339071WA0092901014
B1202093745091N00339074WA0093101017
B1202103745088N00339078WA0093201019
B1202113745085N00339082WA0093501021
B1202123745082N00339086WA0093901024
B1202133745079N00339089WA0094101026
B1202143745076N00339091WA0094501029
B1202153745072N00339093WA0094701032
B1202163745068N00339094WA0094801034
B1202173745064N00339095WA0095001036
B1202183745060N00339096WA0095101037
B1202193745056N00339098WA0095201037
B1202203745052N00339101WA0095201038
B1202213745048N00339103WA0095301039
B1202223745043N00339106WA0095401041
B1202233745038N00339108WA0095601042
B1202243745034N00339111WA0095901044
B1202253745031N00339114WA0096201047
B1202263745028N00339117WA0096101048
B1202273745025N00339120WA0096101049
B1202283745021N00339123WA0096101049
B1202293745016N00339125WA0096001049
B1202303745011N00339127WA0095801048
B1202313745007N00339129WA0095901049
B1202323745003N00339131WA0096101049
B1202333745000N00339133WA0096201050
B1202343744996N00339135WA0096201050
B1202353744992N00339138WA0096101050
B1202363744988N00339141WA0096201050
B1202373744984N00339143WA0096201050
B1202383744980N00339146WA0096101050
B1202393744977N00339151WA0096101049
B1202403744975N00339156WA0096201049
B1202413744974N00339161WA0096401051
B1202423744972N00339164WA0096701055
B1202433744971N00339167WA0096901057
B1202443744971N00339170WA0096901058
B1202453744973N00339173WA0097001059
B1202463744976N00339175WA0097001058
B1202473744981N00339175WA0097101059
B1202483744985N00339174WA0097301061
B1202493744988N00339171WA0097601064
B1202503744992N00339168WA0097801066
B1202513744995N00339166WA0098101068
B1202523744998N00339165WA0098301070
B1202533745001N00339165WA0098501073
B1202543745003N00339165WA0098801076
B1202553745003N00339168WA0098901078
B1202563745003N00339171WA0099001080
B1202573745000N00339176WA0099101081
B1202583744995N00339180WA0099001082
B1202593744989N00339183WA0099201083
B1203003744984N00339185WA0099501085
B1203013744982N00339187WA0099701087
B1203023744981N00339190WA0099701088
B1203033744981N00339193WA0099601087
B1203043744982N00339197WA0099501085
B1203053744984N00339201WA0099301083
B1203063744987N00339204WA0099301082
B1203073744991N00339206WA0099501082
B1203083744994N00339206WA0099501082
B1203093744997N00339205WA0099501083
B1203103745000N00339204WA0099401083
B1203113745005N00339204WA0099101081
B1203123745011N00339205WA0099101079
B1203133745016N00339204WA0099101079
B1203143745020N00339201WA0099301083
B1203153745023N00339197WA0099501086
B1203163745025N00339192WA0099701088
B1203173745027N00339188WA0099901090
B1203183745029N00339183WA0099801090
B1203193745032N00339177WA0099701088
B1203203745036N00339170WA0099701088
B1203213745039N00339165WA0099901089
B1203223745043N00339160WA0100101090
B1203233745046N00339156WA0100201091
B1203243745049N00339153WA0100301093
B1203253745052N00339150WA0100501094
B1203263745056N00339147WA0100601095
B1203273745060N00339145WA0100701097
B1203283745064N00339142WA0101001099
B1203293745067N00339140WA0101401102
B1203303745070N00339138WA0101701105
B1203313745074N00339137WA0101901107
B1203323745078N00339137WA0102101110
B1203333745082N00339136WA0102501113
B1203343745085N00339135WA0103001117
B1203353745088N00339134WA0103501121
B1203363745091N00339134WA0104001126
B1203373745093N00339138WA0104301130
B1203383745092N00339144WA0104301132
B1203393745088N00339150WA0104201134
B1203403745081N00339154WA0104501136
B1203413745072N00339152WA0105101138
B1203423745066N00339145WA0105601141
B1203433745064N00339135WA0105901143
B1203443745067N00339126WA0106201145
B1203453745072N00339120WA0106401148
B1203463745077N00339119WA0106801153
B1203473745080N00339123WA0107301160
B1203483745081N00339127WA0107601165
B1203493745080N00339131WA0108001170
B1203503745077N00339135WA0108401174
B1203513745074N00339139WA0108701178
B1203523745069N00339142WA0109001181
B1203533745062N00339142WA0109101184
B1203543745055N00339139WA0109301187
B1203553745049N00339133WA0109801190
B1203563745046N00339125WA0110401193
B1203573745046N00339117WA0110801198
B1203583745048N00339109WA0110901201
B1203593745052N00339103WA0111201204
B1204003745056N00339100WA0111701207
B1204013745059N00339098WA0112301212
B1204023745061N00339098WA0112501217
B1204033745062N00339100WA0112701220
B1204043745064N00339104WA0112901223
B1204053745065N00339109WA0113101225
B1204063745065N00339114WA0113601228
B1204073745066N00339117WA0114001234
B1204083745067N00339120WA0114501239
B1204093745067N00339122WA0115001244
B1204103745066N00339125WA0115601249
B1204113745063N00339128WA0115901254
B1204123745057N00339130WA0115901258
B1204133745048N00339129WA0115701260
B1204143745040N00339126WA0116401262
B1204153745034N00339121WA0117201267
B1204163745029N00339115WA0117801275
B1204173745027N00339107WA0118101280
B1204183745027N00339099WA0118301282
B1204193745028N00339090WA0118501285
B1204203745030N00339082WA0118801287
B1204213745033N00339074WA0119201291
B1204223745036N00339069WA0119601294
B1204233745039N00339066WA0120101298
B1204243745042N00339065WA0120301302
B1204253745045N00339065WA0120401302
B1204263745048N00339067WA0120601302
B1204273745051N00339070WA0120801305
B1204283745053N00339073WA0121401308
B1204293745053N00339077WA0122001315
B1204303745051N00339080WA0122301320
B1204313745046N00339082WA0122101324
B1204323745040N00339084WA0122401328
B1204333745032N00339084WA0122701331
B1204343745025N00339081WA0123001334
B1204353745019N00339073WA0123501336
B1204363745017N00339062WA0124001339
B1204373745017N00339053WA0124601344
B1204383745020N00339047WA0124901349
B1204393745024N00339043WA0125301352
B1204403745029N00339041WA0125601356
B1204413745034N00339042WA0126101360
B1204423745037N00339043WA0126601366
B1204433745037N00339045WA0127001372
B1204443745036N00339046WA0127301375
B1204453745034N00339049WA0127401378
B1204463745030N00339053WA0127601380
B1204473745025N00339056WA0127701382
B1204483745019N00339057WA0128001383
B1204493745012N00339055WA0128201385
B1204503745005N00339050WA0128601389
B1204513745000N00339043WA0129101393
B1204523744997N00339035WA0129601397
B1204533744997N00339027WA0130101402
B1204543744999N00339020WA0130401406
B1204553745003N00339014WA0130701410
B1204563745007N00339009WA0131101414
B1204573745012N00339006WA0131501418
B1204583745017N00339006WA0132001422
B1204593745019N00339008WA0132101426
B1205003745020N00339012WA0132301429
B1205013745019N00339017WA0132501432
B1205023745015N00339021WA0132701435
B1205033745010N00339023WA0132801436
B1205043745003N00339024WA0133001437
B1205053744996N00339021WA0133201439
B1205063744989N00339017WA0133501441
B1205073744983N00339011WA0133701444
B1205083744979N00339004WA0134101447
B1205093744977N00338996WA0134601451
B1205103744977N00338986WA0134701454
B1205113744979N00338976WA0135001456
B1205123744983N00338969WA0135401459
B1205133744987N00338964WA0135901464
B1205143744992N00338962WA0136201468
B1205153744997N00338962WA0136401471
B1205163745001N00338963WA0136701474
B1205173745004N00338965WA0137001477
B1205183745007N00338968WA0137201479
B1205193745009N00338972WA0137501482
B1205203745010N00338975WA0137501484
B1205213745011N00338979WA0137701486
B1205223745011N00338984WA0137801488
B1205233745011N00338989WA0137901489
B1205243745010N00338994WA0138001490
B1205253745008N00338999WA0138301492
B1205263745005N00339004WA0138401493
B1205273745001N00339010WA0138201494
B1205283744998N00339015WA0138101495
B1205293744996N00339019WA0138101495
B1205303744995N00339023WA0138201496
B1205313744993N00339027WA0138201495
B1205323744989N00339031WA0138101494
B1205333744984N00339035WA0137901493
B1205343744980N00339040WA0138001492
B1205353744976N00339044WA0138201492
B1205363744973N00339047WA0138301494
B1205373744971N00339051WA0138401495
B1205383744968N00339054WA0138301495
B1205393744964N00339059WA0138001494
B1205403744960N00339063WA0138001493
B1205413744956N00339067WA0138101493
B1205423744953N00339070WA0138201493
B1205433744950N00339072WA0138201494
B1205443744948N00339075WA0138101493
B1205453744946N00339079WA0137701493
B1205463744944N00339083WA0137701491
B1205473744942N00339087WA0137601490
B1205483744940N00339091WA0137501488
B1205493744938N00339094WA0137501488
B1205503744936N00339098WA0137501487
B1205513744934N00339102WA0137301486
B1205523744932N00339105WA0137201484
B1205533744931N00339110WA0137001483
B1205543744931N00339114WA0136901481
B1205553744932N00339117WA0136801480
B1205563744933N00339120WA0136701480
B1205573744934N00339123WA0136701479
B1205583744934N00339126WA0136501478
B1205593744935N00339130WA0136401476
B1206003744935N00339136WA0135701474
B1206013744936N00339142WA0135601471
B1206023744938N00339147WA0135701469
B1206033744939N00339151WA0135801470
B1206043744939N00339155WA0135801471
B1206053744939N00339159WA0135701470
B1206063744940N00339164WA0135701470
B1206073744941N00339169WA0135701468
B1206083744943N00339173WA0135701468
B1206093744944N00339177WA0135801469
B1206103744946N00339181WA0135901470
B1206113744948N00339185WA0135701470
B1206123744951N00339189WA0135601468
B1206133744955N00339192WA0135601467
B1206143744960N00339194WA0135801468
B1206153744964N00339197WA0135901468
B1206163744967N00339200WA0135901469
B1206173744971N00339203WA0135901469
B1206183744976N00339206WA0135701468
B1206193744981N00339208WA0135601467
B1206203744985N00339209WA0135601466
B1206213744989N00339209WA0135501465
B1206223744993N00339210WA0135401464
B1206233744998N00339210WA0135001463
B1206243745003N00339211WA0134501461
B1206253745008N00339211WA0134401460
B1206263745012N00339210WA0134701459
B1206273745016N00339210WA0135101461
B1206283745019N00339210WA0135201462
B1206293745023N00339210WA0135001462
B1206303745026N00339210WA0134701461
B1206313745032N00339209WA0134401458
B1206323745038N00339208WA0134301454
B1206333745043N00339205WA0134401454
B1206343745047N00339201WA0134601455
B1206353745050N00339195WA0134701456
B1206363745053N00339190WA0134801457
B1206373745057N00339186WA0134701458
B1206383745061N00339183WA0134501457
B1206393745066N00339180WA0134301455
B1206403745071N00339176WA0134101453
B1206413745076N00339172WA0134001450
B1206423745080N00339166WA0133901450
B1206433745083N00339161WA0133901451
B1206443745086N00339157WA0133901451
B1206453745089N00339151WA0133701450
B1206463745093N00339146WA0133501449
B1206473745097N00339140WA0133301447
B1206483745101N00339134WA0133201444
B1206493745105N00339129WA0133301444
B1206503745109N00339126WA0133401445
B1206513745112N00339123WA0133501446
B1206523745115N00339120WA0133401446
B1206533745119N00339117WA0133201445
B1206543745122N00339114WA0132901442
B1206553745126N00339110WA0132701438
B1206563745130N00339106WA0132501436
B1206573745133N00339101WA0132401434
B1206583745136N00339097WA0132301434
B1206593745139N00339093WA0132201433
B1207003745143N00339090WA0132101432
B1207013745147N00339087WA0132001430
B1207023745151N00339084WA0131801428
B1207033745155N00339081WA0131601426
B1207043745159N00339078WA0131601425
B1207053745163N00339075WA0131501424
B1207063745166N00339073WA0131301423
B1207073745170N00339069WA0131001421
B1207083745174N00339066WA0130501419
B1207093745179N00339061WA0130501416
B1207103745183N00339056WA0130301414
B1207113745186N00339052WA0130201412
B1207123745190N00339047WA0130101411
B1207133745193N00339042WA0129901409
B1207143745197N00339037WA0129901407
B1207153745200N00339033WA0129701406
B1207163745205N00339029WA0129701405
B1207173745209N00339026WA0129701404
B1207183745213N00339023WA0129601404
B1207193745217N00339019WA0129501403
B1207203745220N00339016WA0129401402
B1207213745224N00339013WA0129301401
B1207223745228N00339010WA0129201400
B1207233745232N00339007WA0129201399
B1207243745237N00339006WA0129201398
B1207253745241N00339005WA0129101398
B1207263745246N00339003WA0129201398
B1207273745250N00339001WA0129301399
B1207283745254N00338998WA0129301399
B1207293745258N00338996WA0129301400
B1207303745263N00338993WA0129201399
B1207313745268N00338992WA0129201399
B1207323745273N00338992WA0129301399
B1207333745276N00338995WA0129401400
B1207343745279N00338998WA0129501400
B1207353745283N00339001WA0129601402
B1207363745286N00339005WA0129701403
B1207373745289N00339009WA0129801405
B1207383745293N00339013WA0130101406
B1207393745296N00339015WA0130301408
B1207403745299N00339018WA0130701411
B1207413745302N00339020WA0130901414
B1207423745305N00339022WA0131101417
B1207433745309N00339023WA0131301418
B1207443745315N00339023WA0131501420
B1207453745320N00339022WA0131601422
B1207463745324N00339019WA0131901425
B1207473745327N00339015WA0132001427
B1207483745328N00339009WA0132201429
B1207493745328N00339003WA0132001430
B1207503745326N00338996WA0131701428
B1207513745322N00338989WA0131401426
B1207523745316N00338984WA0131401424
B1207533745309N00338982WA0131401423
B1207543745302N00338984WA0131701424
B1207553745297N00338986WA0132001426
B1207563745293N00338987WA0132401428
B1207573745290N00338989WA0132701432
B1207583745287N00338991WA0132901434
B1207593745286N00338996WA0133001436
B1208003745285N00339002WA0133001437
B1208013745285N00339009WA0133001437
B1208023745287N00339015WA0133301439
B1208033745289N00339020WA0133701442
B1208043745292N00339023WA0133801445
B1208053745295N00339025WA0134001448
B1208063745300N00339025WA0134101449
B1208073745306N00339023WA0134001449
B1208083745310N00339020WA0134101450
B1208093745314N00339016WA0134401452
B1208103745315N00339011WA0134501454
B1208113745314N00339005WA0134401455
B1208123745312N00338998WA0133901454
B1208133745308N00338991WA0133801453
B1208143745303N00338985WA0133801451
B1208153745297N00338980WA0133901450
B1208163745291N00338976WA0134001451
B1208173745285N00338973WA0134201452
B1208183745280N00338970WA0134301453
B1208193745273N00338969WA0134501454
B1208203745267N00338969WA0134701455
B1208213745261N00338969WA0135001457
B1208223745255N00338969WA0135401460
B1208233745251N00338969WA0135801464
B1208243745247N00338969WA0136101469
B1208253745244N00338971WA0136301472
B1208263745242N00338976WA0136401472
B1208273745241N00338982WA0136301473
B1208283745241N00338988WA0136501474
B1208293745242N00338993WA0136801478
B1208303745245N00338995WA0137101481
B1208313745249N00338996WA0137201483
B1208323745253N00338995WA0137301484
B1208333745258N00338995WA0137501485
B1208343745264N00338995WA0137501486
B1208353745269N00338994WA0137901489
B1208363745273N00338990WA0138101492
B1208373745276N00338984WA0138301494
B1208383745276N00338977WA0138401496
B1208393745274N00338969WA0138501497
B1208403745270N00338963WA0138601498
B1208413745264N00338957WA0138701498
B1208423745257N00338954WA0138801500
B1208433745251N00338953WA0139101501
B1208443745245N00338954WA0139501503
B1208453745239N00338956WA0139801507
B1208463745235N00338957WA0140201511
B1208473745232N00338959WA0140501514
B1208483745230N00338963WA0140801517
B1208493745229N00338968WA0140801519
B1208503745231N00338973WA0140701518
B1208513745235N00338977WA0140801518
B1208523745238N00338980WA0141001520
B1208533745242N00338981WA0141101522
B1208543745246N00338981WA0141301524
B1208553745250N00338982WA0141401525
B1208563745255N00338983WA0141601526
B1208573745260N00338984WA0141701528
B1208583745265N00338985WA0142101530
B1208593745269N00338986WA0142301533
B1209003745272N00338986WA0142401535
B1209013745275N00338983WA0142401535
B1209023745278N00338978WA0142301535
B1209033745278N00338971WA0142001534
B1209043745278N00338964WA0141901532
B1209053745275N00338958WA0141701531
B1209063745272N00338954WA0141601530
B1209073745268N00338949WA0141401528
B1209083745262N00338946WA0140901525
B1209093745254N00338943WA0140701521
B1209103745245N00338939WA0140701517
B1209113745236N00338936WA0141001516
B1209123745230N00338935WA0141601521
B1209133745227N00338934WA0142201524
B1209143745223N00338935WA0142401527
B1209153745219N00338936WA0142501529
B1209163745212N00338938WA0142601529
B1209173745207N00338941WA0142801532
B1209183745203N00338945WA0143001535
B1209193745201N00338947WA0143101538
B1209203745200N00338950WA0143001538
B1209213745200N00338953WA0142801537
B1209223745201N00338957WA0142401535
B1209233745204N00338960WA0141901533
B1209243745210N00338961WA0141601529
B1209253745216N00338959WA0141501526
B1209263745221N00338955WA0141601526
B1209273745226N00338951WA0141901526
B1209283745229N00338948WA0142301530
B1209293745232N00338945WA0142501535
B1209303745234N00338941WA0142701538
B1209313745235N00338935WA0142701540
B1209323745235N00338929WA0142701541
B1209333745234N00338921WA0142601541
B1209343745231N00338914WA0142601542
B1209353745229N00338906WA0142601542
B1209363745226N00338899WA0142801543
B1209373745223N00338892WA0143001544
B1209383745219N00338886WA0143001545
B1209393745214N00338881WA0142901545
B1209403745208N00338876WA0143001545
B1209413745202N00338873WA0143401546
B1209423745197N00338871WA0143701548
B1209433745192N00338870WA0143801550
B1209443745187N00338870WA0144001552
B1209453745183N00338869WA0144101553
B1209463745179N00338870WA0144101555
B1209473745176N00338871WA0143901555
B1209483745172N00338873WA0143901555
B1209493745170N00338876WA0143901555
B1209503745168N00338880WA0143801554
B1209513745168N00338884WA0143701553
B1209523745169N00338888WA0143701552
B1209533745171N00338892WA0143701552
B1209543745174N00338896WA0143501551
B1209553745178N00338898WA0143201550
B1209563745182N00338899WA0143201549
B1209573745187N00338899WA0143201548
B1209583745193N00338897WA0142901546
B1209593745199N00338894WA0142801544
B1210003745204N00338890WA0142701543
B1210013745208N00338885WA0143001544
B1210023745210N00338880WA0143301546
B1210033745213N00338876WA0143301548
B1210043745215N00338872WA0143101547
B1210053745219N00338867WA0142901545
B1210063745224N00338861WA0142501542
B1210073745228N00338855WA0142401540
B1210083745233N00338849WA0142501540
B1210093745237N00338846WA0142601540
B1210103745240N00338843WA0142801541
B1210113745243N00338842WA0142601542
B1210123745246N00338839WA0142401541
B1210133745248N00338835WA0142101539
B1210143745251N00338831WA0141701535
B1210153745254N00338826WA0141501532
B1210163745256N00338822WA0141301530
B1210173745259N00338818WA0141201528
B1210183745261N00338814WA0141101527
B1210193745263N00338811WA0140901526
B1210203745265N00338808WA0140601523
B1210213745267N00338803WA0140201519
B1210223745268N00338799WA0139801515
B1210233745269N00338794WA0139701513
B1210243745269N00338788WA0139501510
B1210253745266N00338783WA0139101508
B1210263745263N00338780WA0138901505
B1210273745258N00338777WA0138801503
B1210283745252N00338775WA0138601501
B1210293745246N00338774WA0138401499
B1210303745240N00338774WA0137901497
B1210313745234N00338776WA0137701494
B1210323745228N00338779WA0137501492
B1210333745223N00338784WA0137501489
B1210343745218N00338789WA0137301486
B1210353745213N00338794WA0137001484
B1210363745208N00338799WA0136801481
B1210373745203N00338805WA0136701479
B1210383745198N00338809WA0136501477
B1210393745193N00338812WA0136201476
B1210403745189N00338816WA0136001475
B1210413745185N00338820WA0135901474
B1210423745180N00338824WA0135701471
B1210433745175N00338828WA0135601469
B1210443745170N00338832WA0135601468
B1210453745166N00338836WA0135601468
B1210463745162N00338840WA0135501468
B1210473745159N00338844WA0135301466
B1210483745155N00338849WA0135101464
B1210493745151N00338854WA0135001462
B1210503745147N00338858WA0135001461
B1210513745142N00338862WA0134901461
B1210523745137N00338865WA0134701460
B1210533745132N00338869WA0134601458
B1210543745127N00338872WA0134401457
B1210553745121N00338875WA0134301456
B1210563745115N00338877WA0134001454
B1210573745109N00338879WA0133901453
B1210583745103N00338880WA0133801451
B1210593745097N00338881WA0133701450
B1211003745093N00338883WA0133601449
B1211013745089N00338887WA0133401447
B1211023745085N00338891WA0133401446
B1211033745082N00338893WA0133201445
B1211043745077N00338895WA0133001443
B1211053745072N00338897WA0132701441
B1211063745067N00338901WA0132501439
B1211073745062N00338905WA0132501437
B1211083745057N00338907WA0132501436
B1211093745052N00338908WA0132501436
B1211103745047N00338909WA0132401435
B1211113745041N00338910WA0132201434
B1211123745035N00338913WA0132001432
B1211133745028N00338916WA0131701430
B1211143745021N00338919WA0131801430
B1211153745015N00338919WA0132001432
B1211163745009N00338920WA0132001432
B1211173745003N00338921WA0132001432
B1211183744996N00338923WA0131901432
B1211193744990N00338926WA0132001432
B1211203744985N00338928WA0132201434
B1211213744980N00338930WA0132401436
B1211223744976N00338933WA0132501437
B1211233744972N00338935WA0132601438
B1211243744967N00338938WA0132301439
B1211253744963N00338942WA0132101438
B1211263744960N00338946WA0132001437
B1211273744956N00338951WA0132001434
B1211283744953N00338956WA0132001433
B1211293744950N00338961WA0132001432
B1211303744947N00338965WA0131801431
B1211313744944N00338971WA0131301429
B1211323744941N00338977WA0131201426
B1211333744938N00338983WA0130901424
B1211343744934N00338989WA0130801421
B1211353744931N00338994WA0130601419
B1211363744928N00339000WA0130401416
B1211373744926N00339006WA0130301415
B1211383744924N00339011WA0130201413
B1211393744922N00339015WA0129901411
B1211403744922N00339019WA0129701409
B1211413744922N00339023WA0129301406
B1211423744922N00339028WA0128801402
B1211433744923N00339033WA0128401397
B1211443744924N00339038WA0128201393
B1211453744926N00339043WA0128001390
B1211463744927N00339047WA0127801388
B1211473744929N00339050WA0127601386
B1211483744931N00339054WA0127001383
B1211493744932N00339059WA0126801381
B1211503744933N00339063WA0126601378
B1211513744934N00339067WA0126101376
B1211523744935N00339071WA0126001373
B1211533744937N00339075WA0125701369
B1211543744939N00339078WA0125401366
B1211553744940N00339082WA0125101363
B1211563744941N00339087WA0124901361
B1211573744940N00339092WA0124801358
B1211583744939N00339097WA0124601356
B1211593744937N00339102WA0124401353
B1212003744936N00339107WA0124201351
B1212013744935N00339111WA0124001349
B1212023744934N00339116WA0123901347
B1212033744932N00339121WA0123701345
B1212043744930N00339125WA0123401342
B1212053744928N00339130WA0123201340
B1212063744925N00339134WA0123001337
B1212073744923N00339138WA0122801335
B1212083744919N00339142WA0122501332
B1212093744916N00339146WA0122301330
B1212103744913N00339150WA0122201328
B1212113744909N00339154WA0122001325
B1212123744906N00339159WA0121701323
B1212133744902N00339163WA0121501321
B1212143744898N00339167WA0121301319
B1212153744895N00339170WA0121101317
B1212163744891N00339174WA0120901315
B1212173744886N00339177WA0120701312
B1212183744881N00339180WA0120201308
B1212193744877N00339184WA0119701304
B1212203744872N00339189WA0119101300
B1212213744868N00339194WA0118901297
B1212223744864N00339199WA0119101295
B1212233744861N00339204WA0118801293
B1212243744858N00339208WA0118501292
B1212253744854N00339212WA0118201289
B1212263744849N00339217WA0118101287
B1212273744845N00339221WA0117901285
B1212283744841N00339226WA0118101284
B1212293744837N00339231WA0118001283
B1212303744833N00339235WA0117901281
B1212313744829N00339240WA0117901280
B1212323744825N00339245WA0117901279
B1212333744822N00339250WA0117601277
B1212343744818N00339256WA0117601277
B1212353744814N00339261WA0117601276
B1212363744809N00339266WA0117401276
B1212373744804N00339271WA0117501277
B1212383744800N00339275WA0117501277
B1212393744796N00339279WA0117401278
B1212403744791N00339284WA0117301277
B1212413744785N00339288WA0117201277
B1212423744779N00339291WA0117301276
B1212433744773N00339295WA0117301276
B1212443744768N00339299WA0117401277
B1212453744764N00339302WA0117701278
B1212463744761N00339306WA0117801279
B1212473744757N00339309WA0117701280
B1212483744753N00339314WA0117401279
B1212493744749N00339319WA0117001276
B1212503744744N00339325WA0116801272
B1212513744740N00339331WA0116901270
B1212523744736N00339336WA0117101270
B1212533744732N00339340WA0117101272
B1212543744729N00339344WA0117001272
B1212553744725N00339349WA0116701271
B1212563744721N00339355WA0116501269
B1212573744718N00339362WA0116301266
B1212583744714N00339368WA0115901265
B1212593744710N00339374WA0115901264
B1213003744707N00339379WA0116001264
B1213013744704N00339385WA0115901264
B1213023744701N00339391WA0115701263
B1213033744698N00339397WA0115601261
B1213043744694N00339402WA0115501260
B1213053744691N00339408WA0115501260
B1213063744687N00339413WA0115601259
B1213073744684N00339418WA0115601259
B1213083744681N00339423WA0115401258
B1213093744679N00339428WA0115201258
B1213103744676N00339434WA0115001256
B1213113744673N00339440WA0114601254
B1213123744670N00339446WA0114401251
B1213133744668N00339453WA0114301248
B1213143744665N00339458WA0114201247
B1213153744661N00339463WA0114101245
B1213163744658N00339468WA0113901243
B1213173744654N00339473WA0113801242
B1213183744650N00339478WA0113701240
B1213193744646N00339483WA0113501238
B1213203744642N00339487WA0113501237
B1213213744637N00339492WA0113101235
B1213223744632N00339496WA0112701234
B1213233744628N00339501WA0112701232
B1213243744623N00339507WA0112501231
B1213253744619N00339513WA0112401229
B1213263744615N00339519WA0112101227
B1213273744610N00339525WA0112201225
B1213283744607N00339531WA0112101224
B1213293744605N00339537WA0111901222
B1213303744603N00339543WA0111801221
B1213313744602N00339549WA0111501220
B1213323744601N00339556WA0111301218
B1213333744600N00339561WA0111301217
B1213343744600N00339567WA0111301215
B1213353744600N00339572WA0111201214
B1213363744599N00339578WA0111001213
B1213373744600N00339584WA0110701211
B1213383744600N00339590WA0110401209
B1213393744600N00339597WA0110201206
B1213403744600N00339605WA0110101204
B1213413744599N00339612WA0110001203
B1213423744598N00339619WA0110001202
B1213433744597N00339625WA0110001202
B1213443744596N00339632WA0109901200
B1213453744595N00339639WA0109601199
B1213463744592N00339646WA0109201197
B1213473744588N00339653WA0108801194
B1213483744584N00339661WA0108801191
B1213493744580N00339669WA0108701189
B1213503744577N00339678WA0108701188
B1213513744574N00339686WA0109001189
B1213523744570N00339692WA0109101192
B1213533744566N00339698WA0109101192
B1213543744563N00339706WA0108701191
B1213553744559N00339715WA0108501190
B1213563744555N00339725WA0108501187
B1213573744549N00339732WA0108701187
B1213583744543N00339739WA0108801186
B1213593744538N00339743WA0109001187
B1214003744532N00339748WA0108901189
B1214013744528N00339755WA0108701188
B1214023744523N00339764WA0108501187
B1214033744518N00339773WA0108601187
B1214043744513N00339782WA0108801187
B1214053744507N00339788WA0109001189
B1214063744502N00339794WA0109001191
B1214073744497N00339800WA0109001191
B1214083744493N00339808WA0108701191
B1214093744488N00339817WA0108701191
B1214103744483N00339824WA0109001191
B1214113744478N00339832WA0109401193
B1214123744475N00339838WA0109701196
B1214133744472N00339845WA0109901198
B1214143744469N00339851WA0110001199
B1214153744467N00339857WA0110001200
B1214163744465N00339864WA0110001200
B1214173744462N00339871WA0110001200
B1214183744459N00339880WA0110001200
B1214193744456N00339887WA0110201201
B1214203744454N00339894WA0110401203
B1214213744453N00339901WA0110801206
B1214223744453N00339906WA0111001208
B1214233744454N00339912WA0111201210
B1214243744456N00339917WA0111201212
B1214253744458N00339921WA0111501214
B1214263744461N00339923WA0111601215
B1214273744464N00339922WA0111701217
B1214283744467N00339921WA0111901217
B1214293744468N00339918WA0112001219
B1214303744468N00339913WA0112201220
B1214313744467N00339908WA0112301221
B1214323744464N00339903WA0112401222
B1214333744460N00339898WA0112501224
B1214343744454N00339893WA0112701225
B1214353744447N00339890WA0113001227
B1214363744440N00339890WA0113301230
B1214373744434N00339893WA0113701233
B1214383744428N00339897WA0113801236
B1214393744422N00339902WA0114001238
B1214403744417N00339908WA0114301241
B1214413744413N00339914WA0114701243
B1214423744411N00339920WA0114901246
B1214433744409N00339926WA0115201249
B1214443744409N00339932WA0115201250
B1214453744409N00339938WA0115301251
B1214463744410N00339944WA0115401253
B1214473744411N00339948WA0115501254
B1214483744412N00339952WA0115501255
B1214493744414N00339955WA0115401255
B1214503744417N00339958WA0115401255
B1214513744420N00339960WA0115401254
B1214523744423N00339962WA0115401254
B1214533744426N00339964WA0115501254
B1214543744429N00339966WA0115601255
B1214553744432N00339967WA0115701257
B1214563744434N00339968WA0115901258
B1214573744436N00339968WA0116001259
B1214583744438N00339967WA0116101260
B1214593744441N00339966WA0115801260
B1215003744443N00339966WA0115801260
B1215013744446N00339965WA0116101261
B1215023744449N00339963WA0116201261
B1215033744451N00339959WA0116201262
B1215043744454N00339955WA0116301263
B1215053744456N00339951WA0116501265
B1215063744458N00339949WA0116701266
B1215073744460N00339947WA0116701268
B1215083744462N00339945WA0116701269
B1215093744465N00339942WA0116501269
B1215103744469N00339938WA0116701269
B1215113744472N00339934WA0116901270
B1215123744475N00339931WA0117501274
B1215133744477N00339929WA0117901278
B1215143744479N00339929WA0118101282
B1215153744481N00339928WA0118501285
B1215163744483N00339927WA0118801288
B1215173744485N00339925WA0118901290
B1215183744488N00339922WA0119201292
B1215193744489N00339917WA0119301294
B1215203744489N00339910WA0119501296
B1215213744485N00339903WA0119601298
B1215223744479N00339898WA0119701298
B1215233744472N00339895WA0119801299
B1215243744465N00339895WA0120101301
B1215253744459N00339898WA0120301303
B1215263744455N00339902WA0120601305
B1215273744452N00339907WA0120801308
B1215283744450N00339911WA0121001311
B1215293744450N00339915WA0121201313
B1215303744450N00339919WA0121001315
B1215313744452N00339923WA0121401317
B1215323744454N00339925WA0121701319
B1215333744456N00339927WA0122101322
B1215343744457N00339928WA0122201325
B1215353744460N00339927WA0122401327
B1215363744463N00339927WA0122401327
B1215373744467N00339926WA0122501328
B1215383744471N00339925WA0122601329
B1215393744475N00339923WA0122801330
B1215403744478N00339921WA0123001332
B1215413744482N00339919WA0123101333
B1215423744485N00339917WA0123301335
B1215433744489N00339916WA0123401336
B1215443744493N00339916WA0123501338
B1215453744497N00339915WA0123801340
B1215463744500N00339915WA0123901342
B1215473744504N00339915WA0124201344
B1215483744507N00339915WA0124501347
B1215493744510N00339914WA0124801350
B1215503744512N00339911WA0124901353
B1215513744515N00339905WA0125001354
B1215523744516N00339897WA0125101355
B1215533744517N00339889WA0125301355
B1215543744516N00339881WA0125401357
B1215553744513N00339874WA0125801361
B1215563744509N00339868WA0126001363
B1215573744505N00339863WA0126101366
B1215583744499N00339859WA0126001367
B1215593744493N00339856WA0126201368
B1216003744487N00339854WA0126401369
B1216013744480N00339855WA0126501369
B1216023744474N00339858WA0126601369
B1216033744469N00339862WA0126901371
B1216043744465N00339866WA0127201373
B1216053744462N00339869WA0127701376
B1216063744460N00339872WA0127901379
B1216073744458N00339875WA0128001381
B1216083744458N00339879WA0128001382
B1216093744459N00339884WA0128101381
B1216103744460N00339889WA0128301383
B1216113744461N00339893WA0128501385
B1216123744461N00339897WA0128701387
B1216133744461N00339901WA0128901389
B1216143744460N00339904WA0129001392
B1216153744459N00339908WA0129101393
B1216163744460N00339912WA0129001394
B1216173744463N00339915WA0128801394
B1216183744467N00339918WA0129101394
B1216193744470N00339920WA0129401395
B1216203744473N00339921WA0129601397
B1216213744475N00339922WA0129801400
B1216223744478N00339922WA0129901402
B1216233744481N00339922WA0129901403
B1216243744484N00339921WA0129901403
B1216253744489N00339920WA0129801403
B1216263744493N00339919WA0129901404
B1216273744497N00339918WA0130001405
B1216283744501N00339919WA0130101406
B1216293744504N00339922WA0130101407
B1216303744508N00339925WA0130201407
B1216313744512N00339927WA0130501409
B1216323744515N00339930WA0130701412
B1216333744518N00339932WA0130901414
B1216343744520N00339932WA0131101417
B1216353744523N00339931WA0131301419
B1216363744526N00339926WA0131301419
B1216373744528N00339920WA0131301419
B1216383744528N00339912WA0131201420
B1216393744526N00339904WA0131101421
B1216403744522N00339898WA0131201421
B1216413744517N00339892WA0131201421
B1216423744510N00339886WA0130701420
B1216433744503N00339880WA0130801420
B1216443744496N00339876WA0131201420
B1216453744490N00339874WA0131501421
B1216463744485N00339874WA0131701425
B1216473744480N00339875WA0131801426
B1216483744476N00339878WA0131501427
B1216493744471N00339881WA0131301427
B1216503744467N00339885WA0131601427
B1216513744464N00339889WA0131701427
B1216523744461N00339894WA0131801427
B1216533744460N00339899WA0131801428
B1216543744459N00339904WA0131601428
B1216553744459N00339909WA0132001428
B1216563744460N00339913WA0132201430
B1216573744460N00339917WA0132501432
B1216583744460N00339921WA0132701434
B1216593744461N00339925WA0132901436
B1217003744462N00339930WA0133001438
B1217013744463N00339936WA0133201440
B1217023744464N00339941WA0133501442
B1217033744465N00339947WA0133701444
B1217043744467N00339952WA0133901447
B1217053744469N00339956WA0134101449
B1217063744472N00339959WA0134301452
B1217073744475N00339960WA0134501454
B1217083744478N00339960WA0134601455
B1217093744480N00339957WA0134701456
B1217103744483N00339953WA0134701456
B1217113744485N00339947WA0134801457
B1217123744487N00339940WA0134801457
B1217133744487N00339933WA0135101458
B1217143744486N00339926WA0135401460
B1217153744484N00339921WA0135601462
B1217163744480N00339917WA0135601464
B1217173744475N00339914WA0135301464
B1217183744468N00339911WA0135101464
B1217193744461N00339911WA0135601464
B1217203744454N00339912WA0135601466
B1217213744448N00339916WA0135901467
B1217223744444N00339920WA0136101470
B1217233744440N00339924WA0136401472
B1217243744438N00339930WA0136501474
B1217253744438N00339936WA0136601475
B1217263744439N00339943WA0136601475
B1217273744441N00339949WA0136801476
B1217283744444N00339952WA0137101479
B1217293744447N00339953WA0137301482
B1217303744450N00339953WA0137401484
B1217313744453N00339952WA0137401484
B1217323744457N00339949WA0137301483
B1217333744461N00339946WA0137401482
B1217343744465N00339942WA0137501483
B1217353744467N00339938WA0137801484
B1217363744468N00339933WA0138001486
B1217373744468N00339927WA0138001487
B1217383744466N00339921WA0138001488
B1217393744462N00339916WA0138001488
B1217403744457N00339912WA0137601488
B1217413744450N00339910WA0137501488
B1217423744443N00339910WA0137901488
B1217433744436N00339912WA0138101489
B1217443744431N00339915WA0138201490
B1217453744427N00339920WA0138401492
B1217463744424N00339926WA0138401493
B1217473744421N00339932WA0138401493
B1217483744420N00339939WA0138601494
B1217493744419N00339947WA0138701495
B1217503744419N00339953WA0138901497
B1217513744419N00339959WA0139101500
B1217523744420N00339964WA0139201502
B1217533744421N00339968WA0139201503
B1217543744423N00339973WA0139101503
B1217553744426N00339977WA0138801503
B1217563744430N00339980WA0138901503
B1217573744433N00339983WA0139101503
B1217583744437N00339985WA0139301505
B1217593744440N00339987WA0139501507
B1218003744443N00339988WA0139501508
B1218013744446N00339989WA0139501507
B1218023744450N00339988WA0139401507
B1218033744453N00339986WA0139401506
B1218043744456N00339983WA0139401506
B1218053744459N00339980WA0139501507
B1218063744461N00339977WA0139501507
B1218073744462N00339972WA0139401507
B1218083744463N00339967WA0138801506
B1218093744465N00339960WA0138801504
B1218103744466N00339953WA0139001503
B1218113744467N00339945WA0139101503
B1218123744467N00339939WA0139401505
B1218133744468N00339934WA0139501507
B1218143744469N00339929WA0139601509
B1218153744471N00339927WA0139901511
B1218163744472N00339927WA0140101513
B1218173744474N00339930WA0139901514
B1218183744475N00339936WA0139501514
B1218193744475N00339944WA0139901514
B1218203744472N00339953WA0140001515
B1218213744468N00339960WA0140201516
B1218223744462N00339965WA0140401518
B1218233744456N00339969WA0140601519
B1218243744450N00339969WA0140701520
B1218253744443N00339967WA0140301520
B1218263744436N00339962WA0140001518
B1218273744431N00339954WA0140001517
B1218283744429N00339946WA0140101517
B1218293744429N00339938WA0140101517
B1218303744429N00339933WA0140401518
B1218313744428N00339930WA0140601520
B1218323744429N00339928WA0140601520
B1218333744431N00339925WA0140501520
B1218343744435N00339923WA0140301517
B1218353744438N00339919WA0140301515
B1218363744441N00339916WA0140501515
B1218373744443N00339913WA0140801517
B1218383744445N00339911WA0141001519
B1218393744447N00339911WA0141101521
B1218403744450N00339913WA0141101521
B1218413744454N00339916WA0140901521
B1218423744456N00339923WA0140701521
B1218433744457N00339929WA0140801521
B1218443744457N00339935WA0141001522
B1218453744455N00339941WA0141101523
B1218463744452N00339948WA0141301524
B1218473744447N00339954WA0141101524
B1218483744441N00339960WA0140701522
B1218493744435N00339965WA0140601522
B1218503744427N00339969WA0140601521
B1218513744418N00339973WA0140601520
B1218523744410N00339975WA0140701520
B1218533744403N00339976WA0140901522
B1218543744397N00339975WA0141001523
B1218553744391N00339972WA0140901523
B1218563744384N00339968WA0140601521
B1218573744378N00339962WA0140501519
B1218583744373N00339955WA0140401519
B1218593744370N00339949WA0140501519
B1219003744367N00339943WA0140501519
B1219013744366N00339937WA0140401518
B1219023744366N00339931WA0140101517
B1219033744366N00339924WA0140001515
B1219043744366N00339918WA0140101514
B1219053744368N00339912WA0140101514
B1219063744370N00339908WA0140101514
B1219073744373N00339905WA0140101513
B1219083744376N00339903WA0140101513
B1219093744378N00339900WA0140301513
B1219103744380N00339897WA0140301514
B1219113744382N00339894WA0140301515
B1219123744384N00339891WA0140501516
B1219133744385N00339889WA0140501517
B1219143744387N00339888WA0140401517
B1219153744389N00339886WA0140201517
B1219163744392N00339885WA0140001516
B1219173744396N00339883WA0139901514
B1219183744400N00339883WA0139901513
B1219193744404N00339884WA0140001513
B1219203744407N00339887WA0140101514
B1219213744409N00339890WA0140301515
B1219223744412N00339893WA0140401516
B1219233744415N00339895WA0140501517
B1219243744418N00339896WA0140501517
B1219253744422N00339897WA0140601518
B1219263744425N00339897WA0140801519
B1219273744428N00339897WA0141001520
B1219283744431N00339897WA0141201522
B1219293744433N00339896WA0141401525
B1219303744434N00339896WA0141601527
B1219313744436N00339895WA0141501528
B1219323744439N00339894WA0141401528
B1219333744442N00339892WA0141201527
B1219343744445N00339890WA0141401528
B1219353744448N00339887WA0141601529
B1219363744451N00339885WA0141901531
B1219373744454N00339885WA0142301534
B1219383744456N00339885WA0142501537
B1219393744458N00339885WA0142801539
B1219403744459N00339885WA0142801541
B1219413744461N00339884WA0142701540
B1219423744463N00339882WA0142301539
B1219433744466N00339881WA0142501539
B1219443744469N00339879WA0142401538
B1219453744470N00339877WA0142601540
B1219463744471N00339875WA0142701541
B1219473744472N00339874WA0142701541
B1219483744475N00339874WA0142301540
B1219493744479N00339876WA0142401538
B1219503744483N00339878WA0142701539
B1219513744484N00339880WA0143301540
B1219523744485N00339881WA0143701543
B1219533744485N00339881WA0143801546
B1219543744486N00339878WA0143701547
B1219553744486N00339873WA0143601546
B1219563744486N00339866WA0143701546
B1219573744483N00339858WA0143901548
B1219583744478N00339853WA0144301552
B1219593744472N00339850WA0144601556
B1220003744465N00339848WA0144801559
B1220013744457N00339849WA0144901561
B1220023744449N00339851WA0145101562
B1220033744442N00339856WA0145301564
B1220043744436N00339862WA0145501565
B1220053744431N00339868WA0145901568
B1220063744429N00339875WA0146001571
B1220073744427N00339882WA0146101573
B1220083744427N00339888WA0146101575
B1220093744428N00339893WA0146101576
B1220103744431N00339896WA0146101575
B1220113744434N00339897WA0146101574
B1220123744437N00339898WA0146201575
B1220133744439N00339899WA0146501577
B1220143744441N00339901WA0146701579
B1220153744442N00339903WA0146901580
B1220163744444N00339905WA0147101582
B1220173744446N00339904WA0147201584
B1220183744447N00339902WA0147401586
B1220193744448N00339898WA0147501587
B1220203744446N00339892WA0147501588
B1220213744443N00339885WA0147401588
B1220223744436N00339879WA0147501587
B1220233744429N00339875WA0147701589
B1220243744420N00339875WA0148001592
B1220253744413N00339876WA0148301595
B1220263744407N00339879WA0148601598
B1220273744401N00339883WA0148701600
B1220283744396N00339889WA0148901602
B1220293744391N00339896WA0148801602
B1220303744386N00339904WA0148801602
B1220313744383N00339913WA0148801602
B1220323744381N00339921WA0148901604
B1220333744380N00339928WA0149101606
B1220343744380N00339934WA0149001607
B1220353744380N00339939WA0148701607
B1220363744382N00339944WA0148601605
B1220373744385N00339948WA0148501602
B1220383744389N00339951WA0148301599
B1220393744392N00339952WA0148101597
B1220403744396N00339951WA0147801594
B1220413744399N00339948WA0147601592
B1220423744401N00339945WA0147401589
B1220433744403N00339941WA0147101587
B1220443744405N00339936WA0146901585
B1220453744405N00339929WA0146801583
B1220463744404N00339921WA0146501580
B1220473744401N00339913WA0146401579
B1220483744397N00339907WA0146501579
B1220493744392N00339901WA0146601579
B1220503744387N00339896WA0146701581
B1220513744382N00339892WA0146901583
B1220523744378N00339888WA0147201586
B1220533744373N00339885WA0147301588
B1220543744367N00339883WA0147401589
B1220553744360N00339881WA0147401590
B1220563744352N00339881WA0147401591
B1220573744344N00339882WA0147601592
B1220583744337N00339884WA0147801594
B1220593744330N00339888WA0148001595
B1221003744323N00339892WA0148001597
B1221013744317N00339897WA0148001597
B1221023744312N00339904WA0147901596
B1221033744307N00339911WA0147901595
B1221043744302N00339919WA0147901595
B1221053744297N00339926WA0148001595
B1221063744292N00339932WA0148101596
B1221073744288N00339939WA0148201597
B1221083744284N00339947WA0148301597
B1221093744280N00339954WA0148401598
B1221103744276N00339962WA0148501599
B1221113744273N00339970WA0148501600
B1221123744272N00339977WA0148201599
B1221133744272N00339984WA0148001597
B1221143744274N00339990WA0147401595
B1221153744277N00339994WA0147301593
B1221163744279N00339996WA0147301591
B1221173744282N00339998WA0147101589
B1221183744284N00340000WA0146801587
B1221193744287N00340001WA0146501583
B1221203744291N00340002WA0146101580
B1221213744295N00340002WA0145901576
B1221223744299N00340000WA0145701574
B1221233744302N00339999WA0145601572
B1221243744305N00339999WA0145401571
B1221253744307N00339998WA0145201569
B1221263744310N00339996WA0144701566
B1221273744313N00339994WA0144301562
B1221283744316N00339991WA0144201559
B1221293744319N00339987WA0144001557
B1221303744321N00339984WA0143901555
B1221313744324N00339980WA0143701552
B1221323744327N00339977WA0143401550
B1221333744330N00339974WA0143101547
B1221343744333N00339971WA0142901544
B1221353744335N00339967WA0142701541
B1221363744338N00339963WA0142501539
B1221373744340N00339959WA0142301538
B1221383744343N00339956WA0142101536
B1221393744346N00339953WA0141901534
B1221403744349N00339949WA0141701531
B1221413744351N00339945WA0141501529
B1221423744353N00339941WA0141501528
B1221433744355N00339937WA0141401527
B1221443744356N00339933WA0141001526
B1221453744358N00339929WA0140601523
B1221463744360N00339924WA0140301520
B1221473744362N00339918WA0140101517
B1221483744364N00339913WA0140201515
B1221493744366N00339909WA0140001513
B1221503744368N00339905WA0139901512
B1221513744370N00339900WA0139801511
B1221523744371N00339895WA0139601510
B1221533744373N00339890WA0139501508
B1221543744374N00339885WA0139301506
B1221553744376N00339880WA0139101505
B1221563744378N00339875WA0139001503
B1221573744380N00339871WA0138801501
B1221583744382N00339867WA0138701499
B1221593744384N00339863WA0138501498
B1222003744386N00339860WA0138301496
B1222013744389N00339857WA0138101494
B1222023744392N00339853WA0137801492
B1222033744394N00339849WA0137701491
B1222043744397N00339845WA0137501489
B1222053744400N00339841WA0137501487
B1222063744403N00339840WA0137201486
B1222073744406N00339840WA0137001484
B1222083744408N00339840WA0136801482
B1222093744411N00339839WA0136601480
B1222103744414N00339838WA0136401478
B1222113744417N00339839WA0136201475
B1222123744420N00339840WA0135901473
B1222133744422N00339842WA0135701471
B1222143744425N00339842WA0135701469
B1222153744427N00339842WA0135601468
B1222163744430N00339842WA0135301467
B1222173744433N00339842WA0135001465
B1222183744436N00339844WA0134701462
B1222193744439N00339847WA0134601459
B1222203744442N00339849WA0134501458
B1222213744445N00339851WA0134601456
B1222223744449N00339853WA0134501455
B1222233744452N00339855WA0134501456
B1222243744456N00339856WA0134901458
B1222253744458N00339858WA0135201460
B1222263744460N00339858WA0135601463
B1222273744461N00339856WA0135601466
B1222283744463N00339850WA0135601466
B1222293744465N00339842WA0135301466
B1222303744465N00339832WA0135201465
B1222313744462N00339822WA0135201465
B1222323744457N00339813WA0135201465
B1222333744450N00339808WA0135201466
B1222343744444N00339804WA0135201466
B1222353744437N00339802WA0135101466
B1222363744431N00339801WA0134801465
B1222373744424N00339802WA0134501463
B1222383744417N00339806WA0134301459
B1222393744411N00339812WA0134001455
B1222403744405N00339818WA0133801452
B1222413744401N00339824WA0133801451
B1222423744397N00339829WA0133901450
B1222433744395N00339834WA0133801450
B1222443744392N00339841WA0133701449
B1222453744391N00339848WA0133701448
B1222463744390N00339855WA0134001450
B1222473744390N00339860WA0134401452
B1222483744391N00339864WA0134901455
B1222493744392N00339866WA0135201458
B1222503744393N00339867WA0135301461
B1222513744395N00339866WA0135201461
B1222523744398N00339865WA0135001461
B1222533744401N00339861WA0134901458
B1222543744404N00339854WA0134801457
B1222553744404N00339845WA0134701457
B1222563744403N00339836WA0134801456
B1222573744401N00339827WA0135001456
B1222583744396N00339820WA0135101457
B1222593744391N00339814WA0135301459
B1223003744384N00339812WA0135201460
B1223013744377N00339811WA0135101460
B1223023744370N00339813WA0135001460
B1223033744364N00339817WA0135001460
B1223043744359N00339823WA0135201460
B1223053744355N00339828WA0135501460
B1223063744352N00339832WA0135601463
B1223073744349N00339835WA0135901467
B1223083744347N00339839WA0136001469
B1223093744345N00339843WA0136101470
B1223103744344N00339847WA0135801470
B1223113744344N00339852WA0135601470
B1223123744345N00339855WA0135601471
B1223133744347N00339858WA0135601471
B1223143744348N00339860WA0135401470
B1223153744350N00339863WA0135201468
B1223163744351N00339866WA0135101466
B1223173744352N00339869WA0135101465
B1223183744354N00339870WA0135001465
B1223193744355N00339872WA0134901463
B1223203744356N00339874WA0134601461
B1223213744357N00339877WA0134201459
B1223223744359N00339880WA0134101456
B1223233744361N00339883WA0134001454
B1223243744363N00339886WA0134001453
B1223253744365N00339888WA0134101453
B1223263744367N00339889WA0134101453
B1223273744369N00339890WA0134001452
B1223283744372N00339891WA0133801451
B1223293744375N00339890WA0133701450
B1223303744378N00339889WA0133801449
B1223313744382N00339887WA0134001450
B1223323744384N00339887WA0134301453
B1223333744386N00339887WA0134501455
B1223343744387N00339887WA0134701457
B1223353744389N00339887WA0134801459
B1223363744391N00339886WA0134901460
B1223373744393N00339886WA0134701460
B1223383744396N00339885WA0134701460
B1223393744399N00339884WA0134701461
B1223403744403N00339883WA0134901461
B1223413744406N00339882WA0135301463
B1223423744409N00339881WA0135601466
B1223433744412N00339880WA0135801469
B1223443744414N00339878WA0136101472
B1223453744417N00339877WA0136301474
B1223463744420N00339875WA0136501476
B1223473744422N00339874WA0136601478
B1223483744425N00339872WA0136901480
B1223493744427N00339871WA0137001481
B1223503744430N00339869WA0137101483
B1223513744432N00339867WA0137201484
B1223523744435N00339864WA0137201485
B1223533744438N00339862WA0137001485
B1223543744441N00339860WA0137101486
B1223553744444N00339859WA0137401487
B1223563744447N00339857WA0137401487
B1223573744450N00339855WA0137401488
B1223583744454N00339852WA0137301488
B1223593744458N00339848WA0137401488
B1224003744462N00339844WA0137401488
B1224013744466N00339840WA0137501488
B1224023744471N00339837WA0137501489
B1224033744475N00339834WA0137501489
B1224043744479N00339832WA0137501489
B1224053744482N00339830WA0137301488
B1224063744485N00339825WA0137101485
B1224073744490N00339819WA0136801483
B1224083744494N00339811WA0136601481
B1224093744499N00339806WA0136701480
B1224103744503N00339802WA0136801480
B1224113744507N00339799WA0136701480
B1224123744511N00339795WA0136401479
B1224133744515N00339790WA0136101475
B1224143744519N00339784WA0135801472
B1224153744523N00339778WA0135601469
B1224163744527N00339773WA0135501467
B1224173744531N00339768WA0135401465
B1224183744535N00339764WA0135101464
B1224193744540N00339759WA0134601461
B1224203744545N00339753WA0134301456
B1224213744550N00339747WA0133801452
B1224223744555N00339740WA0133501447
B1224233744559N00339732WA0133001444
B1224243744563N00339726WA0132801441
B1224253744566N00339719WA0132601438
B1224263744570N00339714WA0132101435
B1224273744574N00339708WA0131801431
B1224283744579N00339701WA0131201425
B1224293744584N00339694WA0130701420
B1224303744588N00339687WA0130401416
B1224313744593N00339680WA0130201412
B1224323744599N00339674WA0129701409
B1224333744604N00339667WA0129301406
B1224343744610N00339660WA0129201402
B1224353744615N00339654WA0129001400
B1224363744619N00339648WA0128901399
B1224373744624N00339643WA0128701397
B1224383744628N00339638WA0128501395
B1224393744633N00339633WA0128101392
B1224403744638N00339627WA0127701388
B1224413744644N00339622WA0127301384
B1224423744650N00339617WA0127001381
B1224433744655N00339613WA0126901378
B1224443744659N00339609WA0126701376
B1224453744664N00339604WA0126401374
B1224463744669N00339600WA0126001371
B1224473744674N00339597WA0125601367
B1224483744681N00339595WA0125301363
B1224493744687N00339592WA0125201360
B1224503744693N00339588WA0125101359
B1224513744698N00339584WA0125101358
B1224523744702N00339581WA0125201358
B1224533744705N00339578WA0125201358
B1224543744708N00339575WA0124901358
B1224553744712N00339570WA0124301355
B1224563744715N00339563WA0124401353
B1224573744718N00339555WA0124301351
B1224583744720N00339547WA0124401351
B1224593744722N00339540WA0124601353
B1225003744723N00339534WA0124801354
B1225013744723N00339528WA0124701354
B1225023744724N00339520WA0124501354
B1225033744725N00339512WA0124301352
B1225043744726N00339504WA0124201351
B1225053744728N00339497WA0124401351
B1225063744729N00339489WA0124601353
B1225073744730N00339481WA0125201356
B1225083744732N00339476WA0125501360
B1225093744734N00339473WA0125501363
B1225103744737N00339473WA0125401364
B1225113744742N00339475WA0125501365
B1225123744746N00339479WA0125901367
B1225133744748N00339484WA0126401369
B1225143744749N00339488WA0126801374
B1225153744749N00339492WA0126901377
B1225163744748N00339497WA0127101378
B1225173744747N00339502WA0127201380
B1225183744743N00339507WA0126901381
B1225193744736N00339509WA0126401381
B1225203744728N00339511WA0126501380
B1225213744722N00339511WA0126901382
B1225223744718N00339512WA0127301385
B1225233744713N00339512WA0127301387
B1225243744710N00339510WA0127101387
B1225253744705N00339506WA0126801387
B1225263744699N00339498WA0126501385
B1225273744695N00339488WA0126401383
B1225283744694N00339477WA0126501382
B1225293744694N00339469WA0126901382
B1225303744694N00339462WA0127501386
B1225313744695N00339457WA0128001392
B1225323744696N00339453WA0128401397
B1225333744699N00339449WA0128601400
B1225343744702N00339447WA0129001402
B1225353744705N00339447WA0129101404
B1225363744708N00339450WA0129401406
B1225373744710N00339456WA0129501408
B1225383744709N00339463WA0129701409
B1225393744706N00339469WA0130001411
B1225403744700N00339473WA0130301414
B1225413744693N00339476WA0130701417
B1225423744685N00339475WA0130901419
B1225433744677N00339470WA0131001421
B1225443744671N00339462WA0131101422
B1225453744668N00339453WA0131101423
B1225463744667N00339445WA0131701426
B1225473744667N00339438WA0132101429
B1225483744668N00339434WA0132501432
B1225493744670N00339431WA0132701435
B1225503744673N00339428WA0132901437
B1225513744676N00339427WA0133101439
B1225523744680N00339427WA0133401442
B1225533744682N00339428WA0133701445
B1225543744685N00339428WA0134001449
B1225553744688N00339429WA0134301452
B1225563744691N00339431WA0134501454
B1225573744694N00339433WA0134801456
B1225583744697N00339437WA0135001458
B1225593744698N00339442WA0135001460
B1226003744697N00339448WA0134901462
B1226013744694N00339454WA0134601463
B1226023744688N00339459WA0134501461
B1226033744680N00339461WA0134701460
B1226043744672N00339460WA0134701459
B1226053744665N00339455WA0134601459
B1226063744658N00339449WA0134801458
B1226073744652N00339441WA0135101459
B1226083744648N00339434WA0135401461
B1226093744645N00339427WA0135801467
B1226103744644N00339421WA0136101470
B1226113744643N00339415WA0136201472
B1226123744645N00339410WA0136401474
B1226133744649N00339406WA0136501476
B1226143744653N00339405WA0136801478
B1226153744656N00339405WA0137201481
B1226163744658N00339407WA0137501484
B1226173744658N00339411WA0137501487
B1226183744657N00339418WA0137201488
B1226193744654N00339424WA0137501488
B1226203744649N00339430WA0137601489
B1226213744641N00339432WA0137701489
B1226223744633N00339432WA0137801490
B1226233744625N00339430WA0138101492
B1226243744619N00339425WA0138701497
B1226253744615N00339419WA0139001500
B1226263744614N00339413WA0139101502
B1226273744614N00339406WA0139101502
B1226283744616N00339401WA0139301503
B1226293744618N00339395WA0139501505
B1226303744620N00339391WA0139701507
B1226313744622N00339387WA0139901509
B1226323744625N00339387WA0140101511
B1226333744629N00339388WA0140001511
B1226343744632N00339391WA0140001511
B1226353744634N00339394WA0140201513
B1226363744635N00339395WA0140301515
B1226373744636N00339399WA0140201516
B1226383744637N00339404WA0139901516
B1226393744637N00339411WA0139501515
B1226403744636N00339419WA0139501513
B1226413744636N00339425WA0139501512
B1226423744635N00339431WA0139701514
B1226433744634N00339436WA0139901515
B1226443744633N00339441WA0140001516
B1226453744632N00339445WA0140001516
B1226463744632N00339451WA0139801516
B1226473744632N00339457WA0139401515
B1226483744633N00339462WA0139701514
B1226493744633N00339468WA0139701514
B1226503744633N00339473WA0139701514
B1226513744634N00339478WA0139601514
B1226523744635N00339483WA0139601513
B1226533744636N00339488WA0139601512
B1226543744638N00339492WA0139501511
B1226553744640N00339495WA0139501510
B1226563744642N00339499WA0139401510
B1226573744645N00339502WA0139401509
B1226583744647N00339505WA0139401508
B1226593744650N00339508WA0139401507
B1227003744654N00339510WA0139501507
B1227013744657N00339511WA0139501507
B1227023744659N00339512WA0139501508
B1227033744662N00339513WA0139501507
B1227043744665N00339514WA0139101507
B1227053744669N00339515WA0138801506
B1227063744673N00339515WA0139101505
B1227073744677N00339516WA0139101504
B1227083744681N00339515WA0139101503
B1227093744685N00339515WA0139101504
B1227103744689N00339514WA0139201504
B1227113744693N00339513WA0139101504
B1227123744697N00339512WA0139101504
B1227133744702N00339511WA0138901503
B1227143744706N00339510WA0138901502
B1227153744711N00339509WA0138801502
B1227163744715N00339508WA0138801501
B1227173744719N00339506WA0138801501
B1227183744723N00339505WA0138901501
B1227193744727N00339503WA0139001502
B1227203744730N00339502WA0139001503
B1227213744733N00339502WA0138801503
B1227223744737N00339501WA0138801502
B1227233744741N00339499WA0138801502
B1227243744745N00339497WA0138701501
B1227253744749N00339495WA0138601501
B1227263744753N00339493WA0138701501
B1227273744757N00339491WA0138701502
B1227283744761N00339488WA0138701502
B1227293744764N00339486WA0138701502
B1227303744768N00339484WA0138701501
B1227313744773N00339482WA0138801501
B1227323744777N00339481WA0138701501
B1227333744781N00339480WA0138801502
B1227343744784N00339479WA0139001504
B1227353744788N00339479WA0139101505
B1227363744791N00339478WA0139101505
B1227373744795N00339477WA0139201505
B1227383744799N00339477WA0139201505
B1227393744803N00339477WA0139201505
B1227403744806N00339477WA0139401506
B1227413744810N00339477WA0139501507
B1227423744813N00339477WA0139601508
B1227433744817N00339478WA0139601509
B1227443744820N00339478WA0139801510
B1227453744823N00339480WA0139801511
B1227463744826N00339482WA0139701511
B1227473744830N00339484WA0139601510
B1227483744834N00339485WA0139601509
B1227493744839N00339486WA0139701509
B1227503744843N00339486WA0139601509
B1227513744846N00339486WA0139701510
B1227523744849N00339486WA0139701510
B1227533744853N00339486WA0139701510
B1227543744857N00339486WA0139701510
B1227553744860N00339485WA0139801510
B1227563744864N00339484WA0139801510
B1227573744868N00339483WA0139701510
B1227583744872N00339482WA0139601509
B1227593744876N00339480WA0139601509
B1228003744880N00339478WA0139601509
B1228013744883N00339476WA0139601509
B1228023744887N00339475WA0139501509
B1228033744891N00339474WA0139301508
B1228043744895N00339473WA0139201506
B1228053744901N00339472WA0139101504
B1228063744905N00339474WA0139101503
B1228073744909N00339478WA0139101503
B1228083744911N00339484WA0139101503
B1228093744913N00339490WA0139101503
B1228103744914N00339495WA0139101503
B1228113744916N00339501WA0139001503
B1228123744917N00339506WA0138901503
B1228133744919N00339512WA0138801502
B1228143744920N00339518WA0138701502
B1228153744920N00339524WA0138601501
B1228163744920N00339531WA0138501500
B1228173744920N00339537WA0138501499
B1228183744919N00339544WA0138401498
B1228193744919N00339551WA0138401497
B1228203744919N00339558WA0138501498
B1228213744918N00339564WA0138401498
B1228223744917N00339569WA0138501498
B1228233744917N00339575WA0138301498
B1228243744916N00339582WA0137701497
B1228253744915N00339588WA0137501495
B1228263744914N00339596WA0137501493
B1228273744914N00339603WA0137501491
B1228283744913N00339609WA0137401490
B1228293744912N00339616WA0137201488
B1228303744910N00339624WA0136901486
B1228313744908N00339631WA0136501483
B1228323744906N00339638WA0136301480
B1228333744904N00339644WA0136201478
B1228343744902N00339649WA0136001475
B1228353744900N00339655WA0135601472
B1228363744898N00339661WA0135401469
B1228373744895N00339668WA0135101466
B1228383744894N00339674WA0134801463
B1228393744892N00339680WA0134701462
B1228403744890N00339686WA0134801460
B1228413744888N00339692WA0134701459
B1228423744886N00339698WA0134701458
B1228433744884N00339704WA0134701458
B1228443744881N00339709WA0134601458
B1228453744878N00339713WA0134401457
B1228463744875N00339718WA0134301455
B1228473744872N00339723WA0134101454
B1228483744869N00339728WA0134101453
B1228493744866N00339732WA0134001452
B1228503744863N00339735WA0133901451
B1228513744859N00339739WA0133701449
B1228523744856N00339745WA0133401447
B1228533744853N00339751WA0133301444
B1228543744851N00339756WA0133301443
B1228553744848N00339760WA0133301444
B1228563744845N00339763WA0133201444
B1228573744841N00339767WA0133101443
B1228583744837N00339772WA0132901441
B1228593744833N00339777WA0132801439
B1229003744830N00339783WA0132701438
B1229013744828N00339788WA0132701437
B1229023744825N00339793WA0132701436
B1229033744823N00339797WA0132501436
B1229043744820N00339801WA0132301435
B1229053744817N00339806WA0132101433
B1229063744815N00339812WA0131901430
B1229073744812N00339818WA0131701428
B1229083744809N00339824WA0131601426
B1229093744806N00339829WA0131501426
B1229103744803N00339834WA0131401425
B1229113744800N00339838WA0131301424
B1229123744797N00339844WA0131101422
B1229133744794N00339849WA0130901420
B1229143744791N00339855WA0130701418
B1229153744788N00339860WA0130501416
B1229163744785N00339866WA0130301415
B1229173744782N00339872WA0130201413
B1229183744778N00339878WA0130201412
B1229193744774N00339883WA0130201411
B1229203744770N00339888WA0130101411
B1229213744767N00339892WA0130001410
B1229223744763N00339897WA0129801409
B1229233744758N00339902WA0129601406
B1229243744752N00339907WA0129401403
B1229253744747N00339912WA0129301402
B1229263744742N00339917WA0129401401
B1229273744739N00339921WA0129501402
B1229283744736N00339923WA0129401403
B1229293744732N00339926WA0128901400
B1229303744728N00339930WA0128201397
B1229313744724N00339935WA0127901393
B1229323744719N00339940WA0127901389
B1229333744713N00339943WA0127701387
B1229343744707N00339946WA0127401384
B1229353744702N00339948WA0127301383
B1229363744697N00339951WA0127301381
B1229373744692N00339954WA0127101380
B1229383744687N00339956WA0127001378
B1229393744682N00339959WA0126901376
B1229403744678N00339961WA0126601374
B1229413744673N00339964WA0126001372
B1229423744668N00339967WA0125701370
B1229433744663N00339970WA0125401367
B1229443744658N00339973WA0125301365
B1229453744653N00339976WA0125301363
B1229463744648N00339979WA0125101360
B1229473744643N00339983WA0124801358
B1229483744638N00339987WA0124601355
B1229493744633N00339991WA0124401353
B1229503744628N00339995WA0124301351
B1229513744623N00340000WA0124101349
B1229523744618N00340004WA0123901347
B1229533744613N00340008WA0123801346
B1229543744609N00340013WA0123801344
B1229553744605N00340018WA0123601343
B1229563744600N00340023WA0123501341
B1229573744595N00340028WA0123501341
B1229583744590N00340033WA0123601340
B1229593744585N00340038WA0123501339
B1230003744580N00340044WA0123501340
B1230013744575N00340050WA0123501339
B1230023744569N00340056WA0123501339
B1230033744565N00340064WA0123601339
B1230043744560N00340071WA0123601339
B1230053744556N00340077WA0123801341
B1230063744552N00340082WA0124001343
B1230073744549N00340087WA0124201344
B1230083744546N00340092WA0124401346
B1230093744544N00340098WA0124601348
B1230103744543N00340104WA0125001351
B1230113744542N00340109WA0125401357
B1230123744542N00340112WA0125801362
B1230133744543N00340115WA0126201366
B1230143744545N00340116WA0126501369
B1230153744548N00340116WA0126701372
B1230163744552N00340115WA0126901374
B1230173744554N00340113WA0127201377
B1230183744556N00340109WA0127401380
B1230193744557N00340102WA0127601383
B1230203744557N00340094WA0127701385
B1230213744556N00340084WA0127801387
B1230223744552N00340075WA0128001388
B1230233744547N00340068WA0128201391
B1230243744541N00340064WA0128201392
B1230253744533N00340062WA0127901392
B1230263744526N00340061WA0127901392
B1230273744520N00340063WA0128101391
B1230283744514N00340066WA0128301391
B1230293744508N00340070WA0128301392
B1230303744503N00340074WA0128401392
B1230313744499N00340079WA0128501394
B1230323744494N00340085WA0129001396
B1230333744491N00340090WA0129301398
B1230343744489N00340095WA0129601400
B1230353744491N00340099WA0129701402
B1230363744494N00340100WA0129901405
B1230373744498N00340100WA0130001407
B1230383744501N00340097WA0130301409
B1230393744503N00340093WA0130601413
B1230403744504N00340088WA0130801416
B1230413744504N00340081WA0131101418
B1230423744501N00340074WA0131201419
B1230433744496N00340068WA0131301421
B1230443744490N00340062WA0131401423
B1230453744482N00340058WA0131401423
B1230463744474N00340056WA0131501424
B1230473744466N00340056WA0131901426
B1230483744459N00340058WA0132201430
B1230493744453N00340061WA0132401433
B1230503744447N00340064WA0132501435
B1230513744442N00340067WA0132701437
B1230523744436N00340071WA0132901439
B1230533744432N00340076WA0133101441
B1230543744428N00340080WA0133201442
B1230553744426N00340086WA0133401444
B1230563744425N00340091WA0133401444
B1230573744426N00340096WA0133701446
B1230583744427N00340098WA0133701448
B1230593744429N00340099WA0133701449
B1231003744431N00340099WA0133601449
B1231013744434N00340096WA0133401449
B1231023744436N00340093WA0133701448
B1231033744437N00340088WA0133901449
B1231043744437N00340083WA0134301451
B1231053744435N00340078WA0134601454
B1231063744433N00340072WA0134801456
B1231073744429N00340066WA0135001458
B1231083744423N00340059WA0135201460
B1231093744416N00340054WA0135301462
B1231103744407N00340050WA0135401464
B1231113744398N00340049WA0135401465
B1231123744389N00340048WA0135601467
B1231133744382N00340048WA0135801469
B1231143744375N00340047WA0135901471
B1231153744368N00340049WA0135801471
B1231163744359N00340052WA0135301470
B1231173744352N00340057WA0135601468
B1231183744345N00340062WA0135701468
B1231193744341N00340069WA0135901469
B1231203744339N00340074WA0136001472
B1231213744339N00340078WA0136001472
B1231223744340N00340081WA0136001472
B1231233744342N00340083WA0136101472
B1231243744344N00340085WA0136201473
B1231253744344N00340086WA0136501475
B1231263744344N00340088WA0136601477
B1231273744343N00340090WA0136601478
B1231283744342N00340093WA0136401477
B1231293744342N00340098WA0135701475
B1231303744344N00340104WA0135601474
B1231313744345N00340110WA0135701473
B1231323744345N00340114WA0136301474
B1231333744344N00340116WA0136801478
B1231343744343N00340117WA0137101482
B1231353744344N00340117WA0137201483
B1231363744346N00340114WA0137201483
B1231373744349N00340111WA0137201480
B1231383744350N00340106WA0137301481
B1231393744350N00340102WA0137401482
B1231403744349N00340097WA0137501484
B1231413744345N00340091WA0137501485
B1231423744341N00340084WA0137501486
B1231433744335N00340076WA0137501486
B1231443744329N00340071WA0137501487
B1231453744321N00340067WA0137501488
B1231463744313N00340066WA0137501488
B1231473744305N00340066WA0137301487
B1231483744296N00340069WA0137301485
B1231493744288N00340074WA0137001484
B1231503744282N00340080WA0136901483
B1231513744276N00340085WA0137201483
B1231523744271N00340091WA0137301483
B1231533744267N00340096WA0137301483
B1231543744263N00340101WA0137201483
B1231553744260N00340107WA0137101482
B1231563744258N00340115WA0137201481
B1231573744256N00340121WA0137301483
B1231583744255N00340127WA0137501485
B1231593744254N00340132WA0137701487
B1232003744253N00340136WA0138001489
B1232013744253N00340139WA0138101491
B1232023744254N00340142WA0138201492
B1232033744255N00340146WA0138301493
B1232043744256N00340149WA0138401494
B1232053744257N00340153WA0138501496
B1232063744257N00340157WA0138601497
B1232073744258N00340161WA0138601499
B1232083744259N00340165WA0138601499
B1232093744260N00340169WA0138601499
B1232103744261N00340174WA0138701499
B1232113744263N00340179WA0138801500
B1232123744264N00340183WA0139001501
B1232133744264N00340186WA0139001503
B1232143744265N00340190WA0139101504
B1232153744266N00340193WA0139101504
B1232163744267N00340196WA0139201505
B1232173744269N00340199WA0139201505
B1232183744270N00340202WA0139301506
B1232193744272N00340205WA0139301506
B1232203744273N00340207WA0139401507
B1232213744275N00340210WA0139501507
B1232223744276N00340213WA0139501508
B1232233744277N00340216WA0139501509
B1232243744279N00340218WA0139501509
B1232253744281N00340220WA0139501509
B1232263744283N00340221WA0139501509
B1232273744286N00340220WA0139601510
B1232283744288N00340219WA0139501510
B1232293744290N00340215WA0139501511
B1232303744291N00340211WA0139801511
B1232313744291N00340205WA0139801511
B1232323744291N00340199WA0139901512
B1232333744289N00340192WA0139901512
B1232343744286N00340185WA0139901513
B1232353744280N00340178WA0139601513
B1232363744274N00340173WA0139501513
B1232373744267N00340169WA0139901513
B1232383744259N00340166WA0139901513
B1232393744252N00340164WA0140001513
B1232403744245N00340162WA0140101514
B1232413744238N00340161WA0140301515
B1232423744232N00340162WA0140401517
B1232433744227N00340165WA0140401518
B1232443744221N00340168WA0140201518
B1232453744216N00340174WA0140001518
B1232463744210N00340180WA0140001518
B1232473744205N00340187WA0140201518
B1232483744201N00340194WA0140401518
B1232493744197N00340200WA0140601520
B1232503744194N00340204WA0140901523
B1232513744191N00340206WA0141001524
B1232523744189N00340210WA0140801524
B1232533744187N00340216WA0140401522
B1232543744186N00340222WA0140201521
B1232553744185N00340229WA0140201520
B1232563744185N00340235WA0140201519
B1232573744184N00340240WA0140201519
B1232583744184N00340244WA0140101519
B1232593744185N00340247WA0140001518
B1233003744187N00340250WA0139901516
B1233013744189N00340253WA0139701515
B1233023744191N00340255WA0139701514
B1233033744194N00340255WA0139601513
B1233043744197N00340256WA0139701512
B1233053744199N00340255WA0139701513
B1233063744202N00340255WA0139801513
B1233073744204N00340254WA0139801513
B1233083744206N00340253WA0139901513
B1233093744209N00340254WA0139801513
B1233103744211N00340255WA0139801512
B1233113744213N00340256WA0139801512
B1233123744215N00340258WA0139901513
B1233133744217N00340260WA0140001513
B1233143744219N00340261WA0139801513
B1233153744222N00340263WA0139701512
B1233163744225N00340267WA0139601511
B1233173744228N00340270WA0139501509
B1233183744232N00340274WA0139501508
B1233193744235N00340276WA0139501508
B1233203744238N00340278WA0139501507
B1233213744241N00340279WA0139501506
B1233223744244N00340281WA0139101505
B1233233744247N00340284WA0138801504
B1233243744251N00340287WA0139101503
B1233253744254N00340289WA0139001502
B1233263744257N00340292WA0138901502
B1233273744259N00340296WA0138701501
B1233283744260N00340300WA0138501499
B1233293744261N00340306WA0138101496
B1233303744263N00340310WA0137901494
B1233313744264N00340315WA0137601492
B1233323744266N00340321WA0137501490
B1233333744267N00340327WA0137301488
B1233343744267N00340334WA0136901486
B1233353744268N00340341WA0136601483
B1233363744270N00340348WA0136201480
B1233373744272N00340355WA0135901476
B1233383744275N00340362WA0135701473
B1233393744276N00340369WA0135501470
B1233403744278N00340376WA0135201467
B1233413744279N00340382WA0134901464
B1233423744281N00340389WA0134401461
B1233433744284N00340396WA0134001457
B1233443744287N00340403WA0133901454
B1233453744288N00340411WA0133701452
B1233463744290N00340418WA0133601450
B1233473744291N00340425WA0133501448
B1233483744292N00340430WA0133401447
B1233493744295N00340435WA0133301446
B1233503744297N00340441WA0133001444
B1233513744298N00340449WA0132801442
B1233523744299N00340456WA0132801440
B1233533744300N00340464WA0132701439
B1233543744301N00340470WA0132701438
B1233553744303N00340476WA0132501438
B1233563744304N00340481WA0132201436
B1233573744306N00340488WA0132001433
B1233583744307N00340495WA0131801431
B1233593744309N00340502WA0131601428
B1234003744311N00340508WA0131401426
B1234013744313N00340514WA0131101423
B1234023744316N00340519WA0130701421
B1234033744318N00340526WA0130301418
B1234043744320N00340533WA0129901413
B1234053744322N00340541WA0129701410
B1234063744324N00340549WA0129601408
B1234073744326N00340555WA0129501407
B1234083744328N00340561WA0129301405
B1234093744330N00340566WA0129201404
B1234103744332N00340572WA0128901402
B1234113744334N00340578WA0128501399
B1234123744336N00340584WA0128401396
B1234133744339N00340590WA0128201394
B1234143744341N00340595WA0127901392
B1234153744344N00340601WA0127701389
B1234163744347N00340607WA0127301387
B1234173744350N00340613WA0126901383
B1234183744353N00340619WA0126701380
B1234193744356N00340626WA0126601377
B1234203744359N00340632WA0126301374
B1234213744362N00340639WA0126001372
B1234223744365N00340646WA0125601368
B1234233744369N00340653WA0125401365
B1234243744373N00340659WA0125301363
B1234253744376N00340665WA0125101361
B1234263744379N00340670WA0124801359
B1234273744382N00340676WA0124501356
B1234283744386N00340681WA0124101353
B1234293744391N00340687WA0123801349
B1234303744395N00340693WA0123501345
B1234313744399N00340699WA0123201342
B1234323744403N00340705WA0123001340
B1234333744407N00340712WA0122701337
B1234343744410N00340719WA0122501334
B1234353744414N00340726WA0122301332
B1234363744418N00340732WA0122101329
B1234373744422N00340740WA0121801326
B1234383744425N00340748WA0121401324
B1234393744427N00340757WA0121301321
B1234403744430N00340765WA0121301319
B1234413744433N00340771WA0121301319
B1234423744436N00340776WA0121101318
B1234433744438N00340782WA0120801316
B1234443744441N00340789WA0120501313
B1234453744445N00340797WA0120201310
B1234463744449N00340804WA0120101308
B1234473744454N00340809WA0120201307
B1234483744457N00340814WA0120501307
B1234493744458N00340818WA0120401307
B1234503744459N00340822WA0120201307
B1234513744461N00340827WA0120001305
B1234523744464N00340832WA0119601303
B1234533744467N00340838WA0119401301
B1234543744470N00340845WA0119301299
B1234553744472N00340851WA0119401300
B1234563744473N00340856WA0119601300
B1234573744474N00340860WA0119401301
B1234583744477N00340864WA0119101301
B1234593744479N00340870WA0118901300
B1235003744482N00340876WA0119001298
B1235013744484N00340882WA0119001297
B1235023744485N00340888WA0119101296
B1235033744487N00340894WA0119101296
B1235043744490N00340899WA0119201296
B1235053744492N00340904WA0119001296
B1235063744496N00340908WA0118801294
B1235073744500N00340912WA0118601292
B1235083744504N00340915WA0118501291
B1235093744507N00340918WA0118701292
B1235103744509N00340921WA0118701292
B1235113744510N00340925WA0118401291
B1235123744513N00340928WA0118201289
B1235133744515N00340932WA0118101286
B1235143744518N00340937WA0118001285
B1235153744520N00340941WA0117901284
B1235163744522N00340946WA0117901284
B1235173744522N00340951WA0117801283
B1235183744523N00340956WA0117701281
B1235193744524N00340961WA0117701280
B1235203744525N00340965WA0117601279
B1235213744526N00340969WA0117501279
B1235223744527N00340974WA0117501278
B1235233744528N00340980WA0117501276
B1235243744530N00340986WA0117501277
B1235253744531N00340991WA0117801278
B1235263744532N00340995WA0118001281
B1235273744533N00341000WA0118101283
B1235283744534N00341006WA0118201283
B1235293744535N00341013WA0118301283
B1235303744537N00341019WA0118401285
B1235313744539N00341024WA0118601287
B1235323744540N00341028WA0118701289
B1235333744541N00341033WA0118801291
B1235343744542N00341039WA0118801292
B1235353744544N00341046WA0118801293
B1235363744545N00341053WA0118901293
B1235373744546N00341060WA0119101295
B1235383744546N00341066WA0119301297
B1235393744546N00341071WA0119401299
B1235403744546N00341077WA0119301300
B1235413744547N00341082WA0119501300
B1235423744547N00341087WA0119601301
B1235433744548N00341092WA0119701302
B1235443744548N00341096WA0119801304
B1235453744548N00341101WA0119801305
B1235463744548N00341106WA0119701305
B1235473744548N00341113WA0119401304
B1235483744549N00341119WA0119501303
B1235493744549N00341126WA0119701304
B1235503744550N00341132WA0119901305
B1235513744551N00341138WA0120101307
B1235523744553N00341143WA0120301308
B1235533744554N00341149WA0120501310
B1235543744555N00341153WA0120601311
B1235553744558N00341157WA0120601312
B1235563744563N00341159WA0120501312
B1235573744569N00341159WA0120401311
B1235583744575N00341156WA0120301308
B1235593744580N00341150WA0120501308
B1236003744582N00341143WA0120701309
B1236013744582N00341137WA0120901310
B1236023744580N00341131WA0121101312
B1236033744577N00341126WA0121101314
B1236043744573N00341122WA0121201315
B1236053744568N00341120WA0121001315
B1236063744562N00341120WA0121101316
B1236073744556N00341122WA0121301317
B1236083744551N00341125WA0121401318
B1236093744546N00341129WA0121501319
B1236103744542N00341134WA0121701320
B1236113744540N00341140WA0121801322
B1236123744538N00341145WA0122001323
B1236133744538N00341151WA0122101325
B1236143744537N00341156WA0122201325
B1236153744537N00341161WA0122201326
B1236163744538N00341167WA0122001326
B1236173744539N00341172WA0121401326
B1236183744541N00341179WA0121201325
B1236193744543N00341185WA0121301324
B1236203744545N00341190WA0121101322
B1236213744547N00341196WA0121101320
B1236223744549N00341201WA0121101320
B1236233744551N00341205WA0121001319
B1236243744553N00341209WA0120901318
B1236253744556N00341214WA0120801317
B1236263744558N00341219WA0120501315
B1236273744560N00341225WA0120301313
B1236283744562N00341232WA0120101312
B1236293744563N00341237WA0120101310
B1236303744564N00341242WA0120001309
B1236313744565N00341248WA0119801308
B1236323744565N00341254WA0119701305
B1236333744566N00341260WA0119501303
B1236343744567N00341266WA0119301302
B1236353744567N00341271WA0119301301
B1236363744568N00341277WA0119201299
B1236373744568N00341282WA0119001297
B1236383744569N00341288WA0118701294
B1236393744569N00341295WA0118501292
B1236403744570N00341301WA0118301290
B1236413744570N00341306WA0118201288
B1236423744572N00341311WA0117901286
B1236433744573N00341316WA0117501284
B1236443744575N00341322WA0116901280
B1236453744576N00341328WA0116601277
B1236463744576N00341333WA0116501274
B1236473744577N00341338WA0116501272
B1236483744577N00341341WA0116201270
B1236493744578N00341345WA0115501267
B1236503744580N00341350WA0115001260
B1236513744582N00341356WA0114701255
B1236523744584N00341363WA0114501251
B1236533744585N00341369WA0114401248
B1236543744586N00341374WA0114301246
B1236553744587N00341379WA0114001243
B1236563744588N00341385WA0113701240
B1236573744589N00341392WA0113401237
B1236583744591N00341399WA0113401234
B1236593744592N00341406WA0113501232
B1237003744592N00341412WA0113601234
B1237013744592N00341416WA0113801235
B1237023744593N00341421WA0113801235
B1237033744594N00341426WA0113801235
B1237043744595N00341431WA0113801235
B1237053744595N00341436WA0113801235
B1237063744596N00341440WA0113901236
B1237073744597N00341445WA0113901237
B1237083744598N00341449WA0113901238
B1237093744599N00341453WA0113901238
B1237103744600N00341458WA0113701238
B1237113744600N00341464WA0113601238
B1237123744600N00341469WA0113801238
B1237133744601N00341474WA0113901238
B1237143744602N00341478WA0114101240
B1237153744602N00341481WA0114401242
B1237163744603N00341482WA0114601244
B1237173744603N00341484WA0114601245
B1237183744605N00341487WA0114401245
B1237193744607N00341490WA0114101245
B1237203744608N00341495WA0114001244
B1237213744608N00341500WA0114201243
B1237223744607N00341505WA0114201243
B1237233744606N00341509WA0114301243
B1237243744606N00341513WA0114301244
B1237253744607N00341517WA0114201243
B1237263744608N00341521WA0114001242
B1237273744608N00341527WA0113801241
B1237283744607N00341532WA0113801241
B1237293744605N00341538WA0114101241
B1237303744604N00341542WA0114201241
B1237313744603N00341546WA0114301242
B1237323744602N00341550WA0114401242
B1237333744602N00341554WA0114401243
B1237343744603N00341558WA0114301243
B1237353744606N00341560WA0114301243
B1237363744610N00341560WA0114301242
B1237373744613N00341559WA0114301242
B1237383744616N00341556WA0114501243
B1237393744618N00341553WA0114701244
B1237403744620N00341549WA0114701245
B1237413744621N00341544WA0114601245
B1237423744621N00341537WA0114401245
B1237433744618N00341528WA0113901244
B1237443744613N00341519WA0113901242
B1237453744606N00341513WA0113901239
B1237463744597N00341509WA0114101238
B1237473744590N00341509WA0114101238
B1237483744583N00341510WA0114101239
B1237493744577N00341513WA0113901239
B1237503744572N00341517WA0113701238
B1237513744567N00341523WA0113601237
B1237523744564N00341530WA0113601236
B1237533744562N00341537WA0113801237
B1237543744561N00341543WA0114101240
B1237553744559N00341547WA0114401243
B1237563744559N00341550WA0114601246
B1237573744559N00341554WA0114701248
B1237583744560N00341557WA0114801248
B1237593744562N00341560WA0114801249
B1238003744565N00341562WA0114801250
B1238013744568N00341563WA0115101251
B1238023744570N00341564WA0115301253
B1238033744572N00341566WA0115801256
B1238043744573N00341566WA0116201259
B1238053744574N00341566WA0116501262
B1238063744576N00341563WA0116601265
B1238073744578N00341559WA0116801266
B1238083744581N00341554WA0116901268
B1238093744582N00341549WA0117101270
B1238103744582N00341543WA0117401272
B1238113744581N00341536WA0117501274
B1238123744578N00341529WA0117401275
B1238133744572N00341522WA0117201273
B1238143744566N00341516WA0117501273
B1238153744560N00341513WA0117701274
B1238163744554N00341512WA0117801276
B1238173744549N00341512WA0117801277
B1238183744543N00341513WA0117701277
B1238193744537N00341516WA0117701277
B1238203744532N00341520WA0117601277
B1238213744527N00341525WA0117801277
B1238223744521N00341529WA0117901278
B1238233744515N00341531WA0118001280
B1238243744508N00341532WA0118301282
B1238253744503N00341534WA0118501283
B1238263744498N00341536WA0118601285
B1238273744494N00341541WA0118501285
B1238283744492N00341548WA0117901285
B1238293744490N00341555WA0117801284
B1238303744489N00341561WA0118101285
B1238313744489N00341565WA0118801288
B1238323744488N00341568WA0119101292
B1238333744489N00341570WA0119101294
B1238343744491N00341572WA0119101296
B1238353744493N00341574WA0119001295
B1238363744496N00341576WA0119001295
B1238373744499N00341579WA0119101296
B1238383744501N00341581WA0119301297
B1238393744504N00341583WA0119501299
B1238403744506N00341585WA0119801302
B1238413744509N00341586WA0120001304
B1238423744512N00341586WA0120201305
B1238433744515N00341585WA0120501307
B1238443744517N00341582WA0120601309
B1238453744518N00341577WA0120501310
B1238463744518N00341571WA0120401310
B1238473744519N00341564WA0120301310
B1238483744520N00341556WA0120401309
B1238493744520N00341547WA0120801310
B1238503744517N00341540WA0121101312
B1238513744512N00341534WA0121301316
B1238523744506N00341530WA0121201317
B1238533744499N00341527WA0121101319
B1238543744491N00341525WA0121601320
B1238553744484N00341525WA0121801321
B1238563744478N00341526WA0121901322
B1238573744472N00341530WA0121801323
B1238583744468N00341533WA0122001324
B1238593744464N00341537WA0122301326
B1239003744461N00341541WA0122401327
B1239013744459N00341545WA0122601329
B1239023744458N00341550WA0122501329
B1239033744458N00341555WA0122501329
B1239043744458N00341561WA0122701329
B1239053744458N00341566WA0123001331
B1239063744457N00341570WA0123201334
B1239073744457N00341573WA0123401336
B1239083744458N00341575WA0123501338
B1239093744460N00341576WA0123401338
B1239103744463N00341577WA0123301337
B1239113744466N00341575WA0123301336
B1239123744469N00341572WA0123301336
B1239133744471N00341567WA0123201337
B1239143744472N00341561WA0123001337
B1239153744471N00341554WA0123101337
B1239163744470N00341547WA0123301337
B1239173744467N00341539WA0123401337
B1239183744464N00341531WA0123601337
B1239193744459N00341524WA0123801340
B1239203744454N00341518WA0123901344
B1239213744449N00341514WA0124001346
B1239223744442N00341510WA0123901347
B1239233744435N00341508WA0123901348
B1239243744427N00341508WA0124201349
B1239253744420N00341510WA0124301350
B1239263744414N00341514WA0124501351
B1239273744410N00341518WA0124701352
B1239283744406N00341523WA0124801352
B1239293744403N00341528WA0124901354
B1239303744400N00341531WA0125001355
B1239313744398N00341535WA0125101356
B1239323744397N00341539WA0124801356
B1239333744396N00341544WA0124601355
B1239343744397N00341548WA0124601354
B1239353744398N00341553WA0124701353
B1239363744399N00341558WA0124801354
B1239373744400N00341561WA0125001355
B1239383744401N00341564WA0125101356
B1239393744403N00341567WA0125301357
B1239403744405N00341571WA0125401358
B1239413744406N00341575WA0125501360
B1239423744408N00341578WA0125601361
B1239433744410N00341581WA0125701363
B1239443744412N00341585WA0125701363
B1239453744415N00341589WA0125701363
B1239463744418N00341594WA0125801364
B1239473744421N00341599WA0126001365
B1239483744423N00341603WA0126301367
B1239493744424N00341607WA0126501369
B1239503744425N00341611WA0126701371
B1239513744427N00341614WA0126901373
B1239523744429N00341618WA0127001375
B1239533744432N00341620WA0127101376
B1239543744436N00341622WA0127201377
B1239553744442N00341622WA0127201377
B1239563744447N00341619WA0127401378
B1239573744451N00341615WA0127401379
B1239583744454N00341611WA0127601380
B1239593744455N00341605WA0127501381
B1240003744456N00341598WA0127201382
B1240013744456N00341590WA0127201381
B1240023744455N00341581WA0127401381
B1240033744453N00341573WA0127501381
B1240043744450N00341564WA0127701382
B1240053744449N00341556WA0127801383
B1240063744447N00341549WA0127901384
B1240073744444N00341542WA0128001385
B1240083744439N00341537WA0127501385
B1240093744432N00341534WA0127601384
B1240103744425N00341533WA0127901385
B1240113744418N00341533WA0128101386
B1240123744413N00341535WA0128301388
B1240133744410N00341537WA0128501391
B1240143744407N00341540WA0128501393
B1240153744405N00341544WA0128301394
B1240163744402N00341549WA0127901393
B1240173744400N00341555WA0128301393
B1240183744399N00341561WA0128501393
B1240193744398N00341567WA0128601394
B1240203744399N00341571WA0128901397
B1240213744400N00341575WA0129001398
B1240223744401N00341579WA0129001399
B1240233744403N00341582WA0129101400
B1240243744405N00341586WA0129201401
B1240253744408N00341589WA0129201402
B1240263744409N00341591WA0129401403
B1240273744412N00341594WA0129301403
B1240283744414N00341597WA0129101404
B1240293744417N00341600WA0129301404
B1240303744421N00341603WA0129201404
B1240313744425N00341605WA0129401405
B1240323744428N00341607WA0129501405
B1240333744431N00341608WA0129501405
B1240343744435N00341609WA0129401405
B1240353744438N00341611WA0129201403
B1240363744441N00341616WA0128901401
B1240373744443N00341620WA0128901399
B1240383744445N00341625WA0128801398
B1240393744447N00341629WA0128901398
B1240403744448N00341633WA0128801398
B1240413744450N00341636WA0128701397
B1240423744452N00341640WA0128601396
B1240433744454N00341645WA0128401395
B1240443744456N00341649WA0127801393
B1240453744458N00341654WA0127801391
B1240463744461N00341657WA0127901390
B1240473744463N00341661WA0127701389
B1240483744464N00341665WA0127301386
B1240493744466N00341670WA0127201383
B1240503744468N00341676WA0126901380
B1240513744470N00341681WA0126801377
B1240523744472N00341685WA0126701375
B1240533744474N00341689WA0126501374
B1240543744476N00341692WA0126301371
B1240553744478N00341696WA0126001369
B1240563744479N00341699WA0125601367
B1240573744481N00341704WA0125401364
B1240583744482N00341709WA0125301361
B1240593744483N00341713WA0125001358
B1241003744484N00341718WA0124701356
B1241013744485N00341723WA0124301354
B1241023744486N00341729WA0123801351
B1241033744487N00341735WA0123601347
B1241043744488N00341742WA0123401343
B1241053744490N00341749WA0123301341
B1241063744492N00341755WA0123401341
B1241073744493N00341760WA0123401341
B1241083744494N00341766WA0123401341
B1241093744496N00341771WA0123401340
B1241103744497N00341777WA0123101340
B1241113744499N00341782WA0123301339
B1241123744501N00341787WA0123401339
B1241133744502N00341791WA0123501339
B1241143744503N00341795WA0123501340
B1241153744505N00341800WA0123501341
B1241163744507N00341804WA0123501340
B1241173744508N00341808WA0123301340
B1241183744509N00341813WA0123201339
B1241193744509N00341818WA0123201338
B1241203744509N00341823WA0123201337
B1241213744510N00341827WA0123001337
B1241223744512N00341832WA0122801336
B1241233744513N00341837WA0122401334
B1241243744513N00341843WA0122201332
B1241253744513N00341849WA0122101330
B1241263744514N00341854WA0122001328
B1241273744514N00341860WA0121901326
B1241283744515N00341865WA0121901325
B1241293744516N00341870WA0121901324
B1241303744517N00341874WA0121801323
B1241313744519N00341878WA0121801323
B1241323744520N00341882WA0122001323
B1241333744520N00341887WA0122101323
B1241343744520N00341891WA0122201323
B1241353744520N00341896WA0122301324
B1241363744521N00341901WA0122401326
B1241373744521N00341905WA0122701327
B1241383744521N00341909WA0122901329
B1241393744520N00341913WA0123201331
B1241403744519N00341917WA0123401334
B1241413744518N00341921WA0123601337
B1241423744517N00341924WA0123801339
B1241433744517N00341925WA0123901341
B1241443744518N00341925WA0124001343
B1241453744520N00341923WA0123901342
B1241463744522N00341918WA0123801342
B1241473744522N00341911WA0124001342
B1241483744521N00341903WA0124301343
B1241493744518N00341895WA0124501345
B1241503744513N00341887WA0124701348
B1241513744507N00341881WA0125001350
B1241523744500N00341877WA0125201352
B1241533744493N00341874WA0125401354
B1241543744486N00341874WA0125301355
B1241553744479N00341877WA0125201356
B1241563744475N00341883WA0125101355
B1241573744471N00341890WA0125001354
B1241583744469N00341895WA0125301355
B1241593744467N00341899WA0125501357
B1242003744465N00341901WA0125701359
B1242013744464N00341904WA0125801361
B1242023744463N00341908WA0125601361
B1242033744463N00341914WA0125601360
B1242043744464N00341919WA0125801361
B1242053744464N00341923WA0126201363
B1242063744463N00341926WA0126601366
B1242073744462N00341928WA0126801370
B1242083744462N00341930WA0126901372
B1242093744463N00341930WA0126801372
B1242103744467N00341929WA0126701372
B1242113744471N00341925WA0126801372
B1242123744474N00341918WA0126901373
B1242133744474N00341910WA0127101374
B1242143744472N00341902WA0127201376
B1242153744469N00341894WA0127301377
B1242163744465N00341887WA0127201378
B1242173744460N00341879WA0127101378
B1242183744453N00341871WA0127101378
B1242193744445N00341865WA0127301378
B1242203744435N00341863WA0127401379
B1242213744427N00341863WA0127501381
B1242223744419N00341865WA0127701382
B1242233744412N00341869WA0127801383
B1242243744407N00341873WA0128101384
B1242253744402N00341877WA0128401386
B1242263744398N00341882WA0128501389
B1242273744395N00341887WA0128601391
B1242283744394N00341892WA0128701392
B1242293744393N00341898WA0128701393
B1242303744393N00341904WA0128801393
B1242313744393N00341909WA0128901394
B1242323744393N00341915WA0129001395
B1242333744393N00341922WA0129301396
B1242343744394N00341927WA0129601399
B1242353744395N00341931WA0130001402
B1242363744397N00341932WA0130201406
B1242373744400N00341932WA0130301409
B1242383744404N00341929WA0130401410
B1242393744408N00341924WA0130201409
B1242403744410N00341916WA0130301409
B1242413744409N00341908WA0130401410
B1242423744406N00341900WA0130601410
B1242433744403N00341893WA0130701412
B1242443744398N00341888WA0130701414
B1242453744392N00341884WA0130501415
B1242463744385N00341882WA0130801415
B1242473744378N00341881WA0131001416
B1242483744371N00341882WA0131201417
B1242493744365N00341885WA0131601420
B1242503744361N00341890WA0131901422
B1242513744358N00341896WA0132001425
B1242523744356N00341901WA0132301428
B1242533744355N00341906WA0132701432
B1242543744355N00341910WA0133001435
B1242553744356N00341913WA0133301438
B1242563744358N00341916WA0133501440
B1242573744360N00341918WA0133701443
B1242583744363N00341919WA0133701445
B1242593744366N00341919WA0133801447
B1243003744371N00341917WA0133901448
B1243013744374N00341913WA0133901448
B1243023744376N00341907WA0134101450
B1243033744377N00341902WA0134301452
B1243043744376N00341897WA0134401453
B1243053744374N00341890WA0134101454
B1243063744371N00341883WA0133901452
B1243073744366N00341876WA0133801450
B1243083744359N00341870WA0134001449
B1243093744352N00341866WA0134201450
B1243103744346N00341864WA0134401452
B1243113744340N00341864WA0134601453
B1243123744334N00341866WA0134801454
B1243133744328N00341869WA0134901455
B1243143744322N00341872WA0135101456
B1243153744317N00341877WA0135301458
B1243163744313N00341882WA0135401460
B1243173744311N00341887WA0135601461
B1243183744309N00341893WA0135601463
B1243193744309N00341900WA0135801464
B1243203744309N00341906WA0135901466
B1243213744311N00341912WA0136101468
B1243223744313N00341916WA0136301470
B1243233744315N00341920WA0136601472
B1243243744319N00341922WA0136701475
B1243253744324N00341922WA0136701475
B1243263744329N00341919WA0136201476
B1243273744333N00341915WA0136701477
B1243283744336N00341910WA0136901478
B1243293744337N00341904WA0137101480
B1243303744336N00341899WA0137101481
B1243313744335N00341893WA0137101481
B1243323744332N00341887WA0137001480
B1243333744327N00341881WA0136901479
B1243343744321N00341878WA0136901478
B1243353744314N00341875WA0137001478
B1243363744308N00341873WA0137101478
B1243373744303N00341873WA0137101479
B1243383744297N00341874WA0136801479
B1243393744292N00341876WA0136901479
B1243403744286N00341879WA0137101480
B1243413744282N00341884WA0137401481
B1243423744279N00341890WA0137701483
B1243433744277N00341894WA0138001486
B1243443744277N00341899WA0138201488
B1243453744278N00341904WA0138401491
B1243463744278N00341910WA0138501493
B1243473744279N00341916WA0138701494
B1243483744280N00341922WA0138901496
B1243493744281N00341927WA0139101498
B1243503744283N00341931WA0139101500
B1243513744287N00341934WA0139001500
B1243523744293N00341936WA0138701499
B1243533744299N00341935WA0138701498
B1243543744304N00341932WA0138801498
B1243553744307N00341929WA0139001500
B1243563744309N00341925WA0139001501
B1243573744310N00341920WA0138901501
B1243583744310N00341914WA0138701500
B1243593744310N00341907WA0138601499
B1244003744310N00341901WA0138601498
B1244013744309N00341895WA0138601498
B1244023744307N00341890WA0138301498
B1244033744303N00341885WA0138101497
B1244043744299N00341881WA0137801495
B1244053744293N00341878WA0137701492
B1244063744287N00341876WA0137601491
B1244073744281N00341876WA0137501489
B1244083744274N00341878WA0137301486
B1244093744268N00341883WA0136601483
B1244103744264N00341890WA0136401480
B1244113744260N00341896WA0136601479
B1244123744258N00341903WA0136701478
B1244133744257N00341908WA0136801479
B1244143744257N00341914WA0137001479
B1244153744257N00341919WA0137001479
B1244163744259N00341924WA0137101480
B1244173744260N00341928WA0137301481
B1244183744261N00341933WA0137101481
B1244193744262N00341938WA0136701481
B1244203744263N00341944WA0136501481
B1244213744265N00341950WA0136701479
B1244223744266N00341957WA0136601478
B1244233744267N00341963WA0136501478
B1244243744268N00341968WA0136501478
B1244253744269N00341973WA0136501477
B1244263744271N00341978WA0136301477
B1244273744272N00341983WA0136201475
B1244283744273N00341990WA0136001473
B1244293744274N00341996WA0135901472
B1244303744275N00342002WA0135801471
B1244313744276N00342009WA0135801471
B1244323744277N00342014WA0135701470
B1244333744278N00342019WA0135601469
B1244343744280N00342024WA0135601468
B1244353744281N00342030WA0135301467
B1244363744282N00342036WA0135101465
B1244373744283N00342042WA0134801463
B1244383744284N00342047WA0134401460
B1244393744285N00342053WA0134101457
B1244403744286N00342058WA0133701454
B1244413744287N00342065WA0133501449
B1244423744288N00342072WA0133201445
B1244433744289N00342078WA0133001444
B1244443744289N00342082WA0133101443
B1244453744288N00342086WA0132901442
B1244463744288N00342091WA0132601440
B1244473744288N00342097WA0132201437
B1244483744288N00342103WA0132101433
B1244493744288N00342110WA0131901430
B1244503744287N00342115WA0131701428
B1244513744287N00342120WA0131501427
B1244523744288N00342125WA0131101424
B1244533744288N00342130WA0130501421
B1244543744287N00342135WA0130301418
B1244553744287N00342141WA0130201415
B1244563744288N00342146WA0129901412
B1244573744288N00342152WA0129601408
B1244583744290N00342158WA0129201404
B1244593744291N00342163WA0129201402
B1245003744291N00342167WA0129001400
B1245013744291N00342172WA0128701398
B1245023744291N00342177WA0128401396
B1245033744292N00342182WA0128101392
B1245043744294N00342187WA0127801389
B1245053744295N00342192WA0127601386
B1245063744296N00342196WA0127501385
B1245073744296N00342200WA0127301384
B1245083744296N00342204WA0127101383
B1245093744297N00342208WA0126701380
B1245103744299N00342213WA0125901376
B1245113744301N00342219WA0125501371
B1245123744303N00342225WA0125501367
B1245133744304N00342231WA0125401364
B1245143744304N00342237WA0125501363
B1245153744305N00342240WA0125301361
B1245163744307N00342243WA0125001358
B1245173744309N00342246WA0124601354
B1245183744310N00342251WA0124301351
B1245193744312N00342255WA0124001348
B1245203744315N00342259WA0124001346
B1245213744318N00342261WA0123801344
B1245223744320N00342263WA0123701342
B1245233744322N00342267WA0123301340
B1245243744324N00342272WA0123001338
B1245253744327N00342276WA0123101335
B1245263744329N00342280WA0123001334
B1245273744330N00342285WA0122901334
B1245283744331N00342289WA0122801333
B1245293744332N00342293WA0122601331
B1245303744334N00342298WA0122301329
B1245313744335N00342303WA0122201327
B1245323744335N00342308WA0122201326
B1245333744334N00342313WA0122201325
B1245343744332N00342318WA0121801325
B1245353744330N00342323WA0121401323
B1245363744330N00342329WA0121201321
B1245373744331N00342334WA0121101319
B1245383744331N00342339WA0121201317
B1245393744332N00342345WA0121301316
B1245403744333N00342351WA0121401317
B1245413744333N00342356WA0121701319
B1245423744333N00342360WA0122001324
B1245433744333N00342363WA0122301326
B1245443744333N00342366WA0122401328
B1245453744335N00342370WA0122501330
B1245463744338N00342372WA0122401331
B1245473744342N00342372WA0122301330
B1245483744346N00342371WA0122201329
B1245493744350N00342368WA0122401329
B1245503744353N00342364WA0122501330
B1245513744354N00342359WA0122401330
B1245523744353N00342354WA0122201330
B1245533744352N00342347WA0121901328
B1245543744350N00342339WA0121601327
B1245553744345N00342331WA0121601325
B1245563744340N00342326WA0121701325
B1245573744335N00342324WA0121701325
B1245583744330N00342324WA0121501325
B1245593744325N00342324WA0121201323
B1246003744319N00342326WA0121001321
B1246013744313N00342329WA0121001319
B1246023744307N00342334WA0121101317
B1246033744303N00342340WA0121101317
B1246043744299N00342344WA0121301317
B1246053744296N00342347WA0121601319
B1246063744294N00342351WA0121801321
B1246073744293N00342354WA0122001323
B1246083744293N00342358WA0122101324
B1246093744292N00342362WA0122101324
B1246103744292N00342367WA0122201325
B1246113744293N00342370WA0122501327
B1246123744293N00342373WA0122701330
B1246133744293N00342376WA0122901332
B1246143744293N00342379WA0122901332
B1246153744293N00342383WA0122901333
B1246163744292N00342387WA0122901333
B1246173744292N00342390WA0122901334
B1246183744292N00342393WA0122801334
B1246193744293N00342395WA0122501333
B1246203744294N00342399WA0122101331
B1246213744296N00342403WA0121801329
B1246223744297N00342406WA0121701327
B1246233744299N00342409WA0121501325
B1246243744301N00342411WA0121301323
B1246253744305N00342412WA0121101320
B1246263744308N00342414WA0121101318
B1246273744310N00342415WA0121201318
B1246283744312N00342416WA0121201318
B1246293744314N00342417WA0121001317
B1246303744316N00342419WA0120901316
B1246313744318N00342421WA0120801314
B1246323744321N00342424WA0120801313
B1246333744323N00342428WA0120801313
B1246343744325N00342432WA0120601312
B1246353744327N00342438WA0120401312
B1246363744330N00342444WA0120401311
B1246373744333N00342449WA0120401310
B1246383744335N00342456WA0120101308
B1246393744337N00342463WA0120001306
B1246403744339N00342472WA0119801304
B1246413744341N00342480WA0119901304
B1246423744343N00342487WA0119801303
B1246433744345N00342494WA0119901304
B1246443744348N00342499WA0119901304
B1246453744350N00342504WA0119801303
B1246463744352N00342509WA0119501302
B1246473744355N00342515WA0119001299
B1246483744357N00342521WA0118701296
B1246493744360N00342526WA0118501291
B1246503744361N00342530WA0118401290
B1246513744362N00342532WA0118001288
B1246523744363N00342536WA0117801285
B1246533744365N00342540WA0117201281
B1246543744367N00342545WA0116801276
B1246553744369N00342549WA0116501271
B1246563744372N00342553WA0116501268
B1246573744375N00342555WA0116501269
B1246583744376N00342556WA0116401269
B1246593744377N00342558WA0116301267
B1247003744379N00342559WA0115901264
B1247013744382N00342559WA0115501260
B1247023744387N00342558WA0115101256
B1247033744392N00342555WA0115001252
B1247043744395N00342552WA0115101253
B1247053744398N00342550WA0115201254
B1247063744399N00342547WA0115201254
B1247073744402N00342544WA0114901253
B1247083744407N00342541WA0114401252
B1247093744411N00342538WA0114001248
B1247103744416N00342536WA0113701244
B1247113744420N00342533WA0113601242
B1247123744422N00342529WA0113501240
B1247133744424N00342524WA0113201238
B1247143744427N00342519WA0112701235
B1247153744429N00342514WA0112501233
B1247163744432N00342509WA0112701230
B1247173744433N00342504WA0112601228
B1247183744435N00342498WA0112501228
B1247193744437N00342493WA0112501227
B1247203744438N00342490WA0112601226
B1247213744440N00342487WA0112601227
B1247223744441N00342483WA0112501226
B1247233744443N00342479WA0112501226
B1247243744444N00342475WA0112401225
B1247253744446N00342471WA0112201224
B1247263744447N00342466WA0112101222
B1247273744448N00342461WA0112101221
B1247283744449N00342455WA0112001221
B1247293744450N00342448WA0111901220
B1247303744450N00342443WA0111801219
B1247313744451N00342437WA0111601218
B1247323744453N00342432WA0111501217
B1247333744454N00342426WA0111301215
B1247343744455N00342420WA0111201213
B1247353744458N00342414WA0111001211
B1247363744460N00342408WA0110901210
B1247373744462N00342402WA0110801208
B1247383744464N00342396WA0110701207
B1247393744465N00342391WA0110701206
B1247403744466N00342386WA0110701206
B1247413744468N00342381WA0111001206
B1247423744469N00342376WA0111201208
B1247433744471N00342372WA0111201210
B1247443744472N00342370WA0111401211
B1247453744474N00342368WA0111401212
B1247463744477N00342366WA0111401213
B1247473744479N00342363WA0111501212
B1247483744482N00342361WA0111501213
B1247493744485N00342360WA0111701215
B1247503744488N00342359WA0111901216
B1247513744490N00342357WA0112001218
B1247523744493N00342356WA0112001219
B1247533744496N00342355WA0112101219
B1247543744499N00342354WA0112101219
B1247553744503N00342353WA0112101220
B1247563744506N00342351WA0112201220
B1247573744509N00342348WA0112101220
B1247583744513N00342343WA0112101219
B1247593744516N00342338WA0112201219
B1248003744518N00342334WA0112301220
B1248013744520N00342330WA0112401221
B1248023744523N00342327WA0112401221
B1248033744525N00342323WA0112301221
B1248043744528N00342319WA0112301220
B1248053744530N00342314WA0112301220
B1248063744533N00342309WA0112301220
B1248073744536N00342305WA0112401221
B1248083744538N00342301WA0112501222
B1248093744541N00342296WA0112501222
B1248103744543N00342290WA0112301222
B1248113744545N00342283WA0112101221
B1248123744546N00342276WA0112001219
B1248133744548N00342268WA0111801218
B1248143744549N00342261WA0111701217
B1248153744549N00342253WA0111601216
B1248163744549N00342245WA0111501215
B1248173744549N00342237WA0111201213
B1248183744549N00342229WA0110901212
B1248193744549N00342222WA0110701211
B1248203744549N00342215WA0110601209
B1248213744548N00342208WA0110101207
B1248223744548N00342200WA0109701205
B1248233744549N00342193WA0109401200
B1248243744551N00342185WA0109201195
B1248253744553N00342179WA0108801191
B1248263744556N00342175WA0108701187
B1248273744558N00342170WA0108501184
B1248283744560N00342165WA0108201182
B1248293744562N00342160WA0107901179
B1248303744565N00342156WA0107601176
B1248313744567N00342151WA0107201173
B1248323744570N00342146WA0106801169
B1248333744573N00342140WA0106501165
B1248343744576N00342134WA0106301162
B1248353744578N00342130WA0106201160
B1248363744581N00342126WA0105901158
B1248373744583N00342121WA0105501154
B1248383744585N00342115WA0105101150
B1248393744587N00342107WA0104701146
B1248403744589N00342098WA0104401142
B1248413744590N00342090WA0104101139
B1248423744590N00342080WA0104001136
B1248433744590N00342071WA0103701133
B1248443744589N00342061WA0103501131
B1248453744589N00342052WA0103201128
B1248463744589N00342042WA0103001126
B1248473744589N00342034WA0102801124
B1248483744588N00342026WA0102701123
B1248493744588N00342018WA0102401121
B1248503744587N00342009WA0101901118
B1248513744587N00342001WA0101501113
B1248523744588N00341991WA0101201108
B1248533744589N00341982WA0100901104
B1248543744590N00341975WA0100801103
B1248553744589N00341968WA0100701101
B1248563744589N00341960WA0100601100
B1248573744590N00341952WA0100201097
B1248583744591N00341943WA0099901093
B1248593744592N00341934WA0099601090
B1249003744593N00341926WA0099501088
B1249013744593N00341919WA0099301086
B1249023744593N00341911WA0099001084
B1249033744594N00341904WA0098401082
B1249043744595N00341895WA0098201079
B1249053744595N00341886WA0098201076
B1249063744594N00341877WA0098101074
B1249073744593N00341870WA0097901073
B1249083744593N00341863WA0097801071
B1249093744593N00341856WA0097501069
B1249103744592N00341849WA0097101067
B1249113744592N00341841WA0096801065
B1249123744592N00341834WA0096701062
B1249133744592N00341827WA0096501060
B1249143744592N00341820WA0096201058
B1249153744592N00341813WA0096101055
B1249163744590N00341806WA0095801052
B1249173744589N00341798WA0095501050
B1249183744590N00341791WA0095301047
B1249193744591N00341784WA0095101044
B1249203744594N00341778WA0094901041
B1249213744595N00341773WA0094601039
B1249223744597N00341767WA0094401037
B1249233744598N00341761WA0094101034
B1249243744601N00341755WA0093801032
B1249253744603N00341749WA0093601029
B1249263744606N00341744WA0093701027
B1249273744608N00341739WA0093401026
B1249283744610N00341734WA0093201024
B1249293744612N00341729WA0093001022
B1249303744615N00341724WA0092701019
B1249313744616N00341718WA0092401016
B1249323744617N00341711WA0092201014
B1249333744617N00341704WA0092101012
B1249343744616N00341697WA0092001010
B1249353744617N00341691WA0091801008
B1249363744618N00341684WA0091601006
B1249373744618N00341677WA0091501004
B1249383744617N00341670WA0091301002
B1249393744616N00341663WA0091101000
B1249403744615N00341657WA0090900999
B1249413744616N00341650WA0090600996
B1249423744617N00341644WA0090200993
B1249433744617N00341636WA0090000989
B1249443744616N00341629WA0089800987
B1249453744615N00341622WA0089500984
B1249463744615N00341614WA0089300982
B1249473744615N00341607WA0089000980
B1249483744616N00341600WA0088800977
B1249493744616N00341593WA0088400974
B1249503744617N00341586WA0088100972
B1249513744618N00341579WA0087900969
B1249523744619N00341571WA0087600965
B1249533744621N00341564WA0087200962
B1249543744623N00341558WA0087200960
B1249553744624N00341551WA0086900957
B1249563744625N00341544WA0086600954
B1249573744624N00341537WA0086200951
B1249583744624N00341529WA0085900947
B1249593744623N00341521WA0085600944
B1250003744621N00341513WA0085400941
B1250013744620N00341506WA0085200938
B1250023744619N00341499WA0084900936
B1250033744618N00341492WA0084600933
B1250043744617N00341484WA0084300930
B1250053744616N00341477WA0084000927
B1250063744615N00341469WA0083600923
B1250073744614N00341460WA0083400920
B1250083744613N00341452WA0083400918
B1250093744612N00341445WA0083400917
B1250103744612N00341439WA0083300917
B1250113744611N00341433WA0083200916
B1250123744612N00341426WA0083000914
B1250133744613N00341418WA0082800912
B1250143744614N00341410WA0082800911
B1250153744613N00341403WA0082800910
B1250163744613N00341396WA0082800909
B1250173744612N00341391WA0082600908
B1250183744612N00341385WA0082400906
B1250193744614N00341379WA0081600903
B1250203744616N00341370WA0081100899
B1250213744616N00341361WA0081200896
B1250223744614N00341352WA0081200894
B1250233744614N00341344WA0081400894
B1250243744614N00341338WA0081300894
B1250253744614N00341333WA0081000893
B1250263744615N00341326WA0080700890
B1250273744614N00341316WA0080300887
B1250283744613N00341306WA0080000883
B1250293744613N00341297WA0080000882
B1250303744612N00341289WA0080200882
B1250313744611N00341282WA0080400882
B1250323744610N00341275WA0080500884
B1250333744609N00341269WA0080500885
B1250343744609N00341264WA0080600885
B1250353744610N00341258WA0080500884
B1250363744611N00341252WA0080400884
B1250373744611N00341246WA0080200883
B1250383744612N00341238WA0080000882
B1250393744613N00341230WA0079600880
B1250403744613N00341222WA0079400879
B1250413744613N00341215WA0079200878
B1250423744612N00341207WA0079100876
B1250433744611N00341200WA0078800873
B1250443744609N00341191WA0078200870
B1250453744607N00341182WA0077900867
B1250463744606N00341173WA0077800863
B1250473744604N00341164WA0077700861
B1250483744604N00341157WA0077500859
B1250493744604N00341150WA0077100857
B1250503744604N00341142WA0076600853
B1250513744603N00341133WA0076300849
B1250523744601N00341123WA0076000845
B1250533744599N00341113WA0076000842
B1250543744597N00341104WA0075900840
B1250553744596N00341096WA0075800839
B1250563744595N00341088WA0075700838
B1250573744593N00341079WA0075400836
B1250583744591N00341070WA0075000835
B1250593744589N00341061WA0075100833
B1251003744586N00341052WA0075000831
B1251013744584N00341043WA0074900829
B1251023744582N00341034WA0074700827
B1251033744579N00341025WA0074600825
B1251043744576N00341015WA0074400823
B1251053744573N00341006WA0074100821
B1251063744571N00340997WA0074000820
B1251073744569N00340988WA0073700818
B1251083744567N00340978WA0073200815
B1251093744565N00340969WA0072900813
B1251103744563N00340959WA0072500810
B1251113744561N00340949WA0072200807
B1251123744559N00340939WA0072100804
B1251133744558N00340930WA0071900801
B1251143744555N00340921WA0071400799
B1251153744553N00340912WA0071300796
B1251163744552N00340903WA0071200793
B1251173744551N00340894WA0071100791
B1251183744549N00340885WA0071200789
B1251193744546N00340876WA0071200789
B1251203744543N00340868WA0071300791
B1251213744541N00340860WA0071400791
B1251223744539N00340853WA0071400791
B1251233744536N00340845WA0071400791
B1251243744533N00340837WA0070800790
B1251253744530N00340827WA0070500789
B1251263744528N00340818WA0070800787
B1251273744527N00340808WA0070900787
B1251283744525N00340799WA0071300790
B1251293744523N00340791WA0071500793
B1251303744520N00340782WA0071900795
B1251313744519N00340774WA0072100798
B1251323744521N00340766WA0072200800
B1251333744525N00340761WA0071800801
B1251343744530N00340757WA0072100801
B1251353744534N00340756WA0072600803
B1251363744536N00340756WA0072800805
B1251373744538N00340758WA0072900807
B1251383744540N00340762WA0073100807
B1251393744540N00340766WA0073100808
B1251403744539N00340772WA0073100808
B1251413744537N00340777WA0073200809
B1251423744534N00340783WA0073400810
B1251433744530N00340787WA0073700814
B1251443744526N00340788WA0074100817
B1251453744522N00340788WA0074300820
B1251463744518N00340786WA0074500823
B1251473744513N00340785WA0074400823
B1251483744508N00340782WA0074400824
B1251493744502N00340779WA0074400824
B1251503744495N00340776WA0074600825
B1251513744489N00340772WA0074800827
B1251523744484N00340769WA0075400830
B1251533744480N00340763WA0075700835
B1251543744477N00340756WA0075700837
B1251553744476N00340746WA0075600836
B1251563744477N00340737WA0075600835
B1251573744479N00340728WA0075800836
B1251583744482N00340723WA0076200839
B1251593744485N00340719WA0076500841
B1252003744488N00340717WA0076700844
B1252013744491N00340716WA0076900844
B1252023744494N00340715WA0077100845
B1252033744497N00340717WA0077200846
B1252043744499N00340720WA0077300848
B1252053744500N00340725WA0077400850
B1252063744498N00340730WA0077600852
B1252073744496N00340734WA0077900854
B1252083744491N00340738WA0078000855
B1252093744484N00340740WA0077800857
B1252103744476N00340739WA0077500856
B1252113744468N00340736WA0078000857
B1252123744462N00340731WA0078600860
B1252133744457N00340726WA0078900862
B1252143744454N00340720WA0079000865
B1252153744451N00340712WA0079200867
B1252163744448N00340704WA0079300868
B1252173744447N00340694WA0079300869
B1252183744447N00340685WA0079300870
B1252193744448N00340677WA0079600872
B1252203744450N00340672WA0080000876
B1252213744450N00340668WA0080300880
B1252223744451N00340665WA0080600883
B1252233744452N00340664WA0080700885
B1252243744455N00340664WA0080600886
B1252253744458N00340666WA0080400885
B1252263744460N00340671WA0080400885
B1252273744460N00340676WA0080500886
B1252283744458N00340681WA0080900888
B1252293744455N00340684WA0081100891
B1252303744451N00340687WA0081300894
B1252313744445N00340690WA0081200894
B1252323744438N00340691WA0081100895
B1252333744431N00340689WA0081600896
B1252343744424N00340685WA0081600897
B1252353744418N00340677WA0081600897
B1252363744413N00340670WA0081800898
B1252373744408N00340663WA0082200901
B1252383744405N00340656WA0082400903
B1252393744403N00340649WA0082400904
B1252403744402N00340641WA0082300905
B1252413744404N00340633WA0082300905
B1252423744405N00340625WA0082500906
B1252433744406N00340618WA0082800908
B1252443744406N00340611WA0083100912
B1252453744407N00340605WA0083400915
B1252463744408N00340600WA0083500917
B1252473744411N00340595WA0083700918
B1252483744414N00340593WA0083800919
B1252493744418N00340593WA0083900921
B1252503744420N00340596WA0084100921
B1252513744421N00340601WA0084100922
B1252523744419N00340607WA0084200923
B1252533744416N00340612WA0084400924
B1252543744410N00340616WA0084400926
B1252553744404N00340618WA0084600927
B1252563744397N00340618WA0084800929
B1252573744390N00340617WA0085100931
B1252583744383N00340613WA0085000932
B1252593744377N00340608WA0084700932
B1253003744372N00340600WA0084700933
B1253013744368N00340591WA0084700932
B1253023744366N00340581WA0084900933
B1253033744365N00340571WA0085300934
B1253043744364N00340564WA0085700938
B1253053744363N00340558WA0086100943
B1253063744363N00340554WA0086200945
B1253073744365N00340549WA0086100944
B1253083744367N00340544WA0086000943
B1253093744370N00340538WA0086100942
B1253103744372N00340533WA0086300944
B1253113744374N00340528WA0086700946
B1253123744375N00340525WA0087000949
B1253133744377N00340523WA0087200951
B1253143744380N00340522WA0087200952
B1253153744383N00340524WA0087200952
B1253163744386N00340528WA0087100952
B1253173744387N00340535WA0086800952
B1253183744387N00340543WA0087100953
B1253193744384N00340549WA0087500955
B1253203744379N00340554WA0087700957
B1253213744373N00340557WA0087800959
B1253223744367N00340559WA0087900960
B1253233744359N00340559WA0088000961
B1253243744352N00340557WA0088000962
B1253253744345N00340553WA0088100963
B1253263744338N00340547WA0088100965
B1253273744333N00340542WA0088400966
B1253283744328N00340535WA0088600968
B1253293744325N00340528WA0088800969
B1253303744323N00340520WA0088800969
B1253313744322N00340512WA0088800970
B1253323744322N00340504WA0089100972
B1253333744321N00340498WA0089200974
B1253343744320N00340492WA0089300977
B1253353744320N00340487WA0089400978
B1253363744320N00340483WA0089300978
B1253373744321N00340480WA0089100977
B1253383744324N00340478WA0088900977
B1253393744327N00340479WA0088700975
B1253403744329N00340482WA0088400973
B1253413744330N00340486WA0088300971
B1253423744331N00340490WA0088500971
B1253433744331N00340494WA0088600970
B1253443744329N00340500WA0088500971
B1253453744326N00340506WA0088200970
B1253463744323N00340513WA0088400970
B1253473744320N00340519WA0088700971
B1253483744317N00340525WA0088900972
B1253493744312N00340529WA0089000974
B1253503744305N00340532WA0088700975
B1253513744298N00340534WA0088600974
B1253523744290N00340534WA0088700974
B1253533744282N00340530WA0088600975
B1253543744276N00340524WA0088500974
B1253553744270N00340517WA0088600974
B1253563744267N00340510WA0089100975
B1253573744265N00340504WA0089200977
B1253583744264N00340498WA0089300979
B1253593744264N00340493WA0089500980
B1254003744263N00340488WA0089300981
B1254013744263N00340482WA0089000980
B1254023744263N00340476WA0088800977
B1254033744263N00340470WA0088700976
B1254043744264N00340464WA0088700975
B1254053744265N00340459WA0088700975
B1254063744267N00340455WA0088800975
B1254073744269N00340451WA0088700974
B1254083744271N00340446WA0088700973
B1254093744272N00340442WA0088600972
B1254103744274N00340438WA0088500971
B1254113744276N00340433WA0088300970
B1254123744278N00340429WA0088200969
B1254133744279N00340424WA0088000968
B1254143744282N00340419WA0087600965
B1254153744285N00340414WA0087300963
B1254163744288N00340408WA0087200960
B1254173744291N00340403WA0087200958
B1254183744294N00340397WA0087100957
B1254193744296N00340391WA0087200956
B1254203744298N00340386WA0087100956
B1254213744300N00340382WA0087000956
B1254223744303N00340378WA0086800956
B1254233744305N00340372WA0086900954
B1254243744308N00340367WA0086800953
B1254253744310N00340360WA0086800953
B1254263744312N00340355WA0086700952
B1254273744315N00340350WA0086700953
B1254283744317N00340346WA0086700952
B1254293744319N00340343WA0086700952
B1254303744321N00340339WA0086500951
B1254313744323N00340334WA0086400950
B1254323744326N00340329WA0086200948
B1254333744328N00340326WA0086200947
B1254343744332N00340322WA0086100946
B1254353744335N00340319WA0086100945
B1254363744338N00340316WA0086100945
B1254373744341N00340312WA0086000944
B1254383744343N00340309WA0085900944
B1254393744346N00340306WA0085700943
B1254403744349N00340303WA0085500941
B1254413744353N00340300WA0085300939
B1254423744356N00340296WA0085100937
B1254433744359N00340291WA0085300936
B1254443744361N00340286WA0085300936
B1254453744363N00340282WA0085300937
B1254463744365N00340278WA0085200936
B1254473744368N00340274WA0084900935
B1254483744370N00340270WA0084600934
B1254493744372N00340266WA0084500932
B1254503744375N00340262WA0084300930
B1254513744379N00340259WA0084100928
B1254523744383N00340257WA0083800926
B1254533744386N00340255WA0083600924
B1254543744390N00340253WA0083800922
B1254553744392N00340251WA0083800922
B1254563744395N00340250WA0083500921
B1254573744398N00340250WA0083200919
B1254583744401N00340251WA0083100917
B1254593744405N00340251WA0083200916
B1255003744408N00340250WA0083400916
B1255013744411N00340250WA0083500916
B1255023744413N00340251WA0083600917
B1255033744415N00340251WA0083600918
B1255043744418N00340252WA0083300918
B1255053744422N00340254WA0082800917
B1255063744427N00340256WA0082500915
B1255073744431N00340258WA0082600914
B1255083744433N00340258WA0083100916
B1255093744435N00340257WA0083100917
B1255103744438N00340257WA0082900916
B1255113744442N00340258WA0082200914
B1255123744447N00340259WA0081700911
B1255133744452N00340259WA0081700908
B1255143744456N00340259WA0082000907
B1255153744458N00340258WA0082200909
B1255163744461N00340257WA0082100910
B1255173744464N00340257WA0081600909
B1255183744467N00340258WA0081300907
B1255193744472N00340258WA0081000903
B1255203744478N00340257WA0081000901
B1255213744482N00340256WA0081000900
B1255223744486N00340254WA0081300901
B1255233744489N00340252WA0081400901
B1255243744492N00340250WA0081300900
B1255253744496N00340248WA0080900899
B1255263744500N00340246WA0080800897
B1255273744504N00340242WA0080900895
B1255283744508N00340238WA0080800894
B1255293744511N00340234WA0080800894
B1255303744513N00340229WA0080800893
B1255313744515N00340225WA0080700892
B1255323744518N00340220WA0080700891
B1255333744522N00340216WA0080600890
B1255343744527N00340213WA0080500889
B1255353744531N00340210WA0080500889
B1255363744535N00340207WA0080600889
B1255373744538N00340203WA0080700889
B1255383744541N00340199WA0080800890
B1255393744543N00340195WA0080900891
B1255403744545N00340190WA0081000892
B1255413744548N00340186WA0081000892
B1255423744551N00340183WA0080700892
B1255433744555N00340179WA0080600892
B1255443744558N00340174WA0080900892
B1255453744561N00340169WA0081100893
B1255463744564N00340165WA0081400895
B1255473744566N00340160WA0081600898
B1255483744567N00340155WA0081800900
B1255493744569N00340151WA0082000902
B1255503744572N00340146WA0082300903
B1255513744574N00340142WA0082500905
B1255523744577N00340139WA0082700907
B1255533744580N00340136WA0083000910
B1255543744582N00340132WA0083300912
B1255553744584N00340127WA0083300914
B1255563744584N00340122WA0083500915
B1255573744585N00340117WA0083600918
B1255583744586N00340113WA0083700919
B1255593744588N00340108WA0083600919
B1256003744591N00340103WA0083500919
B1256013744593N00340097WA0083700919
B1256023744595N00340090WA0084000920
B1256033744596N00340084WA0084300923
B1256043744597N00340080WA0084600926
B1256053744598N00340077WA0084700928
B1256063744597N00340074WA0084700928
B1256073744598N00340071WA0084300928
B1256083744600N00340069WA0084000925
B1256093744603N00340070WA0083700922
B1256103744604N00340075WA0083400919
B1256113744602N00340083WA0082900916
B1256123744596N00340091WA0082700912
B1256133744589N00340097WA0082800912
B1256143744584N00340102WA0083200913
B1256153744581N00340108WA0083400914
B1256163744579N00340114WA0083600915
B1256173744577N00340119WA0083700917
B1256183744574N00340124WA0083800918
B1256193744572N00340129WA0083500918
B1256203744570N00340136WA0083400918
B1256213744568N00340142WA0083700919
B1256223744567N00340147WA0083900920
B1256233744567N00340152WA0084100921
B1256243744568N00340155WA0084100922
B1256253744569N00340157WA0084100922
B1256263744571N00340158WA0083700921
B1256273744574N00340158WA0083500920
B1256283744577N00340159WA0083400920
B1256293744580N00340161WA0083100918
B1256303744582N00340163WA0083100916
B1256313744585N00340166WA0083000915
B1256323744587N00340169WA0082900913
B1256333744588N00340174WA0082800912
B1256343744589N00340180WA0082700911
B1256353744588N00340186WA0082800911
B1256363744585N00340192WA0082800910
B1256373744582N00340197WA0082500910
B1256383744578N00340202WA0082400909
B1256393744575N00340208WA0082300908
B1256403744572N00340213WA0082300907
B1256413744568N00340217WA0082300906
B1256423744563N00340221WA0082000904
B1256433744556N00340224WA0081800901
B1256443744549N00340228WA0081600898
B1256453744543N00340232WA0081300896
B1256463744537N00340236WA0081300895
B1256473744532N00340240WA0081100894
B1256483744527N00340244WA0080800892
B1256493744521N00340248WA0080800891
B1256503744516N00340253WA0080700889
B1256513744511N00340258WA0080700888
B1256523744507N00340263WA0080700888
B1256533744502N00340269WA0080500887
B1256543744497N00340275WA0080200884
B1256553744491N00340281WA0080000882
B1256563744484N00340286WA0080100881
B1256573744477N00340289WA0080200882
B1256583744471N00340292WA0080300882
B1256593744463N00340294WA0080100882
B1257003744455N00340295WA0079800881
B1257013744446N00340296WA0079800879
B1257023744437N00340298WA0079800878
B1257033744429N00340299WA0079900881
B1257043744422N00340300WA0080300884
B1257053744417N00340302WA0080500887
B1257063744411N00340304WA0080600887
B1257073744405N00340307WA0080500888
B1257083744398N00340310WA0080600888
B1257093744391N00340314WA0080700888
B1257103744385N00340319WA0080900890
B1257113744380N00340323WA0081000891
B1257123744376N00340329WA0081200892
B1257133744374N00340335WA0081300893
B1257143744373N00340340WA0081400894
B1257153744374N00340345WA0081400894
B1257163744375N00340349WA0081600895
B1257173744377N00340352WA0081600896
B1257183744380N00340355WA0081800897
B1257193744382N00340356WA0082000899
B1257203744384N00340356WA0082300901
B1257213744386N00340354WA0082500904
B1257223744387N00340352WA0082600906
B1257233744388N00340350WA0082900908
B1257243744389N00340347WA0083100910
B1257253744389N00340342WA0083100912
B1257263744387N00340336WA0083100913
B1257273744384N00340329WA0083200913
B1257283744379N00340323WA0083400914
B1257293744372N00340319WA0083500916
B1257303744366N00340318WA0083600918
B1257313744358N00340319WA0083400919
B1257323744351N00340323WA0083500918
B1257333744346N00340330WA0083800919
B1257343744342N00340337WA0084200921
B1257353744340N00340344WA0084400924
B1257363744340N00340349WA0084900928
B1257373744340N00340353WA0085200932
B1257383744341N00340356WA0085300935
B1257393744343N00340359WA0085500937
B1257403744346N00340361WA0085600939
B1257413744349N00340363WA0085900941
B1257423744352N00340364WA0086200944
B1257433744354N00340362WA0086500948
B1257443744355N00340359WA0086700950
B1257453744356N00340354WA0086900952
B1257463744355N00340348WA0087000953
B1257473744354N00340342WA0087200955
B1257483744351N00340336WA0087300956
B1257493744346N00340331WA0087300957
B1257503744339N00340326WA0087400958
B1257513744331N00340323WA0087600959
B1257523744324N00340323WA0087900961
B1257533744317N00340325WA0088200964
B1257543744312N00340328WA0088400967
B1257553744307N00340332WA0088400969
B1257563744303N00340338WA0088400971
B1257573744300N00340344WA0088800973
B1257583744298N00340350WA0089400975
B1257593744297N00340355WA0090000979
B1258003744297N00340359WA0090100983
B1258013744297N00340363WA0090500987
B1258023744298N00340366WA0090800990
B1258033744299N00340369WA0091100993
B1258043744301N00340371WA0091300996
B1258053744303N00340372WA0091600999
B1258063744305N00340373WA0091901001
B1258073744307N00340374WA0092001004
B1258083744310N00340374WA0092101005
B1258093744311N00340372WA0092101006
B1258103744313N00340369WA0092201007
B1258113744313N00340363WA0092001007
B1258123744310N00340355WA0091901006
B1258133744304N00340347WA0091401004
B1258143744296N00340342WA0091301001
B1258153744287N00340340WA0091401001
B1258163744280N00340340WA0091701003
B1258173744273N00340342WA0092001006
B1258183744267N00340343WA0092201009
B1258193744262N00340346WA0092401011
B1258203744256N00340350WA0092601012
B1258213744250N00340355WA0092901014
B1258223744245N00340361WA0093201017
B1258233744240N00340366WA0093701020
B1258243744237N00340371WA0094101024
B1258253744235N00340377WA0094301028
B1258263744234N00340382WA0094601031
B1258273744232N00340388WA0094901034
B1258283744232N00340394WA0095201037
B1258293744232N00340398WA0095601040
B1258303744233N00340400WA0095801044
B1258313744234N00340399WA0096001047
B1258323744236N00340396WA0096101047
B1258333744237N00340392WA0096201048
B1258343744237N00340385WA0096201049
B1258353744236N00340378WA0096501051
B1258363744233N00340371WA0096801053
B1258373744228N00340365WA0097001055
B1258383744223N00340360WA0097201057
B1258393744217N00340354WA0097201058
B1258403744209N00340351WA0097301059
B1258413744200N00340349WA0097401060
B1258423744192N00340350WA0097701062
B1258433744185N00340352WA0098001065
B1258443744178N00340356WA0098401068
B1258453744172N00340361WA0098601071
B1258463744168N00340368WA0098801074
B1258473744164N00340374WA0099201077
B1258483744162N00340380WA0099401080
B1258493744161N00340386WA0099701083
B1258503744161N00340391WA0099901085
B1258513744162N00340395WA0100101088
B1258523744163N00340396WA0100301090
B1258533744166N00340393WA0100201092
B1258543744167N00340387WA0100201090
B1258553744166N00340380WA0100301090
B1258563744162N00340372WA0100601092
B1258573744157N00340364WA0101101097
B1258583744150N00340359WA0101501102
B1258593744143N00340356WA0101801107
B1259003744135N00340354WA0102001110
B1259013744127N00340353WA0102201113
B1259023744119N00340353WA0102801117
B1259033744111N00340355WA0103001121
B1259043744104N00340358WA0103301124
B1259053744098N00340362WA0103501126
B1259063744093N00340367WA0103901129
B1259073744089N00340372WA0104201132
B1259083744086N00340377WA0104401135
B1259093744085N00340381WA0104701138
B1259103744084N00340386WA0104801139
B1259113744084N00340391WA0104901141
B1259123744084N00340395WA0105101142
B1259133744086N00340399WA0105101143
B1259143744088N00340403WA0105301145
B1259153744090N00340406WA0105601147
B1259163744092N00340410WA0105801149
B1259173744094N00340413WA0106001151
B1259183744097N00340416WA0106201153
B1259193744098N00340419WA0106601156
B1259203744099N00340419WA0106901161
B1259213744099N00340417WA0107101164
B1259223744099N00340412WA0107101164
B1259233744099N00340406WA0107001163
B1259243744098N00340399WA0107101164
B1259253744094N00340391WA0107201165
B1259263744088N00340385WA0107501167
B1259273744082N00340380WA0107601170
B1259283744075N00340377WA0107701172
B1259293744068N00340375WA0107501173
B1259303744059N00340374WA0107601174
B1259313744051N00340375WA0108001176
B1259323744044N00340377WA0108001177
B1259333744038N00340380WA0108501180
B1259343744032N00340383WA0108801183
B1259353744028N00340387WA0108901184
B1259363744024N00340392WA0108901184
B1259373744021N00340399WA0108701183
B1259383744020N00340405WA0108701183
B1259393744020N00340411WA0108801183
B1259403744021N00340416WA0108701183
B1259413744022N00340420WA0108801183
B1259423744023N00340423WA0108901183
B1259433744025N00340426WA0108701183
B1259443744028N00340430WA0108701182
B1259453744031N00340433WA0108701181
B1259463744034N00340435WA0108801183
B1259473744036N00340436WA0109101185
B1259483744037N00340437WA0109101187
B1259493744038N00340438WA0108901187
B1259503744041N00340439WA0108401187
B1259513744044N00340440WA0108301185
B1259523744046N00340441WA0108501184
B1259533744047N00340442WA0108301183
B1259543744049N00340443WA0108201181
B1259553744051N00340443WA0107801180
B1259563744054N00340443WA0107401176
B1259573744057N00340443WA0106901172
B1259583744061N00340444WA0106701168
B1259593744064N00340444WA0106501165
B1300003744068N00340444WA0106301162
B1300013744071N00340443WA0106201160
B1300023744075N00340443WA0106201157
B1300033744078N00340444WA0106001156
B1300043744081N00340446WA0106201156
B1300053744083N00340446WA0106101156
B1300063744085N00340445WA0105701154
B1300073744088N00340443WA0105201151
B1300083744093N00340443WA0105001147
B1300093744097N00340444WA0104601144
B1300103744102N00340445WA0104501141
B1300113744105N00340445WA0104601140
B1300123744109N00340444WA0104501140
B1300133744113N00340444WA0104301140
B1300143744117N00340445WA0104401139
B1300153744121N00340446WA0104501139
B1300163744125N00340447WA0104601139
B1300173744129N00340447WA0104901140
B1300183744132N00340447WA0105201143
B1300193744133N00340447WA0105501146
B1300203744134N00340448WA0105501148
B1300213744137N00340450WA0105401149
B1300223744141N00340451WA0105101150
B1300233744146N00340451WA0105001149
B1300243744150N00340451WA0105101149
B1300253744152N00340451WA0105301151
B1300263744153N00340451WA0105301153
B1300273744154N00340452WA0105201152
B1300283744155N00340453WA0105001151
B1300293744159N00340455WA0104601148
B1300303744163N00340454WA0104201142
B1300313744166N00340453WA0104101139
B1300323744167N00340453WA0104101139
B1300333744169N00340453WA0104001138
B1300343744170N00340453WA0103901136
B1300353744172N00340452WA0103501133
B1300363744175N00340451WA0103001130
B1300373744179N00340449WA0102701126
B1300383744183N00340448WA0102401123
B1300393744187N00340449WA0102201121
B1300403744191N00340449WA0102201120
B1300413744194N00340448WA0102001118
B1300423744197N00340447WA0101701116
B1300433744201N00340445WA0101401112
B1300443744204N00340444WA0101001109
B1300453744208N00340443WA0100801105
B1300463744211N00340442WA0100601102
B1300473744214N00340440WA0100201099
B1300483744217N00340438WA0099801095
B1300493744220N00340436WA0099401091
B1300503744223N00340435WA0098901086
B1300513744227N00340434WA0098501081
B1300523744230N00340431WA0098201077
B1300533744233N00340428WA0097801073
B1300543744236N00340425WA0097301069
B1300553744240N00340423WA0097001065
B1300563744243N00340420WA0096601061
B1300573744246N00340415WA0096201057
B1300583744249N00340410WA0095901053
B1300593744252N00340406WA0095701050
B1301003744256N00340402WA0095301047
B1301013744259N00340399WA0095101043
B1301023744263N00340395WA0094901040
B1301033744265N00340390WA0094701038
B1301043744267N00340385WA0094601036
B1301053744269N00340383WA0094501034
B1301063744271N00340385WA0094301031
B1301073744272N00340387WA0094101027
B1301083744272N00340384WA0094001026
B1301093744270N00340377WA0093401022
B1301103744266N00340368WA0093001017
B1301113744260N00340359WA0092801014
B1301123744254N00340352WA0092901013
B1301133744250N00340346WA0092901012
B1301143744249N00340340WA0092401011
B1301153744249N00340333WA0092101006
B1301163744250N00340326WA0091801003
B1301173744252N00340321WA0091601001
B1301183744255N00340318WA0091701000
B1301193744257N00340317WA0091801000
B1301203744259N00340318WA0092001002
B1301213744260N00340318WA0092101004
B1301223744261N00340318WA0092301006
B1301233744263N00340317WA0092401005
B1301243744265N00340316WA0092601006
B1301253744266N00340315WA0092701007
B1301263744267N00340315WA0092701008
B1301273744269N00340314WA0092501008
B1301283744271N00340314WA0092101007
B1301293744274N00340314WA0091401005
B1301303744279N00340314WA0091001002
B1301313744283N00340315WA0091001003
B1301323744285N00340316WA0091301002
B1301333744286N00340317WA0091601003
B1301343744286N00340316WA0091701004
B1301353744287N00340316WA0091501003
B1301363744288N00340315WA0091101002
B1301373744291N00340315WA0090600999
B1301383744294N00340314WA0090100995
B1301393744297N00340313WA0090100993
B1301403744299N00340312WA0090300992
B1301413744302N00340311WA0090300992
B1301423744304N00340310WA0090200992
B1301433744306N00340309WA0089800990
B1301443744310N00340308WA0089600987
B1301453744314N00340306WA0089600985
B1301463744316N00340303WA0089800984
B1301473744318N00340300WA0089800985
B1301483744320N00340299WA0089700984
B1301493744323N00340297WA0089500982
B1301503744326N00340296WA0089200980
B1301513744329N00340294WA0089100977
B1301523744333N00340291WA0089200976
B1301533744335N00340287WA0089400977
B1301543744337N00340285WA0089600976
B1301553744339N00340283WA0089600977
B1301563744342N00340282WA0089400976
B1301573744345N00340280WA0089300975
B1301583744349N00340279WA0089300975
B1301593744353N00340277WA0089300976
B1302003744357N00340274WA0089600979
B1302013744360N00340271WA0089800981
B1302023744363N00340269WA0090100983
B1302033744366N00340267WA0090200985
B1302043744368N00340266WA0090500987
B1302053744370N00340266WA0090800990
B1302063744371N00340265WA0090800992
B1302073744373N00340266WA0090600992
B1302083744376N00340268WA0090300990
B1302093744381N00340271WA0090100988
B1302103744385N00340274WA0090400987
B1302113744389N00340275WA0090700989
B1302123744392N00340275WA0090900991
B1302133744395N00340273WA0090900992
B1302143744398N00340271WA0090600992
B1302153744402N00340270WA0090200991
B1302163744407N00340268WA0090100990
B1302173744412N00340267WA0090000989
B1302183744416N00340265WA0089900987
B1302193744420N00340263WA0090000986
B1302203744423N00340261WA0089700984
B1302213744428N00340258WA0089700982
B1302223744432N00340256WA0089700981
B1302233744436N00340252WA0089900982
B1302243744440N00340248WA0090100984
B1302253744443N00340243WA0090600987
B1302263744445N00340239WA0091000989
B1302273744447N00340236WA0091200993
B1302283744450N00340234WA0091400996
B1302293744454N00340234WA0091700999
B1302303744458N00340233WA0092001002
B1302313744462N00340232WA0092201004
B1302323744466N00340231WA0092701008
B1302333744468N00340228WA0093001012
B1302343744468N00340223WA0093101014
B1302353744466N00340216WA0093001016
B1302363744461N00340209WA0092901014
B1302373744453N00340205WA0093001013
B1302383744446N00340205WA0093301014
B1302393744440N00340209WA0093601019
B1302403744436N00340213WA0094001023
B1302413744433N00340217WA0094101026
B1302423744430N00340223WA0094301028
B1302433744427N00340229WA0094501030
B1302443744426N00340234WA0094801032
B1302453744426N00340239WA0095101034
B1302463744428N00340242WA0095201037
B1302473744430N00340244WA0095401039
B1302483744433N00340246WA0095601041
B1302493744435N00340247WA0095801043
B1302503744438N00340248WA0096001044
B1302513744440N00340249WA0096101046
B1302523744442N00340248WA0096201048
B1302533744444N00340247WA0096301049
B1302543744446N00340245WA0096301050
B1302553744449N00340241WA0096301050
B1302563744450N00340236WA0096201050
B1302573744452N00340230WA0095901050
B1302583744453N00340224WA0096001050
B1302593744455N00340218WA0096201050
B1303003744457N00340213WA0096301051
B1303013744460N00340209WA0096501052
B1303023744463N00340206WA0096701054
B1303033744465N00340203WA0097001057
B1303043744468N00340201WA0097301058
B1303053744471N00340198WA0097401061
B1303063744473N00340193WA0097501063
B1303073744473N00340186WA0097301064
B1303083744471N00340178WA0097401064
B1303093744468N00340170WA0097601064
B1303103744463N00340165WA0097801065
B1303113744457N00340162WA0097901066
B1303123744452N00340161WA0097801068
B1303133744446N00340162WA0097501067
B1303143744441N00340164WA0097501064
B1303153744436N00340168WA0097601064
B1303163744432N00340172WA0097701063
B1303173744430N00340176WA0097901064
B1303183744428N00340181WA0098001066
B1303193744427N00340186WA0098101067
B1303203744427N00340191WA0098201068
B1303213744428N00340196WA0098401069
B1303223744429N00340200WA0098501071
B1303233744431N00340204WA0098801074
B1303243744433N00340207WA0099001076
B1303253744436N00340209WA0099201078
B1303263744438N00340210WA0099401080
B1303273744440N00340210WA0099501083
B1303283744443N00340208WA0099701084
B1303293744445N00340206WA0099701086
B1303303744448N00340200WA0099801087
B1303313744449N00340193WA0099701087
B1303323744448N00340185WA0099801088
B1303333744445N00340177WA0100101089
B1303343744441N00340170WA0100201091
B1303353744435N00340165WA0100401092
B1303363744429N00340162WA0100501094
B1303373744422N00340163WA0100101095
B1303383744415N00340166WA0100101095
B1303393744411N00340171WA0100601096
B1303403744408N00340177WA0100601097
B1303413744406N00340182WA0100701098
B1303423744405N00340187WA0100901099
B1303433744405N00340192WA0101101101
B1303443744406N00340196WA0101301102
B1303453744407N00340199WA0101601104
B1303463744409N00340201WA0101701107
B1303473744410N00340203WA0101701108
B1303483744413N00340204WA0101701109
B1303493744417N00340206WA0101601108
B1303503744422N00340205WA0101501107
B1303513744426N00340202WA0101701107
B1303523744430N00340197WA0101701108
B1303533744432N00340192WA0101901110
B1303543744435N00340188WA0102101113
B1303553744438N00340186WA0102301115
B1303563744440N00340184WA0102501116
B1303573744443N00340181WA0102601118
B1303583744445N00340178WA0102601118
B1303593744447N00340174WA0102601119
B1304003744449N00340169WA0102601119
B1304013744452N00340164WA0102501118
B1304023744456N00340158WA0102501118
B1304033744459N00340153WA0102601119
B1304043744461N00340148WA0102801120
B1304053744464N00340144WA0102601120
B1304063744467N00340139WA0102201120
B1304073744471N00340134WA0102401120
B1304083744474N00340128WA0102401119
B1304093744476N00340121WA0102501120
B1304103744478N00340115WA0102701120
B1304113744481N00340110WA0102801121
B1304123744485N00340105WA0102801121
B1304133744489N00340101WA0102801122
B1304143744493N00340096WA0103201124
B1304153744495N00340092WA0103501126
B1304163744497N00340086WA0103601128
B1304173744496N00340079WA0103701130
B1304183744495N00340070WA0103701130
B1304193744491N00340061WA0103701130
B1304203744486N00340054WA0103901130
B1304213744479N00340049WA0104001132
B1304223744472N00340047WA0104001132
B1304233744466N00340047WA0104101133
B1304243744460N00340048WA0104001134
B1304253744454N00340050WA0104001134
B1304263744450N00340054WA0104001134
B1304273744445N00340059WA0104001133
B1304283744442N00340065WA0104201133
B1304293744439N00340070WA0104601137
B1304303744438N00340074WA0105001141
B1304313744437N00340076WA0105201145
B1304323744438N00340078WA0105301147
B1304333744439N00340081WA0105401148
B1304343744442N00340083WA0105301148
B1304353744445N00340085WA0105201148
B1304363744449N00340086WA0105301148
B1304373744452N00340086WA0105401149
B1304383744456N00340085WA0105601150
B1304393744459N00340084WA0105701151
B1304403744462N00340084WA0105801152
B1304413744465N00340083WA0105701153
B1304423744469N00340083WA0105201152
B1304433744473N00340082WA0105101151
B1304443744478N00340080WA0105401151
B1304453744483N00340077WA0105501150
B1304463744487N00340074WA0105701151
B1304473744491N00340071WA0105801153
B1304483744494N00340069WA0105801154
B1304493744497N00340067WA0105801154
B1304503744502N00340065WA0105701154
B1304513744506N00340063WA0105701154
B1304523744510N00340062WA0105701154
B1304533744513N00340062WA0106001155
B1304543744516N00340063WA0106101156
B1304553744518N00340064WA0106301158
B1304563744519N00340066WA0106401159
B1304573744521N00340067WA0106301160
B1304583744523N00340067WA0106301158
B1304593744526N00340069WA0106201157
B1305003744529N00340071WA0106001156
B1305013744532N00340074WA0105901154
B1305023744535N00340078WA0106001154
B1305033744536N00340081WA0106101154
B1305043744538N00340082WA0106201155
B1305053744540N00340083WA0106101155
B1305063744544N00340084WA0105701153
B1305073744548N00340084WA0105301150
B1305083744552N00340084WA0105101147
B1305093744556N00340082WA0105101145
B1305103744559N00340081WA0105101144
B1305113744562N00340081WA0104701143
B1305123744565N00340081WA0104401142
B1305133744570N00340082WA0104401139
B1305143744575N00340084WA0104201137
B1305153744580N00340087WA0104301136
B1305163744583N00340089WA0104601139
B1305173744586N00340092WA0104701140
B1305183744587N00340094WA0104801141
B1305193744589N00340096WA0104701141
B1305203744592N00340099WA0104201139
B1305213744596N00340102WA0104001137
B1305223744598N00340107WA0103801134
B1305233744600N00340112WA0103601131
B1305243744601N00340117WA0103601129
B1305253744602N00340120WA0103301128
B1305263744605N00340122WA0102801125
B1305273744608N00340125WA0102501123
B1305283744612N00340128WA0102301119
B1305293744615N00340132WA0102001115
B1305303744618N00340135WA0101901112
B1305313744623N00340135WA0101701109
B1305323744627N00340134WA0101401106
B1305333744632N00340131WA0101201104
B1305343744636N00340127WA0101101103
B1305353744640N00340122WA0101201103
B1305363744643N00340119WA0101301102
B1305373744646N00340116WA0101401102
B1305383744649N00340114WA0101301102
B1305393744651N00340112WA0101301102
B1305403744654N00340109WA0101301102
B1305413744658N00340106WA0101401102
B1305423744661N00340103WA0101601104
B1305433744664N00340100WA0101801107
B1305443744667N00340098WA0102101110
B1305453744669N00340094WA0102401112
B1305463744670N00340090WA0102701115
B1305473744668N00340083WA0102901117
B1305483744664N00340076WA0102901118
B1305493744657N00340071WA0103001119
B1305503744648N00340069WA0103201120
B1305513744641N00340070WA0103501122
B1305523744635N00340072WA0103801125
B1305533744630N00340075WA0104001128
B1305543744627N00340080WA0104001130
B1305553744625N00340085WA0104101131
B1305563744624N00340092WA0104001130
B1305573744625N00340098WA0104001130
B1305583744626N00340104WA0104101130
B1305593744628N00340108WA0104101131
B1306003744630N00340111WA0104101131
B1306013744633N00340112WA0104001131
B1306023744636N00340113WA0103701130
B1306033744641N00340113WA0103601128
B1306043744646N00340113WA0103701128
B1306053744650N00340112WA0103801128
B1306063744655N00340111WA0104001130
B1306073744659N00340111WA0104101133
B1306083744663N00340110WA0104301134
B1306093744666N00340110WA0104401136
B1306103744670N00340108WA0104501137
B1306113744673N00340106WA0104501138
B1306123744678N00340103WA0104501138
B1306133744681N00340097WA0104401137
B1306143744684N00340090WA0104401137
B1306153744685N00340081WA0104501136
B1306163744683N00340072WA0104801136
B1306173744680N00340064WA0105101139
B1306183744675N00340059WA0105401143
B1306193744669N00340056WA0105501146
B1306203744661N00340053WA0105501146
B1306213744653N00340052WA0105501146
B1306223744644N00340052WA0105601147
B1306233744636N00340055WA0105901149
B1306243744630N00340058WA0106301151
B1306253744626N00340061WA0106501155
B1306263744624N00340065WA0106601158
B1306273744624N00340069WA0106801160
B1306283744625N00340073WA0106901161
B1306293744627N00340076WA0107101162
B1306303744630N00340078WA0107201164
B1306313744634N00340077WA0107301166
B1306323744638N00340075WA0107401167
B1306333744642N00340071WA0107501168
B1306343744646N00340067WA0107501168
B1306353744651N00340064WA0107701170
B1306363744654N00340061WA0107901173
B1306373744658N00340059WA0108101175
B1306383744661N00340057WA0108201177
B1306393744663N00340051WA0108101177
B1306403744665N00340043WA0108001175
B1306413744665N00340033WA0107801174
B1306423744662N00340023WA0108101173
B1306433744657N00340015WA0108401176
B1306443744651N00340010WA0108701178
B1306453744645N00340007WA0108801180
B1306463744639N00340005WA0108901182
B1306473744632N00340004WA0109001183
B1306483744626N00340006WA0109201184
B1306493744620N00340010WA0109301186
B1306503744616N00340016WA0109401187
B1306513744613N00340021WA0109701188
B1306523744612N00340025WA0110001192
B1306533744612N00340027WA0110201195
B1306543744613N00340030WA0110301197
B1306553744616N00340032WA0110301198
B1306563744620N00340033WA0110201199
B1306573744625N00340031WA0110201199
B1306583744629N00340028WA0110401200
B1306593744632N00340023WA0110601203
B1307003744634N00340017WA0110601204
B1307013744635N00340011WA0110501205
B1307023744636N00340004WA0110701206
B1307033744636N00339996WA0110801206
B1307043744636N00339988WA0110901206
B1307053744635N00339980WA0111101207
B1307063744634N00339972WA0111301210
B1307073744632N00339965WA0111601212
B1307083744629N00339958WA0111801214
B1307093744623N00339951WA0111801214
B1307103744616N00339946WA0111601214
B1307113744608N00339944WA0111501213
B1307123744600N00339946WA0111601212
B1307133744593N00339948WA0111801213
B1307143744587N00339952WA0111901214
B1307153744583N00339957WA0112001215
B1307163744579N00339961WA0112201217
B1307173744576N00339965WA0112401219
B1307183744575N00339969WA0112501221
B1307193744575N00339974WA0112501222
B1307203744576N00339978WA0112501222
B1307213744579N00339981WA0112601222
B1307223744583N00339983WA0112801222
B1307233744586N00339983WA0113001224
B1307243744589N00339981WA0113301227
B1307253744592N00339979WA0113401228
B1307263744595N00339976WA0113501229
B1307273744598N00339971WA0113601230
B1307283744600N00339964WA0113601231
B1307293744601N00339955WA0113801232
B1307303744600N00339947WA0114101233
B1307313744597N00339940WA0114301236
B1307323744594N00339934WA0114401239
B1307333744588N00339928WA0114601240
B1307343744582N00339925WA0114701241
B1307353744574N00339923WA0114701242
B1307363744567N00339923WA0114801243
B1307373744561N00339925WA0115001245
B1307383744555N00339928WA0115001246
B1307393744551N00339932WA0115101247
B1307403744547N00339936WA0115201248
B1307413744545N00339941WA0115201249
B1307423744545N00339947WA0115201249
B1307433744547N00339953WA0115301249
B1307443744548N00339958WA0115601251
B1307453744549N00339962WA0115901254
B1307463744550N00339966WA0116101257
B1307473744551N00339970WA0116301259
B1307483744554N00339974WA0116401260
B1307493744557N00339976WA0116501261
B1307503744560N00339977WA0116501263
B1307513744564N00339976WA0116601264
B1307523744567N00339973WA0116701265
B1307533744570N00339969WA0116701265
B1307543744573N00339965WA0116601265
B1307553744575N00339960WA0116501266
B1307563744578N00339954WA0116501266
B1307573744579N00339947WA0116601266
B1307583744580N00339940WA0116601265
B1307593744580N00339932WA0116501265
B1308003744579N00339924WA0116601265
B1308013744578N00339916WA0116701266
B1308023744575N00339909WA0116701267
B1308033744571N00339901WA0116601267
B1308043744566N00339894WA0116801266
B1308053744560N00339888WA0116801266
B1308063744554N00339884WA0117001267
B1308073744547N00339881WA0117001268
B1308083744540N00339879WA0117001269
B1308093744533N00339879WA0116801269
B1308103744526N00339881WA0116501267
B1308113744520N00339885WA0116501267
B1308123744514N00339891WA0116901267
B1308133744509N00339897WA0117101267
B1308143744505N00339903WA0117401270
B1308153744503N00339909WA0117601273
B1308163744502N00339914WA0117801275
B1308173744502N00339919WA0117801276
B1308183744504N00339924WA0117901276
B1308193744507N00339929WA0117901277
B1308203744510N00339932WA0118101278
B1308213744514N00339934WA0118301279
B1308223744517N00339934WA0118601281
B1308233744520N00339933WA0118901285
B1308243744522N00339928WA0118901287
B1308253744522N00339921WA0118901288
B1308263744520N00339913WA0118901288
B1308273744516N00339905WA0118901288
B1308283744511N00339898WA0119101289
B1308293744506N00339893WA0119301293
B1308303744501N00339890WA0119701295
B1308313744496N00339888WA0119901298
B1308323744490N00339886WA0120001299
B1308333744483N00339886WA0120001300
B1308343744476N00339887WA0120101301
B1308353744469N00339888WA0120301302
B1308363744463N00339891WA0120501304
B1308373744457N00339895WA0120801307
B1308383744453N00339900WA0121001310
B1308393744452N00339906WA0121101312
B1308403744451N00339913WA0121001312
B1308413744450N00339919WA0121001312
B1308423744451N00339923WA0121001313
B1308433744453N00339926WA0121001313
B1308443744456N00339928WA0121101313
B1308453744458N00339929WA0121101313
B1308463744460N00339930WA0121201314
B1308473744463N00339932WA0121201314
B1308483744465N00339933WA0121201314
B1308493744468N00339933WA0121201314
B1308503744471N00339933WA0121101314
B1308513744474N00339934WA0120701314
B1308523744478N00339934WA0120801313
B1308533744482N00339933WA0120801311
B1308543744486N00339933WA0120801310
B1308553744490N00339931WA0120801310
B1308563744493N00339930WA0120701310
B1308573744497N00339929WA0120501308
B1308583744501N00339929WA0120301307
B1308593744506N00339928WA0120001305
B1309003744510N00339927WA0119901303
B1309013744515N00339925WA0119501301
B1309023744519N00339922WA0119301300
B1309033744523N00339919WA0119501299
B1309043744527N00339915WA0119301297
B1309053744531N00339911WA0119201296
B1309063744535N00339908WA0119101295
B1309073744540N00339905WA0119001294
B1309083744544N00339902WA0118901293
B1309093744548N00339899WA0118801291
B1309103744553N00339896WA0118701290
B1309113744558N00339892WA0118501289
B1309123744562N00339889WA0118601288
B1309133744567N00339887WA0118601287
B1309143744572N00339885WA0118801288
B1309153744576N00339883WA0118901289
B1309163744580N00339881WA0118901290
B1309173744585N00339879WA0118801290
B1309183744590N00339877WA0118801289
B1309193744594N00339875WA0118801289
B1309203744598N00339874WA0118901290
B1309213744602N00339873WA0119001291
B1309223744606N00339873WA0119001291
B1309233744610N00339873WA0118701291
B1309243744615N00339873WA0118501290
B1309253744620N00339873WA0118601290
B1309263744624N00339873WA0118701290
B1309273744628N00339873WA0118901291
B1309283744631N00339873WA0119101293
B1309293744634N00339873WA0119101294
B1309303744637N00339872WA0119101294
B1309313744640N00339871WA0119001293
B1309323744644N00339870WA0118901293
B1309333744649N00339870WA0118901293
B1309343744653N00339869WA0119101293
B1309353744657N00339868WA0119301295
B1309363744660N00339867WA0119401296
B1309373744664N00339865WA0119501298
B1309383744667N00339864WA0119401298
B1309393744670N00339862WA0119301298
B1309403744674N00339860WA0119201296
B1309413744679N00339858WA0119101295
B1309423744684N00339857WA0119201295
B1309433744689N00339855WA0119301296
B1309443744693N00339854WA0119701298
B1309453744696N00339854WA0120001301
B1309463744698N00339854WA0120201303
B1309473744701N00339853WA0120301305
B1309483744703N00339852WA0120401306
B1309493744706N00339849WA0120401306
B1309503744709N00339844WA0120201305
B1309513744712N00339836WA0120201304
B1309523744713N00339828WA0120301304
B1309533744712N00339820WA0120601305
B1309543744710N00339812WA0120801307
B1309553744707N00339807WA0121001310
B1309563744702N00339803WA0121101312
B1309573744697N00339800WA0121101312
B1309583744690N00339799WA0121201313
B1309593744684N00339799WA0121301314
B1310003744679N00339801WA0121401315
B1310013744675N00339803WA0121601316
B1310023744671N00339805WA0121801317
B1310033744668N00339808WA0122001319
B1310043744666N00339810WA0122101321
B1310053744665N00339814WA0122201322
B1310063744665N00339817WA0122301323
B1310073744665N00339820WA0122401325
B1310083744666N00339824WA0122401325
B1310093744668N00339827WA0122501326
B1310103744670N00339830WA0122601327
B1310113744672N00339832WA0122601328
B1310123744676N00339833WA0122701328
B1310133744679N00339834WA0122801328
B1310143744683N00339835WA0123001330
B1310153744687N00339836WA0123201332
B1310163744690N00339838WA0123501335
B1310173744693N00339839WA0123701337
B1310183744697N00339840WA0123801339
B1310193744701N00339840WA0124001341
B1310203744704N00339839WA0124401345
B1310213744707N00339835WA0124601347
B1310223744708N00339829WA0124701349
B1310233744708N00339822WA0124901351
B1310243744705N00339814WA0125101353
B1310253744701N00339807WA0125401356
B1310263744695N00339802WA0125701360
B1310273744689N00339800WA0126001363
B1310283744682N00339799WA0126301365
B1310293744676N00339801WA0126501367
B1310303744670N00339805WA0126601369
B1310313744667N00339810WA0126901372
B1310323744666N00339815WA0127101375
B1310333744665N00339819WA0127301378
B1310343744666N00339823WA0127501380
B1310353744668N00339826WA0127601381
B1310363744671N00339829WA0127701381
B1310373744675N00339831WA0127801382
B1310383744678N00339833WA0128001383
B1310393744682N00339834WA0128101385
B1310403744685N00339835WA0128301386
B1310413744688N00339835WA0128401388
B1310423744691N00339834WA0128501389
B1310433744694N00339831WA0128501389
B1310443744696N00339826WA0128501389
B1310453744698N00339821WA0128601389
B1310463744699N00339815WA0128801390
B1310473744699N00339809WA0128901392
B1310483744698N00339802WA0129101393
B1310493744696N00339796WA0129401395
B1310503744694N00339790WA0129601397
B1310513744689N00339784WA0129601398
B1310523744683N00339778WA0129801400
B1310533744676N00339774WA0130101402
B1310543744669N00339771WA0130301404
B1310553744663N00339771WA0130701407
B1310563744657N00339773WA0130901410
B1310573744653N00339776WA0131101413
B1310583744649N00339781WA0131301415
B1310593744646N00339785WA0131501417
B1311003744646N00339790WA0131701419
B1311013744646N00339795WA0131901421
B1311023744647N00339799WA0132001423
B1311033744650N00339802WA0132001424
B1311043744653N00339804WA0132001425
B1311053744656N00339805WA0132001427
B1311063744660N00339807WA0132101428
B1311073744663N00339808WA0132301429
B1311083744666N00339808WA0132401430
B1311093744669N00339807WA0132501431
B1311103744672N00339806WA0132601433
B1311113744674N00339805WA0132801434
B1311123744677N00339803WA0132801435
B1311133744680N00339802WA0132901436
B1311143744683N00339800WA0132701436
B1311153744687N00339797WA0132601436
B1311163744690N00339791WA0132701435
B1311173744693N00339783WA0132901435
B1311183744695N00339775WA0133201436
B1311193744695N00339767WA0133601440
B1311203744694N00339760WA0133901445
B1311213744691N00339754WA0134101448
B1311223744687N00339749WA0134301450
B1311233744681N00339744WA0134501452
B1311243744674N00339740WA0134701453
B1311253744668N00339737WA0135101456
B1311263744662N00339738WA0135501459
B1311273744657N00339742WA0135801462
B1311283744653N00339747WA0136101466
B1311293744651N00339752WA0136301469
B1311303744650N00339757WA0136601472
B1311313744652N00339761WA0136901475
B1311323744655N00339764WA0137001477
B1311333744659N00339764WA0137201478
B1311343744663N00339762WA0137501481
B1311353744666N00339757WA0137701484
B1311363744668N00339751WA0138001486
B1311373744669N00339743WA0138201489
B1311383744667N00339735WA0138501491
B1311393744664N00339727WA0138801494
B1311403744660N00339720WA0139101497
B1311413744655N00339714WA0139501500
B1311423744649N00339710WA0139901504
B1311433744643N00339709WA0140201508
B1311443744636N00339710WA0140601511
B1311453744630N00339713WA0141001515
B1311463744625N00339716WA0141301519
B1311473744622N00339720WA0141601523
B1311483744620N00339725WA0141801526
B1311493744620N00339730WA0142001529
B1311503744621N00339735WA0142201532
B1311513744623N00339740WA0142501534
B1311523744624N00339744WA0142801538
B1311533744626N00339746WA0143001541
B1311543744630N00339746WA0143101543
B1311553744634N00339744WA0143301544
B1311563744638N00339740WA0143501545
B1311573744640N00339734WA0143701547
B1311583744641N00339727WA0143801550
B1311593744640N00339720WA0144001552
B1312003744639N00339712WA0144201554
B1312013744638N00339703WA0144501556
B1312023744635N00339695WA0144901559
B1312033744631N00339688WA0145201562
B1312043744625N00339684WA0145301565
B1312053744618N00339682WA0145601566
B1312063744611N00339682WA0145901568
B1312073744605N00339684WA0146201571
B1312083744601N00339689WA0146701576
B1312093744598N00339695WA0147201581
B1312103744598N00339701WA0147501584
B1312113744600N00339707WA0147801588
B1312123744602N00339711WA0148201592
B1312133744606N00339713WA0148601596
B1312143744609N00339711WA0148901600
B1312153744612N00339708WA0149101603
B1312163744614N00339703WA0149201606
B1312173744615N00339695WA0149301609
B1312183744615N00339686WA0149501611
B1312193744613N00339677WA0149801613
B1312203744611N00339670WA0150101616
B1312213744607N00339663WA0150501620
B1312223744603N00339657WA0150701623
B1312233744597N00339653WA0151001625
B1312243744590N00339649WA0151201627
B1312253744583N00339646WA0151601630
B1312263744577N00339645WA0152301633
B1312273744571N00339648WA0152701638
B1312283744567N00339653WA0153001643
B1312293744564N00339658WA0153501648
B1312303744561N00339663WA0154001653
B1312313744560N00339668WA0154101658
B1312323744560N00339673WA0154501662
B1312333744562N00339678WA0154701666
B1312343744566N00339682WA0154701668
B1312353744571N00339686WA0154801668
B1312363744577N00339687WA0155301670
B1312373744582N00339686WA0155801674
B1312383744585N00339682WA0156101680
B1312393744586N00339677WA0156301683
B1312403744586N00339668WA0156301685
B1312413744584N00339660WA0156201683
B1312423744580N00339650WA0156301681
B1312433744575N00339641WA0156701682
B1312443744570N00339635WA0157101685
B1312453744565N00339631WA0157501688
B1312463744559N00339629WA0157901691
B1312473744554N00339631WA0158401695
B1312483744548N00339634WA0158701699
B1312493744543N00339638WA0159101702
B1312503744539N00339644WA0159501707
B1312513744536N00339650WA0159901712
B1312523744536N00339656WA0160201717
B1312533744536N00339662WA0160501721
B1312543744538N00339668WA0160601724
B1312553744540N00339674WA0160801727
B1312563744543N00339679WA0160901728
B1312573744547N00339682WA0161001729
B1312583744551N00339684WA0161201730
B1312593744557N00339684WA0161401732
B1313003744561N00339682WA0161701734
B1313013744564N00339677WA0161901737
B1313023744565N00339670WA0162101740
B1313033744565N00339663WA0162101742
B1313043744563N00339655WA0162101743
B1313053744560N00339647WA0162201744
B1313063744556N00339639WA0162301744
B1313073744551N00339631WA0162401745
B1313083744545N00339623WA0162601745
B1313093744539N00339617WA0162901748
B1313103744534N00339613WA0163301751
B1313113744529N00339611WA0163601753
B1313123744523N00339611WA0163801756
B1313133744518N00339613WA0163901758
B1313143744512N00339616WA0164001759
B1313153744507N00339620WA0164201760
B1313163744503N00339625WA0164501763
B1313173744500N00339631WA0164601766
B1313183744499N00339637WA0164901769
B1313193744500N00339643WA0165201772
B1313203744502N00339647WA0165401774
B1313213744506N00339648WA0165501776
B1313223744511N00339647WA0165601778
B1313233744514N00339644WA0165801780
B1313243744517N00339639WA0166101783
B1313253744518N00339633WA0166201785
B1313263744518N00339626WA0166401787
B1313273744516N00339618WA0166301788
B1313283744514N00339609WA0166401787
B1313293744511N00339600WA0166601788
B1313303744508N00339593WA0166801790
B1313313744504N00339587WA0167001792
B1313323744500N00339582WA0167101794
B1313333744495N00339578WA0167301796
B1313343744489N00339575WA0167401797
B1313353744482N00339574WA0167301798
B1313363744474N00339575WA0167201799
B1313373744467N00339578WA0167601799
B1313383744460N00339583WA0168001801
B1313393744455N00339587WA0168501807
B1313403744453N00339591WA0168901812
B1313413744451N00339596WA0169201816
B1313423744452N00339602WA0169101819
B1313433744454N00339608WA0169001819
B1313443744457N00339612WA0169101817
B1313453744461N00339616WA0169301819
B1313463744464N00339619WA0169501821
B1313473744466N00339622WA0169701823
B1313483744468N00339623WA0169901825
B1313493744470N00339623WA0170101827
B1313503744473N00339621WA0170001827
B1313513744477N00339618WA0170101827
B1313523744480N00339614WA0170201827
B1313533744483N00339609WA0170401828
B1313543744486N00339603WA0170801830
B1313553744487N00339597WA0171001832
B1313563744486N00339590WA0171101834
B1313573744483N00339583WA0170801835
B1313583744479N00339576WA0171001835
B1313593744474N00339570WA0171101836
B1314003744468N00339565WA0171201836
B1314013744463N00339560WA0171301837
B1314023744457N00339557WA0171301838
B1314033744450N00339556WA0171401838
B1314043744444N00339557WA0171501839
B1314053744438N00339560WA0171701841
B1314063744433N00339563WA0172001843
B1314073744429N00339567WA0172201846
B1314083744426N00339572WA0172401848
B1314093744424N00339578WA0172601849
B1314103744423N00339584WA0172801851
B1314113744425N00339588WA0172901853
B1314123744427N00339592WA0172701855
B1314133744430N00339595WA0172501855
B1314143744433N00339598WA0172601856
B1314153744435N00339600WA0173101857
B1314163744438N00339601WA0173301859
B1314173744442N00339601WA0173601861
B1314183744446N00339602WA0173701863
B1314193744451N00339602WA0174001866
B1314203744455N00339601WA0174401868
B1314213744458N00339599WA0174701872
B1314223744461N00339595WA0174901875
B1314233744462N00339590WA0175101877
B1314243744462N00339583WA0175401880
B1314253744459N00339576WA0175501882
B1314263744456N00339571WA0175601883
B1314273744451N00339567WA0175701884
B1314283744446N00339565WA0175501886
B1314293744439N00339564WA0175401886
B1314303744433N00339566WA0175801886
B1314313744427N00339569WA0176101887
B1314323744421N00339573WA0176401891
B1314333744417N00339577WA0176701896
B1314343744415N00339581WA0176801899
B1314353744413N00339586WA0177001900
B1314363744411N00339594WA0177001900
B1314373744409N00339602WA0177101901
B1314383744408N00339608WA0177501905
B1314393744408N00339614WA0177701908
B1314403744410N00339617WA0177801910
B1314413744412N00339619WA0177701910
B1314423744416N00339621WA0177401910
B1314433744421N00339624WA0177301908
B1314443744426N00339627WA0177401907
B1314453744430N00339630WA0177601908
B1314463744434N00339632WA0177901910
B1314473744436N00339633WA0178301914
B1314483744439N00339633WA0178601917
B1314493744442N00339633WA0178801920
B1314503744445N00339633WA0179001922
B1314513744448N00339632WA0179401924
B1314523744452N00339630WA0179801927
B1314533744454N00339628WA0180301932
B1314543744456N00339623WA0180601936
B1314553744455N00339617WA0180901939
B1314563744452N00339611WA0181201941
B1314573744448N00339606WA0181501944
B1314583744443N00339602WA0181901947
B1314593744436N00339601WA0182101950
B1315003744430N00339602WA0182301953
B1315013744423N00339604WA0182601956
B1315023744417N00339608WA0182901959
B1315033744413N00339614WA0183201962
B1315043744410N00339620WA0183401964
B1315053744409N00339626WA0183601966
B1315063744409N00339632WA0183701969
B1315073744411N00339637WA0183901970
B1315083744413N00339642WA0184101972
B1315093744416N00339648WA0184201973
B1315103744419N00339653WA0184501975
B1315113744422N00339657WA0184801978
B1315123744425N00339661WA0185101981
B1315133744428N00339663WA0185401984
B1315143744432N00339664WA0185601987
B1315153744435N00339663WA0185701988
B1315163744438N00339659WA0185701988
B1315173744440N00339653WA0185501989
B1315183744440N00339646WA0185601989
B1315193744440N00339638WA0186001991
B1315203744439N00339631WA0186301993
B1315213744436N00339626WA0186601997
B1315223744433N00339621WA0186902001
B1315233744428N00339619WA0187002003
B1315243744423N00339618WA0187002005
B1315253744417N00339618WA0187102007
B1315263744411N00339619WA0187102008
B1315273744405N00339621WA0187502010
B1315283744399N00339623WA0187902013
B1315293744394N00339626WA0188202017
B1315303744391N00339631WA0188302019
B1315313744389N00339636WA0188502021
B1315323744388N00339641WA0188502021
B1315333744388N00339648WA0188402022
B1315343744388N00339656WA0188202021
B1315353744389N00339663WA0188502021
B1315363744392N00339671WA0188702022
B1315373744395N00339676WA0189002025
B1315383744399N00339680WA0189202029
B1315393744403N00339684WA0189602032
B1315403744407N00339687WA0189702034
B1315413744411N00339688WA0189902036
B1315423744415N00339689WA0190102037
B1315433744419N00339690WA0190002038
B1315443744424N00339691WA0190002038
B1315453744429N00339692WA0189502038
B1315463744435N00339693WA0189202036
B1315473744440N00339694WA0189302036
B1315483744445N00339693WA0189402036
B1315493744449N00339691WA0189502035
B1315503744452N00339689WA0189402034
B1315513744456N00339688WA0189202033
B1315523744460N00339686WA0188902030
B1315533744465N00339684WA0188602027
B1315543744470N00339681WA0188402024
B1315553744475N00339677WA0188402021
B1315563744479N00339674WA0188402022
B1315573744483N00339671WA0188602022
B1315583744486N00339669WA0188402022
B1315593744490N00339666WA0188202020
B1316003744494N00339663WA0187802016
B1316013744499N00339660WA0187402013
B1316023744504N00339657WA0187402011
B1316033744509N00339654WA0187302009
B1316043744513N00339651WA0187302008
B1316053744517N00339648WA0187202007
B1316063744520N00339645WA0187202007
B1316073744523N00339643WA0187102006
B1316083744527N00339641WA0187002005
B1316093744530N00339640WA0186802004
B1316103744533N00339637WA0186602002
B1316113744537N00339634WA0186402000
B1316123744540N00339629WA0186301998
B1316133744543N00339625WA0186401997
B1316143744546N00339622WA0186401998
B1316153744549N00339621WA0186401998
B1316163744552N00339619WA0186301997
B1316173744555N00339617WA0186101995
B1316183744559N00339615WA0185901994
B1316193744562N00339614WA0185701993
B1316203744565N00339614WA0185801992
B1316213744568N00339615WA0185701992
B1316223744571N00339615WA0185601991
B1316233744575N00339615WA0185401989
B1316243744578N00339616WA0185301988
B1316253744582N00339615WA0185101986
B1316263744586N00339613WA0185101985
B1316273744589N00339611WA0184901984
B1316283744591N00339609WA0184801984
B1316293744595N00339607WA0184601983
B1316303744598N00339605WA0184401981
B1316313744602N00339602WA0184401980
B1316323744606N00339599WA0184601979
B1316333744610N00339597WA0184701979
B1316343744614N00339596WA0184701980
B1316353744617N00339595WA0184601980
B1316363744620N00339594WA0184401979
B1316373744625N00339592WA0184201977
B1316383744629N00339590WA0184101975
B1316393744634N00339587WA0184101974
B1316403744637N00339585WA0184101974
B1316413744641N00339582WA0184001974
B1316423744644N00339578WA0184001974
B1316433744648N00339575WA0183801973
B1316443744652N00339572WA0183601971
B1316453744656N00339570WA0183501969
B1316463744660N00339568WA0183501969
B1316473744664N00339565WA0183501970
B1316483744666N00339562WA0183501970
B1316493744670N00339559WA0183201969
B1316503744674N00339556WA0182901967
B1316513744679N00339553WA0182901964
B1316523744685N00339549WA0183001963
B1316533744689N00339545WA0183301964
B1316543744692N00339543WA0183801966
B1316553744694N00339541WA0184201970
B1316563744696N00339539WA0184401972
B1316573744699N00339537WA0184701975
B1316583744702N00339534WA0184901978
B1316593744705N00339532WA0185201980
B1317003744708N00339529WA0185501984
B1317013744711N00339525WA0185801988
B1317023744714N00339520WA0186101991
B1317033744716N00339515WA0186301993
B1317043744718N00339510WA0186401996
B1317053744721N00339506WA0186501998
B1317063744724N00339502WA0186601999
B1317073744728N00339498WA0186802000
B1317083744732N00339494WA0187002001
B1317093744736N00339490WA0187302005
B1317103744739N00339486WA0187602008
B1317113744741N00339481WA0187702011
B1317123744745N00339476WA0187802013
B1317133744749N00339471WA0187702014
B1317143744754N00339466WA0187702013
B1317153744760N00339462WA0187702012
B1317163744765N00339459WA0187602013
B1317173744769N00339456WA0187402013
B1317183744772N00339452WA0187202011
B1317193744777N00339448WA0186602009
B1317203744782N00339444WA0186402005
B1317213744788N00339440WA0186302002
B1317223744793N00339437WA0186502002
B1317233744797N00339435WA0186502002
B1317243744800N00339432WA0186502002
B1317253744803N00339428WA0186101999
B1317263744808N00339424WA0185701995
B1317273744814N00339421WA0185301990
B1317283744820N00339417WA0185201987
B1317293744826N00339412WA0185101985
B1317303744831N00339409WA0185101985
B1317313744835N00339406WA0185101986
B1317323744839N00339403WA0185201986
B1317333744842N00339400WA0185201986
B1317343744845N00339398WA0185001984
B1317353744848N00339396WA0184601983
B1317363744852N00339394WA0184201979
B1317373744856N00339391WA0183701975
B1317383744860N00339388WA0183401970
B1317393744865N00339384WA0183101966
B1317403744870N00339381WA0183101963
B1317413744875N00339380WA0183001961
B1317423744878N00339378WA0183001960
B1317433744882N00339377WA0182801959
B1317443744885N00339375WA0182501956
B1317453744890N00339373WA0182101951
B1317463744895N00339371WA0181801948
B1317473744900N00339371WA0181501944
B1317483744905N00339370WA0181301942
B1317493744910N00339370WA0181001939
B1317503744915N00339368WA0180701937
B1317513744920N00339366WA0180401934
B1317523744925N00339364WA0180001931
B1317533744931N00339362WA0179801927
B1317543744937N00339359WA0179701925
B1317553744943N00339357WA0179701924
B1317563744949N00339355WA0179501925
B1317573744955N00339353WA0179401925
B1317583744961N00339351WA0179301924
B1317593744966N00339347WA0179201922
B1318003744972N00339344WA0179001921
B1318013744978N00339341WA0178601919
B1318023744984N00339339WA0178401917
B1318033744991N00339338WA0178301915
B1318043744997N00339335WA0178101913
B1318053745003N00339333WA0177901911
B1318063745009N00339331WA0177401910
B1318073745015N00339328WA0177501908
B1318083745021N00339325WA0177401906
B1318093745027N00339321WA0177301904
B1318103745034N00339319WA0177301903
B1318113745040N00339316WA0177401904
B1318123745047N00339314WA0177301904
B1318133745053N00339312WA0177101904
B1318143745060N00339311WA0177001902
B1318153745067N00339310WA0177001901
B1318163745074N00339308WA0177001900
B1318173745080N00339304WA0177001900
B1318183745085N00339301WA0176901901
B1318193745089N00339296WA0176801901
B1318203745093N00339290WA0176401899
B1318213745097N00339284WA0176301896
B1318223745102N00339278WA0175901893
B1318233745108N00339273WA0175601891
B1318243745114N00339269WA0175801890
B1318253745119N00339266WA0175701889
B1318263745124N00339263WA0175601888
B1318273745129N00339260WA0175401886
B1318283745134N00339256WA0175201884
B1318293745140N00339252WA0175001882
B1318303745146N00339247WA0174901879
B1318313745151N00339243WA0174701877
B1318323745156N00339239WA0174601876
B1318333745161N00339234WA0174401874
B1318343745166N00339229WA0174201873
B1318353745172N00339225WA0174101871
B1318363745177N00339220WA0174001870
B1318373745182N00339216WA0173901869
B1318383745188N00339212WA0173801869
B1318393745193N00339207WA0173701868
B1318403745199N00339204WA0173701867
B1318413745204N00339201WA0173701867
B1318423745210N00339198WA0173601866
B1318433745215N00339194WA0173501865
B1318443745222N00339191WA0173401863
B1318453745228N00339187WA0173301862
B1318463745234N00339184WA0173301862
B1318473745240N00339181WA0173101861
B1318483745245N00339177WA0173001860
B1318493745251N00339174WA0172901858
B1318503745257N00339171WA0172701857
B1318513745263N00339168WA0172701856
B1318523745268N00339166WA0172701856
B1318533745273N00339165WA0172601855
B1318543745278N00339164WA0172401854
B1318553745283N00339162WA0171801852
B1318563745289N00339160WA0171701850
B1318573745295N00339157WA0171701847
B1318583745300N00339154WA0171601846
B1318593745306N00339152WA0171501845
B1319003745311N00339151WA0171401844
B1319013745315N00339149WA0171301843
B1319023745320N00339146WA0171101841
B1319033745324N00339142WA0170801838
B1319043745327N00339137WA0170501835
B1319053745331N00339133WA0170301832
B1319063745335N00339129WA0170001830
B1319073745339N00339127WA0169601828
B1319083745345N00339124WA0169301823
B1319093745350N00339119WA0169101819
B1319103745353N00339115WA0168901816
B1319113745356N00339110WA0168701814
B1319123745359N00339104WA0168401812
B1319133745362N00339099WA0168101809
B1319143745364N00339093WA0167801806
B1319153745367N00339088WA0167501804
B1319163745371N00339083WA0167201801
B1319173745374N00339079WA0167001799
B1319183745378N00339076WA0166801796
B1319193745382N00339072WA0166601793
B1319203745386N00339068WA0166501791
B1319213745389N00339064WA0166201789
B1319223745393N00339059WA0166001787
B1319233745396N00339055WA0165801785
B1319243745399N00339050WA0165601783
B1319253745402N00339044WA0165401781
B1319263745405N00339037WA0165201779
B1319273745407N00339031WA0165101778
B1319283745410N00339025WA0165001776
B1319293745413N00339019WA0164901775
B1319303745416N00339013WA0164701774
B1319313745419N00339007WA0164601772
B1319323745421N00339001WA0164601771
B1319333745423N00338995WA0164401770
B1319343745425N00338989WA0164201769
B1319353745427N00338983WA0164201768
B1319363745429N00338976WA0164001766
B1319373745431N00338969WA0163801764
B1319383745433N00338962WA0163801763
B1319393745435N00338955WA0163701763
B1319403745437N00338950WA0163601762
B1319413745439N00338944WA0163401761
B1319423745442N00338937WA0163201759
B1319433745444N00338930WA0163001756
B1319443745446N00338923WA0162801754
B1319453745448N00338916WA0162701752
B1319463745450N00338910WA0162501751
B1319473745452N00338903WA0162301749
B1319483745454N00338895WA0162201748
B1319493745456N00338888WA0162001746
B1319503745458N00338880WA0161901744
B1319513745460N00338872WA0161701743
B1319523745462N00338865WA0161601742
B1319533745465N00338859WA0161501741
B1319543745468N00338853WA0161401739
B1319553745471N00338846WA0161201738
B1319563745474N00338840WA0161101736
B1319573745477N00338834WA0161101736
B1319583745479N00338828WA0161001735
B1319593745482N00338822WA0160701734
B1320003745486N00338817WA0160501733
B1320013745489N00338812WA0160401731
B1320023745493N00338806WA0160301729
B1320033745496N00338800WA0160201728
B1320043745499N00338795WA0160201727
B1320053745502N00338790WA0160201727
B1320063745505N00338784WA0160001726
B1320073745508N00338779WA0159801725
B1320083745511N00338773WA0159801723
B1320093745515N00338768WA0159701722
B1320103745519N00338764WA0159701721
B1320113745522N00338759WA0159701721
B1320123745525N00338753WA0159601720
B1320133745528N00338747WA0159501719
B1320143745531N00338741WA0159201718
B1320153745535N00338734WA0159301716
B1320163745538N00338729WA0159401717
B1320173745541N00338723WA0159601718
B1320183745543N00338718WA0159701720
B1320193745545N00338712WA0159701721
B1320203745547N00338706WA0159701721
B1320213745550N00338701WA0159601720
B1320223745552N00338695WA0159501720
B1320233745554N00338689WA0159501720
B1320243745555N00338682WA0159401719
B1320253745556N00338676WA0159301718
B1320263745559N00338670WA0159101717
B1320273745563N00338664WA0159001715
B1320283745566N00338658WA0158901713
B1320293745569N00338652WA0158901713
B1320303745572N00338647WA0158901712
B1320313745575N00338643WA0158801712
B1320323745577N00338638WA0158601711
B1320333745580N00338633WA0158301708
B1320343745584N00338628WA0157801706
B1320353745587N00338623WA0158001705
B1320363745591N00338619WA0158101704
B1320373745594N00338615WA0158201705
B1320383745596N00338611WA0158101704
B1320393745599N00338606WA0158001704
B1320403745602N00338601WA0157901702
B1320413745605N00338596WA0157801701
B1320423745608N00338591WA0157801700
B1320433745611N00338587WA0157601700
B1320443745615N00338582WA0157501699
B1320453745618N00338578WA0157501698
B1320463745622N00338574WA0157401697
B1320473745626N00338571WA0157501697
B1320483745629N00338568WA0157601697
B1320493745632N00338566WA0157501697
B1320503745636N00338563WA0157401697
B1320513745640N00338560WA0157301696
B1320523745644N00338557WA0157301695
B1320533745648N00338554WA0157201695
B1320543745652N00338552WA0157301695
B1320553745655N00338549WA0157201695
B1320563745659N00338547WA0157201694
B1320573745663N00338544WA0157001693
B1320583745668N00338542WA0156801691
B1320593745673N00338539WA0156701689
B1321003745677N00338537WA0156701688
B1321013745682N00338534WA0156701688
B1321023745685N00338531WA0156601688
B1321033745689N00338527WA0156401686
B1321043745693N00338524WA0156301685
B1321053745698N00338521WA0156101684
B1321063745702N00338518WA0156001682
B1321073745707N00338514WA0156001681
B1321083745711N00338511WA0155901681
B1321093745714N00338507WA0155801680
B1321103745718N00338505WA0155501679
B1321113745723N00338502WA0155201677
B1321123745727N00338499WA0155001674
B1321133745731N00338495WA0154801670
B1321143745736N00338491WA0154501668
B1321153745740N00338488WA0154401666
B1321163745744N00338485WA0154301665
B1321173745748N00338482WA0154101663
B1321183745752N00338478WA0154001662
B1321193745756N00338474WA0153801659
B1321203745760N00338469WA0153601657
B1321213745763N00338465WA0153501656
B1321223745767N00338460WA0153401654
B1321233745770N00338456WA0153201653
B1321243745774N00338452WA0153001651
B1321253745778N00338447WA0152801649
B1321263745781N00338443WA0152501646
B1321273745785N00338438WA0152201643
B1321283745789N00338432WA0152001640
B1321293745792N00338427WA0151901638
B1321303745795N00338421WA0151701636
B1321313745797N00338416WA0151401635
B1321323745800N00338411WA0151001632
B1321333745803N00338406WA0150801629
B1321343745806N00338401WA0150701626
B1321353745809N00338395WA0150501623
B1321363745812N00338390WA0150501622
B1321373745814N00338384WA0150401621
B1321383745815N00338379WA0150401620
B1321393745815N00338373WA0150101618
B1321403745816N00338367WA0150001616
B1321413745818N00338360WA0149801615
B1321423745820N00338354WA0149801614
B1321433745822N00338349WA0149901614
B1321443745823N00338344WA0149801614
B1321453745824N00338340WA0149701614
B1321463745826N00338334WA0149501612
B1321473745828N00338328WA0149401610
B1321483745831N00338323WA0149101609
B1321493745833N00338319WA0149001607
B1321503745836N00338315WA0148901606
B1321513745838N00338310WA0148601605
B1321523745840N00338305WA0148401602
B1321533745842N00338299WA0148101599
B1321543745844N00338294WA0147801596
B1321553745847N00338289WA0147501593
B1321563745850N00338285WA0147201590
B1321573745852N00338280WA0147001588
B1321583745855N00338275WA0146801586
B1321593745857N00338271WA0146601584
B1322003745859N00338266WA0146301582
B1322013745863N00338262WA0146101579
B1322023745867N00338258WA0145901576
B1322033745871N00338254WA0145801574
B1322043745874N00338250WA0145701574
B1322053745877N00338245WA0145601573
B1322063745881N00338241WA0145301571
B1322073745885N00338238WA0145001569
B1322083745890N00338235WA0144901567
B1322093745894N00338232WA0144801565
B1322103745897N00338228WA0144801564
B1322113745900N00338224WA0144801564
B1322123745903N00338222WA0144601564
B1322133745907N00338220WA0144401563
B1322143745911N00338218WA0144001561
B1322153745915N00338215WA0143801557
B1322163745920N00338212WA0143601554
B1322173745924N00338210WA0143501553
B1322183745928N00338208WA0143401551
B1322193745931N00338207WA0143201550
B1322203745934N00338205WA0142501546
B1322213745938N00338202WA0141901542
B1322223745942N00338199WA0141601538
B1322233745946N00338193WA0141301534
B1322243745949N00338187WA0141001530
B1322253745953N00338182WA0140701526
B1322263745956N00338178WA0140501524
B1322273745958N00338174WA0140201521
B1322283745960N00338169WA0139901517
B1322293745963N00338164WA0139401512
B1322303745966N00338158WA0138901506
B1322313745970N00338152WA0138401501
B1322323745974N00338147WA0137901496
B1322333745977N00338141WA0137601492
B1322343745980N00338136WA0137301488
B1322353745983N00338129WA0136901484
B1322363745985N00338124WA0136601481
B1322373745989N00338118WA0136501477
B1322383745992N00338112WA0136201475
B1322393745995N00338107WA0136001473
B1322403745999N00338101WA0136001472
B1322413746002N00338097WA0135901471
B1322423746005N00338093WA0135701470
B1322433746009N00338089WA0135401467
B1322443746013N00338084WA0135001464
B1322453746017N00338079WA0134701461
B1322463746021N00338074WA0134501458
B1322473746024N00338069WA0134301456
B1322483746026N00338063WA0134001453
B1322493746028N00338057WA0133501450
B1322503746031N00338050WA0133301447
B1322513746034N00338044WA0133001444
B1322523746036N00338037WA0132801441
B1322533746039N00338031WA0132801439
B1322543746042N00338024WA0132601437
B1322553746044N00338018WA0132401436
B1322563746047N00338012WA0132401434
B1322573746051N00338007WA0132301433
B1322583746054N00338001WA0132201432
B1322593746057N00337996WA0132101431
B1323003746059N00337991WA0132001430
B1323013746062N00337985WA0131901429
B1323023746065N00337980WA0131601426
B1323033746068N00337974WA0131501424
B1323043746071N00337969WA0131401422
B1323053746073N00337965WA0131301422
B1323063746076N00337961WA0131201421
B1323073746079N00337958WA0130701419
B1323083746082N00337953WA0130201417
B1323093746085N00337947WA0130201414
B1323103746087N00337940WA0130201412
B1323113746089N00337933WA0130101410
B1323123746091N00337927WA0130001410
B1323133746093N00337921WA0130001409
B1323143746095N00337915WA0129901408
B1323153746098N00337910WA0129701407
B1323163746101N00337904WA0129401405
B1323173746104N00337897WA0129301403
B1323183746105N00337889WA0129001401
B1323193746106N00337880WA0128801398
B1323203746108N00337872WA0128601396
B1323213746108N00337864WA0128501394
B1323223746109N00337857WA0128501393
B1323233746111N00337851WA0128001390
B1323243746114N00337844WA0127201387
B1323253746118N00337836WA0127001383
B1323263746123N00337828WA0126801378
B1323273746126N00337821WA0126901376
B1323283746129N00337815WA0127101376
B1323293746132N00337811WA0127101377
B1323303746135N00337807WA0126901376
B1323313746139N00337803WA0126801374
B1323323746144N00337797WA0126601372
B1323333746148N00337792WA0126601371
B1323343746151N00337788WA0126701370
B1323353746156N00337785WA0126501370
B1323363746160N00337783WA0126501369
B1323373746165N00337781WA0126301368
B1323383746170N00337777WA0126401367
B1323393746174N00337773WA0126401368
B1323403746179N00337770WA0126401368
B1323413746183N00337766WA0126501368
B1323423746187N00337763WA0126601369
B1323433746191N00337760WA0126601370
B1323443746195N00337758WA0126601370
B1323453746200N00337756WA0126601369
B1323463746205N00337756WA0126601369
B1323473746208N00337757WA0126701370
B1323483746209N00337758WA0126801371
B1323493746211N00337759WA0126601371
B1323503746215N00337761WA0126101370
B1323513746218N00337762WA0126101368
B1323523746221N00337763WA0126101366
B1323533746224N00337763WA0126101365
B1323543746227N00337761WA0126001365
B1323553746229N00337759WA0125901365
B1323563746232N00337756WA0125601363
B1323573746235N00337751WA0125201360
B1323583746239N00337747WA0124801358
B1323593746242N00337741WA0124801357
B1324003746245N00337734WA0125201356
B1324013746246N00337727WA0125101355
B1324023746248N00337721WA0125001355
B1324033746249N00337715WA0124601353
B1324043746251N00337708WA0124101350
B1324053746254N00337700WA0123901347
B1324063746257N00337691WA0123801345
B1324073746259N00337682WA0123801343
B1324083746261N00337674WA0123801342
B1324093746262N00337665WA0123801341
B1324103746263N00337657WA0123701340
B1324113746264N00337649WA0123501339
B1324123746266N00337639WA0123101337
B1324133746268N00337629WA0122701335
B1324143746270N00337619WA0123201334
B1324153746270N00337609WA0123301338
B1324163746271N00337601WA0123401339
B1324173746273N00337593WA0123401340
B1324183746275N00337585WA0123301340
B1324193746277N00337576WA0123301339
B1324203746279N00337567WA0123301338
B1324213746280N00337558WA0123301337
B1324223746282N00337550WA0123401337
B1324233746284N00337543WA0123301338
B1324243746288N00337537WA0123001337
B1324253746291N00337531WA0122901336
B1324263746295N00337525WA0123001336
B1324273746298N00337519WA0123101335
B1324283746303N00337515WA0123101334
B1324293746307N00337511WA0123001334
B1324303746312N00337508WA0122801333
B1324313746316N00337506WA0122801333
B1324323746321N00337503WA0122801332
B1324333746326N00337500WA0122801332
B1324343746330N00337498WA0122801332
B1324353746334N00337497WA0122801332
B1324363746338N00337497WA0122701332
B1324373746342N00337498WA0122601331
B1324383746347N00337498WA0122601331
B1324393746351N00337497WA0122701331
B1324403746356N00337497WA0122701331
B1324413746360N00337496WA0122601331
B1324423746365N00337494WA0122601330
B1324433746370N00337491WA0122401329
B1324443746375N00337489WA0122501329
B1324453746380N00337486WA0122601329
B1324463746384N00337485WA0122701329
B1324473746388N00337484WA0122801330
B1324483746390N00337484WA0122801331
B1324493746393N00337484WA0122801331
B1324503746394N00337486WA0122801331
B1324513746395N00337488WA0122501331
B1324523746394N00337492WA0122601331
B1324533746390N00337495WA0122201330
B1324543746385N00337497WA0122301329
B1324553746379N00337498WA0122601329
B1324563746373N00337498WA0122801330
B1324573746369N00337495WA0123101331
B1324583746364N00337491WA0123101332
B1324593746359N00337485WA0123001332
B1325003746355N00337478WA0122601331
B1325013746351N00337468WA0122601330
B1325023746350N00337458WA0122601329
B1325033746350N00337448WA0122501329
B1325043746352N00337438WA0122601329
B1325053746353N00337430WA0122801330
B1325063746355N00337423WA0123001332
B1325073746358N00337417WA0123001332
B1325083746361N00337412WA0123001331
B1325093746365N00337409WA0122801330
B1325103746369N00337408WA0122801330
B1325113746373N00337410WA0122301329
B1325123746374N00337415WA0122001329
B1325133746375N00337420WA0122101328
B1325143746374N00337424WA0122401329
B1325153746373N00337428WA0122601330
B1325163746371N00337430WA0122801331
B1325173746369N00337432WA0122801332
B1325183746366N00337434WA0122801332
B1325193746362N00337436WA0122601332
B1325203746356N00337437WA0122301332
B1325213746349N00337436WA0122501331
B1325223746343N00337432WA0122601332
B1325233746338N00337427WA0122701332
B1325243746333N00337422WA0122801333
B1325253746329N00337415WA0122901333
B1325263746325N00337408WA0122801333
B1325273746323N00337399WA0122501332
B1325283746322N00337388WA0122201332
B1325293746322N00337377WA0122101332
B1325303746323N00337368WA0122201332
B1325313746324N00337360WA0122401332
B1325323746326N00337352WA0122501333
B1325333746328N00337345WA0122401333
B1325343746331N00337338WA0122401331
B1325353746335N00337333WA0122401329
B1325363746339N00337329WA0122301328
B1325373746343N00337326WA0122201328
B1325383746346N00337326WA0122201328
B1325393746350N00337326WA0122201327
B1325403746353N00337328WA0122201327
B1325413746355N00337330WA0122201327
B1325423746357N00337332WA0122201328
B1325433746357N00337336WA0122301327
B1325443746354N00337340WA0122201327
B1325453746349N00337343WA0122101325
B1325463746343N00337344WA0121801323
B1325473746337N00337342WA0121901324
B1325483746331N00337340WA0122201325
B1325493746325N00337338WA0122201326
B1325503746320N00337335WA0122201327
B1325513746314N00337332WA0122201326
B1325523746308N00337326WA0122201326
B1325533746302N00337320WA0122001325
B1325543746297N00337313WA0122001325
B1325553746293N00337305WA0122101325
B1325563746291N00337297WA0121901325
B1325573746290N00337288WA0121601324
B1325583746290N00337279WA0121301321
B1325593746292N00337270WA0121501319
B1326003746295N00337262WA0121501318
B1326013746299N00337257WA0121701318
B1326023746303N00337254WA0121901321
B1326033746305N00337253WA0122101322
B1326043746308N00337255WA0122101322
B1326053746309N00337258WA0122101323
B1326063746309N00337261WA0122101324
B1326073746309N00337265WA0122201324
B1326083746307N00337268WA0122101324
B1326093746303N00337271WA0121601324
B1326103746297N00337273WA0121501323
B1326113746290N00337271WA0121401323
B1326123746284N00337268WA0121401322
B1326133746278N00337264WA0121401322
B1326143746272N00337260WA0121401322
B1326153746267N00337256WA0121201321
B1326163746261N00337250WA0120801320
B1326173746255N00337244WA0120801319
B1326183746250N00337236WA0120801316
B1326193746246N00337227WA0120401314
B1326203746242N00337218WA0120201312
B1326213746239N00337209WA0120401312
B1326223746236N00337200WA0120601311
B1326233746234N00337191WA0120701311
B1326243746232N00337183WA0120601311
B1326253746233N00337175WA0120501310
B1326263746234N00337167WA0120201309
B1326273746236N00337160WA0120201308
B1326283746238N00337153WA0120001308
B1326293746241N00337147WA0120101307
B1326303746243N00337140WA0120301307
B1326313746246N00337134WA0120601308
B1326323746248N00337128WA0120801310
B1326333746250N00337122WA0121001311
B1326343746252N00337118WA0121201312
B1326353746255N00337116WA0121301313
B1326363746258N00337115WA0121301314
B1326373746260N00337118WA0121401314
B1326383746260N00337122WA0121301314
B1326393746258N00337127WA0120901313
B1326403746254N00337133WA0120901312
B1326413746248N00337137WA0121101312
B1326423746243N00337139WA0121501314
B1326433746237N00337138WA0121601315
B1326443746230N00337134WA0121601316
B1326453746224N00337129WA0121401314
B1326463746217N00337121WA0120901313
B1326473746212N00337112WA0121201313
B1326483746208N00337103WA0121501314
B1326493746206N00337095WA0121601315
B1326503746205N00337087WA0121701316
B1326513746206N00337079WA0121801317
B1326523746207N00337073WA0121701317
B1326533746210N00337067WA0121601318
B1326543746214N00337064WA0121301315
B1326553746220N00337064WA0121101313
B1326563746224N00337065WA0121101311
B1326573746227N00337067WA0121501312
B1326583746229N00337069WA0121901317
B1326593746228N00337070WA0122101318
B1327003746228N00337073WA0122101319
B1327013746228N00337076WA0122101318
B1327023746225N00337081WA0121701317
B1327033746219N00337086WA0121101316
B1327043746212N00337090WA0121201315
B1327053746206N00337092WA0121701316
B1327063746200N00337092WA0122101318
B1327073746195N00337091WA0122101319
B1327083746189N00337088WA0122001319
B1327093746182N00337083WA0121501318
B1327103746174N00337077WA0121301316
B1327113746168N00337070WA0121401315
B1327123746163N00337062WA0121601315
B1327133746160N00337055WA0121701315
B1327143746158N00337047WA0121701315
B1327153746158N00337039WA0121301314
B1327163746160N00337031WA0121001312
B1327173746163N00337024WA0121001311
B1327183746167N00337019WA0120901310
B1327193746170N00337017WA0120901311
B1327203746174N00337015WA0121001311
B1327213746177N00337015WA0121101312
B1327223746179N00337015WA0121201313
B1327233746182N00337016WA0121001313
B1327243746184N00337019WA0120801312
B1327253746186N00337022WA0120601312
B1327263746188N00337025WA0120801312
B1327273746189N00337028WA0121101313
B1327283746190N00337031WA0121101313
B1327293746190N00337034WA0121101313
B1327303746192N00337037WA0120901312
B1327313746194N00337039WA0120601311
B1327323746197N00337040WA0120501308
B1327333746201N00337040WA0120601307
B1327343746206N00337037WA0120201305
B1327353746211N00337033WA0120101303
B1327363746214N00337028WA0120201303
B1327373746217N00337024WA0120201302
B1327383746220N00337020WA0120101302
B1327393746224N00337016WA0119901301
B1327403746229N00337013WA0119801300
B1327413746233N00337009WA0120001300
B1327423746236N00337005WA0120501303
B1327433746238N00337000WA0120701306
B1327443746239N00336993WA0120801308
B1327453746237N00336984WA0120801309
B1327463746234N00336975WA0120701309
B1327473746228N00336967WA0120801309
B1327483746222N00336962WA0120901310
B1327493746216N00336960WA0121101312
B1327503746210N00336959WA0121201314
B1327513746205N00336960WA0121201314
B1327523746201N00336962WA0121201315
B1327533746197N00336966WA0120801313
B1327543746194N00336972WA0120701311
B1327553746191N00336977WA0120801311
B1327563746188N00336982WA0120901311
B1327573746185N00336985WA0121101312
B1327583746184N00336986WA0121001313
B1327593746184N00336988WA0120501312
B1328003746187N00336989WA0120101308
B1328013746191N00336991WA0119601302
B1328023746195N00336991WA0119301297
B1328033746200N00336989WA0119501297
B1328043746204N00336985WA0119601297
B1328053746207N00336981WA0119601298
B1328063746211N00336976WA0119301297
B1328073746215N00336970WA0119001296
B1328083746219N00336962WA0118901294
B1328093746224N00336953WA0118701293
B1328103746228N00336946WA0119001292
B1328113746233N00336940WA0119101292
B1328123746237N00336936WA0119201293
B1328133746241N00336931WA0119301294
B1328143746245N00336926WA0119401295
B1328153746249N00336920WA0119501296
B1328163746253N00336915WA0119601297
B1328173746258N00336910WA0119601298
B1328183746262N00336904WA0119701299
B1328193746266N00336898WA0120001300
B1328203746269N00336891WA0120101302
B1328213746272N00336883WA0120601305
B1328223746272N00336874WA0121001308
B1328233746271N00336864WA0121501313
B1328243746268N00336856WA0121601317
B1328253746264N00336848WA0121801319
B1328263746259N00336842WA0122101322
B1328273746254N00336838WA0122101324
B1328283746248N00336835WA0122201325
B1328293746243N00336836WA0122201326
B1328303746239N00336839WA0122101326
B1328313746237N00336844WA0122201326
B1328323746237N00336847WA0122501328
B1328333746238N00336849WA0122701331
B1328343746240N00336848WA0122801333
B1328353746244N00336847WA0122801334
B1328363746248N00336845WA0122601333
B1328373746254N00336841WA0122601333
B1328383746259N00336836WA0123101334
B1328393746264N00336831WA0123501337
B1328403746267N00336827WA0123901341
B1328413746270N00336822WA0124301345
B1328423746272N00336816WA0124501347
B1328433746274N00336808WA0124601349
B1328443746274N00336798WA0124701350
B1328453746273N00336787WA0124901351
B1328463746269N00336778WA0125201353
B1328473746265N00336771WA0125401356
B1328483746260N00336767WA0125601359
B1328493746254N00336765WA0125901361
B1328503746249N00336765WA0126101363
B1328513746245N00336767WA0126501365
B1328523746241N00336770WA0126801367
B1328533746240N00336773WA0126901371
B1328543746239N00336775WA0127101374
B1328553746239N00336777WA0127301376
B1328563746239N00336779WA0127501378
B1328573746240N00336781WA0127701380
B1328583746242N00336784WA0127901381
B1328593746245N00336786WA0128201384
B1329003746247N00336788WA0128501386
B1329013746250N00336790WA0128701389
B1329023746253N00336791WA0129001392
B1329033746257N00336790WA0129201396
B1329043746260N00336785WA0129401398
B1329053746265N00336778WA0129501398
B1329063746269N00336771WA0129801399
B1329073746273N00336764WA0130001401
B1329083746276N00336757WA0130301405
B1329093746277N00336749WA0130601408
B1329103746276N00336741WA0130701410
B1329113746274N00336731WA0130801411
B1329123746269N00336722WA0130801411
B1329133746263N00336716WA0130901411
B1329143746257N00336711WA0131101412
B1329153746251N00336709WA0131201414
B1329163746246N00336709WA0131401416
B1329173746240N00336710WA0131601418
B1329183746236N00336713WA0131901419
B1329193746232N00336716WA0132001421
B1329203746229N00336720WA0132301424
B1329213746228N00336724WA0132601427
B1329223746226N00336729WA0132801430
B1329233746225N00336735WA0133101433
B1329243746225N00336739WA0133601437
B1329253746225N00336742WA0133901442
B1329263746227N00336744WA0134201446
B1329273746231N00336745WA0134401449
B1329283746236N00336745WA0134501450
B1329293746241N00336743WA0134801452
B1329303746245N00336741WA0135101455
B1329313746250N00336738WA0135401458
B1329323746254N00336735WA0135601461
B1329333746258N00336732WA0135801465
B1329343746262N00336726WA0136001467
B1329353746264N00336720WA0136201468
B1329363746266N00336712WA0136401470
B1329373746266N00336703WA0136601472
B1329383746264N00336693WA0136701473
B1329393746262N00336684WA0136801475
B1329403746257N00336676WA0136501475
B1329413746251N00336668WA0136801476
B1329423746244N00336664WA0137101477
B1329433746238N00336662WA0137301479
B1329443746233N00336662WA0137501481
B1329453746229N00336664WA0137401482
B1329463746225N00336667WA0137401483
B1329473746222N00336671WA0137601485
B1329483746221N00336675WA0137801486
B1329493746221N00336680WA0138001488
B1329503746222N00336684WA0138201490
B1329513746222N00336687WA0138501492
B1329523746223N00336691WA0138701495
B1329533746225N00336693WA0138901497
B1329543746228N00336696WA0139201500
B1329553746230N00336697WA0139401502
B1329563746233N00336697WA0139501505
B1329573746235N00336695WA0139701507
B1329583746238N00336691WA0139601508
B1329593746242N00336686WA0139201507
B1330003746245N00336679WA0139501507
B1330013746247N00336671WA0139601507
B1330023746248N00336662WA0139701508
B1330033746248N00336653WA0139801509
B1330043746247N00336644WA0139901511
B1330053746246N00336635WA0140001511
B1330063746244N00336625WA0140001511
B1330073746240N00336615WA0140001511
B1330083746237N00336604WA0140001511
B1330093746232N00336595WA0140201512
B1330103746228N00336586WA0140501515
B1330113746223N00336580WA0140701518
B1330123746218N00336575WA0140801519
B1330133746212N00336572WA0140901520
B1330143746205N00336571WA0140501520
B1330153746198N00336572WA0140701520
B1330163746191N00336574WA0140801521
B1330173746186N00336579WA0141001522
B1330183746182N00336584WA0141201524
B1330193746179N00336588WA0141501527
B1330203746178N00336592WA0141701530
B1330213746178N00336595WA0142001533
B1330223746179N00336599WA0142101534
B1330233746182N00336603WA0142001534
B1330243746186N00336606WA0142101535
B1330253746190N00336607WA0142401536
B1330263746194N00336607WA0142601538
B1330273746197N00336605WA0142901540
B1330283746200N00336602WA0143001542
B1330293746203N00336598WA0143001542
B1330303746206N00336592WA0143001542
B1330313746209N00336585WA0142701541
B1330323746211N00336576WA0142501541
B1330333746213N00336566WA0142801541
B1330343746215N00336556WA0142901541
B1330353746216N00336547WA0143001542
B1330363746217N00336539WA0143101542
B1330373746217N00336529WA0143201543
B1330383746216N00336520WA0143201544
B1330393746214N00336511WA0143301545
B1330403746212N00336502WA0143101545
B1330413746208N00336493WA0143101546
B1330423746203N00336485WA0143401546
B1330433746197N00336478WA0143401546
B1330443746190N00336473WA0143501547
B1330453746183N00336469WA0143601548
B1330463746177N00336465WA0143801549
B1330473746171N00336463WA0143801551
B1330483746165N00336463WA0143801552
B1330493746159N00336465WA0143801552
B1330503746154N00336469WA0143701551
B1330513746149N00336474WA0143801551
B1330523746147N00336478WA0144001553
B1330533746145N00336482WA0144101555
B1330543746145N00336486WA0144301556
B1330553746145N00336490WA0144501557
B1330563746145N00336494WA0144701559
B1330573746145N00336499WA0144801561
B1330583746146N00336503WA0145101563
B1330593746147N00336507WA0145201565
B1331003746149N00336512WA0145501567
B1331013746151N00336516WA0145601569
B1331023746154N00336519WA0145801571
B1331033746157N00336521WA0145901572
B1331043746161N00336523WA0146001573
B1331053746165N00336522WA0146101574
B1331063746169N00336520WA0146001575
B1331073746173N00336517WA0145901574
B1331083746178N00336512WA0145901573
B1331093746181N00336505WA0145901573
B1331103746184N00336497WA0145901573
B1331113746185N00336487WA0145901573
B1331123746186N00336478WA0146001574
B1331133746185N00336469WA0146101575
B1331143746184N00336460WA0146001575
B1331153746182N00336450WA0145601574
B1331163746179N00336441WA0145601574
B1331173746174N00336431WA0145801573
B1331183746169N00336423WA0145901572
B1331193746163N00336415WA0146001573
B1331203746158N00336408WA0146101574
B1331213746152N00336402WA0146101575
B1331223746146N00336397WA0146201576
B1331233746140N00336393WA0146301576
B1331243746133N00336391WA0146301577
B1331253746126N00336390WA0146401578
B1331263746119N00336390WA0146601579
B1331273746112N00336390WA0146801581
B1331283746107N00336390WA0147201583
B1331293746102N00336390WA0147501586
B1331303746099N00336391WA0147601589
B1331313746097N00336394WA0147601589
B1331323746097N00336398WA0147401588
B1331333746098N00336403WA0147301587
B1331343746099N00336406WA0147501588
B1331353746100N00336409WA0147701590
B1331363746102N00336410WA0147701591
B1331373746105N00336412WA0147701591
B1331383746108N00336415WA0147701591
B1331393746113N00336417WA0147701590
B1331403746118N00336417WA0147901591
B1331413746122N00336417WA0148201593
B1331423746125N00336416WA0148501596
B1331433746128N00336414WA0148701599
B1331443746130N00336410WA0148701601
B1331453746134N00336405WA0148601601
B1331463746137N00336398WA0148201599
B1331473746140N00336388WA0147601598
B1331483746141N00336378WA0148001597
B1331493746141N00336368WA0148101597
B1331503746141N00336358WA0148301599
B1331513746139N00336349WA0148401601
B1331523746136N00336341WA0148401602
B1331533746131N00336333WA0148201602
B1331543746125N00336327WA0148501602
B1331553746118N00336322WA0148501601
B1331563746111N00336318WA0148601602
B1331573746105N00336314WA0148801603
B1331583746099N00336310WA0149001605
B1331593746094N00336307WA0149201607
B1332003746089N00336306WA0149201608
B1332013746083N00336305WA0149301609
B1332023746078N00336306WA0149401609
B1332033746073N00336308WA0149401609
B1332043746070N00336310WA0149301609
B1332053746067N00336313WA0149301609
B1332063746066N00336316WA0149101608
B1332073746066N00336320WA0148701607
B1332083746067N00336324WA0148701606
B1332093746068N00336327WA0148601604
B1332103746071N00336331WA0148601603
B1332113746073N00336333WA0148701603
B1332123746076N00336336WA0148901603
B1332133746078N00336337WA0149101605
B1332143746080N00336338WA0149201607
B1332153746083N00336338WA0149301608
B1332163746086N00336338WA0149201609
B1332173746091N00336337WA0149101608
B1332183746095N00336337WA0149201608
B1332193746100N00336338WA0149301608
B1332203746103N00336338WA0149501610
B1332213746106N00336338WA0149501611
B1332223746110N00336338WA0149501611
B1332233746114N00336337WA0149201610
B1332243746119N00336336WA0149101608
B1332253746125N00336334WA0149001606
B1332263746130N00336333WA0149101607
B1332273746134N00336331WA0149301608
B1332283746137N00336330WA0149201608
B1332293746141N00336328WA0148801608
B1332303746146N00336325WA0148401605
B1332313746151N00336321WA0148501602
B1332323746155N00336313WA0148301600
B1332333746157N00336305WA0148301598
B1332343746158N00336297WA0148301599
B1332353746158N00336288WA0148301598
B1332363746158N00336280WA0148201598
B1332373746158N00336272WA0147801597
B1332383746158N00336262WA0147501595
B1332393746156N00336252WA0147301593
B1332403746153N00336242WA0147201590
B1332413746150N00336232WA0147201589
B1332423746147N00336224WA0147201590
B1332433746144N00336216WA0147201590
B1332443746139N00336209WA0147101589
B1332453746134N00336202WA0146801588
B1332463746128N00336197WA0146801586
B1332473746122N00336193WA0147101585
B1332483746115N00336190WA0146901584
B1332493746108N00336189WA0146901584
B1332503746102N00336187WA0147101585
B1332513746095N00336187WA0147001585
B1332523746088N00336186WA0146801585
B1332533746081N00336185WA0146501584
B1332543746073N00336181WA0146501584
B1332553746067N00336176WA0146401583
B1332563746061N00336170WA0146401583
B1332573746056N00336164WA0146401582
B1332583746052N00336158WA0146201581
B1332593746047N00336150WA0146101580
B1333003746043N00336142WA0146101577
B1333013746041N00336131WA0145801575
B1333023746040N00336120WA0145601573
B1333033746042N00336110WA0145301571
B1333043746044N00336102WA0145401570
B1333053746047N00336094WA0145401572
B1333063746049N00336087WA0145501571
B1333073746053N00336081WA0145501571
B1333083746057N00336076WA0145401570
B1333093746062N00336073WA0145201569
B1333103746068N00336072WA0145001567
B1333113746074N00336071WA0144801564
B1333123746079N00336070WA0144701563
B1333133746085N00336067WA0144701562
B1333143746090N00336064WA0144501561
B1333153746095N00336061WA0144501560
B1333163746101N00336059WA0144301559
B1333173746106N00336057WA0144201557
B1333183746112N00336056WA0144101557
B1333193746117N00336053WA0144201557
B1333203746122N00336050WA0144201557
B1333213746127N00336047WA0143701556
B1333223746132N00336045WA0143701556
B1333233746136N00336043WA0143701555
B1333243746141N00336042WA0143801554
B1333253746145N00336041WA0143801553
B1333263746149N00336040WA0143501551
B1333273746154N00336040WA0143401549
B1333283746158N00336039WA0143301547
B1333293746163N00336037WA0143101546
B1333303746167N00336036WA0142901544
B1333313746172N00336034WA0142701542
B1333323746176N00336033WA0142501540
B1333333746181N00336031WA0142301538
B1333343746186N00336030WA0142101536
B1333353746191N00336030WA0141901534
B1333363746195N00336029WA0141601532
B1333373746200N00336028WA0141501530
B1333383746204N00336027WA0141401528
B1333393746208N00336026WA0141201526
B1333403746212N00336025WA0140601524
B1333413746218N00336025WA0140301522
B1333423746224N00336024WA0140301523
B1333433746229N00336022WA0139901521
B1333443746233N00336021WA0139601516
B1333453746238N00336021WA0139401512
B1333463746242N00336020WA0139201509
B1333473746245N00336019WA0138901506
B1333483746249N00336018WA0138801503
B1333493746254N00336017WA0138501500
B1333503746258N00336017WA0138301497
B1333513746261N00336018WA0138001494
B1333523746265N00336020WA0137801492
B1333533746269N00336022WA0137601489
B1333543746272N00336024WA0137501487
B1333553746275N00336027WA0137501485
B1333563746278N00336030WA0137301483
B1333573746280N00336032WA0137101482
B1333583746282N00336034WA0136901481
B1333593746285N00336036WA0136501479
B1334003746288N00336039WA0135901475
B1334013746291N00336042WA0135801472
B1334023746294N00336045WA0135701469
B1334033746298N00336048WA0135601468
B1334043746301N00336050WA0135501467
B1334053746303N00336052WA0135301465
B1334063746306N00336054WA0135101463
B1334073746308N00336057WA0134701460
B1334083746311N00336060WA0134201457
B1334093746314N00336063WA0134001453
B1334103746316N00336066WA0133701450
B1334113746319N00336070WA0133501446
B1334123746320N00336074WA0133301444
B1334133746322N00336078WA0133001441
B1334143746324N00336082WA0132501437
B1334153746327N00336087WA0132201434
B1334163746328N00336092WA0132001431
B1334173746329N00336098WA0131901428
B1334183746329N00336104WA0131901427
B1334193746329N00336109WA0131701427
B1334203746330N00336114WA0131401425
B1334213746331N00336119WA0131101422
B1334223746331N00336126WA0130601419
B1334233746331N00336133WA0130401416
B1334243746330N00336138WA0130501415
B1334253746330N00336143WA0130501415
B1334263746329N00336147WA0130401414
B1334273746328N00336152WA0130201413
B1334283746327N00336157WA0129901410
B1334293746326N00336163WA0129801407
B1334303746326N00336170WA0129701405
B1334313746325N00336175WA0129601403
B1334323746325N00336180WA0129601403
B1334333746324N00336185WA0129501402
B1334343746323N00336189WA0129301400
B1334353746323N00336195WA0129101398
B1334363746322N00336200WA0128901396
B1334373746321N00336205WA0128801394
B1334383746320N00336210WA0128501393
B1334393746320N00336215WA0128401391
B1334403746320N00336220WA0128201389
B1334413746320N00336225WA0128001387
B1334423746319N00336232WA0127901385
B1334433746317N00336238WA0127701383
B1334443746315N00336244WA0127701382
B1334453746313N00336249WA0127701381
B1334463746312N00336253WA0127501381
B1334473746310N00336259WA0127101380
B1334483746307N00336265WA0127001378
B1334493746305N00336272WA0127001377
B1334503746303N00336278WA0127101377
B1334513746301N00336284WA0127301378
B1334523746300N00336289WA0127301378
B1334533746299N00336294WA0127401379
B1334543746298N00336300WA0127301379
B1334553746297N00336307WA0127101378
B1334563746296N00336314WA0126901377
B1334573746295N00336322WA0127101377
B1334583746293N00336329WA0127301377
B1334593746291N00336335WA0127301378
B1335003746288N00336342WA0127401378
B1335013746286N00336347WA0127501379
B1335023746285N00336353WA0127601379
B1335033746284N00336359WA0127501380
B1335043746284N00336365WA0127501380
B1335053746284N00336370WA0127501380
B1335063746282N00336376WA0127401381
B1335073746279N00336382WA0127201380
B1335083746275N00336388WA0127301380
B1335093746272N00336395WA0127201380
B1335103746269N00336401WA0127501380
B1335113746265N00336406WA0127701382
B1335123746261N00336411WA0127901383
B1335133746256N00336414WA0128201385
B1335143746253N00336418WA0128501388
B1335153746251N00336423WA0128701391
B1335163746251N00336427WA0128701393
B1335173746253N00336431WA0128701393
B1335183746257N00336433WA0128901394
B1335193746259N00336432WA0129001396
B1335203746261N00336429WA0129201398
B1335213746262N00336425WA0129301399
B1335223746263N00336419WA0129401400
B1335233746264N00336412WA0129301400
B1335243746264N00336404WA0129401400
B1335253746262N00336397WA0129601401
B1335263746258N00336390WA0129601403
B1335273746254N00336385WA0129801405
B1335283746250N00336381WA0130001406
B1335293746245N00336379WA0130101408
B1335303746239N00336379WA0129901408
B1335313746232N00336381WA0129901408
B1335323746225N00336385WA0129901407
B1335333746219N00336389WA0130201409
B1335343746215N00336394WA0130601413
B1335353746212N00336398WA0130801417
B1335363746210N00336403WA0131001418
B1335373746209N00336408WA0131001420
B1335383746209N00336412WA0131001421
B1335393746211N00336416WA0130901421
B1335403746213N00336417WA0130901421
B1335413746216N00336416WA0130801421
B1335423746218N00336413WA0130901420
B1335433746221N00336409WA0130801420
B1335443746221N00336402WA0130901420
B1335453746221N00336395WA0130901419
B1335463746218N00336387WA0131001418
B1335473746215N00336379WA0131101419
B1335483746211N00336372WA0131301421
B1335493746207N00336366WA0131701423
B1335503746202N00336362WA0131901426
B1335513746198N00336357WA0132001428
B1335523746192N00336354WA0132201429
B1335533746186N00336353WA0132201430
B1335543746178N00336353WA0132301431
B1335553746172N00336355WA0132301431
B1335563746166N00336356WA0132501433
B1335573746161N00336358WA0132601434
B1335583746157N00336360WA0132801435
B1335593746154N00336365WA0132901435
B1336003746152N00336370WA0132901435
B1336013746152N00336375WA0133201437
B1336023746153N00336379WA0133401439
B1336033746155N00336382WA0133601442
B1336043746157N00336384WA0133701444
B1336053746159N00336384WA0133701446
B1336063746162N00336381WA0133601447
B1336073746165N00336377WA0133501447
B1336083746166N00336370WA0133401446
B1336093746167N00336361WA0133501444
B1336103746166N00336351WA0133701445
B1336113746163N00336343WA0133901449
B1336123746160N00336335WA0134201452
B1336133746157N00336329WA0134501455
B1336143746152N00336323WA0134801457
B1336153746146N00336319WA0134701458
B1336163746139N00336316WA0134801459
B1336173746131N00336315WA0134601459
B1336183746124N00336315WA0134701459
B1336193746118N00336318WA0134801459
B1336203746112N00336321WA0134901460
B1336213746107N00336325WA0135101461
B1336223746102N00336330WA0135301463
B1336233746098N00336334WA0135601464
B1336243746094N00336339WA0135801467
B1336253746093N00336343WA0135901469
B1336263746094N00336348WA0136001470
B1336273746096N00336351WA0136101471
B1336283746099N00336353WA0136301473
B1336293746101N00336352WA0136601475
B1336303746103N00336349WA0136801478
B1336313746105N00336344WA0137001480
B1336323746106N00336338WA0137001481
B1336333746107N00336330WA0137101481
B1336343746106N00336322WA0137401482
B1336353746104N00336313WA0137501484
B1336363746101N00336305WA0137901487
B1336373746096N00336299WA0138101490
B1336383746089N00336295WA0138201493
B1336393746082N00336292WA0138401494
B1336403746075N00336292WA0138501495
B1336413746068N00336293WA0138701497
B1336423746062N00336295WA0138901499
B1336433746057N00336299WA0139201501
B1336443746054N00336303WA0139301503
B1336453746052N00336308WA0139401504
B1336463746051N00336312WA0139501506
B1336473746051N00336317WA0139701507
B1336483746052N00336320WA0139901509
B1336493746054N00336322WA0140101512
B1336503746057N00336322WA0140301513
B1336513746060N00336320WA0140501515
B1336523746064N00336316WA0140601517
B1336533746066N00336310WA0140901518
B1336543746066N00336302WA0141001520
B1336553746065N00336293WA0141201522
B1336563746062N00336285WA0141401525
B1336573746058N00336278WA0141601527
B1336583746053N00336272WA0141801529
B1336593746046N00336268WA0141901531
B1337003746038N00336265WA0141901532
B1337013746031N00336264WA0142001532
B1337023746023N00336264WA0142101533
B1337033746016N00336265WA0142201534
B1337043746010N00336267WA0142401536
B1337053746004N00336268WA0142601538
B1337063746000N00336271WA0142801540
B1337073745996N00336275WA0142801541
B1337083745995N00336280WA0143001542
B1337093745995N00336285WA0143101542
B1337103745995N00336289WA0143301544
B1337113745996N00336292WA0143701547
B1337123745997N00336294WA0143901551
B1337133746000N00336294WA0144101553
B1337143746003N00336292WA0144301554
B1337153746006N00336288WA0144301554
B1337163746009N00336282WA0144601556
B1337173746010N00336275WA0145001559
B1337183746009N00336267WA0145401564
B1337193746007N00336260WA0145701568
B1337203746003N00336252WA0145901570
B1337213745997N00336246WA0146001571
B1337223745989N00336241WA0146101573
B1337233745981N00336239WA0146201575
B1337243745974N00336240WA0146501577
B1337253745968N00336241WA0146701580
B1337263745963N00336243WA0146901583
B1337273745960N00336247WA0147101585
B1337283745958N00336251WA0147201586
B1337293745957N00336256WA0147301587
B1337303745958N00336259WA0147501589
B1337313745960N00336262WA0147801591
B1337323745961N00336262WA0148101594
B1337333745963N00336262WA0148401598
B1337343745965N00336259WA0148601601
B1337353745968N00336257WA0148901603
B1337363745969N00336252WA0149101605
B1337373745970N00336245WA0149301608
B1337383745970N00336235WA0149501609
B1337393745967N00336225WA0149701611
B1337403745963N00336217WA0150101615
B1337413745958N00336211WA0150401620
B1337423745952N00336207WA0150601623
B1337433745945N00336204WA0150801625
B1337443745937N00336202WA0150801626
B1337453745929N00336202WA0150901626
B1337463745922N00336205WA0151101628
B1337473745917N00336209WA0151201629
B1337483745912N00336213WA0151601632
B1337493745909N00336217WA0151801637
B1337503745907N00336219WA0152201640
B1337513745905N00336222WA0152301642
B1337523745905N00336225WA0152301642
B1337533745907N00336228WA0152401643
B1337543745909N00336230WA0152701644
B1337553745912N00336231WA0153001648
B1337563745913N00336230WA0153401652
B1337573745915N00336229WA0153701655
B1337583745917N00336225WA0154001658
B1337593745919N00336219WA0154101658
B1338003745920N00336211WA0154101659
B1338013745920N00336201WA0154201660
B1338023745917N00336190WA0154401663
B1338033745913N00336182WA0154901668
B1338043745908N00336175WA0155201672
B1338053745902N00336169WA0155501675
B1338063745895N00336164WA0155701677
B1338073745887N00336161WA0155901679
B1338083745879N00336159WA0156001679
B1338093745871N00336160WA0156301681
B1338103745864N00336161WA0156501683
B1338113745859N00336164WA0156801686
B1338123745855N00336167WA0157001689
B1338133745853N00336171WA0157201691
B1338143745851N00336175WA0157301693
B1338153745852N00336179WA0157601695
B1338163745852N00336182WA0158001697
B1338173745853N00336184WA0158301701
B1338183745854N00336184WA0158601705
B1338193745855N00336183WA0158701708
B1338203745857N00336180WA0158901710
B1338213745860N00336176WA0159001711
B1338223745862N00336170WA0159201711
B1338233745864N00336162WA0159401713
B1338243745864N00336154WA0159601715
B1338253745862N00336145WA0159801717
B1338263745859N00336137WA0159901718
B1338273745855N00336128WA0160101720
B1338283745849N00336119WA0160301721
B1338293745841N00336112WA0160601723
B1338303745834N00336107WA0160801726
B1338313745826N00336104WA0161101729
B1338323745819N00336102WA0161301732
B1338333745813N00336101WA0161501735
B1338343745807N00336103WA0161601736
B1338353745802N00336106WA0161801737
B1338363745798N00336110WA0161901738
B1338373745795N00336114WA0162101740
B1338383745794N00336117WA0162301742
B1338393745793N00336120WA0162601744
B1338403745794N00336122WA0162901746
B1338413745795N00336122WA0163101749
B1338423745796N00336122WA0163201751
B1338433745798N00336121WA0163401753
B1338443745801N00336118WA0163501755
B1338453745805N00336115WA0163701756
B1338463745808N00336111WA0163901758
B1338473745811N00336105WA0164101760
B1338483745812N00336099WA0164301763
B1338493745811N00336090WA0164501765
B1338503745809N00336080WA0164501766
B1338513745804N00336069WA0164601766
B1338523745799N00336059WA0164801768
B1338533745792N00336051WA0165101771
B1338543745785N00336045WA0165301774
B1338553745778N00336041WA0165501776
B1338563745770N00336038WA0165601778
B1338573745763N00336038WA0165701779
B1338583745756N00336039WA0165801780
B1338593745750N00336040WA0166001782
B1339003745746N00336043WA0165901783
B1339013745742N00336045WA0166101785
B1339023745739N00336048WA0166201786
B1339033745738N00336051WA0166301787
B1339043745739N00336054WA0166501788
B1339053745740N00336056WA0166601789
B1339063745742N00336059WA0166801791
B1339073745744N00336061WA0167001793
B1339083745747N00336062WA0167301795
B1339093745750N00336063WA0167501798
B1339103745753N00336062WA0167901801
B1339113745755N00336060WA0168201805
B1339123745758N00336055WA0168501808
B1339133745760N00336048WA0168501809
B1339143745762N00336039WA0168701809
B1339153745763N00336028WA0168701810
B1339163745762N00336018WA0168801811
B1339173745759N00336008WA0169001813
B1339183745755N00336000WA0169101815
B1339193745749N00335993WA0169101816
B1339203745742N00335986WA0168801817
B1339213745734N00335982WA0168901817
B1339223745725N00335979WA0168701816
B1339233745716N00335979WA0168801815
B1339243745709N00335980WA0169101817
B1339253745704N00335981WA0169401820
B1339263745701N00335982WA0169501823
B1339273745698N00335985WA0169601824
B1339283745697N00335989WA0169701825
B1339293745696N00335993WA0169901827
B1339303745696N00335996WA0170101828
B1339313745697N00335999WA0170301831
B1339323745698N00336001WA0170601833
B1339333745700N00336004WA0170701835
B1339343745701N00336005WA0170901837
B1339353745704N00336006WA0171101839
B1339363745707N00336006WA0171201840
B1339373745710N00336005WA0171401841
B1339383745714N00336004WA0171601843
B1339393745718N00336002WA0171801845
B1339403745722N00335999WA0172001846
B1339413745727N00335995WA0172201848
B1339423745731N00335990WA0172501851
B1339433745734N00335984WA0172701853
B1339443745737N00335977WA0172901855
B1339453745739N00335968WA0173001857
B1339463745739N00335958WA0172901856
B1339473745737N00335947WA0172601855
B1339483745733N00335937WA0172401853
B1339493745726N00335928WA0172601853
B1339503745719N00335922WA0172701852
B1339513745712N00335918WA0172801852
B1339523745705N00335915WA0172901853
B1339533745698N00335913WA0173001854
B1339543745692N00335913WA0173101856
B1339553745687N00335914WA0172901856
B1339563745682N00335916WA0173001857
B1339573745680N00335920WA0173101857
B1339583745679N00335924WA0173301858
B1339593745679N00335927WA0173401859
B1340003745680N00335930WA0173501861
B1340013745681N00335931WA0173701863
B1340023745684N00335931WA0173801864
B1340033745687N00335931WA0173901865
B1340043745690N00335929WA0174101866
B1340053745694N00335926WA0174201868
B1340063745697N00335923WA0174401870
B1340073745701N00335920WA0174501871
B1340083745704N00335916WA0174601872
B1340093745707N00335912WA0174701874
B1340103745709N00335908WA0174601874
B1340113745712N00335904WA0174601875
B1340123745716N00335899WA0174301875
B1340133745720N00335894WA0173801873
B1340143745724N00335886WA0174001872
B1340153745727N00335878WA0174301871
B1340163745730N00335870WA0174501873
B1340173745733N00335864WA0174801875
B1340183745736N00335859WA0174901877
B1340193745739N00335854WA0175101879
B1340203745742N00335849WA0175301881
B1340213745744N00335841WA0175501883
B1340223745745N00335833WA0175601884
B1340233745745N00335823WA0175401884
B1340243745743N00335812WA0175401883
B1340253745739N00335801WA0175401882
B1340263745734N00335791WA0175601884
B1340273745729N00335784WA0175801885
B1340283745724N00335778WA0175801887
B1340293745718N00335772WA0175801887
B1340303745711N00335769WA0175701887
B1340313745703N00335766WA0175601886
B1340323745694N00335766WA0175701885
B1340333745688N00335767WA0176001888
B1340343745684N00335768WA0176301892
B1340353745681N00335769WA0176501895
B1340363745680N00335770WA0176501897
B1340373745680N00335772WA0176401898
B1340383745681N00335775WA0176401897
B1340393745683N00335778WA0176301897
B1340403745685N00335780WA0176401896
B1340413745688N00335780WA0176401897
B1340423745690N00335779WA0176601898
B1340433745693N00335778WA0176601899
B1340443745696N00335776WA0176401899
B1340453745700N00335775WA0176201897
B1340463745704N00335773WA0176401896
B1340473745708N00335771WA0176601897
B1340483745712N00335767WA0176701898
B1340493745716N00335764WA0176801899
B1340503745719N00335760WA0176901900
B1340513745723N00335756WA0176801900
B1340523745728N00335752WA0176601899
B1340533745732N00335749WA0176401898
B1340543745737N00335746WA0176701897
B1340553745741N00335742WA0176801898
B1340563745745N00335738WA0176801898
B1340573745749N00335734WA0176701898
B1340583745752N00335729WA0176501898
B1340593745756N00335724WA0176401896
B1341003745761N00335719WA0176201895
B1341013745766N00335714WA0176201893
B1341023745772N00335709WA0176401892
B1341033745777N00335705WA0176401893
B1341043745782N00335701WA0176401895
B1341053745786N00335698WA0176501896
B1341063745790N00335695WA0176401897
B1341073745794N00335692WA0176401897
B1341083745798N00335689WA0176301896
B1341093745802N00335686WA0175901894
B1341103745806N00335681WA0175501891
B1341113745810N00335677WA0175501888
B1341123745815N00335674WA0175401886
B1341133745819N00335670WA0175201884
B1341143745823N00335666WA0175301884
B1341153745825N00335662WA0175301884
B1341163745827N00335657WA0175401885
B1341173745829N00335653WA0175001884
B1341183745831N00335648WA0174601882
B1341193745834N00335643WA0174401883
B1341203745839N00335637WA0174301882
B1341213745843N00335633WA0174301882
B1341223745846N00335629WA0174401882
B1341233745850N00335626WA0174301881
B1341243745853N00335623WA0174001880
B1341253745857N00335620WA0173701877
B1341263745863N00335617WA0173301874
B1341273745869N00335613WA0173101871
B1341283745874N00335610WA0173001869
B1341293745879N00335608WA0173001868
B1341303745882N00335606WA0172801867
B1341313745886N00335604WA0172601865
B1341323745889N00335602WA0172401862
B1341333745893N00335601WA0172101859
B1341343745898N00335601WA0171801855
B1341353745901N00335602WA0171701853
B1341363745905N00335602WA0171601851
B1341373745907N00335600WA0171501850
B1341383745910N00335597WA0171301848
B1341393745913N00335594WA0170901845
B1341403745917N00335591WA0170601842
B1341413745921N00335586WA0170201839
B1341423745925N00335581WA0170001836
B1341433745929N00335575WA0169701833
B1341443745933N00335570WA0169501831
B1341453745937N00335567WA0169401829
B1341463745941N00335564WA0169101826
B1341473745945N00335562WA0168801822
B1341483745948N00335559WA0168501819
B1341493745952N00335557WA0168201816
B1341503745956N00335555WA0167801813
B1341513745961N00335553WA0167601809
B1341523745965N00335551WA0167401806
B1341533745970N00335549WA0167301803
B1341543745974N00335545WA0167101801
B1341553745978N00335539WA0167001799
B1341563745982N00335533WA0166801797
B1341573745986N00335528WA0166601795
B1341583745990N00335523WA0166501793
B1341593745994N00335518WA0166201791
B1342003745998N00335513WA0166001789
B1342013746002N00335507WA0165801786
B1342023746006N00335502WA0165701784
B1342033746010N00335497WA0165401782
B1342043746014N00335492WA0165201780
B1342053746018N00335487WA0164901777
B1342063746023N00335482WA0164601774
B1342073746027N00335478WA0164301771
B1342083746032N00335474WA0163701767
B1342093746037N00335470WA0163301764
B1342103746042N00335465WA0163301760
B1342113746046N00335461WA0162901757
B1342123746050N00335456WA0162501753
B1342133746054N00335453WA0161901747
B1342143746059N00335450WA0161301742
B1342153746064N00335446WA0160901736
B1342163746070N00335442WA0160501730
B1342173746075N00335437WA0160101726
B1342183746079N00335432WA0159701721
B1342193746083N00335428WA0159201717
B1342203746087N00335423WA0158801712
B1342213746093N00335419WA0158301707
B1342223746098N00335414WA0157901702
B1342233746102N00335409WA0157501698
B1342243746107N00335404WA0157201694
B1342253746112N00335400WA0156901691
B1342263746117N00335396WA0156501687
B1342273746122N00335392WA0156101684
B1342283746127N00335387WA0155801680
B1342293746132N00335383WA0155501676
B1342303746137N00335378WA0155401673
B1342313746142N00335375WA0155001670
B1342323746147N00335371WA0154601668
B1342333746152N00335368WA0154401665
B1342343746157N00335366WA0154201662
B1342353746163N00335364WA0154101660
B1342363746168N00335362WA0154101659
B1342373746172N00335360WA0154001658
B1342383746177N00335357WA0153801656
B1342393746182N00335354WA0153601654
B1342403746187N00335351WA0153301651
B1342413746192N00335349WA0153301650
B1342423746196N00335346WA0153001649
B1342433746199N00335343WA0152601647
B1342443746203N00335339WA0152301643
B1342453746208N00335336WA0151901640
B1342463746213N00335335WA0151501637
B1342473746219N00335335WA0151301632
B1342483746224N00335336WA0151301629
B1342493746227N00335336WA0151301629
B1342503746230N00335335WA0151201629
B1342513746233N00335335WA0150901627
B1342523746237N00335335WA0150201624
B1342533746242N00335334WA0150001619
B1342543746248N00335334WA0149701615
B1342553746253N00335333WA0149501612
B1342563746258N00335332WA0149301609
B1342573746263N00335330WA0149001607
B1342583746268N00335328WA0148701605
B1342593746273N00335327WA0148601602
B1343003746278N00335326WA0148401600
B1343013746283N00335325WA0148401598
B1343023746287N00335324WA0148301599
B1343033746291N00335322WA0148001598
B1343043746295N00335320WA0147701595
B1343053746300N00335319WA0147301591
B1343063746305N00335318WA0147001588
B1343073746311N00335318WA0146701585
B1343083746316N00335317WA0146501584
B1343093746320N00335317WA0146501583
B1343103746323N00335318WA0146501582
B1343113746326N00335319WA0146201580
B1343123746330N00335320WA0146101577
B1343133746335N00335320WA0145901574
B1343143746340N00335318WA0145701571
B1343153746345N00335317WA0145601569
B1343163746349N00335316WA0145601570
B1343173746352N00335315WA0145501569
B1343183746356N00335315WA0145301568
B1343193746359N00335314WA0145001566
B1343203746364N00335312WA0144701563
B1343213746369N00335308WA0144501560
B1343223746374N00335305WA0144201558
B1343233746378N00335303WA0144101557
B1343243746381N00335302WA0144001556
B1343253746385N00335302WA0143801554
B1343263746389N00335299WA0143501552
B1343273746394N00335296WA0143301549
B1343283746399N00335293WA0143001546
B1343293746403N00335290WA0142901544
B1343303746407N00335287WA0142801543
B1343313746411N00335283WA0142601541
B1343323746415N00335279WA0142401539
B1343333746420N00335275WA0142101537
B1343343746425N00335270WA0141901534
B1343353746429N00335266WA0141801533
B1343363746434N00335262WA0141701532
B1343373746438N00335259WA0141601532
B1343383746442N00335257WA0141501532
B1343393746446N00335256WA0141501530
B1343403746449N00335255WA0141301528
B1343413746453N00335253WA0140901526
B1343423746458N00335252WA0140301522
B1343433746463N00335250WA0139901518
B1343443746468N00335248WA0139801513
B1343453746472N00335247WA0139501510
B1343463746477N00335244WA0139201507
B1343473746481N00335241WA0138901504
B1343483746486N00335238WA0138601500
B1343493746490N00335234WA0138301497
B1343503746495N00335230WA0138201494
B1343513746500N00335226WA0138001492
B1343523746506N00335223WA0137901490
B1343533746512N00335219WA0138001489
B1343543746517N00335216WA0137901487
B1343553746522N00335213WA0137901488
B1343563746526N00335210WA0137901488
B1343573746531N00335207WA0137901488
B1343583746536N00335203WA0137801488
B1343593746541N00335199WA0137701487
B1344003746546N00335195WA0137601487
B1344013746550N00335190WA0137501486
B1344023746555N00335186WA0137501486
B1344033746561N00335182WA0137601485
B1344043746567N00335180WA0137601485
B1344053746572N00335178WA0137901486
B1344063746576N00335177WA0138101490
B1344073746579N00335175WA0138201494
B1344083746583N00335173WA0138201495
B1344093746588N00335172WA0138001495
B1344103746594N00335171WA0137801494
B1344113746601N00335170WA0137701493
B1344123746607N00335169WA0137801493
B1344133746613N00335169WA0138001494
B1344143746619N00335168WA0138101494
B1344153746624N00335168WA0138001494
B1344163746629N00335169WA0137501492
B1344173746635N00335171WA0137601491
B1344183746641N00335174WA0137701489
B1344193746647N00335176WA0137701490
B1344203746651N00335179WA0137901491
B1344213746654N00335182WA0138101492
B1344223746656N00335185WA0138001492
B1344233746658N00335188WA0137901492
B1344243746661N00335191WA0137701492
B1344253746665N00335195WA0137501489
B1344263746667N00335199WA0137401487
B1344273746670N00335204WA0137201484
B1344283746672N00335208WA0137101483
B1344293746676N00335211WA0136901481
B1344303746681N00335212WA0136701480
B1344313746686N00335213WA0136501478
B1344323746690N00335214WA0136201476
B1344333746696N00335214WA0136001473
B1344343746701N00335213WA0135901471
B1344353746707N00335211WA0135601468
B1344363746713N00335208WA0135501466
B1344373746718N00335206WA0135101464
B1344383746723N00335204WA0135101463
B1344393746728N00335202WA0134901461
B1344403746733N00335199WA0134601458
B1344413746738N00335196WA0134301455
B1344423746743N00335192WA0133801451
B1344433746749N00335188WA0133601447
B1344443746755N00335184WA0133301444
B1344453746761N00335180WA0133001441
B1344463746766N00335177WA0132701438
B1344473746772N00335174WA0132401435
B1344483746778N00335171WA0132101432
B1344493746783N00335167WA0131901429
B1344503746788N00335163WA0131601426
B1344513746793N00335159WA0131401423
B1344523746798N00335156WA0131101420
B1344533746803N00335152WA0130801418
B1344543746808N00335148WA0130601416
B1344553746812N00335144WA0130201414
B1344563746817N00335141WA0129901411
B1344573746822N00335137WA0129501407
B1344583746828N00335134WA0129301403
B1344593746832N00335131WA0129101401
B1345003746837N00335126WA0128901400
B1345013746841N00335122WA0128701398
B1345023746846N00335117WA0128401395
B1345033746851N00335112WA0128201392
B1345043746856N00335108WA0127901390
B1345053746862N00335105WA0127801387
B1345063746866N00335102WA0127601386
B1345073746870N00335099WA0127401385
B1345083746874N00335096WA0127001383
B1345093746880N00335092WA0126701380
B1345103746885N00335089WA0126601376
B1345113746890N00335088WA0126401374
B1345123746893N00335087WA0126401373
B1345133746897N00335086WA0126101371
B1345143746900N00335085WA0125601368
B1345153746904N00335085WA0125401365
B1345163746908N00335083WA0125001361
B1345173746912N00335082WA0124601356
B1345183746917N00335080WA0124301352
B1345193746921N00335077WA0124101349
B1345203746925N00335075WA0123801346
B1345213746929N00335074WA0123401342
B1345223746933N00335073WA0122801338
B1345233746938N00335072WA0122301334
B1345243746942N00335070WA0122301331
B1345253746946N00335067WA0122201328
B1345263746950N00335064WA0121901325
B1345273746954N00335060WA0121601322
B1345283746959N00335056WA0121301319
B1345293746963N00335052WA0121001316
B1345303746968N00335048WA0120801312
B1345313746973N00335044WA0120601310
B1345323746977N00335041WA0120301308
B1345333746981N00335037WA0119801305
B1345343746985N00335034WA0119301301
B1345353746989N00335030WA0119201297
B1345363746993N00335025WA0118901293
B1345373746997N00335021WA0118501290
B1345383747001N00335018WA0118101286
B1345393747006N00335014WA0117801282
B1345403747010N00335012WA0117301278
B1345413747015N00335009WA0117001274
B1345423747020N00335008WA0116901272
B1345433747023N00335006WA0116701270
B1345443747026N00335005WA0116501269
B1345453747030N00335005WA0116201266
B1345463747034N00335006WA0115701261
B1345473747039N00335006WA0115201256
B1345483747044N00335006WA0115201252
B1345493747049N00335005WA0115101250
B1345503747052N00335004WA0115101250
B1345513747055N00335005WA0115001250
B1345523747058N00335006WA0114701248
B1345533747062N00335008WA0114201244
B1345543747067N00335010WA0114001240
B1345553747073N00335009WA0113801237
B1345563747078N00335007WA0113901236
B1345573747082N00335006WA0114101240
B1345583747086N00335005WA0114201240
B1345593747089N00335004WA0114301241
B1346003747092N00335001WA0114301241
B1346013747095N00334997WA0114101241
B1346023747098N00334992WA0113901240
B1346033747102N00334986WA0113801239
B1346043747106N00334982WA0114001238
B1346053747110N00334977WA0114101238
B1346063747113N00334973WA0114301239
B1346073747115N00334968WA0114601241
B1346083747116N00334962WA0114901242
B1346093747115N00334955WA0115101244
B1346103747111N00334948WA0115101245
B1346113747106N00334942WA0115201246
B1346123747099N00334937WA0115201247
B1346133747093N00334935WA0115401249
B1346143747086N00334934WA0115601250
B1346153747080N00334936WA0115401251
B1346163747076N00334939WA0115401251
B1346173747072N00334942WA0115301250
B1346183747069N00334947WA0115201249
B1346193747066N00334953WA0115101248
B1346203747064N00334959WA0115101247
B1346213747064N00334966WA0115101246
B1346223747063N00334972WA0115201246
B1346233747063N00334977WA0115201247
B1346243747063N00334982WA0115201247
B1346253747063N00334987WA0115201247
B1346263747064N00334992WA0114901247
B1346273747067N00334996WA0114701246
B1346283747072N00334998WA0114801244
B1346293747077N00334996WA0114501242
B1346303747083N00334992WA0114401240
B1346313747087N00334988WA0114501240
B1346323747090N00334984WA0114801241
B1346333747093N00334981WA0115001243
B1346343747096N00334977WA0115101244
B1346353747098N00334972WA0115101245
B1346363747100N00334966WA0115001245
B1346373747102N00334959WA0114901246
B1346383747104N00334951WA0115201246
B1346393747105N00334943WA0115501248
B1346403747104N00334936WA0116001251
B1346413747101N00334930WA0116301255
B1346423747096N00334926WA0116401257
B1346433747089N00334924WA0116501257
B1346443747081N00334924WA0116701257
B1346453747075N00334927WA0116801259
B1346463747070N00334931WA0117101264
B1346473747068N00334935WA0117401266
B1346483747067N00334940WA0117401269
B1346493747066N00334944WA0117401269
B1346503747067N00334949WA0117301269
B1346513747070N00334955WA0117301268
B1346523747075N00334958WA0117301266
B1346533747081N00334960WA0117301266
B1346543747088N00334959WA0117501267
B1346553747092N00334958WA0117801268
B1346563747096N00334957WA0118001271
B1346573747100N00334956WA0118301274
B1346583747102N00334955WA0118601278
B1346593747105N00334953WA0118801280
B1347003747106N00334948WA0118901283
B1347013747105N00334941WA0118901284
B1347023747102N00334932WA0119001286
B1347033747097N00334926WA0119101287
B1347043747090N00334921WA0119301288
B1347053747083N00334917WA0119401290
B1347063747077N00334915WA0119701294
B1347073747071N00334913WA0119901296
B1347083747065N00334912WA0120201299
B1347093747059N00334915WA0120301301
B1347103747054N00334919WA0120301302
B1347113747050N00334925WA0120401300
B1347123747047N00334932WA0120501301
B1347133747046N00334938WA0120701304
B1347143747046N00334943WA0120801306
B1347153747046N00334948WA0120901307
B1347163747048N00334953WA0120801308
B1347173747052N00334956WA0120801308
B1347183747057N00334957WA0120801307
B1347193747062N00334956WA0120801308
B1347203747066N00334953WA0121101311
B1347213747069N00334950WA0121401314
B1347223747071N00334946WA0121601316
B1347233747072N00334942WA0121701317
B1347243747073N00334936WA0121801319
B1347253747073N00334930WA0122101320
B1347263747071N00334924WA0122201322
B1347273747068N00334918WA0122201324
B1347283747062N00334913WA0122401325
B1347293747057N00334909WA0122401326
B1347303747050N00334905WA0122601328
B1347313747044N00334902WA0122801329
B1347323747039N00334900WA0123001330
B1347333747033N00334900WA0123201333
B1347343747029N00334902WA0123201333
B1347353747024N00334906WA0123101332
B1347363747020N00334911WA0122801331
B1347373747017N00334917WA0123201332
B1347383747015N00334923WA0123401333
B1347393747014N00334928WA0123601335
B1347403747014N00334932WA0123601336
B1347413747016N00334937WA0123501336
B1347423747019N00334941WA0123301335
B1347433747023N00334944WA0123201334
B1347443747028N00334946WA0123301333
B1347453747033N00334948WA0123401335
B1347463747037N00334949WA0123601336
B1347473747040N00334949WA0123801337
B1347483747044N00334949WA0123801338
B1347493747047N00334949WA0123701339
B1347503747051N00334949WA0123501339
B1347513747054N00334947WA0123701339
B1347523747058N00334942WA0123701339
B1347533747060N00334936WA0123601338
B1347543747063N00334929WA0123801338
B1347553747064N00334923WA0124201340
B1347563747065N00334920WA0124701346
B1347573747066N00334916WA0124901349
B1347583747065N00334911WA0125101351
B1347593747062N00334904WA0125101352
B1348003747057N00334897WA0125201353
B1348013747052N00334892WA0125301355
B1348023747047N00334887WA0125701358
B1348033747041N00334886WA0126001361
B1348043747035N00334886WA0126301364
B1348053747028N00334889WA0126301366
B1348063747023N00334894WA0126401367
B1348073747018N00334899WA0126601368
B1348083747016N00334903WA0126801369
B1348093747014N00334908WA0126701371
B1348103747015N00334913WA0126601372
B1348113747018N00334917WA0126401370
B1348123747023N00334921WA0126201367
B1348133747027N00334924WA0126301367
B1348143747031N00334925WA0126601368
B1348153747034N00334925WA0126801369
B1348163747037N00334925WA0126801370
B1348173747040N00334923WA0126501371
B1348183747044N00334919WA0126801370
B1348193747047N00334914WA0126801369
B1348203747050N00334908WA0127001370
B1348213747053N00334903WA0127201371
B1348223747054N00334899WA0127701374
B1348233747054N00334895WA0127901377
B1348243747052N00334891WA0128101379
B1348253747049N00334885WA0128201381
B1348263747044N00334878WA0128201381
B1348273747036N00334872WA0128401382
B1348283747030N00334870WA0128601388
B1348293747024N00334870WA0128901391
B1348303747019N00334871WA0129101394
B1348313747014N00334874WA0129301395
B1348323747008N00334877WA0129501395
B1348333747003N00334882WA0129601396
B1348343746999N00334886WA0129801399
B1348353746996N00334889WA0129901401
B1348363746995N00334893WA0129901403
B1348373746995N00334897WA0129501403
B1348383746996N00334902WA0129301402
B1348393747000N00334907WA0129301400
B1348403747004N00334910WA0129301399
B1348413747008N00334913WA0129601401
B1348423747010N00334914WA0129901404
B1348433747012N00334915WA0129901406
B1348443747014N00334915WA0129901407
B1348453747019N00334914WA0129701407
B1348463747025N00334911WA0129701405
B1348473747030N00334907WA0129801405
B1348483747034N00334904WA0130201407
B1348493747038N00334900WA0130301410
B1348503747041N00334897WA0130501412
B1348513747044N00334892WA0130701413
B1348523747047N00334886WA0130701414
B1348533747047N00334877WA0130701415
B1348543747047N00334869WA0130901416
B1348553747045N00334862WA0131101419
B1348563747042N00334856WA0131301420
B1348573747039N00334850WA0131301422
B1348583747034N00334844WA0131401421
B1348593747029N00334839WA0131401422
B1349003747024N00334834WA0131601422
B1349013747018N00334829WA0131801423
B1349023747012N00334825WA0132001425
B1349033747008N00334822WA0132201427
B1349043747004N00334820WA0132401430
B1349053746998N00334819WA0132501431
B1349063746992N00334822WA0132301430
B1349073746986N00334827WA0132101429
B1349083746980N00334834WA0132101427
B1349093746976N00334841WA0132301428
B1349103746973N00334846WA0132601430
B1349113746971N00334849WA0132801433
B1349123746970N00334853WA0132801434
B1349133746970N00334859WA0132801435
B1349143746970N00334865WA0132801434
B1349153746972N00334871WA0132901435
B1349163746975N00334876WA0133101437
B1349173746977N00334878WA0133401440
B1349183746979N00334879WA0133501442
B1349193746982N00334879WA0133401443
B1349203746987N00334877WA0133201443
B1349213746993N00334874WA0133101440
B1349223746999N00334870WA0133201438
B1349233747003N00334865WA0133701444
B1349243747006N00334860WA0134201452
B1349253747007N00334856WA0134401456
B1349263747006N00334851WA0134501459
B1349273747006N00334844WA0134201462
B1349283747006N00334836WA0134001464
B1349293747006N00334827WA0134501466
B1349303747004N00334819WA0134601468
B1349313747001N00334813WA0134701468
B1349323746996N00334807WA0134801467
B1349333746991N00334803WA0134801467
B1349343746986N00334799WA0134701465
B1349353746980N00334795WA0134601465
B1349363746974N00334791WA0134601464
B1349373746967N00334788WA0134601463
B1349383746959N00334787WA0134601462
B1349393746952N00334786WA0134701461
B1349403746945N00334788WA0134801461
B1349413746940N00334790WA0134901462
B1349423746935N00334792WA0135101464
B1349433746931N00334795WA0135201464
B1349443746928N00334798WA0135101464
B1349453746924N00334803WA0134701462
B1349463746921N00334809WA0134601459
B1349473746919N00334816WA0134901459
B1349483746918N00334820WA0135401460
B1349493746918N00334823WA0135701463
B1349503746918N00334826WA0135901466
B1349513746919N00334827WA0135901467
B1349523746922N00334830WA0135701467
B1349533746926N00334833WA0135701466
B1349543746930N00334835WA0135901466
B1349553746933N00334836WA0136301468
B1349563746935N00334836WA0136601471
B1349573746936N00334834WA0136801473
B1349583746938N00334830WA0137001475
B1349593746940N00334824WA0137001476
B1350003746940N00334816WA0137001477
B1350013746938N00334808WA0137201478
B1350023746935N00334801WA0137301480
B1350033746930N00334796WA0137501482
B1350043746926N00334792WA0137501485
B1350053746922N00334788WA0137601486
B1350063746917N00334785WA0137501485
B1350073746910N00334783WA0137201483
B1350083746902N00334784WA0137201482
B1350093746894N00334785WA0137401482
B1350103746887N00334787WA0137601485
B1350113746881N00334788WA0137901488
B1350123746877N00334790WA0138101491
B1350133746874N00334792WA0138201493
B1350143746871N00334796WA0138301493
B1350153746869N00334800WA0138301494
B1350163746866N00334805WA0138401494
B1350173746864N00334809WA0138401495
B1350183746861N00334813WA0138501496
B1350193746859N00334817WA0138701498
B1350203746857N00334821WA0138901499
B1350213746854N00334825WA0139001500
B1350223746853N00334829WA0139101502
B1350233746852N00334833WA0139101502
B1350243746853N00334837WA0139301503
B1350253746853N00334841WA0139501504
B1350263746855N00334844WA0139501506
B1350273746857N00334846WA0139601508
B1350283746860N00334846WA0139601509
B1350293746864N00334844WA0139601509
B1350303746868N00334841WA0139501510
B1350313746872N00334836WA0139601510
B1350323746875N00334830WA0139801512
B1350333746878N00334824WA0139901513
B1350343746880N00334817WA0140101514
B1350353746881N00334810WA0140401516
B1350363746882N00334802WA0140501518
B1350373746881N00334794WA0140301520
B1350383746879N00334785WA0140201519
B1350393746876N00334777WA0140401519
B1350403746871N00334769WA0140301519
B1350413746866N00334762WA0140301519
B1350423746861N00334755WA0140501519
B1350433746856N00334750WA0140601520
B1350443746852N00334745WA0140701522
B1350453746847N00334741WA0140701522
B1350463746841N00334737WA0140501520
B1350473746833N00334734WA0140301516
B1350483746825N00334731WA0140301515
B1350493746818N00334727WA0140601518
B1350503746812N00334724WA0140901519
B1350513746807N00334723WA0140901521
B1350523746802N00334723WA0140801522
B1350533746797N00334725WA0140601521
B1350543746792N00334730WA0140501518
B1350553746787N00334735WA0140401517
B1350563746784N00334740WA0140601518
B1350573746783N00334744WA0140801520
B1350583746783N00334746WA0140901521
B1350593746784N00334748WA0140901521
B1351003746787N00334750WA0140701520
B1351013746791N00334752WA0140501520
B1351023746794N00334754WA0140601519
B1351033746797N00334757WA0140901521
B1351043746798N00334759WA0141001523
B1351053746800N00334761WA0141101524
B1351063746802N00334763WA0141201525
B1351073746804N00334765WA0141301525
B1351083746807N00334767WA0141301526
B1351093746811N00334770WA0141301527
B1351103746814N00334772WA0141501527
B1351113746818N00334774WA0141501528
B1351123746822N00334773WA0141601529
B1351133746826N00334772WA0141701530
B1351143746830N00334771WA0141701531
B1351153746834N00334769WA0141801532
B1351163746838N00334768WA0141901532
B1351173746842N00334765WA0141901533
B1351183746846N00334760WA0142001533
B1351193746849N00334754WA0141901533
B1351203746852N00334747WA0142101534
B1351213746854N00334739WA0142101535
B1351223746855N00334731WA0142301536
B1351233746855N00334722WA0142401537
B1351243746856N00334715WA0142601538
B1351253746855N00334707WA0142601539
B1351263746854N00334700WA0142501540
B1351273746850N00334692WA0142201538
B1351283746845N00334684WA0142301537
B1351293746838N00334678WA0142201536
B1351303746831N00334673WA0142401538
B1351313746825N00334670WA0142501540
B1351323746819N00334669WA0142701542
B1351333746814N00334668WA0142601542
B1351343746808N00334669WA0142401542
B1351353746802N00334671WA0142401542
B1351363746796N00334675WA0142201542
B1351373746791N00334679WA0142301541
B1351383746787N00334682WA0142501542
B1351393746783N00334685WA0142601543
B1351403746779N00334689WA0142601543
B1351413746776N00334693WA0142601543
B1351423746773N00334698WA0142501542
B1351433746771N00334703WA0142501542
B1351443746769N00334709WA0142401541
B1351453746767N00334714WA0142401541
B1351463746765N00334720WA0142501541
B1351473746763N00334725WA0142501541
B1351483746762N00334730WA0142601541
B1351493746762N00334734WA0142501541
B1351503746763N00334739WA0142101540
B1351513746764N00334744WA0141801537
B1351523746766N00334749WA0141601535
B1351533746769N00334754WA0141501532
B1351543746772N00334758WA0141301530
B1351553746774N00334762WA0141101527
B1351563746778N00334766WA0140801525
B1351573746782N00334770WA0140601522
B1351583746786N00334775WA0140401519
B1351593746790N00334780WA0140401518
B1352003746792N00334785WA0140501518
B1352013746793N00334789WA0140601518
B1352023746795N00334793WA0140701518
B1352033746797N00334797WA0140101517
B1352043746799N00334801WA0139801516
B1352053746802N00334805WA0139901514
B1352063746803N00334810WA0139901512
B1352073746803N00334816WA0139801511
B1352083746803N00334822WA0139701509
B1352093746803N00334828WA0139701509
B1352103746803N00334834WA0139601508
B1352113746804N00334840WA0139501508
B1352123746804N00334846WA0139501507
B1352133746804N00334851WA0139501507
B1352143746804N00334857WA0139401506
B1352153746804N00334863WA0138901504
B1352163746805N00334870WA0138601501
B1352173746807N00334876WA0138601498
B1352183746808N00334883WA0138401495
B1352193746810N00334889WA0138301494
B1352203746811N00334895WA0138101492
B1352213746813N00334900WA0137901491
B1352223746815N00334905WA0137601489
B1352233746817N00334910WA0137501486
B1352243746819N00334916WA0137301484
B1352253746821N00334922WA0137101481
B1352263746823N00334926WA0137001480
B1352273746825N00334931WA0136801478
B1352283746827N00334935WA0136701477
B1352293746829N00334939WA0136501476
B1352303746830N00334944WA0136201474
B1352313746832N00334949WA0136001472
B1352323746834N00334955WA0135601469
B1352333746836N00334961WA0135401466
B1352343746837N00334967WA0135301464
B1352353746837N00334972WA0135201462
B1352363746838N00334977WA0135001461
B1352373746839N00334982WA0134801460
B1352383746839N00334988WA0134401458
B1352393746840N00334995WA0134001455
B1352403746840N00335002WA0134101453
B1352413746841N00335009WA0134301452
B1352423746842N00335015WA0134401452
B1352433746842N00335021WA0134301452
B1352443746841N00335027WA0134301452
B1352453746841N00335033WA0134201451
B1352463746841N00335039WA0134201450
B1352473746840N00335046WA0134301450
B1352483746841N00335051WA0134401451
B1352493746841N00335057WA0134401452
B1352503746842N00335062WA0134401453
B1352513746843N00335068WA0134401453
B1352523746845N00335074WA0134501454
B1352533746845N00335080WA0134601454
B1352543746846N00335086WA0134901456
B1352553746846N00335090WA0135001458
B1352563746845N00335096WA0135101459
B1352573746845N00335101WA0135101460
B1352583746845N00335107WA0135201461
B1352593746845N00335113WA0135301461
B1353003746845N00335119WA0135301462
B1353013746845N00335124WA0135501463
B1353023746844N00335129WA0135501464
B1353033746843N00335134WA0135601465
B1353043746842N00335137WA0135601466
B1353053746841N00335141WA0135601466
B1353063746841N00335145WA0135301465
B1353073746839N00335150WA0134901463
B1353083746839N00335156WA0134901463
B1353093746839N00335161WA0134801462
B1353103746840N00335165WA0134701461
B1353113746841N00335169WA0134701461
B1353123746841N00335172WA0134501460
B1353133746840N00335176WA0134201458
B1353143746840N00335180WA0134001456
B1353153746840N00335184WA0133801453
B1353163746841N00335188WA0133601451
B1353173746842N00335191WA0133501449
B1353183746844N00335194WA0133201447
B1353193746846N00335197WA0133001445
B1353203746847N00335201WA0132701442
B1353213746849N00335205WA0132501439
B1353223746850N00335209WA0132201437
B1353233746852N00335213WA0132001434
B1353243746854N00335217WA0131701430
B1353253746856N00335222WA0131101426
B1353263746859N00335228WA0130701422
B1353273746862N00335232WA0130801420
B1353283746865N00335237WA0130801418
B1353293746868N00335241WA0130901418
B1353303746870N00335245WA0130801418
B1353313746872N00335249WA0130801417
B1353323746873N00335253WA0130701416
B1353333746874N00335258WA0130801416
B1353343746875N00335261WA0130901417
B1353353746875N00335264WA0131101418
B1353363746876N00335267WA0130901418
B1353373746876N00335271WA0130701416
B1353383746877N00335275WA0130301414
B1353393746878N00335280WA0130401412
B1353403746879N00335286WA0130401411
B1353413746879N00335290WA0130401412
B1353423746879N00335294WA0130301412
B1353433746879N00335297WA0130201411
B1353443746879N00335301WA0129801408
B1353453746879N00335305WA0129601406
B1353463746880N00335310WA0129201402
B1353473746882N00335316WA0129001399
B1353483746884N00335321WA0129001397
B1353493746886N00335325WA0129001396
B1353503746888N00335328WA0128901397
B1353513746890N00335332WA0128801396
B1353523746892N00335336WA0128601394
B1353533746894N00335341WA0128401392
B1353543746897N00335347WA0128301390
B1353553746898N00335352WA0128301389
B1353563746900N00335357WA0128301389
B1353573746901N00335361WA0128401390
B1353583746902N00335366WA0128301390
B1353593746903N00335370WA0128001389
B1354003746905N00335374WA0127601388
B1354013746907N00335379WA0127601386
B1354023746908N00335384WA0127501385
B1354033746908N00335390WA0127601385
B1354043746907N00335394WA0127901385
B1354053746907N00335397WA0127901386
B1354063746907N00335401WA0127701386
B1354073746907N00335406WA0127501384
B1354083746907N00335411WA0127401382
B1354093746907N00335416WA0127401380
B1354103746907N00335420WA0127301380
B1354113746908N00335423WA0127401379
B1354123746908N00335426WA0127301380
B1354133746908N00335430WA0127201379
B1354143746908N00335434WA0127101377
B1354153746908N00335439WA0127101376
B1354163746909N00335444WA0127301377
B1354173746910N00335448WA0127501378
B1354183746910N00335453WA0127701380
B1354193746910N00335459WA0127901383
B1354203746911N00335464WA0128301385
B1354213746911N00335469WA0128401388
B1354223746911N00335474WA0128701391
B1354233746911N00335479WA0129001394
B1354243746911N00335484WA0129301397
B1354253746912N00335489WA0129501400
B1354263746913N00335493WA0129901403
B1354273746916N00335496WA0130201406
B1354283746919N00335498WA0130201408
B1354293746925N00335496WA0130301410
B1354303746931N00335490WA0130401411
B1354313746935N00335482WA0130601412
B1354323746938N00335473WA0131001415
B1354333746937N00335464WA0131501417
B1354343746934N00335456WA0131801421
B1354353746930N00335449WA0132001424
B1354363746925N00335443WA0132301427
B1354373746919N00335438WA0132701430
B1354383746913N00335434WA0133001434
B1354393746907N00335432WA0133401438
B1354403746901N00335432WA0133601442
B1354413746895N00335434WA0133801444
B1354423746890N00335437WA0134101446
B1354433746886N00335442WA0134401450
B1354443746883N00335446WA0134901454
B1354453746881N00335449WA0135201458
B1354463746882N00335453WA0135401461
B1354473746885N00335455WA0135401462
B1354483746889N00335456WA0135301462
B1354493746895N00335454WA0135401464
B1354503746901N00335449WA0135601465
B1354513746905N00335444WA0135701468
B1354523746908N00335437WA0135801470
B1354533746911N00335430WA0136001471
B1354543746914N00335421WA0136401473
B1354553746915N00335412WA0136701475
B1354563746914N00335404WA0137001477
B1354573746909N00335397WA0137301480
B1354583746903N00335391WA0137501482
B1354593746896N00335388WA0137701485
B1355003746890N00335387WA0138001488
B1355013746884N00335389WA0138301492
B1355023746880N00335392WA0138501494
B1355033746876N00335396WA0138801497
B1355043746875N00335400WA0139201500
B1355053746876N00335403WA0139301503
B1355063746878N00335406WA0139501506
B1355073746882N00335408WA0139501507
B1355083746887N00335409WA0139501508
B1355093746891N00335410WA0139701509
B1355103746896N00335409WA0139801511
B1355113746900N00335407WA0139901512
B1355123746905N00335405WA0140001513
B1355133746910N00335402WA0140201515
B1355143746914N00335397WA0140201516
B1355153746918N00335390WA0140401517
B1355163746920N00335382WA0140601516
B1355173746920N00335372WA0141001520
B1355183746917N00335363WA0141601523
B1355193746913N00335356WA0141801527
B1355203746908N00335349WA0142101532
B1355213746902N00335344WA0142401535
B1355223746895N00335338WA0142501536
B1355233746888N00335334WA0142801538
B1355243746881N00335331WA0143101541
B1355253746875N00335330WA0143301544
B1355263746868N00335331WA0143601547
B1355273746863N00335334WA0143701548
B1355283746858N00335339WA0143801549
B1355293746856N00335344WA0143901550
B1355303746857N00335349WA0144201553
B1355313746859N00335352WA0144501555
B1355323746861N00335353WA0144801558
B1355333746865N00335353WA0144901560
B1355343746870N00335351WA0145001562
B1355353746875N00335346WA0145101563
B1355363746879N00335340WA0145401565
B1355373746881N00335333WA0145701569
B1355383746883N00335326WA0146001573
B1355393746882N00335318WA0146401576
B1355403746880N00335309WA0146601580
B1355413746876N00335301WA0146801582
B1355423746869N00335294WA0147101585
B1355433746863N00335289WA0147301587
B1355443746855N00335285WA0147701590
B1355453746849N00335282WA0148001596
B1355463746843N00335280WA0148401599
B1355473746836N00335279WA0148601603
B1355483746829N00335281WA0148601606
B1355493746823N00335285WA0148701608
B1355503746818N00335290WA0149001610
B1355513746815N00335295WA0149401613
B1355523746814N00335299WA0149601616
B1355533746815N00335303WA0149701618
B1355543746815N00335308WA0149801620
B1355553746818N00335312WA0149701621
B1355563746823N00335317WA0149801623
B1355573746828N00335320WA0150101625
B1355583746832N00335322WA0150501630
B1355593746836N00335321WA0150701633
B1356003746840N00335320WA0150801634
B1356013746846N00335317WA0150801634
B1356023746851N00335311WA0150801634
B1356033746857N00335305WA0150901634
B1356043746861N00335298WA0151201637
B1356053746863N00335290WA0151601640
B1356063746864N00335282WA0152001645
B1356073746862N00335275WA0152401648
B1356083746858N00335267WA0152701650
B1356093746853N00335261WA0153001652
B1356103746846N00335257WA0153201655
B1356113746840N00335256WA0153601658
B1356123746834N00335257WA0153801661
B1356133746828N00335260WA0154101664
B1356143746824N00335263WA0154401667
B1356153746822N00335267WA0154601669
B1356163746821N00335271WA0154701672
B1356173746822N00335276WA0154801673
B1356183746824N00335281WA0154901673
B1356193746828N00335285WA0154901674
B1356203746832N00335289WA0154901674
B1356213746837N00335292WA0155301677
B1356223746842N00335293WA0155601680
B1356233746846N00335294WA0155801682
B1356243746850N00335293WA0155901684
B1356253746854N00335291WA0156001685
B1356263746859N00335288WA0156201687
B1356273746865N00335284WA0156401688
B1356283746870N00335281WA0156701690
B1356293746874N00335278WA0156901692
B1356303746878N00335272WA0157201694
B1356313746882N00335265WA0157201696
B1356323746884N00335255WA0157101692
B1356333746884N00335244WA0157001690
B1356343746883N00335234WA0157001690
B1356353746882N00335223WA0157001690
B1356363746880N00335214WA0157101691
B1356373746877N00335204WA0157001691
B1356383746873N00335195WA0156801691
B1356393746868N00335186WA0157101690
B1356403746861N00335179WA0157201691
B1356413746854N00335174WA0157301692
B1356423746847N00335170WA0157601695
B1356433746841N00335167WA0157801698
B1356443746836N00335165WA0158101701
B1356453746830N00335165WA0158201703
B1356463746825N00335167WA0158301705
B1356473746819N00335171WA0158301704
B1356483746814N00335176WA0158601705
B1356493746810N00335181WA0158901707
B1356503746807N00335184WA0159401711
B1356513746805N00335187WA0159801716
B1356523746804N00335189WA0160001719
B1356533746804N00335191WA0160101721
B1356543746806N00335194WA0160001721
B1356553746810N00335197WA0159901721
B1356563746816N00335199WA0159901721
B1356573746821N00335199WA0160201723
B1356583746826N00335197WA0160501725
B1356593746830N00335194WA0160701727
B1357003746833N00335189WA0160701729
B1357013746836N00335180WA0160701730
B1357023746838N00335170WA0160401729
B1357033746839N00335158WA0160501729
B1357043746838N00335147WA0160801729
B1357053746835N00335136WA0161001730
B1357063746832N00335128WA0161101732
B1357073746828N00335121WA0161301734
B1357083746823N00335115WA0161401736
B1357093746818N00335110WA0161501738
B1357103746813N00335105WA0161601739
B1357113746806N00335102WA0161701740
B1357123746800N00335098WA0161801741
B1357133746794N00335096WA0162001742
B1357143746788N00335095WA0162301744
B1357153746783N00335095WA0162401746
B1357163746778N00335097WA0162501747
B1357173746773N00335101WA0162601747
B1357183746769N00335105WA0162901750
B1357193746766N00335108WA0163301752
B1357203746762N00335110WA0163701756
B1357213746760N00335112WA0164001759
B1357223746759N00335116WA0164001761
B1357233746761N00335119WA0163901761
B1357243746765N00335121WA0163701760
B1357253746770N00335121WA0163801760
B1357263746776N00335119WA0164101765
B1357273746780N00335116WA0164301768
B1357283746784N00335111WA0164401770
B1357293746788N00335105WA0164401771
B1357303746791N00335096WA0164301772
B1357313746795N00335086WA0164201771
B1357323746799N00335075WA0164301771
B1357333746803N00335065WA0164601772
B1357343746806N00335055WA0164801775
B1357353746809N00335046WA0164901777
B1357363746809N00335036WA0164901778
B1357373746808N00335025WA0164601777
B1357383746805N00335013WA0164301775
B1357393746799N00335003WA0164601773
B1357403746793N00334994WA0164601773
B1357413746787N00334988WA0164601773
B1357423746779N00334982WA0164601773
B1357433746771N00334979WA0164601772
B1357443746763N00334976WA0164701773
B1357453746757N00334975WA0164901774
B1357463746750N00334975WA0165101775
B1357473746745N00334976WA0165301777
B1357483746739N00334978WA0165301778
B1357493746734N00334981WA0165001777
B1357503746730N00334986WA0164701777
B1357513746727N00334992WA0165201777
B1357523746725N00334998WA0165401778
B1357533746724N00335004WA0165901780
B1357543746724N00335007WA0166401785
B1357553746723N00335009WA0166901790
B1357563746724N00335010WA0167201794
B1357573746726N00335010WA0167401797
B1357583746732N00335007WA0167301799
B1357593746738N00335001WA0167501800
B1358003746741N00334991WA0167501801
B1358013746741N00334980WA0167601802
B1358023746740N00334970WA0167901804
B1358033746737N00334961WA0168201807
B1358043746734N00334954WA0168601812
B1358053746729N00334949WA0168801815
B1358063746724N00334945WA0168801815
B1358073746718N00334943WA0168901815
B1358083746711N00334942WA0168901816
B1358093746704N00334944WA0168901816
B1358103746698N00334946WA0168901817
B1358113746692N00334948WA0169101817
B1358123746687N00334952WA0169101819
B1358133746682N00334956WA0169401820
B1358143746676N00334960WA0169701822
B1358153746672N00334964WA0170101825
B1358163746668N00334967WA0170601829
B1358173746665N00334969WA0170901833
B1358183746664N00334972WA0170901836
B1358193746665N00334975WA0170901836
B1358203746668N00334979WA0170701835
B1358213746672N00334981WA0170601835
B1358223746677N00334982WA0170701835
B1358233746681N00334982WA0171001838
B1358243746684N00334982WA0171201839
B1358253746687N00334981WA0171101841
B1358263746692N00334978WA0170801841
B1358273746699N00334972WA0170501838
B1358283746705N00334964WA0170401834
B1358293746711N00334957WA0170601834
B1358303746716N00334950WA0171001835
B1358313746719N00334944WA0171501837
B1358323746721N00334937WA0171601839
B1358333746721N00334929WA0171801841
B1358343746720N00334918WA0171801839
B1358353746718N00334906WA0171901840
B1358363746714N00334895WA0172201842
B1358373746709N00334886WA0172501847
B1358383746704N00334878WA0172701850
B1358393746699N00334872WA0172901852
B1358403746695N00334866WA0173001855
B1358413746689N00334862WA0173101856
B1358423746683N00334860WA0173101857
B1358433746678N00334860WA0173001858
B1358443746673N00334860WA0173101858
B1358453746669N00334862WA0173201859
B1358463746665N00334865WA0173301860
B1358473746663N00334870WA0173401860
B1358483746661N00334874WA0173501861
B1358493746660N00334879WA0173801863
B1358503746658N00334882WA0174301867
B1358513746657N00334884WA0174501871
B1358523746656N00334887WA0174601873
B1358533746655N00334889WA0174401872
B1358543746657N00334893WA0174201871
B1358553746661N00334897WA0174101870
B1358563746665N00334899WA0174101869
B1358573746670N00334899WA0174201871
B1358583746673N00334899WA0174301872
B1358593746677N00334898WA0174201873
B1359003746681N00334896WA0173901873
B1359013746687N00334893WA0173901872
B1359023746693N00334889WA0173801868
B1359033746699N00334883WA0173901868
B1359043746704N00334878WA0174201870
B1359053746707N00334872WA0174501872
B1359063746710N00334867WA0174801874
B1359073746712N00334861WA0174901876
B1359083746714N00334855WA0174901877
B1359093746714N00334847WA0174901878
B1359103746714N00334838WA0174801878
B1359113746712N00334829WA0174601878
B1359123746710N00334819WA0174501875
B1359133746707N00334808WA0174601874
B1359143746704N00334799WA0174801875
B1359153746701N00334792WA0174801878
B1359163746697N00334785WA0174701878
B1359173746691N00334779WA0174201878
B1359183746683N00334774WA0174201875
B1359193746674N00334772WA0174101872
B1359203746666N00334773WA0174001871
B1359213746660N00334774WA0174101870
B1359223746655N00334776WA0174301872
B1359233746651N00334777WA0174601875
B1359243746648N00334778WA0174801876
B1359253746646N00334780WA0174701877
B1359263746644N00334782WA0174401877
B1359273746644N00334785WA0173901876
B1359283746644N00334788WA0174101875
B1359293746646N00334792WA0174101873
B1359303746647N00334796WA0174101873
B1359313746649N00334799WA0174101873
B1359323746651N00334801WA0174101873
B1359333746653N00334804WA0173901873
B1359343746656N00334807WA0173801872
B1359353746659N00334810WA0173901872
B1359363746662N00334812WA0173901871
B1359373746667N00334813WA0173901871
B1359383746671N00334811WA0173901871
B1359393746675N00334809WA0173901870
B1359403746680N00334806WA0173801870
B1359413746684N00334804WA0173801870
B1359423746689N00334802WA0173901871
B1359433746694N00334800WA0173901871
B1359443746699N00334799WA0174101871
B1359453746703N00334797WA0174201872
B1359463746708N00334795WA0174401873
B1359473746711N00334793WA0174401875
B1359483746715N00334790WA0174401876
B1359493746720N00334788WA0174401876
B1359503746725N00334785WA0174401875
B1359513746730N00334782WA0174301875
B1359523746736N00334779WA0174501875
B1359533746741N00334776WA0174601877
B1359543746745N00334772WA0174701878
B1359553746750N00334769WA0174701879
B1359563746755N00334766WA0174401879
B1359573746760N00334763WA0174801879
B1359583746765N00334759WA0174901880
B1359593746769N00334755WA0175001880
B1400003746774N00334751WA0174901881
B1400013746778N00334746WA0174901881
B1400023746782N00334743WA0174901882
B1400033746787N00334740WA0174801881
B1400043746792N00334736WA0174901881
B1400053746796N00334732WA0175001881
B1400063746800N00334727WA0175001882
B1400073746804N00334722WA0175001882
B1400083746809N00334718WA0174901882
B1400093746814N00334715WA0175001882
B1400103746819N00334711WA0175001882
B1400113746823N00334707WA0174901883
B1400123746827N00334702WA0174701882
B1400133746832N00334697WA0174501881
B1400143746837N00334693WA0174401877
B1400153746842N00334690WA0174201876
B1400163746848N00334687WA0174201874
B1400173746853N00334683WA0174201874
B1400183746857N00334680WA0174101874
B1400193746861N00334676WA0173801872
B1400203746866N00334672WA0173201869
B1400213746872N00334669WA0172601866
B1400223746879N00334665WA0173101862
B1400233746885N00334661WA0173001861
B1400243746890N00334658WA0173101861
B1400253746894N00334653WA0172901861
B1400263746898N00334649WA0172601859
B1400273746903N00334644WA0172301856
B1400283746908N00334639WA0172001853
B1400293746914N00334634WA0171601849
B1400303746919N00334628WA0171301846
B1400313746924N00334623WA0170901843
B1400323746929N00334619WA0170801840
B1400333746935N00334615WA0170601837
B1400343746940N00334610WA0170401835
B1400353746944N00334606WA0170201833
B1400363746948N00334602WA0170001831
B1400373746953N00334598WA0169601828
B1400383746959N00334593WA0169401825
B1400393746965N00334588WA0169101821
B1400403746971N00334583WA0168901818
B1400413746976N00334579WA0168901816
B1400423746980N00334576WA0168601814
B1400433746984N00334572WA0168201811
B1400443746990N00334569WA0167801807
B1400453746997N00334566WA0167401802
B1400463747004N00334564WA0167201798
B1400473747011N00334562WA0167201799
B1400483747016N00334559WA0167101798
B1400493747021N00334557WA0167001797
B1400503747026N00334554WA0166701795
B1400513747032N00334553WA0166601793
B1400523747038N00334552WA0166401791
B1400533747044N00334552WA0166401789
B1400543747050N00334550WA0166501790
B1400553747054N00334548WA0166601792
B1400563747058N00334546WA0166601793
B1400573747063N00334545WA0166601793
B1400583747068N00334543WA0166501792
B1400593747073N00334541WA0166301791
B1401003747079N00334539WA0166201790
B1401013747085N00334537WA0166301789
B1401023747091N00334535WA0166401790
B1401033747096N00334534WA0166501791
B1401043747101N00334533WA0166501792
B1401053747107N00334532WA0166501792
B1401063747113N00334532WA0166501792
B1401073747120N00334532WA0166701792
B1401083747125N00334532WA0166801795
B1401093747129N00334532WA0166801797
B1401103747134N00334532WA0166601796
B1401113747138N00334532WA0166201792
B1401123747144N00334530WA0165901789
B1401133747151N00334528WA0165601786
B1401143747156N00334525WA0165601785
B1401153747161N00334523WA0165501785
B1401163747166N00334520WA0165501785
B1401173747170N00334518WA0165001783
B1401183747176N00334514WA0164701779
B1401193747181N00334510WA0164801777
B1401203747187N00334505WA0164601774
B1401213747192N00334502WA0164601772
B1401223747197N00334498WA0164601771
B1401233747201N00334495WA0164401769
B1401243747206N00334492WA0164201767
B1401253747211N00334488WA0163901765
B1401263747217N00334484WA0163801762
B1401273747223N00334480WA0163801761
B1401283747228N00334476WA0163901761
B1401293747232N00334473WA0163901761
B1401303747236N00334469WA0163701760
B1401313747240N00334465WA0163401758
B1401323747246N00334461WA0163001755
B1401333747252N00334457WA0162801753
B1401343747258N00334453WA0162801751
B1401353747264N00334450WA0162801751
B1401363747270N00334448WA0162801751
B1401373747275N00334446WA0162801751
B1401383747280N00334444WA0162701751
B1401393747285N00334442WA0162801750
B1401403747291N00334440WA0162701750
B1401413747296N00334439WA0162701750
B1401423747302N00334437WA0162601750
B1401433747308N00334436WA0162601749
B1401443747314N00334435WA0162401749
B1401453747319N00334434WA0162301748
B1401463747325N00334433WA0162501749
B1401473747330N00334431WA0162501750
B1401483747336N00334429WA0162501750
B1401493747341N00334428WA0162401749
B1401503747346N00334427WA0162301749
B1401513747351N00334426WA0162001748
B1401523747356N00334424WA0161701746
B1401533747363N00334420WA0161401744
B1401543747369N00334415WA0161101741
B1401553747374N00334411WA0160901739
B1401563747379N00334406WA0160901737
B1401573747384N00334403WA0160601735
B1401583747389N00334398WA0160401733
B1401593747394N00334393WA0159901730
B1402003747400N00334387WA0159301723
B1402013747406N00334380WA0159401719
B1402023747412N00334373WA0159301717
B1402033747417N00334368WA0159301715
B1402043747422N00334363WA0159201714
B1402053747426N00334358WA0159001712
B1402063747431N00334352WA0158701710
B1402073747436N00334346WA0158401706
B1402083747440N00334339WA0158201703
B1402093747445N00334332WA0158001702
B1402103747450N00334327WA0157801700
B1402113747455N00334323WA0157601698
B1402123747460N00334318WA0157301696
B1402133747466N00334313WA0157001693
B1402143747472N00334307WA0156801689
B1402153747478N00334302WA0156501687
B1402163747484N00334296WA0156401685
B1402173747489N00334291WA0156301683
B1402183747494N00334286WA0156101682
B1402193747499N00334280WA0155801680
B1402203747505N00334275WA0155501677
B1402213747510N00334270WA0155301675
B1402223747516N00334264WA0155101673
B1402233747520N00334258WA0154701671
B1402243747525N00334253WA0154401670
B1402253747529N00334247WA0154501668
B1402263747534N00334242WA0154301666
B1402273747539N00334237WA0154201664
B1402283747544N00334232WA0154101663
B1402293747549N00334228WA0154001661
B1402303747554N00334224WA0153701660
B1402313747559N00334219WA0153601658
B1402323747565N00334215WA0153301655
B1402333747571N00334211WA0153201654
B1402343747576N00334208WA0153201652
B1402353747581N00334204WA0153001651
B1402363747585N00334201WA0152901650
B1402373747590N00334196WA0152601648
B1402383747596N00334192WA0152401645
B1402393747602N00334187WA0152201643
B1402403747608N00334183WA0152001641
B1402413747613N00334179WA0151901639
B1402423747619N00334176WA0151701638
B1402433747624N00334172WA0151701636
B1402443747630N00334168WA0151501635
B1402453747635N00334164WA0151301633
B1402463747640N00334160WA0151201632
B1402473747646N00334157WA0151201631
B1402483747651N00334154WA0151001630
B1402493747656N00334151WA0150801628
B1402503747661N00334148WA0150601626
B1402513747667N00334146WA0150301624
B1402523747673N00334144WA0150101622
B1402533747679N00334142WA0150001620
B1402543747685N00334139WA0149901619
B1402553747690N00334137WA0149701618
B1402563747696N00334134WA0149601616
B1402573747702N00334132WA0149401615
B1402583747708N00334132WA0149201613
B1402593747714N00334132WA0149101611
B1403003747719N00334131WA0149001610
B1403013747724N00334130WA0148701608
B1403023747729N00334127WA0148501606
B1403033747735N00334123WA0148201602
B1403043747740N00334119WA0147901598
B1403053747746N00334116WA0147701595
B1403063747751N00334113WA0147401593
B1403073747755N00334111WA0147201590
B1403083747760N00334107WA0146901587
B1403093747764N00334103WA0146601585
B1403103747769N00334100WA0146301582
B1403113747774N00334097WA0146101580
B1403123747779N00334094WA0145701577
B1403133747784N00334091WA0145101574
B1403143747789N00334088WA0144701571
B1403153747794N00334084WA0145001568
B1403163747799N00334080WA0144901567
B1403173747803N00334077WA0144701565
B1403183747807N00334073WA0144401562
B1403193747811N00334068WA0144101559
B1403203747816N00334062WA0143801556
B1403213747820N00334056WA0143801554
B1403223747823N00334051WA0143501551
B1403233747826N00334045WA0143201549
B1403243747830N00334038WA0142901546
B1403253747833N00334031WA0142601543
B1403263747836N00334023WA0142401540
B1403273747839N00334016WA0142301538
B1403283747842N00334009WA0142101536
B1403293747845N00334002WA0142001535
B1403303747847N00333995WA0141901534
B1403313747850N00333989WA0141601532
B1403323747854N00333982WA0141401530
B1403333747857N00333975WA0141301527
B1403343747860N00333967WA0141201525
B1403353747863N00333959WA0141201525
B1403363747866N00333952WA0141301525
B1403373747870N00333946WA0141301526
B1403383747874N00333940WA0141301526
B1403393747877N00333934WA0141301525
B1403403747880N00333926WA0141301525
B1403413747883N00333918WA0141401526
B1403423747886N00333910WA0141601527
B1403433747888N00333904WA0141601529
B1403443747890N00333898WA0141701530
B1403453747892N00333892WA0141701531
B1403463747895N00333885WA0141601530
B1403473747899N00333878WA0141601528
B1403483747902N00333870WA0141601528
B1403493747904N00333863WA0141701529
B1403503747906N00333856WA0141701530
B1403513747909N00333851WA0141601530
B1403523747912N00333844WA0141001528
B1403533747915N00333836WA0140901525
B1403543747918N00333828WA0141001523
B1403553747920N00333819WA0141001522
B1403563747922N00333811WA0141101522
B1403573747924N00333804WA0141001522
B1403583747926N00333796WA0140901521
B1403593747928N00333788WA0140701521
B1404003747930N00333779WA0140701520
B1404013747934N00333771WA0140701519
B1404023747938N00333765WA0140601518
B1404033747942N00333759WA0140601518
B1404043747947N00333754WA0140601518
B1404053747950N00333747WA0140601519
B1404063747954N00333741WA0140401519
B1404073747957N00333734WA0140201519
B1404083747961N00333729WA0140001517
B1404093747966N00333723WA0139901516
B1404103747970N00333716WA0139601514
B1404113747973N00333708WA0139501511
B1404123747976N00333701WA0139401509
B1404133747980N00333694WA0139101508
B1404143747984N00333689WA0139001506
B1404153747989N00333684WA0139001504
B1404163747992N00333679WA0138801503
B1404173747995N00333673WA0138601501
B1404183747999N00333667WA0138101499
B1404193748003N00333662WA0137701495
B1404203748008N00333656WA0137501491
B1404213748012N00333652WA0137501489
B1404223748015N00333648WA0137501487
B1404233748017N00333644WA0137401485
B1404243748020N00333641WA0137101483
B1404253748024N00333637WA0136501477
B1404263748028N00333632WA0136101472
B1404273748033N00333628WA0135701467
B1404283748038N00333624WA0135401464
B1404293748042N00333621WA0135301462
B1404303748046N00333618WA0135001460
B1404313748050N00333615WA0134701457
B1404323748055N00333611WA0134601455
B1404333748061N00333608WA0134601453
B1404343748066N00333606WA0134801452
B1404353748071N00333606WA0134901454
B1404363748075N00333607WA0135001456
B1404373748079N00333606WA0134801456
B1404383748085N00333605WA0134501454
B1404393748092N00333602WA0134201450
B1404403748101N00333599WA0134301448
B1404413748109N00333598WA0134901449
B1404423748112N00333597WA0135701450
B1404433748114N00333598WA0136301459
B1404443748115N00333598WA0136601463
B1404453748118N00333596WA0136701466
B1404463748121N00333591WA0136601467
B1404473748124N00333585WA0136701467
B1404483748126N00333579WA0137001470
B1404493748126N00333574WA0137201473
B1404503748124N00333570WA0137401476
B1404513748121N00333566WA0137501477
B1404523748116N00333563WA0137301477
B1404533748110N00333561WA0137301477
B1404543748103N00333561WA0137301476
B1404553748097N00333563WA0137401477
B1404563748091N00333567WA0137901479
B1404573748089N00333571WA0138401483
B1404583748088N00333575WA0138901486
B1404593748088N00333580WA0139101490
B1405003748089N00333586WA0139401493
B1405013748090N00333592WA0139601496
B1405023748092N00333598WA0139901499
B1405033748096N00333602WA0140101503
B1405043748101N00333604WA0140401505
B1405053748106N00333605WA0140701507
B1405063748111N00333602WA0140901510
B1405073748114N00333598WA0141301513
B1405083748114N00333594WA0141501516
B1405093748113N00333589WA0141601519
B1405103748109N00333585WA0141601521
B1405113748104N00333581WA0141601521
B1405123748097N00333578WA0141701522
B1405133748091N00333578WA0142101527
B1405143748086N00333580WA0142701531
B1405153748082N00333585WA0143001535
B1405163748079N00333591WA0143401539
B1405173748078N00333597WA0143601543
B1405183748078N00333603WA0143801545
B1405193748078N00333609WA0143901547
B1405203748080N00333614WA0144201550
B1405213748081N00333620WA0144501553
B1405223748083N00333625WA0144601556
B1405233748086N00333630WA0144901559
B1405243748090N00333634WA0145301562
B1405253748095N00333635WA0145401565
B1405263748100N00333634WA0145801567
B1405273748103N00333630WA0146001570
B1405283748106N00333627WA0146201573
B1405293748106N00333622WA0146401577
B1405303748107N00333618WA0146901580
B1405313748106N00333614WA0147301584
B1405323748103N00333611WA0147701588
B1405333748099N00333609WA0147901592
B1405343748094N00333610WA0148101594
B1405353748088N00333613WA0148301596
B1405363748084N00333618WA0148601599
B1405373748082N00333624WA0149101603
B1405383748082N00333630WA0149501607
B1405393748083N00333635WA0149901611
B1405403748084N00333641WA0150201615
B1405413748086N00333648WA0150401617
B1405423748089N00333654WA0150501620
B1405433748093N00333660WA0150701622
B1405443748098N00333664WA0151001625
B1405453748104N00333666WA0151201628
B1405463748109N00333666WA0151401629
B1405473748114N00333664WA0151501631
B1405483748119N00333661WA0151701633
B1405493748122N00333657WA0151801635
B1405503748125N00333652WA0152001637
B1405513748126N00333647WA0152101638
B1405523748125N00333642WA0152101639
B1405533748124N00333638WA0152001639
B1405543748120N00333633WA0151801638
B1405553748116N00333629WA0151401637
B1405563748111N00333624WA0151501635
B1405573748106N00333620WA0151701634
B1405583748099N00333617WA0151701635
B1405593748093N00333615WA0152001635
B1406003748087N00333615WA0152501637
B1406013748082N00333614WA0153001641
B1406023748078N00333615WA0153301646
B1406033748074N00333618WA0153501650
B1406043748070N00333623WA0153601653
B1406053748066N00333631WA0153501654
B1406063748062N00333639WA0153701654
B1406073748060N00333645WA0154201659
B1406083748061N00333650WA0154401663
B1406093748063N00333653WA0154501666
B1406103748067N00333657WA0154501666
B1406113748072N00333661WA0154401665
B1406123748079N00333663WA0154401665
B1406133748085N00333664WA0154901668
B1406143748089N00333663WA0155401672
B1406153748091N00333662WA0155801677
B1406163748092N00333660WA0156001680
B1406173748092N00333656WA0156001682
B1406183748091N00333651WA0155901681
B1406193748090N00333645WA0155901681
B1406203748087N00333639WA0156201682
B1406213748085N00333635WA0156401684
B1406223748083N00333630WA0156601686
B1406233748081N00333626WA0156701688
B1406243748079N00333622WA0156901689
B1406253748074N00333619WA0156901689
B1406263748068N00333616WA0156901689
B1406273748061N00333615WA0156901689
B1406283748054N00333616WA0157201690
B1406293748048N00333618WA0157201692
B1406303748044N00333620WA0157701694
B1406313748041N00333622WA0158001698
B1406323748039N00333624WA0158201701
B1406333748038N00333629WA0158101701
B1406343748039N00333635WA0157701700
B1406353748040N00333643WA0157601696
B1406363748042N00333650WA0157601694
B1406373748045N00333656WA0157701696
B1406383748048N00333660WA0158001697
B1406393748051N00333662WA0158001698
B1406403748055N00333663WA0158001699
B1406413748058N00333662WA0157501699
B1406423748063N00333658WA0157701698
B1406433748066N00333652WA0157701698
B1406443748070N00333646WA0158001700
B1406453748073N00333641WA0158501705
B1406463748077N00333637WA0159001709
B1406473748079N00333635WA0159501714
B1406483748080N00333633WA0159701718
B1406493748080N00333629WA0160001721
B1406503748080N00333624WA0160001721
B1406513748079N00333618WA0160101722
B1406523748077N00333612WA0160301723
B1406533748075N00333608WA0160601726
B1406543748071N00333605WA0160701729
B1406553748066N00333603WA0160901731
B1406563748061N00333603WA0161201733
B1406573748056N00333606WA0161301735
B1406583748053N00333610WA0161501737
B1406593748050N00333616WA0161501738
B1407003748049N00333622WA0161601739
B1407013748049N00333628WA0161701740
B1407023748050N00333634WA0161701741
B1407033748052N00333639WA0161701742
B1407043748055N00333644WA0161501740
B1407053748060N00333649WA0161301739
B1407063748066N00333653WA0161501737
B1407073748073N00333656WA0161801737
B1407083748079N00333658WA0162301740
B1407093748084N00333660WA0162601743
B1407103748087N00333661WA0163001746
B1407113748091N00333662WA0163101748
B1407123748095N00333661WA0163101750
B1407133748097N00333657WA0163001751
B1407143748099N00333650WA0162801750
B1407153748100N00333642WA0162701747
B1407163748100N00333633WA0162801747
B1407173748097N00333626WA0163001748
B1407183748094N00333621WA0163301755
B1407193748091N00333618WA0163501758
B1407203748085N00333617WA0163601759
B1407213748079N00333615WA0163601759
B1407223748073N00333614WA0163901759
B1407233748068N00333612WA0164201762
B1407243748065N00333611WA0164501766
B1407253748061N00333610WA0164601769
B1407263748057N00333612WA0164601771
B1407273748053N00333616WA0164501772
B1407283748049N00333622WA0164401772
B1407293748046N00333630WA0164501771
B1407303748044N00333636WA0164701773
B1407313748043N00333642WA0165001776
B1407323748044N00333646WA0165101779
B1407333748045N00333651WA0165201780
B1407343748048N00333657WA0165101780
B1407353748053N00333663WA0165101780
B1407363748059N00333667WA0165201781
B1407373748064N00333671WA0165501783
B1407383748069N00333673WA0165801786
B1407393748073N00333674WA0166101788
B1407403748077N00333674WA0166201790
B1407413748081N00333673WA0166301790
B1407423748084N00333670WA0166301789
B1407433748087N00333666WA0166101789
B1407443748089N00333661WA0166101788
B1407453748092N00333656WA0166101788
B1407463748094N00333650WA0166101787
B1407473748096N00333644WA0166001786
B1407483748099N00333637WA0166001786
B1407493748101N00333632WA0166101786
B1407503748102N00333626WA0166101787
B1407513748103N00333621WA0166101787
B1407523748103N00333615WA0166101787
B1407533748102N00333610WA0166201787
B1407543748102N00333604WA0166201788
B1407553748102N00333597WA0166101787
B1407563748101N00333591WA0166101787
B1407573748101N00333585WA0165701787
B1407583748099N00333579WA0165801788
B1407593748098N00333575WA0165901788
B1408003748097N00333570WA0166001788
B1408013748095N00333565WA0165901786
B1408023748093N00333558WA0165801785
B1408033748093N00333551WA0165601784
B1408043748094N00333545WA0165701783
B1408053748095N00333539WA0165701784
B1408063748096N00333534WA0165901784
B1408073748097N00333529WA0165701784
B1408083748098N00333523WA0165501783
B1408093748100N00333517WA0165701782
B1408103748102N00333509WA0165701783
B1408113748103N00333502WA0166001783
B1408123748105N00333494WA0166201786
B1408133748107N00333487WA0166601788
B1408143748106N00333479WA0167001791
B1408153748105N00333473WA0167401795
B1408163748102N00333467WA0167601798
B1408173748097N00333463WA0167801801
B1408183748091N00333461WA0168001803
B1408193748085N00333460WA0168301806
B1408203748079N00333460WA0168701810
B1408213748073N00333462WA0169001813
B1408223748067N00333464WA0169301816
B1408233748063N00333469WA0169501819
B1408243748060N00333475WA0169501821
B1408253748059N00333483WA0169701822
B1408263748060N00333492WA0169801823
B1408273748062N00333499WA0170101826
B1408283748065N00333505WA0170401828
B1408293748068N00333511WA0170701832
B1408303748071N00333515WA0170901835
B1408313748076N00333517WA0170801837
B1408323748082N00333516WA0170701838
B1408333748088N00333512WA0170601836
B1408343748093N00333506WA0170801837
B1408353748097N00333501WA0171301840
B1408363748100N00333497WA0171701843
B1408373748101N00333492WA0172001847
B1408383748100N00333487WA0172101849
B1408393748099N00333481WA0172101849
B1408403748096N00333473WA0172201848
B1408413748092N00333467WA0172401849
B1408423748087N00333463WA0172801853
B1408433748081N00333461WA0173101857
B1408443748076N00333461WA0173501861
B1408453748071N00333461WA0173801864
B1408463748065N00333463WA0174101868
B1408473748059N00333466WA0174301871
B1408483748054N00333471WA0174501873
B1408493748050N00333477WA0174701875
B1408503748048N00333485WA0174901877
B1408513748048N00333492WA0175101880
B1408523748049N00333498WA0175501883
B1408533748052N00333504WA0175701886
B1408543748055N00333509WA0176001889
B1408553748060N00333512WA0176101891
B1408563748065N00333514WA0176301891
B1408573748071N00333515WA0176401893
B1408583748076N00333515WA0176601895
B1408593748080N00333514WA0176901898
B1409003748084N00333512WA0177101900
B1409013748088N00333509WA0177301902
B1409023748089N00333503WA0177301903
B1409033748089N00333497WA0177401904
B1409043748088N00333490WA0177601905
B1409053748087N00333484WA0177801907
B1409063748085N00333478WA0178101910
B1409073748082N00333473WA0178501914
B1409083748079N00333469WA0178601917
B1409093748074N00333468WA0178701919
B1409103748068N00333468WA0178601918
B1409113748061N00333470WA0178601918
B1409123748054N00333473WA0178801919
B1409133748048N00333477WA0179001920
B1409143748042N00333481WA0179301922
B1409153748037N00333487WA0179601926
B1409163748033N00333492WA0179801929
B1409173748032N00333500WA0180001931
B1409183748032N00333507WA0180101932
B1409193748034N00333514WA0180401934
B1409203748037N00333521WA0180501936
B1409213748041N00333527WA0180701938
B1409223748045N00333531WA0180901941
B1409233748050N00333534WA0181101943
B1409243748055N00333535WA0181301945
B1409253748060N00333535WA0181501947
B1409263748065N00333535WA0181601949
B1409273748070N00333534WA0181701950
B1409283748074N00333534WA0181801951
B1409293748078N00333533WA0182001953
B1409303748082N00333530WA0182001954
B1409313748085N00333525WA0182101954
B1409323748088N00333519WA0182201955
B1409333748089N00333513WA0182401956
B1409343748090N00333507WA0182501958
B1409353748091N00333501WA0182801960
B1409363748093N00333496WA0183001963
B1409373748095N00333490WA0183201965
B1409383748096N00333484WA0183401967
B1409393748096N00333478WA0183501969
B1409403748096N00333474WA0183701971
B1409413748094N00333469WA0183501971
B1409423748090N00333465WA0183301972
B1409433748086N00333462WA0183401971
B1409443748080N00333460WA0183401970
B1409453748074N00333461WA0183401970
B1409463748068N00333463WA0183501971
B1409473748064N00333466WA0183801973
B1409483748060N00333468WA0184101974
B1409493748056N00333471WA0184301976
B1409503748053N00333475WA0184401977
B1409513748050N00333480WA0184301977
B1409523748048N00333487WA0184301977
B1409533748047N00333496WA0184501978
B1409543748047N00333504WA0184601979
B1409553748049N00333510WA0184801982
B1409563748051N00333516WA0185101985
B1409573748053N00333520WA0185301987
B1409583748057N00333525WA0185401989
B1409593748062N00333529WA0185401990
B1410003748068N00333533WA0185401990
B1410013748073N00333535WA0185701991
B1410023748078N00333537WA0186001994
B1410033748082N00333539WA0186101996
B1410043748086N00333538WA0186301998
B1410053748090N00333536WA0186301998
B1410063748093N00333532WA0186201997
B1410073748097N00333528WA0186201997
B1410083748100N00333523WA0186201998
B1410093748103N00333518WA0186301999
B1410103748105N00333514WA0186402000
B1410113748108N00333510WA0186502000
B1410123748110N00333505WA0186402000
B1410133748113N00333499WA0186002000
B1410143748116N00333492WA0185901998
B1410153748119N00333486WA0186201999
B1410163748122N00333480WA0186502001
B1410173748126N00333475WA0186702002
B1410183748129N00333471WA0186902003
B1410193748131N00333466WA0187102005
B1410203748133N00333461WA0187302007
B1410213748135N00333455WA0187202007
B1410223748135N00333449WA0187202008
B1410233748133N00333443WA0187202008
B1410243748130N00333437WA0187202008
B1410253748126N00333431WA0187402009
B1410263748121N00333428WA0187502009
B1410273748117N00333425WA0187702011
B1410283748113N00333422WA0188002013
B1410293748110N00333421WA0188102016
B1410303748106N00333420WA0188202017
B1410313748101N00333422WA0188102018
B1410323748096N00333423WA0188002018
B1410333748091N00333424WA0188102018
B1410343748086N00333423WA0188302019
B1410353748082N00333422WA0188502021
B1410363748078N00333421WA0188602022
B1410373748074N00333423WA0188502023
B1410383748070N00333428WA0188402023
B1410393748067N00333433WA0188202021
B1410403748063N00333439WA0188302020
B1410413748060N00333444WA0188502022
B1410423748059N00333449WA0188602024
B1410433748059N00333454WA0188602025
B1410443748060N00333460WA0188402025
B1410453748062N00333466WA0188002022
B1410463748066N00333472WA0188102021
B1410473748071N00333478WA0188202020
B1410483748076N00333483WA0188202020
B1410493748080N00333486WA0188402022
B1410503748084N00333488WA0188502023
B1410513748088N00333490WA0188502024
B1410523748092N00333491WA0188502025
B1410533748097N00333491WA0188302024
B1410543748103N00333491WA0188302023
B1410553748109N00333490WA0188402023
B1410563748114N00333490WA0188502023
B1410573748119N00333489WA0188502023
B1410583748124N00333489WA0188602024
B1410593748129N00333488WA0188402023
B1411003748134N00333487WA0187902023
B1411013748140N00333485WA0188102021
B1411023748146N00333483WA0188202019
B1411033748152N00333480WA0188202019
B1411043748157N00333477WA0188302020
B1411053748161N00333475WA0188402021
B1411063748165N00333472WA0188302021
B1411073748169N00333469WA0187902020
B1411083748175N00333466WA0187502016
B1411093748180N00333462WA0187502013
B1411103748186N00333458WA0187502012
B1411113748191N00333454WA0187502010
B1411123748196N00333451WA0187502010
B1411133748200N00333449WA0187202010
B1411143748205N00333447WA0186902009
B1411153748210N00333443WA0186802007
B1411163748214N00333440WA0186702004
B1411173748219N00333436WA0186402002
B1411183748224N00333433WA0186101999
B1411193748229N00333429WA0186101996
B1411203748234N00333425WA0185901995
B1411213748238N00333422WA0185701993
B1411223748242N00333418WA0185601992
B1411233748247N00333415WA0185301990
B1411243748251N00333411WA0184901988
B1411253748255N00333408WA0184601985
B1411263748259N00333403WA0184601983
B1411273748263N00333398WA0184301980
B1411283748267N00333393WA0184001978
B1411293748270N00333388WA0183801975
B1411303748273N00333383WA0183701973
B1411313748276N00333378WA0183301971
B1411323748280N00333372WA0183201968
B1411333748282N00333366WA0182901966
B1411343748285N00333361WA0182701964
B1411353748288N00333356WA0182301962
B1411363748291N00333351WA0181901960
B1411373748293N00333346WA0181901957
B1411383748295N00333340WA0181601955
B1411393748297N00333335WA0181201951
B1411403748299N00333330WA0180901948
B1411413748303N00333325WA0180401944
B1411423748306N00333319WA0180101939
B1411433748309N00333313WA0179801936
B1411443748312N00333307WA0179701933
B1411453748316N00333301WA0179401930
B1411463748319N00333297WA0179101926
B1411473748324N00333293WA0178801923
B1411483748328N00333288WA0178601920
B1411493748332N00333283WA0178401917
B1411503748336N00333277WA0178301915
B1411513748340N00333273WA0178001913
B1411523748343N00333268WA0177701911
B1411533748346N00333262WA0177601909
B1411543748350N00333256WA0177301906
B1411553748353N00333249WA0177101903
B1411563748357N00333243WA0176801900
B1411573748361N00333238WA0176501897
B1411583748365N00333233WA0176401894
B1411593748368N00333229WA0176001892
B1412003748372N00333223WA0175701889
B1412013748376N00333217WA0175201886
B1412023748380N00333211WA0174901882
B1412033748385N00333205WA0174701878
B1412043748389N00333199WA0174401875
B1412053748393N00333192WA0174301873
B1412063748397N00333185WA0174201872
B1412073748400N00333179WA0174001870
B1412083748405N00333172WA0173801868
B1412093748409N00333165WA0173601866
B1412103748413N00333159WA0173501865
B1412113748417N00333153WA0173501864
B1412123748420N00333148WA0173201864
B1412133748423N00333143WA0172801862
B1412143748426N00333136WA0172601859
B1412153748429N00333129WA0172301855
B1412163748433N00333121WA0172001851
B1412173748437N00333114WA0171901848
B1412183748441N00333107WA0171701846
B1412193748445N00333101WA0171601846
B1412203748448N00333094WA0171301844
B1412213748452N00333087WA0170901841
B1412223748457N00333079WA0170101836
B1412233748462N00333070WA0170201832
B1412243748466N00333061WA0170201830
B1412253748469N00333051WA0170201830
B1412263748473N00333044WA0170401831
B1412273748477N00333037WA0170501832
B1412283748481N00333031WA0170401832
B1412293748486N00333023WA0170201832
B1412303748491N00333015WA0170001829
B1412313748496N00333006WA0169901828
B1412323748503N00332998WA0170001827
B1412333748509N00332992WA0170401827
B1412343748514N00332986WA0170601828
B1412353748519N00332982WA0170801829
B1412363748525N00332979WA0171101831
B1412373748531N00332977WA0171501833
B1412383748535N00332979WA0171801836
B1412393748539N00332982WA0172101840
B1412403748541N00332987WA0172401842
B1412413748541N00332992WA0172701845
B1412423748541N00332995WA0173001848
B1412433748539N00332997WA0173301852
B1412443748535N00332998WA0173401855
B1412453748530N00332997WA0173301856
B1412463748524N00332993WA0173501857
B1412473748520N00332984WA0173401857
B1412483748518N00332974WA0173501858
B1412493748519N00332964WA0173801860
B1412503748521N00332956WA0174201863
B1412513748523N00332949WA0174401867
B1412523748527N00332943WA0174501870
B1412533748532N00332938WA0174501872
B1412543748537N00332932WA0174701873
B1412553748543N00332927WA0175001875
B1412563748549N00332922WA0175401878
B1412573748554N00332918WA0175901882
B1412583748559N00332916WA0176301887
B1412593748563N00332917WA0176401891
B1413003748567N00332920WA0176501892
B1413013748569N00332926WA0176701893
B1413023748569N00332933WA0176901895
B1413033748565N00332938WA0177201898
B1413043748560N00332940WA0177601901
B1413053748554N00332938WA0178201905
B1413063748550N00332935WA0178601911
B1413073748547N00332930WA0178901916
B1413083748545N00332923WA0179001920
B1413093748545N00332914WA0179201920
B1413103748546N00332904WA0179401922
B1413113748549N00332896WA0179701925
B1413123748553N00332889WA0180201929
B1413133748558N00332885WA0180401933
B1413143748563N00332883WA0180601937
B1413153748568N00332883WA0180901939
B1413163748573N00332885WA0181001941
B1413173748576N00332889WA0181001943
B1413183748579N00332893WA0181401945
B1413193748579N00332898WA0181701947
B1413203748578N00332904WA0181701949
B1413213748575N00332909WA0181801950
B1413223748570N00332913WA0182101952
B1413233748565N00332914WA0182301954
B1413243748561N00332913WA0182701957
B1413253748556N00332909WA0183101960
B1413263748553N00332905WA0183401965
B1413273748551N00332900WA0183601969
B1413283748549N00332893WA0183701970
B1413293748550N00332883WA0183701972
B1413303748552N00332873WA0183701970
B1413313748555N00332864WA0184201973
B1413323748557N00332857WA0184701977
B1413333748560N00332851WA0185001982
B1413343748564N00332848WA0185301985
B1413353748569N00332846WA0185301988
B1413363748576N00332846WA0185201988
B1413373748582N00332848WA0185301990
B1413383748587N00332851WA0185501992
B1413393748591N00332855WA0185801995
B1413403748594N00332858WA0186001997
B1413413748596N00332863WA0186001998
B1413423748597N00332870WA0186001998
B1413433748596N00332877WA0185901998
B1413443748593N00332885WA0186001998
B1413453748589N00332890WA0186301999
B1413463748586N00332893WA0186602001
B1413473748582N00332894WA0186902004
B1413483748578N00332893WA0187102007
B1413493748573N00332891WA0187202008
B1413503748568N00332886WA0187302008
B1413513748564N00332881WA0187402010
B1413523748560N00332875WA0187702012
B1413533748558N00332868WA0187902015
B1413543748557N00332861WA0188302018
B1413553748559N00332853WA0188502021
B1413563748563N00332846WA0188602023
B1413573748568N00332841WA0188702025
B1413583748572N00332838WA0188902027
B1413593748577N00332835WA0189102028
B1414003748582N00332834WA0189202030
B1414013748587N00332834WA0189202030
B1414023748592N00332837WA0189402032
B1414033748596N00332840WA0189502033
B1414043748599N00332845WA0189602034
B1414053748600N00332851WA0189602034
B1414063748600N00332859WA0189602033
B1414073748599N00332866WA0189602033
B1414083748595N00332871WA0189802034
B1414093748591N00332873WA0189902035
B1414103748586N00332873WA0190002036
B1414113748583N00332871WA0190202038
B1414123748580N00332868WA0190302040
B1414133748577N00332864WA0190202041
B1414143748573N00332859WA0189902039
B1414153748570N00332851WA0189902039
B1414163748570N00332843WA0190102039
B1414173748570N00332835WA0190402039
B1414183748571N00332828WA0190602040
B1414193748572N00332820WA0190602041
B1414203748574N00332813WA0190702041
B1414213748576N00332806WA0190702042
B1414223748578N00332799WA0190702042
B1414233748581N00332794WA0190802043
B1414243748585N00332789WA0190802044
B1414253748590N00332787WA0190802044
B1414263748595N00332784WA0190702045
B1414273748600N00332782WA0190302044
B1414283748606N00332779WA0190202044
B1414293748611N00332776WA0190502043
B1414303748617N00332773WA0190502044
B1414313748623N00332771WA0190602044
B1414323748629N00332768WA0190602044
B1414333748635N00332766WA0190702045
B1414343748641N00332763WA0190802045
B1414353748646N00332760WA0190802046
B1414363748651N00332758WA0190702046
B1414373748657N00332757WA0190902047
B1414383748663N00332756WA0191002048
B1414393748668N00332755WA0191002049
B1414403748673N00332755WA0190902049
B1414413748679N00332754WA0190602048
B1414423748686N00332753WA0190602047
B1414433748692N00332750WA0190702046
B1414443748698N00332748WA0190702046
B1414453748703N00332745WA0190702047
B1414463748707N00332742WA0190702047
B1414473748712N00332738WA0190502046
B1414483748717N00332735WA0190302044
B1414493748723N00332731WA0190002042
B1414503748728N00332728WA0189902041
B1414513748732N00332725WA0189802039
B1414523748736N00332722WA0189602038
B1414533748740N00332718WA0189102035
B1414543748744N00332713WA0188702032
B1414553748749N00332709WA0188902029
B1414563748754N00332705WA0188602027
B1414573748759N00332701WA0188502025
B1414583748765N00332696WA0188402024
B1414593748770N00332692WA0188402023
B1415003748774N00332688WA0188302022
B1415013748779N00332686WA0188402022
B1415023748783N00332684WA0188502021
B1415033748788N00332680WA0188402020
B1415043748792N00332676WA0188402020
B1415053748797N00332671WA0188502020
B1415063748801N00332666WA0188602021
B1415073748805N00332661WA0188702022
B1415083748808N00332656WA0188802023
B1415093748812N00332650WA0188602024
B1415103748815N00332644WA0188302023
B1415113748819N00332637WA0188602023
B1415123748823N00332629WA0188902024
B1415133748827N00332621WA0189002026
B1415143748831N00332614WA0189302028
B1415153748833N00332609WA0189602031
B1415163748834N00332603WA0189802034
B1415173748833N00332596WA0189702035
B1415183748830N00332589WA0189502033
B1415193748824N00332582WA0189302031
B1415203748818N00332576WA0189502030
B1415213748813N00332574WA0189802036
B1415223748808N00332573WA0190102038
B1415233748804N00332574WA0190302040
B1415243748800N00332576WA0190302042
B1415253748796N00332580WA0190302042
B1415263748792N00332585WA0190202043
B1415273748790N00332590WA0190302042
B1415283748788N00332596WA0190302043
B1415293748788N00332602WA0190502045
B1415303748788N00332606WA0190602046
B1415313748789N00332611WA0190702047
B1415323748791N00332614WA0190702048
B1415333748795N00332617WA0190702049
B1415343748798N00332619WA0190702049
B1415353748803N00332620WA0190802050
B1415363748808N00332621WA0190902050
B1415373748812N00332622WA0191102051
B1415383748816N00332622WA0191302053
B1415393748819N00332621WA0191502055
B1415403748823N00332619WA0191602057
B1415413748827N00332615WA0191602056
B1415423748831N00332609WA0191602055
B1415433748834N00332602WA0191602055
B1415443748835N00332594WA0191702056
B1415453748835N00332586WA0191802057
B1415463748834N00332576WA0191902057
B1415473748830N00332568WA0192002058
B1415483748825N00332560WA0192102059
B1415493748821N00332553WA0192202061
B1415503748816N00332548WA0192402063
B1415513748812N00332544WA0192402064
B1415523748807N00332541WA0192402064
B1415533748801N00332540WA0192302064
B1415543748794N00332540WA0192102064
B1415553748789N00332542WA0192102064
B1415563748784N00332544WA0192402065
B1415573748780N00332545WA0192702068
B1415583748777N00332547WA0192902071
B1415593748774N00332550WA0192902071
B1416003748772N00332556WA0192802071
B1416013748770N00332563WA0192602070
B1416023748769N00332570WA0192602068
B1416033748770N00332577WA0192702068
B1416043748772N00332581WA0192802069
B1416053748775N00332585WA0192702069
B1416063748778N00332589WA0192702069
B1416073748783N00332591WA0192402068
B1416083748788N00332591WA0192302068
B1416093748793N00332589WA0192602068
B1416103748797N00332586WA0192502068
B1416113748801N00332581WA0192602068
B1416123748805N00332577WA0192602068
B1416133748809N00332571WA0192602068
B1416143748813N00332565WA0192602067
B1416153748817N00332559WA0192702067
B1416163748821N00332552WA0192702067
B1416173748824N00332545WA0192802068
B1416183748828N00332538WA0192502068
B1416193748832N00332531WA0192302068
B1416203748836N00332523WA0193002068
B1416213748839N00332515WA0193202071
B1416223748840N00332508WA0193502074
B1416233748842N00332502WA0193702076
B1416243748843N00332495WA0193902078
B1416253748843N00332487WA0193802078
B1416263748841N00332478WA0193702077
B1416273748838N00332468WA0193602076
B1416283748834N00332459WA0193602076
B1416293748830N00332450WA0193802077
B1416303748825N00332444WA0194002078
B1416313748820N00332439WA0194102080
B1416323748815N00332435WA0194302081
B1416333748810N00332431WA0194302082
B1416343748805N00332429WA0194302082
B1416353748799N00332427WA0194202082
B1416363748793N00332427WA0194102082
B1416373748787N00332428WA0194002082
B1416383748782N00332430WA0194102082
B1416393748778N00332434WA0194202083
B1416403748774N00332437WA0194302084
B1416413748770N00332442WA0194502085
B1416423748767N00332446WA0194602085
B1416433748764N00332452WA0194602087
B1416443748761N00332457WA0194802088
B1416453748758N00332462WA0194902090
B1416463748755N00332467WA0195102091
B1416473748751N00332471WA0195302093
B1416483748748N00332475WA0195502096
B1416493748746N00332479WA0195702097
B1416503748746N00332485WA0195602097
B1416513748748N00332491WA0195502097
B1416523748752N00332496WA0195402097
B1416533748756N00332499WA0195602098
B1416543748758N00332500WA0195802099
B1416553748760N00332499WA0195702100
B1416563748762N00332498WA0195602100
B1416573748766N00332498WA0195202098
B1416583748772N00332496WA0194802095
B1416593748778N00332494WA0194702091
B1417003748784N00332491WA0194702091
B1417013748788N00332487WA0194802092
B1417023748791N00332483WA0195002093
B1417033748794N00332479WA0195002093
B1417043748797N00332473WA0195002093
B1417053748800N00332466WA0194902093
B1417063748802N00332458WA0195002092
B1417073748805N00332451WA0195002092
B1417083748807N00332443WA0195102094
B1417093748809N00332436WA0195102094
B1417103748811N00332427WA0194802094
B1417113748814N00332418WA0194302092
B1417123748816N00332409WA0194702091
B1417133748819N00332400WA0194802091
B1417143748820N00332391WA0195002092
B1417153748821N00332383WA0195302093
B1417163748822N00332376WA0195502096
B1417173748821N00332370WA0195702097
B1417183748819N00332363WA0195602099
B1417193748816N00332355WA0195602098
B1417203748811N00332348WA0195402096
B1417213748806N00332341WA0195402095
B1417223748800N00332335WA0195502095
B1417233748794N00332330WA0195502095
B1417243748789N00332326WA0195502095
B1417253748783N00332322WA0195402095
B1417263748777N00332320WA0195402095
B1417273748771N00332322WA0195102094
B1417283748767N00332326WA0195002093
B1417293748765N00332331WA0195102093
B1417303748765N00332336WA0195302094
B1417313748766N00332338WA0195302095
B1417323748768N00332339WA0195402096
B1417333748771N00332339WA0195302096
B1417343748774N00332339WA0195102096
B1417353748779N00332338WA0195002096
B1417363748784N00332337WA0195002095
B1417373748790N00332336WA0195202095
B1417383748793N00332335WA0195502096
B1417393748795N00332332WA0195702100
B1417403748798N00332328WA0195702101
B1417413748800N00332323WA0195702100
B1417423748803N00332318WA0195502099
B1417433748806N00332313WA0195402098
B1417443748810N00332308WA0195402097
B1417453748813N00332303WA0195202097
B1417463748817N00332298WA0194902096
B1417473748820N00332293WA0194802094
B1417483748824N00332287WA0194902092
B1417493748828N00332281WA0194602090
B1417503748832N00332275WA0194602088
B1417513748836N00332269WA0194602087
B1417523748840N00332263WA0194702086
B1417533748843N00332258WA0194702088
B1417543748847N00332252WA0194702088
B1417553748851N00332246WA0194602087
B1417563748855N00332239WA0194502086
B1417573748859N00332233WA0194502086
B1417583748862N00332226WA0194502086
B1417593748863N00332219WA0194502087
B1418003748865N00332211WA0194502087
B1418013748866N00332203WA0194502087
B1418023748868N00332195WA0194302086
B1418033748870N00332186WA0194302085
B1418043748872N00332178WA0194302085
B1418053748874N00332169WA0194202084
B1418063748876N00332161WA0194202084
B1418073748879N00332153WA0194102083
B1418083748882N00332145WA0194102083
B1418093748886N00332137WA0193902082
B1418103748889N00332129WA0193802082
B1418113748892N00332120WA0193902082
B1418123748894N00332111WA0193902081
B1418133748898N00332102WA0193802080
B1418143748901N00332094WA0193902080
B1418153748905N00332087WA0194102081
B1418163748909N00332080WA0194202083
B1418173748912N00332074WA0194302084
B1418183748916N00332067WA0194302084
B1418193748920N00332058WA0194302084
B1418203748925N00332050WA0194502086
B1418213748929N00332043WA0194802088
B1418223748931N00332037WA0195202091
B1418233748933N00332031WA0195402093
B1418243748934N00332024WA0195402094
B1418253748935N00332015WA0195402093
B1418263748935N00332004WA0195202091
B1418273748933N00331992WA0195402090
B1418283748931N00331982WA0195702093
B1418293748928N00331975WA0196002097
B1418303748924N00331969WA0196202100
B1418313748919N00331964WA0196302102
B1418323748913N00331961WA0196202103
B1418333748906N00331960WA0196102103
B1418343748899N00331961WA0196002103
B1418353748892N00331961WA0196102104
B1418363748886N00331961WA0196302106
B1418373748881N00331961WA0196402108
B1418383748877N00331962WA0196502109
B1418393748873N00331964WA0196502109
B1418403748870N00331968WA0196402107
B1418413748869N00331973WA0196402106
B1418423748868N00331978WA0196602107
B1418433748868N00331982WA0196602108
B1418443748870N00331985WA0196702109
B1418453748872N00331987WA0196702110
B1418463748875N00331989WA0196502109
B1418473748880N00331989WA0196402109
B1418483748886N00331987WA0196302108
B1418493748892N00331984WA0196402108
B1418503748898N00331980WA0196502108
B1418513748903N00331976WA0196702110
B1418523748908N00331972WA0196902112
B1418533748912N00331968WA0197202114
B1418543748916N00331963WA0197302117
B1418553748918N00331958WA0197402119
B1418563748920N00331951WA0197502120
B1418573748921N00331941WA0197402118
B1418583748920N00331930WA0197102116
B1418593748918N00331919WA0197202115
B1419003748915N00331908WA0197402117
B1419013748912N00331899WA0197602119
B1419023748909N00331892WA0197702121
B1419033748905N00331885WA0197702122
B1419043748899N00331881WA0197502122
B1419053748892N00331878WA0197302121
B1419063748885N00331876WA0197202120
B1419073748879N00331874WA0197202120
B1419083748872N00331873WA0197402120
B1419093748866N00331872WA0197502121
B1419103748860N00331871WA0197602122
B1419113748855N00331871WA0197602122
B1419123748850N00331872WA0197502122
B1419133748845N00331876WA0197402119
B1419143748843N00331880WA0197302118
B1419153748841N00331885WA0197202117
B1419163748841N00331889WA0197302118
B1419173748843N00331892WA0197302118
B1419183748845N00331895WA0197402118
B1419193748848N00331897WA0197302117
B1419203748851N00331898WA0197202117
B1419213748855N00331899WA0197102116
B1419223748859N00331900WA0197102115
B1419233748863N00331900WA0197002115
B1419243748868N00331899WA0197002114
B1419253748873N00331898WA0197002113
B1419263748878N00331896WA0197002113
B1419273748884N00331893WA0197202114
B1419283748890N00331889WA0197402115
B1419293748894N00331885WA0197602117
B1419303748899N00331881WA0197702119
B1419313748903N00331875WA0197702119
B1419323748908N00331870WA0197602118
B1419333748914N00331864WA0197602116
B1419343748920N00331859WA0197702117
B1419353748925N00331856WA0198002117
B1419363748928N00331852WA0198102119
B1419373748931N00331847WA0198002120
B1419383748935N00331841WA0197602119
B1419393748940N00331835WA0197402117
B1419403748946N00331828WA0197302114
B1419413748951N00331821WA0197302113
B1419423748956N00331813WA0197402113
B1419433748959N00331805WA0197402113
B1419443748963N00331797WA0197502113
B1419453748967N00331791WA0197602114
B1419463748973N00331784WA0197602114
B1419473748978N00331777WA0197502114
B1419483748983N00331769WA0197402114
B1419493748988N00331762WA0197302114
B1419503748993N00331755WA0197202114
B1419513748998N00331749WA0197102112
B1419523749003N00331743WA0197002111
B1419533749009N00331738WA0196802110
B1419543749014N00331733WA0196802109
B1419553749019N00331728WA0196602108
B1419563749023N00331722WA0196502107
B1419573749028N00331716WA0196302106
B1419583749032N00331710WA0195802103
B1419593749035N00331705WA0195702102
B1420003749038N00331700WA0195602100
B1420013749040N00331694WA0195302098
B1420023749043N00331688WA0194802093
B1420033749047N00331682WA0194502086
B1420043749052N00331677WA0194102082
B1420053749058N00331674WA0194002078
B1420063749061N00331672WA0194102076
B1420073749064N00331670WA0193902075
B1420083749067N00331668WA0193602072
B1420093749070N00331664WA0192802067
B1420103749074N00331659WA0192002061
B1420113749078N00331653WA0192402058
B1420123749081N00331647WA0192202056
B1420133749083N00331640WA0192202055
B1420143749085N00331635WA0192102055
B1420153749088N00331630WA0191902053
B1420163749091N00331624WA0191602051
B1420173749095N00331616WA0191602049
B1420183749098N00331608WA0191602048
B1420193749100N00331600WA0191702049
B1420203749102N00331593WA0191802050
B1420213749105N00331587WA0191802051
B1420223749107N00331580WA0191802052
B1420233749109N00331573WA0191602051
B1420243749112N00331565WA0191502050
B1420253749114N00331557WA0191502050
B1420263749116N00331548WA0191602050
B1420273749118N00331540WA0191802052
B1420283749120N00331533WA0191702053
B1420293749122N00331526WA0191702054
B1420303749123N00331518WA0191802054
B1420313749125N00331510WA0191902055
B1420323749127N00331503WA0192102056
B1420333749129N00331496WA0192002057
B1420343749131N00331489WA0192102057
B1420353749133N00331482WA0192002058
B1420363749136N00331474WA0192302059
B1420373749139N00331466WA0192502061
B1420383749140N00331459WA0192802064
B1420393749141N00331452WA0193102068
B1420403749141N00331446WA0193202071
B1420413749141N00331438WA0193302072
B1420423749140N00331430WA0193402074
B1420433749138N00331421WA0193402075
B1420443749135N00331413WA0193602076
B1420453749130N00331405WA0193602077
B1420463749124N00331399WA0193602077
B1420473749118N00331395WA0193502077
B1420483749111N00331393WA0193402077
B1420493749104N00331392WA0193302076
B1420503749098N00331394WA0193202076
B1420513749094N00331397WA0193102075
B1420523749090N00331401WA0193102074
B1420533749086N00331405WA0193202074
B1420543749084N00331410WA0193302076
B1420553749083N00331414WA0193502078
B1420563749083N00331417WA0193602079
B1420573749084N00331420WA0193802081
B1420583749085N00331422WA0194002082
B1420593749087N00331425WA0194202084
B1421003749089N00331426WA0194302086
B1421013749092N00331426WA0194502088
B1421023749095N00331423WA0194502088
B1421033749099N00331417WA0194602088
B1421043749102N00331410WA0194802089
B1421053749103N00331402WA0195102091
B1421063749103N00331394WA0195302094
B1421073749101N00331386WA0195402096
B1421083749097N00331377WA0195502097
B1421093749092N00331369WA0195502098
B1421103749085N00331363WA0195702099
B1421113749078N00331358WA0195802100
B1421123749071N00331356WA0195902102
B1421133749065N00331356WA0196002103
B1421143749059N00331357WA0195902104
B1421153749054N00331360WA0195802103
B1421163749049N00331364WA0195802102
B1421173749045N00331370WA0195902102
B1421183749042N00331375WA0196202103
B1421193749040N00331378WA0196402106
B1421203749039N00331381WA0196502109
B1421213749039N00331383WA0196602110
B1421223749040N00331386WA0196702111
B1421233749043N00331388WA0196602111
B1421243749047N00331389WA0196602111
B1421253749051N00331390WA0196902113
B1421263749055N00331389WA0197102115
B1421273749058N00331387WA0197502117
B1421283749061N00331384WA0197802120
B1421293749064N00331379WA0198002124
B1421303749066N00331373WA0198402126
B1421313749067N00331365WA0198502128
B1421323749066N00331356WA0198702129
B1421333749064N00331347WA0198902130
B1421343749060N00331338WA0199102134
B1421353749055N00331331WA0199302137
B1421363749050N00331325WA0199502139
B1421373749043N00331320WA0199602141
B1421383749035N00331317WA0199702142
B1421393749028N00331315WA0199902144
B1421403749021N00331314WA0200102146
B1421413749015N00331315WA0200202147
B1421423749010N00331316WA0200302149
B1421433749006N00331319WA0200302150
B1421443749003N00331323WA0200302149
B1421453749002N00331327WA0200302147
B1421463749002N00331332WA0200302147
B1421473749003N00331335WA0200402147
B1421483749005N00331337WA0200502148
B1421493749007N00331338WA0200702150
B1421503749010N00331339WA0200802152
B1421513749013N00331339WA0200902153
B1421523749016N00331338WA0201002154
B1421533749021N00331335WA0201102154
B1421543749025N00331331WA0201402156
B1421553749030N00331327WA0201602158
B1421563749032N00331322WA0201902161
B1421573749034N00331315WA0202102165
B1421583749034N00331306WA0202202166
B1421593749032N00331297WA0202302167
B1422003749028N00331288WA0202502168
B1422013749023N00331280WA0202602170
B1422023749016N00331275WA0202802172
B1422033749009N00331271WA0203002174
B1422043749001N00331269WA0203202176
B1422053748995N00331270WA0203302177
B1422063748990N00331273WA0203302178
B1422073748987N00331277WA0203402179
B1422083748985N00331281WA0203502180
B1422093748984N00331284WA0203702181
B1422103748984N00331288WA0203802183
B1422113748984N00331291WA0203802184
B1422123748985N00331293WA0203802184
B1422133748988N00331295WA0203802184
B1422143748993N00331297WA0203902184
B1422153748997N00331296WA0204002185
B1422163749002N00331294WA0204302187
B1422173749006N00331292WA0204702190
B1422183749009N00331289WA0205002193
B1422193749011N00331284WA0205302195
B1422203749015N00331277WA0205402197
B1422213749017N00331269WA0205402198
B1422223749019N00331259WA0205702199
B1422233749019N00331249WA0205702200
B1422243749017N00331239WA0205802202
B1422253749014N00331229WA0205902203
B1422263749010N00331220WA0206102204
B1422273749005N00331210WA0206202206
B1422283749000N00331201WA0206302207
B1422293748994N00331194WA0206602210
B1422303748987N00331190WA0206702213
B1422313748981N00331188WA0206802215
B1422323748975N00331188WA0206802216
B1422333748969N00331190WA0206802217
B1422343748963N00331192WA0207002218
B1422353748959N00331195WA0207102219
B1422363748956N00331198WA0207202220
B1422373748954N00331201WA0207302221
B1422383748953N00331204WA0207302221
B1422393748953N00331207WA0207302221
B1422403748954N00331210WA0207302221
B1422413748956N00331213WA0207302221
B1422423748960N00331215WA0207502221
B1422433748964N00331214WA0207602222
B1422443748967N00331212WA0207802224
B1422453748970N00331209WA0208002225
B1422463748972N00331204WA0208202228
B1422473748975N00331198WA0208302229
B1422483748978N00331190WA0208502231
B1422493748980N00331182WA0208602232
B1422503748980N00331172WA0208702234
B1422513748979N00331162WA0209002235
B1422523748978N00331152WA0209302238
B1422533748975N00331143WA0209502241
B1422543748971N00331135WA0209602243
B1422553748965N00331128WA0209602244
B1422563748958N00331122WA0209602245
B1422573748951N00331118WA0209602245
B1422583748944N00331114WA0209802246
B1422593748937N00331112WA0209902247
B1423003748931N00331110WA0210002249
B1423013748925N00331110WA0210002249
B1423023748919N00331111WA0209802249
B1423033748914N00331114WA0209502248
B1423043748911N00331119WA0209402247
B1423053748908N00331124WA0209402246
B1423063748907N00331128WA0209602247
B1423073748905N00331131WA0209602248
B1423083748905N00331133WA0209502247
B1423093748905N00331137WA0209402246
B1423103748906N00331140WA0209202244
B1423113748909N00331144WA0209102242
B1423123748913N00331145WA0209202242
B1423133748916N00331146WA0209402244
B1423143748919N00331145WA0209502244
B1423153748923N00331143WA0209502245
B1423163748927N00331141WA0209402244
B1423173748931N00331137WA0209402243
B1423183748936N00331133WA0209502244
B1423193748941N00331129WA0209702245
B1423203748946N00331126WA0210002247
B1423213748949N00331123WA0210502250
B1423223748951N00331119WA0210602252
B1423233748953N00331113WA0210502254
B1423243748956N00331106WA0210402253
B1423253748958N00331097WA0210402251
B1423263748959N00331088WA0210302250
B1423273748960N00331079WA0210302250
B1423283748960N00331070WA0210302250
B1423293748960N00331062WA0210002250
B1423303748959N00331052WA0209702248
B1423313748959N00331041WA0209802246
B1423323748958N00331030WA0209702244
B1423333748958N00331019WA0209702244
B1423343748958N00331009WA0209802245
B1423353748959N00331001WA0209802246
B1423363748960N00330992WA0209702246
B1423373748960N00330981WA0209402244
B1423383748960N00330971WA0209202240
B1423393748961N00330960WA0208802237
B1423403748963N00330950WA0208802235
B1423413748966N00330940WA0208602233
B1423423748969N00330932WA0208502232
B1423433748971N00330923WA0208402230
B1423443748972N00330913WA0208002229
B1423453748974N00330903WA0207702227
B1423463748976N00330893WA0207802225
B1423473748978N00330883WA0207802224
B1423483748980N00330874WA0207702223
B1423493748982N00330866WA0207802224
B1423503748984N00330858WA0207702224
B1423513748986N00330850WA0207502223
B1423523748988N00330841WA0207202220
B1423533748991N00330832WA0207002218
B1423543748993N00330824WA0206802216
B1423553748997N00330817WA0206802214
B1423563749001N00330810WA0206602213
B1423573749006N00330805WA0206202210
B1423583749011N00330801WA0205802207
B1423593749016N00330796WA0205502203
B1424003749020N00330791WA0204802199
B1424013749024N00330786WA0204602195
B1424023749029N00330781WA0204502193
B1424033749033N00330776WA0204202190
B1424043749038N00330771WA0203902188
B1424053749043N00330766WA0203602184
B1424063749048N00330761WA0203202181
B1424073749053N00330756WA0202902178
B1424083749058N00330750WA0202602175
B1424093749062N00330744WA0202402172
B1424103749067N00330739WA0202202169
B1424113749072N00330734WA0201902166
B1424123749077N00330729WA0201702164
B1424133749081N00330722WA0201402161
B1424143749085N00330716WA0201202158
B1424153749089N00330709WA0201002156
B1424163749094N00330703WA0200802154
B1424173749099N00330697WA0200502151
B1424183749104N00330691WA0200202149
B1424193749110N00330685WA0200102147
B1424203749114N00330679WA0200102146
B1424213749118N00330672WA0200002146
B1424223749121N00330665WA0199902145
B1424233749125N00330658WA0199802144
B1424243749128N00330651WA0199502142
B1424253749132N00330643WA0199302140
B1424263749136N00330636WA0199002136
B1424273749140N00330628WA0198802134
B1424283749145N00330622WA0198502132
B1424293749150N00330616WA0198202130
B1424303749155N00330610WA0198002128
B1424313749160N00330604WA0198002126
B1424323749165N00330597WA0198102125
B1424333749169N00330590WA0198102125
B1424343749172N00330584WA0198202125
B1424353749175N00330578WA0198202126
B1424363749178N00330572WA0198102126
B1424373749181N00330566WA0197902125
B1424383749184N00330560WA0197602122
B1424393749187N00330552WA0197302119
B1424403749190N00330545WA0197002117
B1424413749194N00330538WA0196802115
B1424423749198N00330532WA0196602112
B1424433749202N00330525WA0196402109
B1424443749207N00330519WA0196202106
B1424453749211N00330512WA0196002105
B1424463749216N00330506WA0196202105
B1424473749220N00330499WA0196302105
B1424483749224N00330493WA0196402106
B1424493749227N00330487WA0196502107
B1424503749231N00330481WA0196602107
B1424513749236N00330475WA0196602107
B1424523749242N00330469WA0196802108
B1424533749248N00330464WA0196902109
B1424543749253N00330460WA0197302112
B1424553749257N00330456WA0197702115
B1424563749260N00330452WA0197902118
B1424573749263N00330446WA0198002120
B1424583749264N00330438WA0198002118
B1424593749263N00330428WA0197902117
B1425003749260N00330418WA0197902116
B1425013749255N00330411WA0198202119
B1425023749250N00330407WA0198602123
B1425033749245N00330406WA0198802127
B1425043749241N00330408WA0198902129
B1425053749237N00330411WA0199002131
B1425063749233N00330414WA0199102132
B1425073749231N00330418WA0199102134
B1425083749230N00330423WA0199302135
B1425093749231N00330428WA0199302136
B1425103749232N00330434WA0199502136
B1425113749234N00330438WA0199702138
B1425123749238N00330441WA0199902140
B1425133749243N00330442WA0200002143
B1425143749248N00330441WA0200202144
B1425153749253N00330437WA0200302144
B1425163749257N00330430WA0200402146
B1425173749260N00330421WA0200602147
B1425183749260N00330413WA0200802149
B1425193749258N00330405WA0200902152
B1425203749254N00330399WA0201002153
B1425213749250N00330394WA0201202155
B1425223749245N00330391WA0201402157
B1425233749240N00330390WA0201602159
B1425243749236N00330390WA0201602160
B1425253749231N00330391WA0201702161
B1425263749227N00330394WA0201702163
B1425273749225N00330399WA0201702164
B1425283749225N00330405WA0201602163
B1425293749227N00330412WA0201802162
B1425303749230N00330417WA0202002164
B1425313749233N00330421WA0202302166
B1425323749236N00330425WA0202402170
B1425333749240N00330427WA0202602173
B1425343749244N00330429WA0202702174
B1425353749249N00330430WA0202702176
B1425363749255N00330429WA0202702177
B1425373749261N00330427WA0202902178
B1425383749267N00330423WA0203002179
B1425393749271N00330417WA0203102180
B1425403749274N00330411WA0203202181
B1425413749277N00330403WA0203202181
B1425423749278N00330395WA0203302181
B1425433749278N00330388WA0203402182
B1425443749277N00330380WA0203602183
B1425453749275N00330374WA0203702185
B1425463749271N00330370WA0203702186
B1425473749267N00330366WA0203602187
B1425483749262N00330365WA0203902187
B1425493749257N00330365WA0204102188
B1425503749253N00330366WA0204302190
B1425513749250N00330369WA0204502192
B1425523749247N00330372WA0204602194
B1425533749245N00330377WA0204802195
B1425543749245N00330383WA0204702195
B1425553749246N00330390WA0204702194
B1425563749250N00330397WA0204802194
B1425573749254N00330402WA0205002195
B1425583749258N00330406WA0205102198
B1425593749262N00330409WA0205302199
B1426003749266N00330411WA0205302200
B1426013749273N00330411WA0205002200
B1426023749280N00330409WA0204902197
B1426033749287N00330407WA0204902196
B1426043749293N00330403WA0204902196
B1426053749297N00330398WA0204902196
B1426063749301N00330393WA0205002196
B1426073749305N00330389WA0205002196
B1426083749309N00330383WA0204702195
B1426093749313N00330377WA0204302193
B1426103749317N00330370WA0204302191
B1426113749322N00330362WA0204302190
B1426123749327N00330355WA0204602190
B1426133749332N00330348WA0204902191
B1426143749337N00330343WA0205302194
B1426153749340N00330337WA0205502198
B1426163749341N00330329WA0205702200
B1426173749341N00330321WA0205802201
B1426183749339N00330312WA0205902201
B1426193749335N00330304WA0206302203
B1426203749331N00330299WA0206702208
B1426213749327N00330296WA0207002212
B1426223749324N00330297WA0207202215
B1426233749321N00330299WA0207402217
B1426243749319N00330303WA0207702220
B1426253749319N00330309WA0208102222
B1426263749322N00330314WA0208302226
B1426273749327N00330318WA0208602230
B1426283749333N00330319WA0209002233
B1426293749339N00330317WA0209302237
B1426303749345N00330313WA0209602242
B1426313749349N00330308WA0209802245
B1426323749353N00330301WA0209802245
B1426333749355N00330292WA0209902246
B1426343749357N00330283WA0210002247
B1426353749359N00330273WA0210402249
B1426363749361N00330265WA0210902252
B1426373749362N00330256WA0211202256
B1426383749363N00330248WA0211402259
B1426393749361N00330241WA0211502260
B1426403749358N00330236WA0211402262
B1426413749353N00330234WA0211402262
B1426423749348N00330234WA0211502262
B1426433749344N00330236WA0211702262
B1426443749341N00330239WA0212002264
B1426453749340N00330242WA0212202266
B1426463749340N00330246WA0212302268
B1426473749342N00330251WA0212402269
B1426483749346N00330256WA0212402269
B1426493749353N00330260WA0212302269
B1426503749361N00330261WA0212502269
B1426513749370N00330260WA0212902270
B1426523749377N00330258WA0213402274
B1426533749383N00330256WA0213702277
B1426543749388N00330251WA0213902282
B1426553749393N00330245WA0214302284
B1426563749397N00330236WA0214402285
B1426573749399N00330227WA0214502287
B1426583749400N00330217WA0214702289
B1426593749398N00330209WA0215002292
B1427003749396N00330203WA0215102295
B1427013749392N00330199WA0215302297
B1427023749388N00330197WA0215602299
B1427033749384N00330197WA0215802302
B1427043749381N00330197WA0216102305
B1427053749380N00330200WA0216202308
B1427063749380N00330204WA0216202309
B1427073749382N00330210WA0216102308
B1427083749385N00330216WA0216102307
B1427093749390N00330222WA0216202308
B1427103749396N00330225WA0216602313
B1427113749401N00330228WA0216802316
B1427123749408N00330228WA0216902318
B1427133749415N00330226WA0216902319
B1427143749424N00330222WA0217002318
B1427153749431N00330215WA0217202319
B1427163749436N00330208WA0217402321
B1427173749439N00330201WA0217602324
B1427183749441N00330193WA0217902327
B1427193749443N00330185WA0218102329
B1427203749443N00330177WA0218202330
B1427213749442N00330169WA0218402331
B1427223749440N00330162WA0218502333
B1427233749437N00330157WA0218702335
B1427243749434N00330153WA0218702336
B1427253749431N00330151WA0218902338
B1427263749427N00330150WA0219102339
B1427273749424N00330149WA0219402342
B1427283749423N00330149WA0219702345
B1427293749423N00330150WA0219802348
B1427303749422N00330153WA0219702350
B1427313749423N00330158WA0219602352
B1427323749425N00330164WA0219602350
B1427333749427N00330170WA0219602350
B1427343749431N00330174WA0219802352
B1427353749437N00330178WA0219902353
B1427363749443N00330181WA0220102355
B1427373749449N00330183WA0220302357
B1427383749455N00330185WA0220402358
B1427393749462N00330184WA0220502360
B1427403749469N00330183WA0220602361
B1427413749476N00330180WA0220602361
B1427423749483N00330175WA0220702361
B1427433749488N00330169WA0220702362
B1427443749493N00330162WA0220702362
B1427453749497N00330154WA0221002363
B1427463749499N00330145WA0221002364
B1427473749500N00330137WA0221002364
B1427483749499N00330128WA0220602365
B1427493749498N00330121WA0221102365
B1427503749496N00330115WA0221302366
B1427513749493N00330110WA0221402367
B1427523749490N00330106WA0221402368
B1427533749487N00330103WA0221502369
B1427543749484N00330101WA0221602370
B1427553749481N00330100WA0221802371
B1427563749477N00330100WA0221902371
B1427573749474N00330102WA0221902372
B1427583749472N00330104WA0222102373
B1427593749470N00330108WA0222102374
B1428003749469N00330112WA0222202375
B1428013749470N00330118WA0222302376
B1428023749472N00330123WA0222302376
B1428033749475N00330127WA0222402377
B1428043749480N00330131WA0222302377
B1428053749485N00330136WA0222202377
B1428063749492N00330139WA0222102376
B1428073749500N00330141WA0222002375
B1428083749508N00330140WA0222002375
B1428093749517N00330139WA0222002375
B1428103749524N00330136WA0222202375
B1428113749531N00330133WA0222202376
B1428123749538N00330129WA0222302377
B1428133749545N00330124WA0222302377
B1428143749551N00330119WA0222302377
B1428153749556N00330114WA0222402378
B1428163749561N00330107WA0222102377
B1428173749565N00330099WA0221702375
B1428183749570N00330090WA0221602373
B1428193749574N00330080WA0221502371
B1428203749577N00330071WA0221702370
B1428213749579N00330062WA0221602370
B1428223749582N00330053WA0221702369
B1428233749584N00330043WA0221702369
B1428243749587N00330034WA0221702369
B1428253749591N00330025WA0221802369
B1428263749595N00330017WA0221902370
B1428273749598N00330008WA0222002371
B1428283749601N00329999WA0222202372
B1428293749604N00329991WA0222502375
B1428303749607N00329983WA0222802378
B1428313749609N00329976WA0222902380
B1428323749610N00329968WA0222902380
B1428333749608N00329961WA0222702380
B1428343749604N00329955WA0222502379
B1428353749600N00329951WA0222502378
B1428363749596N00329950WA0222502378
B1428373749594N00329952WA0222602378
B1428383749593N00329955WA0222602378
B1428393749592N00329959WA0222602378
B1428403749593N00329963WA0222602378
B1428413749595N00329968WA0222702378
B1428423749598N00329973WA0222702378
B1428433749603N00329977WA0222802379
B1428443749609N00329981WA0223002380
B1428453749615N00329985WA0223002382
B1428463749622N00329987WA0223102383
B1428473749629N00329988WA0223202384
B1428483749636N00329988WA0223302386
B1428493749643N00329987WA0223302387
B1428503749649N00329984WA0223302387
B1428513749656N00329980WA0223102387
B1428523749663N00329973WA0222902386
B1428533749669N00329965WA0222602383
B1428543749675N00329955WA0222502380
B1428553749680N00329945WA0222402378
B1428563749684N00329935WA0222502378
B1428573749687N00329926WA0222602379
B1428583749691N00329917WA0222602379
B1428593749694N00329907WA0222602380
B1429003749697N00329896WA0222802380
B1429013749701N00329886WA0223002382
B1429023749704N00329877WA0223302385
B1429033749707N00329869WA0223402388
B1429043749710N00329861WA0223402389
B1429053749714N00329852WA0223302390
B1429063749717N00329842WA0223302387
B1429073749720N00329831WA0222502386
B1429083749723N00329821WA0222602385
B1429093749725N00329812WA0223102386
B1429103749727N00329804WA0223202387
B1429113749729N00329795WA0223102386
B1429123749731N00329786WA0222902384
B1429133749734N00329776WA0222602380
B1429143749738N00329765WA0222302378
B1429153749742N00329756WA0222202376
B1429163749747N00329747WA0222202374
B1429173749751N00329739WA0222102374
B1429183749755N00329730WA0222002373
B1429193749760N00329722WA0221902372
B1429203749764N00329714WA0221802371
B1429213749768N00329706WA0221702370
B1429223749772N00329698WA0221602368
B1429233749777N00329689WA0221502367
B1429243749781N00329681WA0221202366
B1429253749784N00329673WA0221102365
B1429263749788N00329665WA0221002363
B1429273749792N00329657WA0220702362
B1429283749796N00329649WA0220502359
B1429293749800N00329641WA0220302357
B1429303749804N00329632WA0219902354
B1429313749808N00329623WA0219502352
B1429323749812N00329614WA0219602350
B1429333749815N00329605WA0219402348
B1429343749818N00329596WA0219302346
B1429353749821N00329588WA0219102344
B1429363749825N00329579WA0218802342
B1429373749828N00329570WA0218602340
B1429383749832N00329561WA0218502338
B1429393749835N00329551WA0218302336
B1429403749839N00329542WA0218102334
B1429413749844N00329534WA0218002333
B1429423749848N00329526WA0217902331
B1429433749853N00329518WA0217502330
B1429443749858N00329510WA0217402328
B1429453749864N00329504WA0217102326
B1429463749870N00329498WA0216902324
B1429473749876N00329491WA0216702322
B1429483749881N00329484WA0216502319
B1429493749887N00329477WA0216202316
B1429503749893N00329470WA0215902313
B1429513749899N00329463WA0215702310
B1429523749906N00329456WA0215502307
B1429533749911N00329448WA0215302305
B1429543749917N00329440WA0215102303
B1429553749922N00329433WA0214902301
B1429563749927N00329425WA0214702299
B1429573749932N00329418WA0214502297
B1429583749936N00329410WA0214102295
B1429593749941N00329402WA0213902292
B1430003749945N00329394WA0213602289
B1430013749951N00329386WA0213402287
B1430023749956N00329378WA0213302285
B1430033749962N00329372WA0213202284
B1430043749967N00329365WA0213002282
B1430053749973N00329358WA0212902281
B1430063749978N00329351WA0212702278
B1430073749984N00329344WA0212502276
B1430083749989N00329338WA0212302274
B1430093749994N00329331WA0212202273
B1430103749999N00329324WA0212002271
B1430113750004N00329316WA0211702269
B1430123750009N00329308WA0211402266
B1430133750014N00329300WA0211202264
B1430143750021N00329293WA0211002261
B1430153750027N00329285WA0210902260
B1430163750033N00329278WA0210802258
B1430173750039N00329271WA0210702257
B1430183750045N00329263WA0210602255
B1430193750051N00329255WA0210402253
B1430203750057N00329247WA0210102251
B1430213750064N00329240WA0209902249
B1430223750070N00329234WA0209802248
B1430233750076N00329228WA0209702247
B1430243750081N00329222WA0209502245
B1430253750087N00329215WA0209202243
B1430263750093N00329208WA0208802239
B1430273750099N00329201WA0208502235
B1430283750105N00329193WA0208202232
B1430293750112N00329186WA0208102229
B1430303750118N00329179WA0207902227
B1430313750123N00329172WA0207602225
B1430323750128N00329165WA0207402222
B1430333750133N00329157WA0207102219
B1430343750138N00329148WA0206902217
B1430353750142N00329140WA0206702214
B1430363750147N00329131WA0206402212
B1430373750151N00329123WA0206102209
B1430383750155N00329114WA0205902207
B1430393750160N00329105WA0205602204
B1430403750166N00329097WA0205302201
B1430413750172N00329088WA0205002198
B1430423750177N00329080WA0204802196
B1430433750182N00329071WA0204702194
B1430443750186N00329062WA0204602193
B1430453750189N00329054WA0204402192
B1430463750193N00329045WA0204202190
B1430473750196N00329037WA0204002188
B1430483750200N00329029WA0203802186
B1430493750204N00329021WA0203502184
B1430503750208N00329012WA0203402181
B1430513750212N00329003WA0203302180
B1430523750216N00328995WA0203402180
B1430533750220N00328987WA0203302180
B1430543750224N00328981WA0203202180
B1430553750229N00328974WA0203102178
B1430563750234N00328966WA0202702176
B1430573750239N00328958WA0202602174
B1430583750244N00328951WA0202602173
B1430593750249N00328943WA0202702173
B1431003750254N00328937WA0202702173
B1431013750259N00328931WA0202902174
B1431023750264N00328925WA0202902174
B1431033750270N00328920WA0202702174
B1431043750276N00328914WA0202702173
B1431053750282N00328908WA0202602172
B1431063750289N00328904WA0202602172
B1431073750295N00328900WA0202602172
B1431083750301N00328898WA0202702172
B1431093750306N00328895WA0202702172
B1431103750312N00328893WA0202602172
B1431113750318N00328891WA0202602171
B1431123750324N00328889WA0202602171
B1431133750330N00328886WA0202702171
B1431143750335N00328883WA0202802172
B1431153750339N00328878WA0202802172
B1431163750344N00328873WA0202702172
B1431173750349N00328867WA0202702171
B1431183750355N00328861WA0202702171
B1431193750360N00328855WA0202802171
B1431203750365N00328849WA0202902171
B1431213750370N00328843WA0203002172
B1431223750374N00328838WA0203102173
B1431233750379N00328832WA0203102173
B1431243750385N00328826WA0203102173
B1431253750391N00328821WA0203002173
B1431263750398N00328815WA0203002172
B1431273750405N00328810WA0202902173
B1431283750411N00328806WA0202902173
B1431293750417N00328801WA0202802173
B1431303750423N00328797WA0202702172
B1431313750429N00328793WA0202602172
B1431323750436N00328789WA0202502170
B1431333750443N00328784WA0202302169
B1431343750449N00328780WA0202102167
B1431353750456N00328776WA0201802165
B1431363750463N00328770WA0201902163
B1431373750470N00328764WA0201702162
B1431383750476N00328759WA0201602161
B1431393750482N00328754WA0201402160
B1431403750488N00328749WA0201002158
B1431413750495N00328743WA0200902156
B1431423750500N00328736WA0200802153
B1431433750506N00328728WA0200602150
B1431443750511N00328720WA0200502148
B1431453750517N00328713WA0200502148
B1431463750521N00328706WA0200602148
B1431473750526N00328701WA0200602149
B1431483750530N00328695WA0200402148
B1431493750535N00328688WA0200102146
B1431503750540N00328681WA0199702143
B1431513750546N00328673WA0199502140
B1431523750551N00328666WA0199302138
B1431533750556N00328659WA0199302137
B1431543750561N00328652WA0199202136
B1431553750565N00328645WA0199102135
B1431563750570N00328637WA0198802133
B1431573750575N00328629WA0198602129
B1431583750580N00328621WA0198402127
B1431593750585N00328613WA0198202125
B1432003750589N00328606WA0198102124
B1432013750593N00328599WA0197902123
B1432023750596N00328592WA0197702122
B1432033750600N00328584WA0197402119
B1432043750604N00328576WA0197102116
B1432053750609N00328567WA0196802113
B1432063750613N00328560WA0196602110
B1432073750616N00328552WA0196502109
B1432083750620N00328544WA0196302107
B1432093750623N00328536WA0196002104
B1432103750627N00328527WA0195702101
B1432113750630N00328519WA0195602099
B1432123750633N00328510WA0195402097
B1432133750635N00328502WA0195202096
B1432143750637N00328493WA0195102094
B1432153750639N00328484WA0194902092
B1432163750641N00328475WA0194602090
B1432173750643N00328466WA0194302088
B1432183750645N00328457WA0194202086
B1432193750648N00328448WA0194002083
B1432203750651N00328439WA0193902081
B1432213750654N00328431WA0193702079
B1432223750657N00328424WA0193502078
B1432233750661N00328417WA0193302076
B1432243750665N00328410WA0193002074
B1432253750668N00328403WA0192902072
B1432263750672N00328395WA0192702070
B1432273750676N00328388WA0192502067
B1432283750680N00328381WA0192402066
B1432293750684N00328374WA0192202064
B1432303750689N00328368WA0192102063
B1432313750693N00328361WA0191902061
B1432323750696N00328353WA0191602059
B1432333750700N00328345WA0191602057
B1432343750705N00328338WA0191402055
B1432353750709N00328332WA0191102054
B1432363750714N00328326WA0191002052
B1432373750718N00328319WA0190902050
B1432383750721N00328312WA0190702048
B1432393750724N00328305WA0190602047
B1432403750728N00328297WA0190402046
B1432413750733N00328290WA0190102043
B1432423750737N00328282WA0189802039
B1432433750741N00328274WA0189502037
B1432443750745N00328267WA0189402034
B1432453750750N00328261WA0189302033
B1432463750755N00328257WA0189102032
B1432473750760N00328252WA0188902030
B1432483750765N00328247WA0188702027
B1432493750771N00328240WA0188402023
B1432503750776N00328234WA0188202021
B1432513750782N00328229WA0188202019
B1432523750788N00328224WA0188102018
B1432533750793N00328220WA0188002017
B1432543750797N00328216WA0187802016
B1432553750802N00328211WA0187402014
B1432563750807N00328205WA0187002011
B1432573750812N00328200WA0187102009
B1432583750818N00328195WA0187002008
B1432593750823N00328190WA0186802006
B1433003750828N00328185WA0186602005
B1433013750833N00328180WA0186502003
B1433023750839N00328175WA0186302001
B1433033750844N00328170WA0186201999
B1433043750850N00328165WA0186101998
B1433053750856N00328160WA0185901996
B1433063750862N00328155WA0185901995
B1433073750867N00328151WA0185701994
B1433083750873N00328147WA0185501993
B1433093750879N00328142WA0185401991
B1433103750885N00328137WA0185201989
B1433113750891N00328131WA0185101988
B1433123750896N00328125WA0185001987
B1433133750901N00328119WA0184901986
B1433143750906N00328113WA0184801985
B1433153750911N00328107WA0184601984
B1433163750916N00328100WA0184401982
B1433173750921N00328094WA0184301980
B1433183750926N00328089WA0184301979
B1433193750931N00328084WA0184201979
B1433203750935N00328079WA0184101978
B1433213750940N00328073WA0183801976
B1433223750945N00328067WA0183601974
B1433233750950N00328060WA0183501971
B1433243750954N00328053WA0183401970
B1433253750959N00328047WA0183401970
B1433263750963N00328042WA0183401970
B1433273750967N00328038WA0183201969
B1433283750972N00328032WA0183101967
B1433293750977N00328026WA0182901966
B1433303750981N00328020WA0182701964
B1433313750984N00328013WA0182601963
B1433323750988N00328007WA0182501962
B1433333750992N00328001WA0182401961
B1433343750997N00327995WA0182201959
B1433353751001N00327989WA0182001957
B1433363751006N00327982WA0181701954
B1433373751011N00327976WA0181601952
B1433383751015N00327969WA0181401950
B1433393751020N00327962WA0181201949
B1433403751024N00327955WA0181201947
B1433413751028N00327947WA0181101946
B1433423751032N00327940WA0180901945
B1433433751036N00327933WA0180801944
B1433443751040N00327927WA0180701943
B1433453751043N00327920WA0180501942
B1433463751047N00327913WA0180401940
B1433473751051N00327906WA0180301939
B1433483751055N00327899WA0180201937
B1433493751058N00327893WA0180101936
B1433503751062N00327887WA0180001935
B1433513751066N00327882WA0179901934
B1433523751069N00327876WA0179601932
B1433533751073N00327869WA0179401930
B1433543751077N00327863WA0179101927
B1433553751082N00327856WA0178801924
B1433563751086N00327851WA0178601923
B1433573751090N00327845WA0178501921
B1433583751095N00327839WA0178401919
B1433593751099N00327834WA0178201918
B1434003751104N00327829WA0177901916
B1434013751109N00327824WA0177801915
B1434023751115N00327819WA0178001914
B1434033751119N00327813WA0178101914
B1434043751123N00327806WA0178101914
B1434053751127N00327801WA0178001914
B1434063751132N00327795WA0177801913
B1434073751137N00327790WA0177501911
B1434083751143N00327786WA0177301909
B1434093751148N00327783WA0177001907
B1434103751154N00327780WA0176901905
B1434113751159N00327776WA0176601903
B1434123751164N00327769WA0176401900
B1434133751169N00327762WA0176401898
B1434143751173N00327755WA0176301897
B1434153751177N00327748WA0176101896
B1434163751181N00327742WA0175901894
B1434173751185N00327735WA0175701892
B1434183751191N00327728WA0175501889
B1434193751196N00327721WA0175401887
B1434203751200N00327714WA0175301885
B1434213751205N00327708WA0175301885
B1434223751208N00327702WA0175201884
B1434233751212N00327694WA0175001882
B1434243751215N00327685WA0175001881
B1434253751218N00327675WA0174901880
B1434263751221N00327665WA0175201881
B1434273751224N00327657WA0175401883
B1434283751227N00327650WA0175601885
B1434293751230N00327643WA0175801886
B1434303751232N00327635WA0175901888
B1434313751232N00327626WA0175801887
B1434323751230N00327616WA0175701886
B1434333751225N00327609WA0175801886
B1434343751220N00327604WA0175901888
B1434353751216N00327601WA0176101891
B1434363751212N00327599WA0176201892
B1434373751208N00327598WA0176301894
B1434383751203N00327598WA0176201894
B1434393751200N00327601WA0176201895
B1434403751197N00327605WA0176201894
B1434413751196N00327610WA0176201895
B1434423751197N00327614WA0176401897
B1434433751198N00327617WA0176701899
B1434443751200N00327618WA0176901902
B1434453751203N00327618WA0176901903
B1434463751206N00327617WA0176801904
B1434473751211N00327615WA0176701904
B1434483751217N00327611WA0176601904
B1434493751222N00327606WA0176501904
B1434503751228N00327600WA0176701905
B1434513751233N00327593WA0176801905
B1434523751237N00327586WA0177001907
B1434533751240N00327579WA0177201909
B1434543751243N00327572WA0177301910
B1434553751245N00327565WA0177401911
B1434563751246N00327556WA0177401912
B1434573751245N00327548WA0177401911
B1434583751242N00327539WA0177301910
B1434593751237N00327532WA0177301909
B1435003751231N00327528WA0177501910
B1435013751226N00327526WA0177901913
B1435023751223N00327526WA0178201914
B1435033751220N00327527WA0178301917
B1435043751217N00327529WA0178301918
B1435053751215N00327533WA0178301920
B1435063751214N00327538WA0178301921
B1435073751215N00327543WA0178301920
B1435083751218N00327547WA0178601922
B1435093751221N00327549WA0178701924
B1435103751225N00327549WA0178801925
B1435113751229N00327548WA0178801927
B1435123751235N00327545WA0178701927
B1435133751241N00327542WA0178701927
B1435143751247N00327539WA0178801927
B1435153751253N00327535WA0178901927
B1435163751257N00327530WA0179101928
B1435173751261N00327525WA0179201930
B1435183751265N00327520WA0179301931
B1435193751269N00327513WA0179101930
B1435203751271N00327504WA0178901929
B1435213751272N00327494WA0179001928
B1435223751271N00327483WA0178901926
B1435233751268N00327474WA0179001926
B1435243751264N00327467WA0179201927
B1435253751261N00327461WA0179401929
B1435263751258N00327457WA0179401930
B1435273751253N00327454WA0179401931
B1435283751248N00327453WA0179201931
B1435293751242N00327455WA0179001931
B1435303751237N00327459WA0179101930
B1435313751234N00327463WA0179301931
B1435323751232N00327466WA0179501932
B1435333751231N00327469WA0179501933
B1435343751231N00327472WA0179501933
B1435353751232N00327477WA0179401930
B1435363751234N00327481WA0179201928
B1435373751238N00327485WA0179301927
B1435383751243N00327486WA0179401927
B1435393751248N00327486WA0179601929
B1435403751253N00327484WA0179701929
B1435413751258N00327481WA0179801930
B1435423751262N00327477WA0179801931
B1435433751267N00327471WA0179901932
B1435443751271N00327465WA0179901932
B1435453751275N00327458WA0180101933
B1435463751279N00327452WA0180201934
B1435473751282N00327444WA0180301936
B1435483751284N00327437WA0180401937
B1435493751285N00327429WA0180501938
B1435503751285N00327421WA0180501939
B1435513751285N00327412WA0180601940
B1435523751282N00327404WA0180501939
B1435533751278N00327396WA0180301939
B1435543751272N00327392WA0180401938
B1435553751267N00327390WA0180401938
B1435563751262N00327391WA0180401938
B1435573751259N00327393WA0180401937
B1435583751256N00327396WA0180401937
B1435593751255N00327400WA0180301937
B1436003751255N00327404WA0180301936
B1436013751257N00327408WA0180101935
B1436023751260N00327411WA0180101934
B1436033751265N00327412WA0180101934
B1436043751270N00327412WA0180301935
B1436053751275N00327411WA0180401936
B1436063751279N00327408WA0180401937
B1436073751284N00327405WA0180301937
B1436083751289N00327400WA0180201936
B1436093751295N00327396WA0180101934
B1436103751302N00327391WA0180101933
B1436113751307N00327384WA0180201933
B1436123751311N00327377WA0180301934
B1436133751314N00327370WA0180401936
B1436143751316N00327363WA0180101936
B1436153751319N00327355WA0180001936
B1436163751322N00327345WA0180101935
B1436173751324N00327335WA0180101935
B1436183751325N00327325WA0180301935
B1436193751327N00327315WA0180501937
B1436203751328N00327307WA0180701939
B1436213751329N00327298WA0180601939
B1436223751329N00327289WA0180501939
B1436233751329N00327278WA0180301938
B1436243751328N00327266WA0180201936
B1436253751327N00327254WA0180201935
B1436263751326N00327243WA0180601938
B1436273751325N00327234WA0180901942
B1436283751323N00327227WA0181001944
B1436293751319N00327220WA0180901945
B1436303751313N00327214WA0180801944
B1436313751307N00327210WA0180701944
B1436323751301N00327206WA0180801944
B1436333751295N00327204WA0181001946
B1436343751291N00327201WA0181201947
B1436353751287N00327200WA0181201948
B1436363751283N00327199WA0181201949
B1436373751281N00327201WA0180901949
B1436383751279N00327205WA0180801944
B1436393751279N00327210WA0180701941
B1436403751281N00327215WA0180701940
B1436413751284N00327217WA0180801941
B1436423751287N00327217WA0180901942
B1436433751291N00327216WA0180801942
B1436443751296N00327214WA0180301942
B1436453751301N00327211WA0180301940
B1436463751307N00327205WA0180001939
B1436473751312N00327198WA0180301938
B1436483751316N00327190WA0180301938
B1436493751320N00327183WA0180401938
B1436503751325N00327177WA0180401938
B1436513751330N00327172WA0180201938
B1436523751335N00327165WA0180201936
B1436533751340N00327158WA0180201936
B1436543751345N00327151WA0180201935
B1436553751350N00327144WA0180401936
B1436563751354N00327137WA0180501937
B1436573751359N00327130WA0180601937
B1436583751363N00327124WA0180501938
B1436593751368N00327117WA0180201937
B1437003751372N00327110WA0180001936
B1437013751376N00327103WA0180001935
B1437023751381N00327096WA0180001934
B1437033751385N00327089WA0179901933
B1437043751389N00327083WA0179801932
B1437053751394N00327076WA0179601930
B1437063751399N00327069WA0179301928
B1437073751404N00327063WA0179201926
B1437083751410N00327056WA0179001924
B1437093751415N00327051WA0178801922
B1437103751420N00327045WA0178701921
B1437113751424N00327038WA0178601919
B1437123751428N00327032WA0178401918
B1437133751433N00327026WA0178101916
B1437143751439N00327021WA0177801914
B1437153751445N00327016WA0177601911
B1437163751450N00327011WA0177601908
B1437173751455N00327005WA0177401906
B1437183751460N00326999WA0177301904
B1437193751465N00326993WA0177101903
B1437203751470N00326987WA0177001901
B1437213751474N00326980WA0176801900
B1437223751478N00326974WA0176501898
B1437233751483N00326967WA0176401896
B1437243751488N00326960WA0176201894
B1437253751493N00326954WA0176101892
B1437263751498N00326947WA0176101891
B1437273751502N00326941WA0176001890
B1437283751507N00326935WA0175901889
B1437293751512N00326928WA0175701888
B1437303751517N00326921WA0175501886
B1437313751522N00326914WA0175301884
B1437323751526N00326907WA0175201882
B1437333751531N00326899WA0175001880
B1437343751536N00326892WA0174801879
B1437353751541N00326885WA0174601877
B1437363751547N00326879WA0174301875
B1437373751553N00326872WA0173901873
B1437383751558N00326865WA0173701870
B1437393751564N00326858WA0173801868
B1437403751569N00326851WA0173501865
B1437413751574N00326843WA0173301863
B1437423751579N00326836WA0173201861
B1437433751584N00326829WA0173001860
B1437443751588N00326822WA0172801858
B1437453751592N00326815WA0172601856
B1437463751597N00326808WA0172301854
B1437473751603N00326801WA0172201851
B1437483751608N00326795WA0172001849
B1437493751613N00326789WA0171901848
B1437503751618N00326782WA0171801847
B1437513751622N00326775WA0171601845
B1437523751626N00326767WA0171201843
B1437533751631N00326760WA0171001840
B1437543751636N00326753WA0170701837
B1437553751640N00326747WA0170501835
B1437563751645N00326741WA0170301833
B1437573751649N00326734WA0169901830
B1437583751653N00326728WA0169601826
B1437593751657N00326721WA0169201822
B1438003751661N00326713WA0168901818
B1438013751665N00326706WA0168501814
B1438023751669N00326698WA0168101810
B1438033751674N00326690WA0167701806
B1438043751678N00326682WA0167301802
B1438053751683N00326674WA0167001799
B1438063751687N00326666WA0166701796
B1438073751692N00326659WA0166401793
B1438083751697N00326652WA0166101790
B1438093751703N00326646WA0165801787
B1438103751708N00326639WA0165401783
B1438113751714N00326632WA0165101779
B1438123751719N00326624WA0164801776
B1438133751724N00326616WA0164601773
B1438143751729N00326608WA0164501771
B1438153751735N00326600WA0164301768
B1438163751740N00326593WA0164101766
B1438173751745N00326586WA0163901764
B1438183751751N00326579WA0163701762
B1438193751756N00326572WA0163401760
B1438203751761N00326565WA0163301758
B1438213751765N00326559WA0163201756
B1438223751770N00326553WA0163101755
B1438233751775N00326547WA0162901753
B1438243751780N00326541WA0162701752
B1438253751785N00326534WA0162501750
B1438263751790N00326527WA0162401748
B1438273751794N00326521WA0162301747
B1438283751799N00326515WA0162201746
B1438293751803N00326510WA0162001745
B1438303751808N00326503WA0161801743
B1438313751812N00326497WA0161601741
B1438323751816N00326491WA0161401739
B1438333751821N00326486WA0161201737
B1438343751825N00326480WA0161001735
B1438353751830N00326473WA0160701732
B1438363751835N00326466WA0160501729
B1438373751840N00326460WA0160301727
B1438383751844N00326453WA0160001725
B1438393751848N00326446WA0160001723
B1438403751853N00326439WA0159701721
B1438413751857N00326432WA0159401718
B1438423751863N00326426WA0159201716
B1438433751868N00326419WA0159101713
B1438443751873N00326413WA0159001712
B1438453751878N00326407WA0158801710
B1438463751883N00326400WA0158701709
B1438473751887N00326394WA0158501708
B1438483751893N00326388WA0158201706
B1438493751899N00326382WA0158001704
B1438503751904N00326376WA0157801702
B1438513751909N00326370WA0157601700
B1438523751914N00326364WA0157501698
B1438533751919N00326358WA0157301696
B1438543751925N00326352WA0157101694
B1438553751930N00326345WA0156601692
B1438563751935N00326338WA0156501689
B1438573751940N00326330WA0156401686
B1438583751945N00326322WA0156201684
B1438593751949N00326315WA0156101683
B1439003751953N00326307WA0156001681
B1439013751956N00326300WA0155801680
B1439023751960N00326292WA0155701678
B1439033751963N00326285WA0155501676
B1439043751968N00326279WA0155301674
B1439053751972N00326272WA0155201672
B1439063751976N00326266WA0155001670
B1439073751980N00326259WA0154801669
B1439083751984N00326251WA0154501667
B1439093751988N00326244WA0154201665
B1439103751992N00326237WA0154101662
B1439113751997N00326230WA0153901660
B1439123752003N00326224WA0153801658
B1439133752007N00326217WA0153701656
B1439143752011N00326210WA0153601655
B1439153752015N00326203WA0153501655
B1439163752018N00326196WA0153301653
B1439173752022N00326188WA0153101651
B1439183752026N00326180WA0152801649
B1439193752031N00326173WA0152801647
B1439203752035N00326165WA0152701646
B1439213752039N00326159WA0152601645
B1439223752043N00326152WA0152501644
B1439233752047N00326146WA0152201642
B1439243752050N00326139WA0151901639
B1439253752054N00326131WA0151601636
B1439263752059N00326124WA0151401633
B1439273752063N00326117WA0151201631
B1439283752068N00326110WA0151101629
B1439293752072N00326104WA0150901627
B1439303752077N00326098WA0150601625
B1439313752082N00326092WA0150401622
B1439323752088N00326086WA0150101619
B1439333752093N00326080WA0149901616
B1439343752098N00326074WA0149801614
B1439353752103N00326068WA0149501612
B1439363752108N00326062WA0149301610
B1439373752112N00326055WA0149101608
B1439383752117N00326048WA0148801606
B1439393752121N00326040WA0148601603
B1439403752126N00326032WA0148501601
B1439413752130N00326025WA0148201599
B1439423752133N00326017WA0148101597
B1439433752137N00326009WA0147801595
B1439443752140N00326001WA0147601593
B1439453752144N00325992WA0147401590
B1439463752147N00325983WA0147201588
B1439473752150N00325974WA0146901586
B1439483752153N00325965WA0146801584
B1439493752155N00325956WA0146601582
B1439503752157N00325947WA0146401581
B1439513752159N00325939WA0146301580
B1439523752161N00325932WA0146101578
B1439533752164N00325924WA0145701576
B1439543752167N00325918WA0145501574
B1439553752171N00325911WA0145601572
B1439563752173N00325905WA0145601571
B1439573752176N00325898WA0145401570
B1439583752179N00325892WA0145201568
B1439593752183N00325886WA0145101566
B1440003752186N00325879WA0144901564
B1440013752189N00325872WA0144801563
B1440023752192N00325866WA0144701563
B1440033752195N00325861WA0144701562
B1440043752199N00325857WA0144601561
B1440053752202N00325851WA0144401559
B1440063752206N00325844WA0144201557
B1440073752210N00325837WA0144101555
B1440083752214N00325830WA0144001554
B1440093752217N00325823WA0144001553
B1440103752221N00325818WA0143901553
B1440113752224N00325813WA0143801552
B1440123752228N00325808WA0143801551
B1440133752231N00325803WA0143501550
B1440143752235N00325797WA0143301547
B1440153752239N00325791WA0143101545
B1440163752242N00325784WA0143001544
B1440173752245N00325778WA0142901543
B1440183752248N00325772WA0142801542
B1440193752251N00325766WA0142601540
B1440203752254N00325758WA0142401537
B1440213752256N00325751WA0142201534
B1440223752258N00325744WA0142001533
B1440233752260N00325738WA0141701531
B1440243752263N00325732WA0141501529
B1440253752266N00325725WA0141201525
B1440263752269N00325717WA0140801521
B1440273752272N00325709WA0140501517
B1440283752276N00325701WA0140301515
B1440293752279N00325694WA0140101513
B1440303752282N00325687WA0139901511
B1440313752285N00325679WA0139701509
B1440323752288N00325672WA0139501506
B1440333752292N00325664WA0139201503
B1440343752296N00325656WA0139001501
B1440353752300N00325649WA0138801499
B1440363752304N00325642WA0138601497
B1440373752307N00325635WA0138301495
B1440383752311N00325628WA0138001492
B1440393752315N00325620WA0137501489
B1440403752319N00325613WA0137501486
B1440413752323N00325606WA0137301484
B1440423752326N00325598WA0137101481
B1440433752330N00325592WA0136801479
B1440443752333N00325585WA0136601477
B1440453752337N00325579WA0136301474
B1440463752342N00325573WA0136101471
B1440473752347N00325566WA0135901469
B1440483752352N00325559WA0135901468
B1440493752356N00325553WA0135801469
B1440503752361N00325548WA0135701469
B1440513752366N00325542WA0135601467
B1440523752371N00325534WA0135401465
B1440533752375N00325525WA0135301463
B1440543752378N00325515WA0135201461
B1440553752381N00325504WA0135001460
B1440563752384N00325495WA0135001459
B1440573752388N00325487WA0135001459
B1440583752392N00325479WA0134901458
B1440593752396N00325470WA0134801457
B1441003752399N00325460WA0134701456
B1441013752402N00325450WA0134701455
B1441023752405N00325440WA0134801455
B1441033752408N00325431WA0135001457
B1441043752411N00325423WA0135101458
B1441053752414N00325415WA0135101459
B1441063752416N00325407WA0135201460
B1441073752418N00325399WA0135001459
B1441083752421N00325390WA0134601459
B1441093752424N00325380WA0134501457
B1441103752427N00325370WA0134501455
B1441113752431N00325361WA0134601454
B1441123752435N00325353WA0134801455
B1441133752440N00325348WA0135001458
B1441143752444N00325344WA0135101459
B1441153752448N00325338WA0135101460
B1441163752451N00325330WA0134901460
B1441173752452N00325320WA0134701458
B1441183752451N00325308WA0134401455
B1441193752448N00325298WA0134401453
B1441203752444N00325290WA0134701453
B1441213752441N00325285WA0134801454
B1441223752437N00325281WA0134901456
B1441233752433N00325277WA0134701456
B1441243752427N00325274WA0134201455
B1441253752421N00325272WA0134301454
B1441263752416N00325272WA0134301452
B1441273752411N00325273WA0134201451
B1441283752407N00325275WA0134201451
B1441293752405N00325277WA0134201450
B1441303752404N00325281WA0134001449
B1441313752404N00325285WA0133801447
B1441323752405N00325289WA0133701446
B1441333752408N00325294WA0133701445
B1441343752412N00325297WA0133801445
B1441353752415N00325298WA0134001446
B1441363752419N00325298WA0134101447
B1441373752423N00325298WA0134001447
B1441383752428N00325297WA0133801447
B1441393752434N00325296WA0133701445
B1441403752439N00325296WA0133701443
B1441413752444N00325294WA0133701444
B1441423752447N00325292WA0133801446
B1441433752450N00325290WA0133801446
B1441443752454N00325287WA0133701446
B1441453752459N00325286WA0133601444
B1441463752463N00325285WA0133601443
B1441473752467N00325284WA0133701443
B1441483752471N00325282WA0133701444
B1441493752475N00325281WA0133901445
B1441503752479N00325279WA0134001446
B1441513752483N00325278WA0134101447
B1441523752486N00325278WA0134201448
B1441533752488N00325279WA0134301449
B1441543752490N00325280WA0134301449
B1441553752491N00325282WA0134401450
B1441563752493N00325282WA0134401451
B1441573752497N00325282WA0134301451
B1441583752503N00325281WA0134201450
B1441593752509N00325277WA0134201447
B1442003752513N00325271WA0134301447
B1442013752515N00325264WA0134401448
B1442023752515N00325256WA0134301448
B1442033752514N00325247WA0134001448
B1442043752512N00325238WA0133701446
B1442053752508N00325228WA0133701444
B1442063752502N00325221WA0133701442
B1442073752496N00325215WA0133501440
B1442083752489N00325211WA0133401440
B1442093752483N00325209WA0133401440
B1442103752478N00325209WA0133501440
B1442113752473N00325210WA0133501440
B1442123752470N00325212WA0133401439
B1442133752466N00325215WA0133401439
B1442143752465N00325218WA0133401439
B1442153752464N00325221WA0133501440
B1442163752464N00325223WA0133601440
B1442173752464N00325226WA0133601441
B1442183752464N00325228WA0133601441
B1442193752464N00325231WA0133301441
B1442203752465N00325234WA0133301440
B1442213752468N00325236WA0133301440
B1442223752473N00325238WA0133201439
B1442233752477N00325238WA0133301439
B1442243752481N00325238WA0133401440
B1442253752485N00325236WA0133501440
B1442263752489N00325233WA0133401441
B1442273752492N00325229WA0133101438
B1442283752496N00325222WA0132801437
B1442293752500N00325215WA0132501434
B1442303752505N00325208WA0132501432
B1442313752510N00325202WA0132601431
B1442323752513N00325196WA0132601431
B1442333752515N00325190WA0132701432
B1442343752515N00325182WA0132501432
B1442353752515N00325173WA0132001431
B1442363752513N00325163WA0131701427
B1442373752509N00325152WA0131901424
B1442383752504N00325143WA0131901423
B1442393752497N00325138WA0132001424
B1442403752492N00325135WA0132001426
B1442413752486N00325134WA0131901426
B1442423752481N00325133WA0131601426
B1442433752474N00325134WA0131201425
B1442443752468N00325135WA0131401424
B1442453752463N00325138WA0131301423
B1442463752459N00325140WA0131201422
B1442473752455N00325143WA0131201421
B1442483752452N00325146WA0131101420
B1442493752451N00325149WA0130901419
B1442503752451N00325153WA0130901418
B1442513752453N00325157WA0130701416
B1442523752455N00325160WA0130501415
B1442533752459N00325162WA0130401413
B1442543752463N00325162WA0130401412
B1442553752468N00325162WA0130301411
B1442563752472N00325160WA0130201409
B1442573752477N00325158WA0129601407
B1442583752482N00325154WA0129501405
B1442593752487N00325151WA0129801404
B1443003752492N00325146WA0129701403
B1443013752497N00325141WA0129701403
B1443023752502N00325137WA0129801403
B1443033752507N00325134WA0129901403
B1443043752512N00325131WA0129901403
B1443053752516N00325129WA0129701403
B1443063752520N00325128WA0129501403
B1443073752526N00325126WA0129201402
B1443083752531N00325124WA0129001399
B1443093752537N00325120WA0128801396
B1443103752542N00325115WA0128901395
B1443113752546N00325111WA0128801395
B1443123752550N00325106WA0128801395
B1443133752554N00325100WA0128801395
B1443143752559N00325094WA0128501394
B1443153752564N00325087WA0128201392
B1443163752569N00325081WA0128301391
B1443173752575N00325074WA0128201389
B1443183752580N00325067WA0128101388
B1443193752584N00325060WA0128301389
B1443203752588N00325054WA0128301390
B1443213752591N00325047WA0128201389
B1443223752594N00325040WA0128101388
B1443233752597N00325031WA0127801386
B1443243752600N00325022WA0127601383
B1443253752601N00325013WA0127401381
B1443263752603N00325003WA0127201379
B1443273752605N00324994WA0127001378
B1443283752606N00324985WA0126901376
B1443293752608N00324976WA0126601375
B1443303752609N00324967WA0126201373
B1443313752611N00324958WA0126301370
B1443323752612N00324949WA0126001368
B1443333752613N00324940WA0125801365
B1443343752615N00324931WA0125501363
B1443353752617N00324923WA0125301360
B1443363752618N00324915WA0125101358
B1443373752620N00324906WA0124901355
B1443383752622N00324897WA0124601352
B1443393752624N00324888WA0124301349
B1443403752627N00324880WA0124101347
B1443413752629N00324871WA0123801344
B1443423752632N00324863WA0123601342
B1443433752634N00324855WA0123401339
B1443443752637N00324847WA0123201337
B1443453752640N00324840WA0122901334
B1443463752644N00324832WA0122601330
B1443473752647N00324824WA0122401327
B1443483752649N00324816WA0122301326
B1443493752651N00324809WA0122201324
B1443503752653N00324801WA0122101323
B1443513752656N00324794WA0121601321
B1443523752659N00324786WA0121601319
B1443533752662N00324779WA0121501317
B1443543752665N00324771WA0121301315
B1443553752667N00324764WA0121101314
B1443563752670N00324757WA0121001312
B1443573752674N00324749WA0120801311
B1443583752677N00324742WA0120801309
B1443593752680N00324735WA0120701308
B1444003752682N00324727WA0120401306
B1444013752685N00324719WA0120201304
B1444023752689N00324712WA0119801302
B1444033752693N00324704WA0119401298
B1444043752697N00324695WA0119301295
B1444053752701N00324687WA0119101292
B1444063752704N00324678WA0118901291
B1444073752707N00324670WA0118601289
B1444083752710N00324661WA0118301286
B1444093752714N00324653WA0117901283
B1444103752718N00324645WA0117601279
B1444113752723N00324637WA0117201276
B1444123752727N00324629WA0116901272
B1444133752730N00324620WA0116801269
B1444143752732N00324611WA0116701267
B1444153752733N00324603WA0116601266
B1444163752736N00324596WA0116401264
B1444173752739N00324588WA0116101261
B1444183752742N00324579WA0115601257
B1444193752745N00324569WA0115501254
B1444203752747N00324559WA0115401252
B1444213752748N00324550WA0115301250
B1444223752750N00324540WA0115301250
B1444233752752N00324531WA0115301249
B1444243752753N00324522WA0115201249
B1444253752754N00324513WA0115201248
B1444263752756N00324505WA0115201247
B1444273752759N00324497WA0115101246
B1444283752761N00324490WA0115201246
B1444293752764N00324485WA0115201247
B1444303752768N00324481WA0115001247
B1444313752773N00324477WA0114401245
B1444323752778N00324473WA0114401243
B1444333752782N00324468WA0114401241
B1444343752786N00324462WA0114401240
B1444353752790N00324458WA0114401240
B1444363752793N00324455WA0114401240
B1444373752797N00324452WA0114401240
B1444383752800N00324448WA0114201239
B1444393752803N00324443WA0113801237
B1444403752808N00324439WA0113601234
B1444413752813N00324434WA0113401231
B1444423752819N00324430WA0113401230
B1444433752824N00324426WA0113601231
B1444443752828N00324422WA0113801233
B1444453752832N00324418WA0113801234
B1444463752834N00324411WA0113801235
B1444473752836N00324403WA0113601234
B1444483752839N00324393WA0113601233
B1444493752841N00324384WA0113601233
B1444503752843N00324376WA0113801234
B1444513752844N00324368WA0113901234
B1444523752844N00324360WA0114001236
B1444533752844N00324353WA0114201237
B1444543752843N00324347WA0114201237
B1444553752841N00324342WA0114301238
B1444563752838N00324337WA0114301239
B1444573752835N00324335WA0114201239
B1444583752831N00324334WA0114001238
B1444593752826N00324335WA0113801237
B1445003752822N00324338WA0113801236
B1445013752818N00324342WA0113801236
B1445023752816N00324346WA0114001236
B1445033752815N00324350WA0114101238
B1445043752815N00324353WA0114401241
B1445053752816N00324356WA0114501241
B1445063752818N00324359WA0114401241
B1445073752822N00324362WA0114301240
B1445083752827N00324364WA0114201238
B1445093752835N00324364WA0114201238
B1445103752842N00324362WA0114401238
B1445113752848N00324358WA0114601243
B1445123752853N00324354WA0114901246
B1445133752857N00324348WA0114901247
B1445143752860N00324340WA0114701248
B1445153752863N00324331WA0114101247
B1445163752864N00324322WA0114101247
B1445173752865N00324313WA0114301246
B1445183752864N00324306WA0114501246
B1445193752863N00324300WA0114601247
B1445203752861N00324294WA0114501247
B1445213752857N00324287WA0114201246
B1445223752853N00324281WA0114001244
B1445233752849N00324276WA0114001243
B1445243752844N00324272WA0114101242
B1445253752840N00324269WA0114201243
B1445263752836N00324267WA0114201243
B1445273752832N00324265WA0114101243
B1445283752827N00324264WA0113901242
B1445293752822N00324264WA0113801241
B1445303752817N00324266WA0113801240
B1445313752813N00324268WA0113801239
B1445323752810N00324271WA0113801239
B1445333752807N00324274WA0113801239
B1445343752805N00324278WA0113701238
B1445353752803N00324282WA0113701237
B1445363752803N00324287WA0113601236
B1445373752804N00324293WA0113601234
B1445383752807N00324299WA0113501234
B1445393752811N00324303WA0113601234
B1445403752815N00324305WA0113801234
B1445413752819N00324305WA0113801234
B1445423752824N00324305WA0113801234
B1445433752830N00324305WA0113301234
B1445443752837N00324303WA0113501232
B1445453752845N00324300WA0113801232
B1445463752851N00324297WA0113901233
B1445473752855N00324293WA0113901234
B1445483752859N00324287WA0113901235
B1445493752862N00324280WA0113701234
B1445503752866N00324271WA0113501233
B1445513752870N00324262WA0113401231
B1445523752874N00324253WA0113501231
B1445533752877N00324247WA0113701231
B1445543752879N00324241WA0113701232
B1445553752882N00324235WA0113301232
B1445563752885N00324228WA0112801229
B1445573752889N00324218WA0112601223
B1445583752894N00324209WA0112501220
B1445593752899N00324202WA0112701220
B1446003752904N00324197WA0112801221
B1446013752908N00324192WA0112901221
B1446023752911N00324187WA0112701221
B1446033752916N00324181WA0112301219
B1446043752921N00324174WA0112101215
B1446053752926N00324167WA0111901212
B1446063752931N00324161WA0111901212
B1446073752936N00324155WA0112001212
B1446083752940N00324149WA0112001212
B1446093752945N00324143WA0111901211
B1446103752950N00324136WA0111801210
B1446113752955N00324129WA0111701209
B1446123752961N00324123WA0111801209
B1446133752966N00324116WA0111801209
B1446143752971N00324111WA0111901211
B1446153752975N00324105WA0112001213
B1446163752980N00324099WA0112101214
B1446173752984N00324094WA0112201214
B1446183752988N00324088WA0112201215
B1446193752992N00324081WA0112101215
B1446203752996N00324075WA0111701214
B1446213753001N00324068WA0111801213
B1446223753006N00324061WA0111901212
B1446233753011N00324054WA0111901213
B1446243753016N00324047WA0112101214
B1446253753020N00324040WA0112201215
B1446263753023N00324033WA0112201216
B1446273753025N00324024WA0112101216
B1446283753028N00324015WA0111901214
B1446293753030N00324005WA0111801213
B1446303753032N00323995WA0111801212
B1446313753034N00323985WA0111701212
B1446323753034N00323976WA0111701212
B1446333753035N00323967WA0111701212
B1446343753035N00323958WA0111301211
B1446353753036N00323948WA0111201209
B1446363753035N00323938WA0111201207
B1446373753034N00323929WA0111101205
B1446383753032N00323920WA0110801202
B1446393753030N00323911WA0110501200
B1446403753029N00323903WA0110201198
B1446413753027N00323894WA0109901195
B1446423753025N00323885WA0109401191
B1446433753021N00323876WA0109001186
B1446443753017N00323867WA0108701182
B1446453753013N00323859WA0108701179
B1446463753009N00323850WA0108501177
B1446473753004N00323841WA0108501178
B1446483752999N00323833WA0108601178
B1446493752996N00323825WA0108701179
B1446503752993N00323817WA0108801180
B1446513752990N00323809WA0108801181
B1446523752987N00323802WA0108801181
B1446533752984N00323794WA0108601180
B1446543752980N00323786WA0108401178
B1446553752976N00323778WA0108401176
B1446563752972N00323770WA0108301175
B1446573752968N00323763WA0108301174
B1446583752964N00323756WA0108401175
B1446593752960N00323749WA0108501176
B1447003752957N00323742WA0108401176
B1447013752954N00323735WA0107801175
B1447023752950N00323727WA0108001173
B1447033752945N00323718WA0108001172
B1447043752941N00323710WA0108001173
B1447053752938N00323702WA0108101173
B1447063752936N00323695WA0108101173
B1447073752934N00323687WA0107901173
B1447083752931N00323679WA0107601172
B1447093752927N00323671WA0107501168
B1447103752923N00323664WA0107501167
B1447113752919N00323658WA0107601167
B1447123752915N00323654WA0107601167
B1447133752912N00323649WA0107401166
B1447143752908N00323643WA0106901163
B1447153752903N00323636WA0106501159
B1447163752899N00323628WA0106601156
B1447173752896N00323620WA0106701155
B1447183752893N00323614WA0107001158
B1447193752890N00323609WA0107101159
B1447203752886N00323604WA0107101160
B1447213752880N00323601WA0107001160
B1447223752874N00323599WA0106701159
B1447233752866N00323598WA0106501158
B1447243752859N00323598WA0106701158
B1447253752852N00323598WA0107001158
B1447263752847N00323599WA0107201160
B1447273752843N00323601WA0107201161
B1447283752839N00323605WA0107201161
B1447293752836N00323611WA0107001161
B1447303752833N00323619WA0106701158
B1447313752830N00323628WA0106601156
B1447323752828N00323635WA0106801158
B1447333752825N00323641WA0107101160
B1447343752822N00323647WA0107301161
B1447353752821N00323652WA0107301162
B1447363752821N00323658WA0107301162
B1447373752821N00323663WA0107301162
B1447383752823N00323669WA0107401163
B1447393752825N00323673WA0107301163
B1447403752828N00323676WA0107501163
B1447413752831N00323678WA0107501164
B1447423752835N00323676WA0107501164
B1447433752838N00323673WA0107501163
B1447443752839N00323668WA0107501163
B1447453752840N00323662WA0107401163
B1447463752839N00323656WA0107301163
B1447473752838N00323649WA0107001162
B1447483752835N00323641WA0106901161
B1447493752832N00323634WA0107101160
B1447503752827N00323628WA0107001159
B1447513752822N00323622WA0106901158
B1447523752816N00323618WA0106901158
B1447533752810N00323614WA0106901158
B1447543752803N00323611WA0107001158
B1447553752796N00323608WA0107001158
B1447563752789N00323607WA0107201159
B1447573752783N00323606WA0107301160
B1447583752777N00323605WA0107401160
B1447593752771N00323604WA0107501161
B1448003752765N00323605WA0107501162
B1448013752760N00323606WA0107501163
B1448023752755N00323610WA0107401163
B1448033752751N00323616WA0106801161
B1448043752748N00323623WA0107101157
B1448053752746N00323629WA0107201158
B1448063752744N00323634WA0107401160
B1448073752742N00323639WA0107501161
B1448083752742N00323644WA0107701163
B1448093752742N00323648WA0107701164
B1448103752744N00323651WA0107801164
B1448113752747N00323653WA0107901165
B1448123752750N00323654WA0108001166
B1448133752754N00323654WA0108101167
B1448143752757N00323652WA0108101167
B1448153752761N00323649WA0108201168
B1448163752763N00323645WA0108301169
B1448173752765N00323642WA0108401170
B1448183752767N00323637WA0108401171
B1448193752769N00323633WA0108501171
B1448203752771N00323627WA0108501172
B1448213752773N00323621WA0108501172
B1448223752774N00323615WA0108601173
B1448233752775N00323609WA0108701174
B1448243752776N00323603WA0108701174
B1448253752776N00323596WA0108601174
B1448263752775N00323589WA0108601174
B1448273752774N00323582WA0108601174
B1448283752772N00323574WA0108701174
B1448293752771N00323567WA0108701174
B1448303752769N00323559WA0108701175
B1448313752766N00323552WA0108701175
B1448323752762N00323546WA0108701175
B1448333752757N00323542WA0108701175
B1448343752752N00323539WA0108601175
B1448353752747N00323538WA0108301175
B1448363752741N00323537WA0108301175
B1448373752735N00323538WA0108301174
B1448383752729N00323540WA0108201174
B1448393752723N00323543WA0108201173
B1448403752719N00323547WA0108301173
B1448413752715N00323552WA0108401174
B1448423752713N00323556WA0108401175
B1448433752711N00323561WA0108301174
B1448443752710N00323566WA0107901172
B1448453752711N00323572WA0107801170
B1448463752713N00323578WA0108001169
B1448473752716N00323583WA0108101169
B1448483752718N00323586WA0108301170
B1448493752720N00323588WA0108401171
B1448503752723N00323589WA0108101171
B1448513752727N00323588WA0107801168
B1448523752731N00323584WA0107801166
B1448533752736N00323578WA0107701165
B1448543752740N00323572WA0107801165
B1448553752743N00323566WA0108101166
B1448563752745N00323561WA0108401169
B1448573752746N00323555WA0108601171
B1448583752747N00323549WA0108701173
B1448593752747N00323542WA0108801174
B1449003752746N00323535WA0108801175
B1449013752743N00323528WA0108901175
B1449023752740N00323520WA0108801176
B1449033752735N00323513WA0108701176
B1449043752730N00323508WA0108801176
B1449053752724N00323504WA0108901177
B1449063752718N00323501WA0108901178
B1449073752712N00323500WA0108801178
B1449083752706N00323502WA0108701178
B1449093752701N00323505WA0108701178
B1449103752697N00323509WA0108701179
B1449113752694N00323513WA0108701179
B1449123752691N00323517WA0108701179
B1449133752688N00323522WA0108601177
B1449143752687N00323527WA0108501176
B1449153752687N00323533WA0108501175
B1449163752689N00323539WA0108301174
B1449173752692N00323544WA0108301173
B1449183752694N00323548WA0108501173
B1449193752697N00323552WA0108601175
B1449203752699N00323555WA0108701176
B1449213752702N00323557WA0108501176
B1449223752707N00323559WA0108001176
B1449233752712N00323560WA0108201175
B1449243752717N00323560WA0108701176
B1449253752721N00323560WA0108801179
B1449263752724N00323559WA0109001182
B1449273752727N00323556WA0109001183
B1449283752730N00323553WA0108901182
B1449293752732N00323547WA0108701182
B1449303752735N00323540WA0108701180
B1449313752738N00323533WA0108701180
B1449323752741N00323526WA0108901181
B1449333752745N00323520WA0109101182
B1449343752748N00323514WA0109401183
B1449353752751N00323507WA0109701185
B1449363752751N00323501WA0110001188
B1449373752750N00323494WA0110101190
B1449383752748N00323488WA0110101191
B1449393752743N00323483WA0110101191
B1449403752736N00323480WA0110101191
B1449413752730N00323479WA0110301192
B1449423752724N00323479WA0110501193
B1449433752718N00323481WA0110901196
B1449443752715N00323484WA0111201198
B1449453752714N00323486WA0111401201
B1449463752713N00323490WA0111701203
B1449473752713N00323495WA0111901205
B1449483752715N00323501WA0112001205
B1449493752719N00323507WA0112201207
B1449503752723N00323511WA0112501210
B1449513752727N00323513WA0112801214
B1449523752731N00323512WA0113001218
B1449533752736N00323509WA0113101218
B1449543752741N00323504WA0113001218
B1449553752745N00323498WA0113001218
B1449563752749N00323491WA0113301219
B1449573752751N00323484WA0113501221
B1449583752752N00323477WA0113501223
B1449593752752N00323469WA0113701224
B1450003752750N00323462WA0113701225
B1450013752746N00323455WA0113701225
B1450023752741N00323449WA0113601224
B1450033752736N00323444WA0113701225
B1450043752730N00323441WA0113701226
B1450053752725N00323438WA0113801226
B1450063752719N00323436WA0113801227
B1450073752713N00323436WA0113801228
B1450083752707N00323436WA0113801228
B1450093752701N00323437WA0113801229
B1450103752695N00323439WA0113801229
B1450113752690N00323442WA0113901230
B1450123752684N00323445WA0114201231
B1450133752679N00323450WA0114601233
B1450143752675N00323455WA0115001236
B1450153752672N00323460WA0115201244
B1450163752672N00323466WA0115401247
B1450173752674N00323471WA0115601249
B1450183752678N00323476WA0115701251
B1450193752683N00323479WA0116001253
B1450203752688N00323479WA0116201256
B1450213752692N00323477WA0116501260
B1450223752696N00323473WA0116701263
B1450233752698N00323467WA0116901264
B1450243752699N00323461WA0117001266
B1450253752699N00323454WA0117301268
B1450263752698N00323447WA0117501270
B1450273752695N00323442WA0117801273
B1450283752691N00323439WA0117901276
B1450293752686N00323437WA0118101277
B1450303752681N00323436WA0118201278
B1450313752676N00323437WA0118301279
B1450323752670N00323440WA0118601281
B1450333752664N00323444WA0118901282
B1450343752660N00323448WA0119201284
B1450353752658N00323454WA0119401288
B1450363752657N00323460WA0119701292
B1450373752657N00323465WA0120001295
B1450383752658N00323470WA0120201297
B1450393752660N00323473WA0120301300
B1450403752663N00323476WA0120201301
B1450413752667N00323478WA0120101301
B1450423752673N00323478WA0120101301
B1450433752680N00323477WA0120101300
B1450443752686N00323476WA0120501302
B1450453752691N00323475WA0120801305
B1450463752695N00323473WA0121201307
B1450473752699N00323470WA0121401310
B1450483752702N00323465WA0121601313
B1450493752704N00323460WA0121701314
B1450503752705N00323453WA0121801315
B1450513752706N00323447WA0122101317
B1450523752705N00323442WA0122201319
B1450533752703N00323438WA0122301321
B1450543752700N00323433WA0122301321
B1450553752695N00323431WA0122301321
B1450563752689N00323429WA0122301321
B1450573752684N00323428WA0122501322
B1450583752679N00323429WA0122701323
B1450593752676N00323430WA0122901325
B1451003752673N00323434WA0122901326
B1451013752670N00323439WA0123101327
B1451023752667N00323445WA0123301329
B1451033752666N00323450WA0123501333
B1451043752667N00323454WA0123701335
B1451053752669N00323459WA0123601334
B1451063752675N00323462WA0123501333
B1451073752681N00323464WA0123701334
B1451083752687N00323464WA0123901336
B1451093752691N00323463WA0124301341
B1451103752695N00323461WA0124601344
B1451113752698N00323458WA0124801346
B1451123752701N00323454WA0124701347
B1451133752704N00323447WA0124501347
B1451143752707N00323439WA0124601348
B1451153752710N00323431WA0124901349
B1451163752711N00323424WA0125301351
B1451173752711N00323419WA0125501354
B1451183752709N00323415WA0125701357
B1451193752707N00323411WA0125801357
B1451203752702N00323407WA0125601358
B1451213752697N00323406WA0125601358
B1451223752691N00323406WA0125701358
B1451233752686N00323408WA0126001359
B1451243752682N00323410WA0126201360
B1451253752679N00323414WA0126401362
B1451263752677N00323418WA0126501364
B1451273752676N00323424WA0126401365
B1451283752675N00323430WA0126401365
B1451293752673N00323438WA0126501365
B1451303752672N00323444WA0126701366
B1451313752671N00323448WA0126901369
B1451323752672N00323452WA0126901371
B1451333752673N00323457WA0126901371
B1451343752676N00323462WA0126701370
B1451353752681N00323467WA0126501368
B1451363752687N00323471WA0126501367
B1451373752694N00323473WA0126801367
B1451383752700N00323473WA0127001371
B1451393752705N00323471WA0127301377
B1451403752710N00323467WA0127401378
B1451413752715N00323462WA0127501378
B1451423752720N00323454WA0127601378
B1451433752724N00323446WA0127701379
B1451443752726N00323438WA0128001380
B1451453752727N00323430WA0128101382
B1451463752727N00323423WA0128201384
B1451473752726N00323415WA0128301385
B1451483752724N00323408WA0128301385
B1451493752721N00323401WA0128401386
B1451503752718N00323395WA0128601387
B1451513752715N00323390WA0128801389
B1451523752712N00323386WA0129001391
B1451533752708N00323384WA0129201393
B1451543752704N00323382WA0129401395
B1451553752700N00323383WA0129401396
B1451563752697N00323386WA0129501397
B1451573752694N00323390WA0129601398
B1451583752693N00323396WA0129601398
B1451593752693N00323403WA0129601398
B1452003752695N00323409WA0129801399
B1452013752697N00323414WA0129901400
B1452023752700N00323418WA0129901401
B1452033752704N00323421WA0129901401
B1452043752709N00323423WA0129801401
B1452053752715N00323424WA0129701400
B1452063752723N00323425WA0129801400
B1452073752730N00323424WA0129901401
B1452083752737N00323423WA0130101403
B1452093752743N00323420WA0130301406
B1452103752748N00323417WA0130501408
B1452113752753N00323412WA0130601410
B1452123752758N00323406WA0130601411
B1452133752762N00323400WA0130701412
B1452143752766N00323392WA0130801412
B1452153752769N00323384WA0130601413
B1452163752771N00323376WA0130301413
B1452173752772N00323367WA0130601413
B1452183752772N00323358WA0130701413
B1452193752772N00323349WA0130701412
B1452203752770N00323340WA0130801412
B1452213752768N00323331WA0131001412
B1452223752764N00323323WA0131101413
B1452233752761N00323316WA0131401414
B1452243752757N00323310WA0131601417
B1452253752754N00323306WA0131801419
B1452263752750N00323303WA0131901421
B1452273752747N00323302WA0131701421
B1452283752743N00323303WA0131601422
B1452293752739N00323307WA0131801422
B1452303752738N00323312WA0132001423
B1452313752738N00323315WA0132201426
B1452323752739N00323318WA0132401430
B1452333752742N00323320WA0132401431
B1452343752746N00323323WA0132401428
B1452353752751N00323326WA0132301426
B1452363752756N00323328WA0132401427
B1452373752762N00323329WA0132701427
B1452383752768N00323328WA0132901429
B1452393752773N00323326WA0133001430
B1452403752778N00323323WA0133001432
B1452413752783N00323318WA0132801431
B1452423752789N00323311WA0132801429
B1452433752794N00323303WA0132801428
B1452443752798N00323294WA0132901429
B1452453752800N00323286WA0132901429
B1452463752802N00323277WA0132801429
B1452473752802N00323268WA0132701428
B1452483752800N00323258WA0132601426
B1452493752796N00323248WA0132501425
B1452503752791N00323240WA0132501424
B1452513752786N00323234WA0132701426
B1452523752781N00323230WA0133001430
B1452533752777N00323227WA0133301432
B1452543752773N00323225WA0133501434
B1452553752770N00323224WA0133501436
B1452563752767N00323224WA0133401438
B1452573752766N00323227WA0133201439
B1452583752764N00323232WA0133401437
B1452593752764N00323236WA0133601440
B1453003752765N00323240WA0133901444
B1453013752768N00323242WA0134101447
B1453023752771N00323242WA0134101449
B1453033752775N00323243WA0134101448
B1453043752781N00323244WA0133801449
B1453053752788N00323244WA0134001447
B1453063752794N00323242WA0134201448
B1453073752800N00323238WA0134401450
B1453083752804N00323233WA0134501452
B1453093752808N00323226WA0134201452
B1453103752811N00323217WA0133901451
B1453113752814N00323207WA0134101450
B1453123752817N00323197WA0134101449
B1453133752818N00323186WA0134101449
B1453143752819N00323176WA0134201449
B1453153752818N00323167WA0134301450
B1453163752817N00323158WA0134301449
B1453173752815N00323148WA0134201449
B1453183752812N00323140WA0134301448
B1453193752809N00323131WA0134301448
B1453203752805N00323124WA0134301448
B1453213752800N00323118WA0134001447
B1453223752795N00323113WA0133801446
B1453233752788N00323111WA0133801444
B1453243752782N00323112WA0133801443
B1453253752778N00323113WA0134001443
B1453263752774N00323113WA0134301444
B1453273752772N00323113WA0134501445
B1453283752769N00323113WA0134701446
B1453293752767N00323114WA0134801447
B1453303752764N00323117WA0134901448
B1453313752763N00323120WA0135001450
B1453323752764N00323124WA0135101452
B1453333752765N00323128WA0135201453
B1453343752766N00323131WA0135401455
B1453353752768N00323134WA0135601457
B1453363752771N00323136WA0135801459
B1453373752774N00323137WA0135901460
B1453383752779N00323138WA0136001462
B1453393752784N00323138WA0136001463
B1453403752790N00323136WA0136001463
B1453413752796N00323133WA0135901464
B1453423752801N00323128WA0135701463
B1453433752806N00323121WA0135701461
B1453443752810N00323111WA0135601459
B1453453752813N00323100WA0135601459
B1453463752813N00323090WA0135701459
B1453473752813N00323081WA0135801460
B1453483752812N00323072WA0135901461
B1453493752810N00323063WA0135901461
B1453503752807N00323055WA0135601461
B1453513752803N00323047WA0135801461
B1453523752798N00323040WA0136001461
B1453533752794N00323034WA0136101463
B1453543752790N00323030WA0136201466
B1453553752785N00323028WA0136201467
B1453563752780N00323026WA0136101467
B1453573752775N00323026WA0136001467
B1453583752770N00323025WA0136101468
B1453593752766N00323026WA0136701469
B1454003752765N00323026WA0137001470
B1454013752764N00323027WA0137201472
B1454023752763N00323027WA0137201473
B1454033752763N00323030WA0137301474
B1454043752762N00323033WA0137201473
B1454053752761N00323037WA0137301473
B1454063752760N00323040WA0137501474
B1454073752759N00323043WA0137701477
B1454083752758N00323046WA0137901480
B1454093752758N00323050WA0138101482
B1454103752759N00323053WA0138301484
B1454113752760N00323056WA0138501487
B1454123752764N00323059WA0138701489
B1454133752769N00323060WA0138901491
B1454143752776N00323059WA0138901492
B1454153752783N00323056WA0139101494
B1454163752789N00323051WA0139201495
B1454173752794N00323044WA0139401498
B1454183752798N00323036WA0139401499
B1454193752800N00323028WA0139401500
B1454203752801N00323019WA0139301501
B1454213752801N00323010WA0139301501
B1454223752799N00323002WA0139001501
B1454233752796N00322995WA0138901501
B1454243752792N00322990WA0139301501
B1454253752788N00322985WA0139401502
B1454263752784N00322983WA0139501502
B1454273752780N00322981WA0139501502
B1454283752777N00322981WA0139301503
B1454293752773N00322982WA0139201503
B1454303752770N00322983WA0139401503
B1454313752767N00322985WA0139501503
B1454323752763N00322988WA0139501503
B1454333752759N00322991WA0139701503
B1454343752756N00322994WA0139901505
B1454353752753N00322997WA0140101507
B1454363752752N00323001WA0140401509
B1454373752750N00323005WA0140601511
B1454383752748N00323008WA0140901512
B1454393752748N00323012WA0141201518
B1454403752750N00323016WA0141401521
B1454413752754N00323019WA0141601523
B1454423752758N00323021WA0141901526
B1454433752763N00323021WA0142101529
B1454443752769N00323020WA0142401531
B1454453752774N00323017WA0142501532
B1454463752780N00323010WA0142601532
B1454473752784N00323001WA0142801533
B1454483752786N00322991WA0143101534
B1454493752786N00322982WA0143501536
B1454503752786N00322975WA0143801540
B1454513752784N00322970WA0143801543
B1454523752782N00322965WA0143901544
B1454533752778N00322961WA0143901546
B1454543752773N00322959WA0143801546
B1454553752768N00322958WA0144001547
B1454563752764N00322959WA0144201549
B1454573752761N00322960WA0144501552
B1454583752758N00322962WA0144701554
B1454593752756N00322965WA0144901556
B1455003752755N00322969WA0145101558
B1455013752756N00322972WA0145301560
B1455023752757N00322977WA0145501562
B1455033752758N00322981WA0145701564
B1455043752760N00322985WA0146001567
B1455053752763N00322988WA0146201570
B1455063752768N00322990WA0146301572
B1455073752775N00322991WA0146601574
B1455083752782N00322990WA0146801576
B1455093752788N00322987WA0147101580
B1455103752794N00322983WA0147501585
B1455113752799N00322977WA0147801588
B1455123752803N00322970WA0148001591
B1455133752806N00322961WA0148101593
B1455143752807N00322952WA0148201594
B1455153752806N00322943WA0148401596
B1455163752805N00322936WA0148601598
B1455173752802N00322931WA0148601600
B1455183752800N00322927WA0148801601
B1455193752796N00322925WA0148901602
B1455203752792N00322925WA0148801603
B1455213752788N00322926WA0149001604
B1455223752784N00322928WA0149301605
B1455233752781N00322930WA0149601607
B1455243752779N00322933WA0149801608
B1455253752779N00322937WA0149901610
B1455263752780N00322941WA0150201613
B1455273752782N00322946WA0150401615
B1455283752785N00322950WA0150601618
B1455293752789N00322953WA0150901620
B1455303752794N00322955WA0151201623
B1455313752800N00322955WA0151501625
B1455323752806N00322953WA0151801628
B1455333752812N00322950WA0152001631
B1455343752819N00322943WA0152301634
B1455353752823N00322934WA0152501636
B1455363752826N00322926WA0152801639
B1455373752827N00322917WA0153201642
B1455383752827N00322908WA0153401645
B1455393752826N00322900WA0153401647
B1455403752822N00322895WA0153601648
B1455413752818N00322891WA0153701648
B1455423752814N00322890WA0153801649
B1455433752811N00322891WA0154001651
B1455443752809N00322893WA0154201653
B1455453752807N00322895WA0154301655
B1455463752806N00322898WA0154601657
B1455473752805N00322901WA0154801659
B1455483752806N00322906WA0155001661
B1455493752807N00322910WA0155301664
B1455503752810N00322915WA0155501667
B1455513752813N00322918WA0155901670
B1455523752817N00322920WA0156201674
B1455533752823N00322920WA0156501677
B1455543752830N00322918WA0156601680
B1455553752837N00322914WA0156801681
B1455563752843N00322908WA0157001684
B1455573752848N00322900WA0157201686
B1455583752851N00322891WA0157201688
B1455593752851N00322882WA0157401690
B1456003752851N00322873WA0157601691
B1456013752849N00322865WA0157701693
B1456023752847N00322858WA0158001695
B1456033752845N00322853WA0158201697
B1456043752842N00322849WA0158201700
B1456053752839N00322847WA0158301700
B1456063752834N00322847WA0158401701
B1456073752830N00322848WA0158401702
B1456083752825N00322850WA0158701703
B1456093752822N00322851WA0159001704
B1456103752820N00322852WA0159401706
B1456113752819N00322854WA0159601708
B1456123752818N00322857WA0159801711
B1456133752818N00322861WA0160001713
B1456143752820N00322865WA0160201715
B1456153752822N00322868WA0160501718
B1456163752826N00322870WA0160801721
B1456173752830N00322870WA0161001725
B1456183752835N00322869WA0161101727
B1456193752841N00322866WA0161201729
B1456203752848N00322861WA0161001728
B1456213752855N00322856WA0161101728
B1456223752862N00322849WA0161201728
B1456233752867N00322841WA0161201729
B1456243752871N00322832WA0161001730
B1456253752873N00322821WA0161301731
B1456263752873N00322810WA0161501731
B1456273752871N00322800WA0161801733
B1456283752869N00322793WA0162101736
B1456293752867N00322787WA0162301739
B1456303752865N00322782WA0162501742
B1456313752862N00322779WA0162501744
B1456323752858N00322776WA0162301745
B1456333752853N00322776WA0162401746
B1456343752849N00322777WA0162601748
B1456353752845N00322777WA0163001749
B1456363752842N00322777WA0163201751
B1456373752840N00322778WA0163401753
B1456383752838N00322779WA0163501755
B1456393752838N00322782WA0163701756
B1456403752838N00322785WA0163801757
B1456413752840N00322788WA0163901758
B1456423752843N00322791WA0164101759
B1456433752847N00322794WA0164401762
B1456443752851N00322795WA0164601764
B1456453752856N00322794WA0164701766
B1456463752862N00322791WA0164701766
B1456473752869N00322784WA0164801766
B1456483752874N00322774WA0165101767
B1456493752878N00322763WA0165201768
B1456503752880N00322753WA0165101769
B1456513752879N00322744WA0165001770
B1456523752877N00322733WA0164601770
B1456533752875N00322723WA0164601767
B1456543752872N00322713WA0164701768
B1456553752869N00322704WA0165301770
B1456563752867N00322696WA0165601773
B1456573752864N00322690WA0165801775
B1456583752861N00322684WA0165701777
B1456593752856N00322681WA0165301776
B1457003752850N00322679WA0165301775
B1457013752845N00322677WA0165401774
B1457023752840N00322676WA0165601774
B1457033752835N00322675WA0165701775
B1457043752830N00322674WA0165801778
B1457053752827N00322675WA0165901780
B1457063752824N00322677WA0165901780
B1457073752821N00322680WA0165901780
B1457083752819N00322685WA0165901779
B1457093752817N00322689WA0165901779
B1457103752815N00322694WA0166201780
B1457113752814N00322697WA0166401781
B1457123752812N00322700WA0166601782
B1457133752810N00322703WA0166801784
B1457143752808N00322706WA0166901786
B1457153752807N00322710WA0167201788
B1457163752806N00322713WA0167301791
B1457173752806N00322717WA0167601794
B1457183752807N00322720WA0167701796
B1457193752811N00322723WA0167901797
B1457203752816N00322724WA0168001799
B1457213752823N00322722WA0168101800
B1457223752830N00322719WA0168301803
B1457233752835N00322715WA0168601806
B1457243752841N00322710WA0168901809
B1457253752846N00322704WA0168901811
B1457263752850N00322696WA0169001811
B1457273752854N00322686WA0169001812
B1457283752855N00322676WA0169201812
B1457293752855N00322666WA0169401813
B1457303752854N00322658WA0169501815
B1457313752851N00322652WA0169601817
B1457323752848N00322646WA0169501818
B1457333752843N00322641WA0169201818
B1457343752838N00322638WA0169501818
B1457353752833N00322635WA0169501819
B1457363752828N00322635WA0169801820
B1457373752824N00322636WA0170001822
B1457383752820N00322638WA0170301823
B1457393752818N00322640WA0170501824
B1457403752816N00322643WA0170601826
B1457413752815N00322646WA0170801827
B1457423752814N00322648WA0170901831
B1457433752813N00322651WA0171101832
B1457443752814N00322654WA0171101833
B1457453752817N00322658WA0171201834
B1457463752821N00322661WA0171301835
B1457473752825N00322663WA0171501837
B1457483752830N00322664WA0171701839
B1457493752834N00322664WA0171901841
B1457503752840N00322662WA0172001843
B1457513752846N00322659WA0172001843
B1457523752853N00322655WA0172001842
B1457533752860N00322649WA0172201844
B1457543752866N00322643WA0172401845
B1457553752870N00322636WA0172801848
B1457563752874N00322628WA0172901850
B1457573752875N00322619WA0173001851
B1457583752875N00322609WA0173101853
B1457593752874N00322600WA0173301854
B1458003752872N00322592WA0173501856
B1458013752870N00322586WA0173601858
B1458023752866N00322582WA0173701860
B1458033752862N00322579WA0173401860
B1458043752858N00322577WA0173301861
B1458053752852N00322578WA0173501861
B1458063752848N00322579WA0173801862
B1458073752844N00322580WA0174001863
B1458083752842N00322581WA0174401864
B1458093752841N00322582WA0174501866
B1458103752841N00322585WA0174401866
B1458113752842N00322589WA0174301863
B1458123752844N00322594WA0174301861
B1458133752847N00322599WA0174601862
B1458143752851N00322604WA0174901868
B1458153752855N00322606WA0175301873
B1458163752860N00322607WA0175601877
B1458173752865N00322606WA0175901880
B1458183752871N00322603WA0176101883
B1458193752878N00322598WA0176201885
B1458203752884N00322591WA0176401887
B1458213752888N00322583WA0176801891
B1458223752891N00322575WA0177001894
B1458233752892N00322566WA0177201896
B1458243752892N00322557WA0177101898
B1458253752890N00322549WA0177001898
B1458263752886N00322542WA0177101899
B1458273752882N00322536WA0177201899
B1458283752878N00322532WA0177401903
B1458293752875N00322529WA0177401905
B1458303752872N00322527WA0177201906
B1458313752868N00322528WA0177301907
B1458323752864N00322531WA0177401906
B1458333752859N00322535WA0177601906
B1458343752855N00322538WA0177901907
B1458353752852N00322541WA0178201910
B1458363752850N00322544WA0178601913
B1458373752849N00322548WA0178801915
B1458383752851N00322551WA0179101917
B1458393752854N00322555WA0179101918
B1458403752859N00322558WA0179301919
B1458413752865N00322559WA0179501921
B1458423752871N00322558WA0179701923
B1458433752877N00322556WA0179701925
B1458443752883N00322551WA0179401925
B1458453752890N00322545WA0179501924
B1458463752896N00322537WA0179701923
B1458473752902N00322529WA0179901925
B1458483752905N00322520WA0180201927
B1458493752907N00322512WA0180501929
B1458503752908N00322505WA0180801931
B1458513752907N00322497WA0181001933
B1458523752905N00322490WA0181201935
B1458533752901N00322484WA0181301936
B1458543752897N00322480WA0181601939
B1458553752893N00322478WA0181801943
B1458563752889N00322476WA0182101945
B1458573752885N00322476WA0182401948
B1458583752882N00322477WA0182701951
B1458593752880N00322480WA0183001954
B1459003752880N00322484WA0183201957
B1459013752882N00322488WA0183301959
B1459023752885N00322491WA0183501961
B1459033752890N00322494WA0183601963
B1459043752895N00322495WA0183701964
B1459053752900N00322496WA0183701965
B1459063752907N00322495WA0183701967
B1459073752914N00322492WA0183101964
B1459083752921N00322486WA0183201962
B1459093752928N00322479WA0183301962
B1459103752933N00322471WA0183501963
B1459113752938N00322463WA0183801965
B1459123752942N00322455WA0184001967
B1459133752945N00322447WA0184201969
B1459143752947N00322438WA0184401970
B1459153752948N00322429WA0184501972
B1459163752947N00322421WA0184501973
B1459173752945N00322413WA0184601973
B1459183752943N00322406WA0184701975
B1459193752940N00322399WA0184701975
B1459203752937N00322394WA0184701976
B1459213752933N00322389WA0184801977
B1459223752930N00322385WA0184601978
B1459233752926N00322381WA0184601978
B1459243752922N00322379WA0184801979
B1459253752918N00322377WA0184901980
B1459263752914N00322377WA0185101980
B1459273752910N00322378WA0185201981
B1459283752907N00322378WA0185301982
B1459293752903N00322380WA0185401983
B1459303752901N00322382WA0185401984
B1459313752899N00322384WA0185501985
B1459323752897N00322388WA0185401985
B1459333752897N00322392WA0185601986
B1459343752897N00322398WA0185701987
B1459353752899N00322403WA0185901989
B1459363752901N00322407WA0186201991
B1459373752903N00322410WA0186501995
B1459383752906N00322412WA0186801999
B1459393752910N00322414WA0187002002
B1459403752915N00322415WA0187102003
B1459413752922N00322415WA0187102004
B1459423752929N00322414WA0187102005
B1459433752936N00322411WA0187102004
B1459443752942N00322409WA0186902005
B1459453752948N00322406WA0186802004
B1459463752953N00322402WA0186602002
B1459473752959N00322396WA0186301999
B1459483752966N00322389WA0185901995
B1459493752972N00322381WA0185801992
B1459503752978N00322372WA0185901990
B1459513752982N00322365WA0185901990
B1459523752986N00322357WA0185901990
B1459533752989N00322348WA0185801989
B1459543752991N00322338WA0185701988
B1459553752992N00322327WA0185601987
B1459563752992N00322315WA0185701986
B1459573752991N00322305WA0186001989
B1459583752990N00322296WA0186301992
B1459593752989N00322289WA0186401994
B1500003752986N00322282WA0186401995
B1500013752982N00322276WA0186301995
B1500023752976N00322270WA0186201993
B1500033752972N00322266WA0186401995
B1500043752968N00322262WA0186601997
B1500053752964N00322258WA0186802000
B1500063752961N00322255WA0186802001
B1500073752957N00322253WA0186902003
B1500083752953N00322253WA0186902004
B1500093752950N00322254WA0187002005
B1500103752948N00322256WA0187202007
B1500113752945N00322257WA0187502009
B1500123752944N00322259WA0187602011
B1500133752944N00322262WA0187802011
B1500143752945N00322265WA0187802012
B1500153752946N00322267WA0188002014
B1500163752949N00322270WA0188202015
B1500173752952N00322271WA0188302017
B1500183752957N00322272WA0188302018
B1500193752962N00322271WA0188302018
B1500203752969N00322268WA0188302019
B1500213752975N00322263WA0188302018
B1500223752981N00322256WA0188302017
B1500233752985N00322247WA0188202017
B1500243752987N00322238WA0188202016
B1500253752987N00322228WA0188302016
B1500263752984N00322219WA0188402016
B1500273752981N00322211WA0188302016
B1500283752976N00322204WA0188402016
B1500293752970N00322199WA0188502017
B1500303752965N00322196WA0188502019
B1500313752960N00322194WA0188602020
B1500323752956N00322194WA0188702021
B1500333752952N00322194WA0188902022
B1500343752949N00322194WA0189202023
B1500353752947N00322194WA0189302024
B1500363752946N00322195WA0189402025
B1500373752945N00322197WA0189502026
B1500383752945N00322198WA0189602027
B1500393752946N00322201WA0189802029
B1500403752949N00322202WA0189902031
B1500413752952N00322203WA0190102033
B1500423752955N00322204WA0190302035
B1500433752959N00322204WA0190302036
B1500443752963N00322204WA0190402038
B1500453752968N00322204WA0190502039
B1500463752973N00322203WA0190502040
B1500473752979N00322202WA0190502041
B1500483752985N00322200WA0190502041
B1500493752990N00322197WA0190402040
B1500503752996N00322192WA0190302039
B1500513753001N00322184WA0190102035
B1500523753005N00322174WA0190002033
B1500533753007N00322163WA0189902032
B1500543753007N00322152WA0189902030
B1500553753006N00322142WA0190002031
B1500563753003N00322134WA0190002032
B1500573753000N00322126WA0190002032
B1500583752996N00322119WA0190102032
B1500593752991N00322113WA0190202033
B1501003752987N00322107WA0190202034
B1501013752982N00322102WA0190302036
B1501023752978N00322099WA0190302036
B1501033752973N00322097WA0190302037
B1501043752968N00322095WA0190302037
B1501053752964N00322096WA0190002038
B1501063752961N00322097WA0190102037
B1501073752958N00322099WA0190402038
B1501083752956N00322100WA0190602040
B1501093752955N00322101WA0190802041
B1501103752954N00322102WA0190902042
B1501113752954N00322103WA0190902043
B1501123752954N00322105WA0190902043
B1501133752955N00322107WA0190902044
B1501143752957N00322110WA0190902044
B1501153752959N00322112WA0191002045
B1501163752961N00322114WA0191102046
B1501173752965N00322115WA0191102047
B1501183752968N00322116WA0191102047
B1501193752973N00322117WA0191102047
B1501203752979N00322116WA0191102047
B1501213752985N00322114WA0191002047
B1501223752991N00322111WA0191102047
B1501233752997N00322106WA0191202048
B1501243753003N00322102WA0191202049
B1501253753009N00322096WA0191102049
B1501263753014N00322091WA0191202049
B1501273753020N00322084WA0191202049
B1501283753024N00322076WA0191302050
B1501293753027N00322067WA0191402050
B1501303753029N00322058WA0191302050
B1501313753030N00322048WA0191302050
B1501323753029N00322037WA0191202050
B1501333753026N00322026WA0191202050
B1501343753022N00322017WA0191202049
B1501353753018N00322009WA0191302051
B1501363753013N00322003WA0191502052
B1501373753009N00321999WA0191502053
B1501383753004N00321995WA0191502053
B1501393752999N00321992WA0191402053
B1501403752994N00321991WA0191402052
B1501413752990N00321993WA0191502052
B1501423752988N00321995WA0191402052
B1501433752986N00321998WA0191502052
B1501443752986N00322000WA0191602053
B1501453752986N00322002WA0191602054
B1501463752988N00322004WA0191602053
B1501473752991N00322006WA0191502052
B1501483752995N00322008WA0191402051
B1501493753001N00322008WA0191402051
B1501503753006N00322006WA0191402051
B1501513753012N00322003WA0191402051
B1501523753017N00321999WA0191402051
B1501533753023N00321993WA0191402051
B1501543753028N00321987WA0191202051
B1501553753033N00321980WA0191002050
B1501563753037N00321972WA0191302052
B1501573753041N00321964WA0191502052
B1501583753044N00321955WA0191802053
B1501593753047N00321947WA0191902055
B1502003753048N00321938WA0192002056
B1502013753048N00321928WA0192102057
B1502023753046N00321918WA0192002057
B1502033753043N00321907WA0192002057
B1502043753039N00321898WA0192102057
B1502053753035N00321890WA0192202058
B1502063753030N00321884WA0192202059
B1502073753025N00321879WA0192202059
B1502083753019N00321877WA0192002059
B1502093753014N00321877WA0191902058
B1502103753009N00321879WA0191802058
B1502113753006N00321881WA0191902058
B1502123753004N00321883WA0192102058
B1502133753003N00321884WA0192202058
B1502143753003N00321886WA0192202058
B1502153753004N00321888WA0192102057
B1502163753006N00321890WA0191902056
B1502173753009N00321892WA0191802054
B1502183753013N00321893WA0191802054
B1502193753018N00321893WA0191802054
B1502203753022N00321892WA0191802054
B1502213753027N00321889WA0191702054
B1502223753031N00321886WA0191402053
B1502233753036N00321883WA0191502051
B1502243753042N00321880WA0191502051
B1502253753048N00321877WA0191702051
B1502263753053N00321873WA0192102053
B1502273753057N00321868WA0192202056
B1502283753060N00321861WA0192402057
B1502293753063N00321852WA0192502058
B1502303753066N00321842WA0192602059
B1502313753069N00321833WA0192802060
B1502323753072N00321823WA0193002062
B1502333753073N00321815WA0193202065
B1502343753073N00321807WA0193402067
B1502353753071N00321799WA0193402068
B1502363753067N00321790WA0193202069
B1502373753061N00321782WA0193202069
B1502383753055N00321776WA0193402069
B1502393753049N00321771WA0193602073
B1502403753044N00321768WA0193902076
B1502413753040N00321766WA0194102079
B1502423753036N00321765WA0194202081
B1502433753033N00321765WA0194202083
B1502443753030N00321767WA0194202085
B1502453753029N00321770WA0194102086
B1502463753029N00321773WA0194102087
B1502473753031N00321777WA0194102084
B1502483753034N00321779WA0194002083
B1502493753037N00321782WA0194002082
B1502503753042N00321784WA0194002081
B1502513753047N00321784WA0194002081
B1502523753053N00321784WA0194202081
B1502533753059N00321781WA0194402083
B1502543753064N00321778WA0194702086
B1502553753068N00321774WA0194802089
B1502563753072N00321769WA0195002090
B1502573753077N00321762WA0195002091
B1502583753081N00321754WA0195102091
B1502593753084N00321746WA0195202091
B1503003753086N00321737WA0195202092
B1503013753088N00321728WA0195302093
B1503023753088N00321719WA0195402093
B1503033753088N00321710WA0195402094
B1503043753086N00321701WA0195402094
B1503053753084N00321692WA0195302094
B1503063753081N00321682WA0195502094
B1503073753078N00321673WA0195502094
B1503083753074N00321666WA0195602094
B1503093753070N00321659WA0195702095
B1503103753065N00321654WA0195702095
B1503113753060N00321651WA0195702096
B1503123753055N00321649WA0195702096
B1503133753050N00321649WA0195602096
B1503143753047N00321651WA0195602095
B1503153753044N00321654WA0195602095
B1503163753044N00321657WA0195702095
B1503173753044N00321660WA0195802095
B1503183753045N00321662WA0195802096
B1503193753047N00321665WA0195902096
B1503203753050N00321667WA0195902096
B1503213753055N00321667WA0195802096
B1503223753060N00321666WA0195802096
B1503233753066N00321664WA0195902096
B1503243753071N00321662WA0195902097
B1503253753076N00321660WA0195602097
B1503263753081N00321658WA0195702096
B1503273753087N00321655WA0195802096
B1503283753094N00321652WA0195702095
B1503293753100N00321647WA0195702095
B1503303753106N00321641WA0195802096
B1503313753111N00321636WA0196002097
B1503323753116N00321631WA0196002098
B1503333753121N00321626WA0196002098
B1503343753126N00321620WA0196102099
B1503353753131N00321615WA0196102099
B1503363753136N00321608WA0196202100
B1503373753140N00321602WA0196102101
B1503383753144N00321595WA0195802101
B1503393753147N00321587WA0196002100
B1503403753150N00321578WA0195802100
B1503413753153N00321569WA0196002099
B1503423753155N00321561WA0196102100
B1503433753158N00321552WA0196102100
B1503443753161N00321545WA0196002100
B1503453753164N00321536WA0195902100
B1503463753168N00321528WA0195902100
B1503473753171N00321519WA0195902099
B1503483753174N00321511WA0195902099
B1503493753177N00321504WA0196002100
B1503503753181N00321497WA0195902100
B1503513753185N00321490WA0195802099
B1503523753189N00321484WA0195702098
B1503533753194N00321478WA0195502095
B1503543753199N00321471WA0195302093
B1503553753204N00321464WA0195202091
B1503563753208N00321457WA0195102090
B1503573753213N00321450WA0195002089
B1503583753217N00321442WA0194902088
B1503593753221N00321435WA0194702086
B1504003753226N00321427WA0194602085
B1504013753230N00321419WA0194602084
B1504023753234N00321411WA0194502083
B1504033753237N00321403WA0194402082
B1504043753241N00321395WA0194302081
B1504053753245N00321386WA0194102080
B1504063753249N00321377WA0194002078
B1504073753252N00321368WA0194002077
B1504083753256N00321360WA0194002077
B1504093753260N00321351WA0193902077
B1504103753264N00321343WA0193602077
B1504113753268N00321335WA0193702076
B1504123753271N00321326WA0193702075
B1504133753275N00321317WA0193702074
B1504143753278N00321308WA0193602074
B1504153753281N00321300WA0193702074
B1504163753284N00321292WA0193702074
B1504173753287N00321284WA0193702073
B1504183753290N00321275WA0193602072
B1504193753292N00321266WA0193502071
B1504203753294N00321256WA0193402070
B1504213753295N00321247WA0193502071
B1504223753297N00321239WA0193502072
B1504233753299N00321231WA0193502072
B1504243753301N00321223WA0193502072
B1504253753302N00321214WA0193402071
B1504263753304N00321205WA0193202070
B1504273753306N00321196WA0193202069
B1504283753308N00321188WA0193102069
B1504293753310N00321180WA0193002068
B1504303753313N00321172WA0192702066
B1504313753315N00321163WA0192402065
B1504323753319N00321154WA0192202062
B1504333753322N00321144WA0192002060
B1504343753325N00321135WA0191902058
B1504353753328N00321126WA0191902056
B1504363753331N00321118WA0191902056
B1504373753333N00321109WA0191802056
B1504383753336N00321101WA0191702055
B1504393753338N00321092WA0191602054
B1504403753341N00321083WA0191502053
B1504413753344N00321074WA0191302052
B1504423753346N00321065WA0191102050
B1504433753349N00321056WA0191102049
B1504443753352N00321047WA0190902047
B1504453753355N00321037WA0190802046
B1504463753357N00321028WA0190602045
B1504473753360N00321018WA0190602043
B1504483753362N00321008WA0190402042
B1504493753365N00320998WA0190402041
B1504503753368N00320989WA0190302040
B1504513753371N00320979WA0190102039
B1504523753374N00320969WA0190002038
B1504533753377N00320959WA0189902037
B1504543753380N00320949WA0189702036
B1504553753384N00320940WA0189702034
B1504563753388N00320930WA0189602033
B1504573753392N00320921WA0189502032
B1504583753396N00320911WA0189402031
B1504593753399N00320901WA0189302029
B1505003753402N00320891WA0189102028
B1505013753406N00320882WA0188902026
B1505023753410N00320873WA0188902025
B1505033753415N00320865WA0188702024
B1505043753418N00320857WA0188502023
B1505053753422N00320848WA0188302021
B1505063753425N00320839WA0188302019
B1505073753429N00320830WA0188102017
B1505083753433N00320821WA0187902015
B1505093753436N00320811WA0187702014
B1505103753440N00320802WA0187602012
B1505113753444N00320794WA0187502011
B1505123753448N00320785WA0187402010
B1505133753452N00320776WA0187202009
B1505143753456N00320767WA0187102007
B1505153753460N00320759WA0187002008
B1505163753464N00320751WA0186902007
B1505173753468N00320743WA0186802006
B1505183753472N00320735WA0186502005
B1505193753477N00320726WA0186102002
B1505203753482N00320718WA0185801998
B1505213753487N00320709WA0185701995
B1505223753492N00320701WA0185401993
B1505233753496N00320693WA0185301991
B1505243753501N00320686WA0185201990
B1505253753506N00320679WA0184901987
B1505263753511N00320671WA0184601984
B1505273753515N00320662WA0184301981
B1505283753519N00320652WA0184101978
B1505293753523N00320643WA0184001975
B1505303753528N00320635WA0183801973
B1505313753533N00320627WA0183701971
B1505323753539N00320621WA0183601970
B1505333753544N00320614WA0183301968
B1505343753550N00320607WA0183101966
B1505353753556N00320600WA0182901963
B1505363753561N00320593WA0182301961
B1505373753566N00320586WA0181901958
B1505383753571N00320580WA0181901955
B1505393753576N00320574WA0181601952
B1505403753580N00320567WA0181101949
B1505413753585N00320560WA0180701944
B1505423753590N00320552WA0180301940
B1505433753594N00320545WA0179901935
B1505443753599N00320537WA0179601931
B1505453753603N00320529WA0179201928
B1505463753607N00320520WA0179001925
B1505473753610N00320513WA0178801923
B1505483753612N00320505WA0178401920
B1505493753614N00320497WA0178001917
B1505503753616N00320487WA0177601914
B1505513753618N00320477WA0177201910
B1505523753620N00320466WA0176801906
B1505533753622N00320455WA0176601903
B1505543753624N00320446WA0176501901
B1505553753626N00320437WA0176401900
B1505563753627N00320428WA0176201898
B1505573753629N00320419WA0175901895
B1505583753630N00320410WA0175701891
B1505593753633N00320401WA0175201888
B1506003753635N00320392WA0174901885
B1506013753638N00320384WA0174701881
B1506023753639N00320375WA0174501878
B1506033753640N00320366WA0174201875
B1506043753641N00320357WA0173901872
B1506053753643N00320349WA0173601869
B1506063753644N00320340WA0173401866
B1506073753647N00320331WA0173101863
B1506083753649N00320323WA0172801860
B1506093753651N00320315WA0172601857
B1506103753653N00320307WA0172301854
B1506113753656N00320299WA0172001851
B1506123753658N00320290WA0171501847
B1506133753660N00320281WA0171001844
B1506143753662N00320273WA0170901840
B1506153753663N00320264WA0170601837
B1506163753664N00320256WA0170201833
B1506173753666N00320248WA0169901830
B1506183753668N00320239WA0169501825
B1506193753670N00320229WA0169401822
B1506203753673N00320221WA0169101819
B1506213753675N00320212WA0168901817
B1506223753677N00320204WA0168701815
B1506233753680N00320197WA0168601813
B1506243753684N00320189WA0168301811
B1506253753687N00320182WA0168101808
B1506263753690N00320175WA0168001806
B1506273753694N00320167WA0167801805
B1506283753697N00320160WA0167701804
B1506293753700N00320152WA0167401802
B1506303753704N00320144WA0167401801
B1506313753708N00320136WA0167201799
B1506323753711N00320128WA0167101798
B1506333753715N00320121WA0167001797
B1506343753719N00320114WA0166801795
B1506353753723N00320106WA0166601793
B1506363753727N00320098WA0166401791
B1506373753730N00320090WA0166401790
B1506383753734N00320082WA0166301788
B1506393753738N00320075WA0166001788
B1506403753742N00320068WA0166001787
B1506413753746N00320062WA0166201787
B1506423753749N00320055WA0166101786
B1506433753751N00320047WA0165901785
B1506443753754N00320038WA0165701783
B1506453753758N00320031WA0165601782
B1506463753762N00320024WA0165601781
B1506473753765N00320017WA0165401780
B1506483753769N00320009WA0165301779
B1506493753771N00320001WA0165301778
B1506503753774N00319993WA0165201777
B1506513753777N00319984WA0165201776
B1506523753780N00319977WA0165101775
B1506533753784N00319970WA0165101775
B1506543753787N00319963WA0165101775
B1506553753789N00319955WA0165001774
B1506563753792N00319948WA0164901773
B1506573753795N00319939WA0164601771
B1506583753797N00319931WA0164601770
B1506593753799N00319923WA0164601770
B1507003753802N00319915WA0164601769
B1507013753804N00319908WA0164501769
B1507023753807N00319900WA0164301767
B1507033753810N00319892WA0164201766
B1507043753812N00319883WA0164101765
B1507053753814N00319875WA0164001764
B1507063753816N00319867WA0163901763
B1507073753819N00319860WA0163901762
B1507083753821N00319853WA0163501761
B1507093753824N00319845WA0163201760
B1507103753826N00319837WA0163201758
B1507113753827N00319829WA0163001756
B1507123753829N00319821WA0163001755
B1507133753830N00319813WA0162801753
B1507143753831N00319804WA0162501751
B1507153753831N00319796WA0162201749
B1507163753832N00319788WA0161801746
B1507173753832N00319779WA0161301742
B1507183753833N00319770WA0161001737
B1507193753834N00319761WA0160801734
B1507203753835N00319752WA0160601730
B1507213753837N00319744WA0160301728
B1507223753838N00319736WA0160101725
B1507233753839N00319727WA0159901722
B1507243753840N00319719WA0159601719
B1507253753840N00319711WA0159201716
B1507263753842N00319702WA0158901713
B1507273753844N00319694WA0158601709
B1507283753845N00319685WA0158301706
B1507293753847N00319677WA0158101703
B1507303753849N00319668WA0157901701
B1507313753851N00319659WA0157701699
B1507323753853N00319651WA0157501697
B1507333753855N00319643WA0157301695
B1507343753858N00319634WA0157201693
B1507353753861N00319626WA0157201691
B1507363753864N00319618WA0157001690
B1507373753866N00319610WA0157001689
B1507383753869N00319602WA0156901688
B1507393753872N00319594WA0156801687
B1507403753874N00319586WA0156601686
B1507413753878N00319578WA0156401684
B1507423753881N00319570WA0156301682
B1507433753884N00319562WA0156201681
B1507443753887N00319554WA0156001680
B1507453753890N00319546WA0155901679
B1507463753892N00319538WA0155601677
B1507473753894N00319529WA0155401675
B1507483753896N00319521WA0155201672
B1507493753899N00319512WA0155101671
B1507503753901N00319505WA0155001669
B1507513753904N00319497WA0154701667
B1507523753906N00319489WA0154401665
B1507533753908N00319481WA0154201663
B1507543753910N00319472WA0154101661
B1507553753912N00319464WA0153901659
B1507563753914N00319456WA0153701657
B1507573753915N00319448WA0153501655
B1507583753917N00319440WA0153301653
B1507593753920N00319432WA0153101650
B1508003753923N00319424WA0152801648
B1508013753926N00319417WA0152701646
B1508023753929N00319409WA0152601644
B1508033753932N00319402WA0152501643
B1508043753935N00319396WA0152201641
B1508053753937N00319388WA0152001639
B1508063753940N00319381WA0151801636
B1508073753943N00319373WA0151501633
B1508083753946N00319365WA0151201630
B1508093753949N00319359WA0151201628
B1508103753952N00319353WA0150901626
B1508113753956N00319348WA0150601624
B1508123753960N00319342WA0150401621
B1508133753963N00319335WA0150101619
B1508143753966N00319329WA0149801616
B1508153753969N00319323WA0149501613
B1508163753973N00319316WA0149301610
B1508173753978N00319310WA0149101607
B1508183753981N00319305WA0149101605
B1508193753985N00319299WA0149001604
B1508203753987N00319294WA0148801603
B1508213753990N00319288WA0148601602
B1508223753994N00319282WA0148401600
B1508233753997N00319274WA0148201597
B1508243754000N00319267WA0148101595
B1508253754002N00319259WA0148001594
B1508263754003N00319252WA0147901593
B1508273754005N00319245WA0147801592
B1508283754006N00319238WA0147601590
B1508293754007N00319230WA0147401588
B1508303754008N00319222WA0147101586
B1508313754009N00319214WA0147001584
B1508323754010N00319206WA0146901583
B1508333754010N00319198WA0146601583
B1508343754011N00319190WA0146501582
B1508353754011N00319182WA0146501580
B1508363754011N00319173WA0146301578
B1508373754011N00319164WA0146101576
B1508383754012N00319155WA0146001575
B1508393754013N00319147WA0145901573
B1508403754014N00319138WA0145801572
B1508413754014N00319130WA0145701571
B1508423754015N00319122WA0145501570
B1508433754016N00319113WA0145301568
B1508443754017N00319104WA0145101566
B1508453754019N00319094WA0145001564
B1508463754020N00319085WA0144901563
B1508473754020N00319076WA0144901562
B1508483754021N00319067WA0145001563
B1508493754021N00319059WA0145001564
B1508503754021N00319051WA0144901564
B1508513754022N00319043WA0144901563
B1508523754022N00319034WA0144801561
B1508533754023N00319025WA0144801560
B1508543754024N00319016WA0144801560
B1508553754025N00319008WA0144801560
B1508563754025N00319000WA0144701560
B1508573754026N00318992WA0144601559
B1508583754027N00318983WA0144401557
B1508593754028N00318972WA0144201555
B1509003754029N00318962WA0144201554
B1509013754029N00318953WA0144101554
B1509023754030N00318945WA0144101554
B1509033754031N00318938WA0143901553
B1509043754033N00318929WA0143701551
B1509053754035N00318920WA0143501549
B1509063754036N00318911WA0143301546
B1509073754036N00318901WA0143201545
B1509083754037N00318892WA0143001543
B1509093754037N00318884WA0142901542
B1509103754038N00318875WA0142601540
B1509113754039N00318865WA0142401538
B1509123754039N00318856WA0142101535
B1509133754039N00318846WA0142001533
B1509143754040N00318837WA0141801532
B1509153754041N00318828WA0141701531
B1509163754043N00318820WA0141601530
B1509173754044N00318811WA0141601528
B1509183754045N00318802WA0141501527
B1509193754046N00318793WA0141401525
B1509203754047N00318784WA0141301524
B1509213754048N00318775WA0141201523
B1509223754049N00318766WA0141001522
B1509233754049N00318757WA0140901521
B1509243754050N00318748WA0140801520
B1509253754051N00318738WA0140601519
B1509263754052N00318729WA0140501518
B1509273754053N00318720WA0140501517
B1509283754054N00318710WA0140301516
B1509293754055N00318701WA0140301515
B1509303754055N00318691WA0140201514
B1509313754057N00318682WA0140101513
B1509323754058N00318673WA0140001512
B1509333754060N00318664WA0139901511
B1509343754062N00318655WA0139801510
B1509353754064N00318646WA0139701510
B1509363754065N00318637WA0139601508
B1509373754067N00318628WA0139501506
B1509383754069N00318619WA0139401505
B1509393754072N00318610WA0139201503
B1509403754074N00318601WA0139101502
B1509413754076N00318593WA0139001501
B1509423754078N00318585WA0138901500
B1509433754080N00318576WA0138801499
B1509443754082N00318568WA0138601497
B1509453754084N00318560WA0138401496
B1509463754087N00318551WA0138201494
B1509473754089N00318543WA0137901492
B1509483754092N00318534WA0137701490
B1509493754094N00318525WA0137501488
B1509503754097N00318517WA0137501487
B1509513754101N00318509WA0137101485
B1509523754105N00318501WA0137101483
B1509533754108N00318491WA0136701480
B1509543754110N00318481WA0136501478
B1509553754112N00318470WA0136301475
B1509563754114N00318460WA0136001473
B1509573754116N00318451WA0136001472
B1509583754118N00318442WA0135801470
B1509593754120N00318431WA0135601468
B1510003754121N00318421WA0135401465
B1510013754122N00318410WA0135201462
B1510023754124N00318400WA0135201461
B1510033754125N00318390WA0135101461
B1510043754127N00318380WA0134901460
B1510053754128N00318370WA0134701458
B1510063754129N00318359WA0134501456
B1510073754130N00318349WA0134501454
B1510083754131N00318339WA0134501454
B1510093754132N00318331WA0134501454
B1510103754132N00318322WA0134401453
B1510113754133N00318312WA0134101452
B1510123754134N00318302WA0133801450
B1510133754135N00318292WA0133701447
B1510143754136N00318282WA0133501445
B1510153754138N00318272WA0133401443
B1510163754139N00318263WA0133301442
B1510173754141N00318254WA0133201441
B1510183754143N00318244WA0133101439
B1510193754145N00318235WA0133001438
B1510203754146N00318225WA0132801436
B1510213754147N00318215WA0132501434
B1510223754147N00318204WA0132301432
B1510233754148N00318193WA0132101431
B1510243754150N00318184WA0132101430
B1510253754151N00318175WA0132001429
B1510263754151N00318166WA0132001428
B1510273754151N00318156WA0131801427
B1510283754152N00318146WA0131601424
B1510293754153N00318136WA0131101421
B1510303754155N00318126WA0130901419
B1510313754157N00318116WA0130801417
B1510323754158N00318106WA0130701415
B1510333754159N00318096WA0130601414
B1510343754160N00318087WA0130401412
B1510353754161N00318077WA0130201409
B1510363754162N00318066WA0129901406
B1510373754163N00318056WA0129601403
B1510383754163N00318045WA0129401401
B1510393754164N00318034WA0129201399
B1510403754165N00318024WA0129101397
B1510413754166N00318014WA0128901395
B1510423754166N00318004WA0128801394
B1510433754166N00317995WA0128501392
B1510443754167N00317985WA0128301389
B1510453754167N00317975WA0127901385
B1510463754168N00317964WA0127501381
B1510473754169N00317953WA0127201378
B1510483754170N00317943WA0127001376
B1510493754170N00317932WA0126901374
B1510503754171N00317922WA0126801372
B1510513754171N00317911WA0126601370
B1510523754172N00317901WA0126301368
B1510533754173N00317891WA0126101365
B1510543754174N00317881WA0125901363
B1510553754175N00317871WA0125801362
B1510563754175N00317861WA0125701360
B1510573754175N00317851WA0125501359
B1510583754176N00317842WA0125301357
B1510593754176N00317832WA0125001354
B1511003754177N00317822WA0124501352
B1511013754178N00317812WA0124401349
B1511023754178N00317801WA0124101347
B1511033754178N00317791WA0124001344
B1511043754178N00317781WA0123801342
B1511053754180N00317772WA0123501340
B1511063754181N00317762WA0123201337
B1511073754182N00317752WA0122901334
B1511083754183N00317741WA0122801331
B1511093754184N00317730WA0122601328
B1511103754185N00317720WA0122301326
B1511113754186N00317710WA0122301324
B1511123754187N00317701WA0122201323
B1511133754188N00317692WA0122101321
B1511143754189N00317683WA0121901320
B1511153754191N00317673WA0121601318
B1511163754194N00317663WA0121501316
B1511173754196N00317654WA0121401314
B1511183754198N00317645WA0121301313
B1511193754200N00317635WA0121201312
B1511203754202N00317626WA0120901310
B1511213754203N00317616WA0120801308
B1511223754205N00317606WA0120501305
B1511233754207N00317595WA0120301302
B1511243754210N00317585WA0120101300
B1511253754213N00317575WA0120101299
B1511263754215N00317565WA0120001298
B1511273754218N00317555WA0120001298
B1511283754221N00317545WA0120001298
B1511293754224N00317535WA0119901297
B1511303754227N00317524WA0119701296
B1511313754230N00317514WA0119601295
B1511323754233N00317503WA0119601294
B1511333754235N00317492WA0119501294
B1511343754237N00317481WA0119501294
B1511353754239N00317471WA0119501294
B1511363754241N00317461WA0119601294
B1511373754243N00317451WA0119401293
B1511383754246N00317441WA0119301292
B1511393754248N00317431WA0119201291
B1511403754250N00317421WA0119001290
B1511413754253N00317411WA0119001289
B1511423754255N00317401WA0119001289
B1511433754258N00317392WA0118901288
B1511443754260N00317383WA0118801288
B1511453754263N00317374WA0118601286
B1511463754265N00317365WA0118401285
B1511473754267N00317355WA0118101282
B1511483754269N00317346WA0117901280
B1511493754271N00317336WA0117601278
B1511503754274N00317327WA0117401275
B1511513754276N00317317WA0117201272
B1511523754278N00317308WA0117001269
B1511533754280N00317300WA0117101268
B1511543754281N00317291WA0117001268
B1511553754281N00317284WA0116901267
B1511563754283N00317278WA0116701266
B1511573754285N00317271WA0116401262
B1511583754288N00317263WA0116101256
B1511593754291N00317255WA0115801253
B1512003754294N00317247WA0115301251
B1512013754297N00317239WA0115201248
B1512023754299N00317232WA0115201247
B1512033754302N00317225WA0115201246
B1512043754304N00317218WA0115101244
B1512053754307N00317209WA0114801242
B1512063754309N00317201WA0114701240
B1512073754312N00317193WA0114501238
B1512083754314N00317185WA0114301237
B1512093754316N00317177WA0114201236
B1512103754318N00317168WA0114001235
B1512113754320N00317159WA0113801233
B1512123754322N00317151WA0113701231
B1512133754325N00317143WA0113601229
B1512143754327N00317135WA0113501228
B1512153754329N00317127WA0113301226
B1512163754332N00317120WA0113201225
B1512173754334N00317112WA0113001223
B1512183754336N00317103WA0112801221
B1512193754338N00317095WA0112601219
B1512203754340N00317087WA0112501218
B1512213754343N00317079WA0112401217
B1512223754345N00317071WA0112301215
B1512233754348N00317063WA0112101214
B1512243754351N00317055WA0112001213
B1512253754354N00317046WA0111801211
B1512263754356N00317037WA0111701210
B1512273754358N00317029WA0111601208
B1512283754360N00317021WA0111401207
B1512293754362N00317012WA0111201205
B1512303754365N00317003WA0111001204
B1512313754367N00316994WA0110701202
B1512323754370N00316986WA0110601200
B1512333754371N00316977WA0110401199
B1512343754373N00316969WA0110201197
B1512353754375N00316960WA0110001194
B1512363754378N00316952WA0109901192
B1512373754380N00316944WA0109801189
B1512383754382N00316935WA0109601188
B1512393754385N00316928WA0109501186
B1512403754388N00316920WA0109301184
B1512413754391N00316911WA0109001182
B1512423754394N00316903WA0109001180
B1512433754397N00316894WA0109001179
B1512443754400N00316887WA0109001181
B1512453754402N00316880WA0109101182
B1512463754405N00316872WA0108901181
B1512473754408N00316864WA0108401181
B1512483754411N00316855WA0108301179
B1512493754414N00316846WA0108501178
B1512503754416N00316838WA0108501177
B1512513754418N00316830WA0108601177
B1512523754419N00316822WA0108601177
B1512533754421N00316814WA0108601177
B1512543754422N00316805WA0108601177
B1512553754423N00316796WA0108601176
B1512563754423N00316787WA0108601176
B1512573754425N00316778WA0108601176
B1512583754426N00316770WA0108601176
B1512593754428N00316761WA0108501176
B1513003754429N00316752WA0108601175
B1513013754430N00316743WA0108601176
B1513023754430N00316734WA0108601176
B1513033754431N00316726WA0108501175
B1513043754432N00316717WA0108301174
B1513053754433N00316707WA0108201172
B1513063754435N00316698WA0108101171
B1513073754436N00316689WA0108001170
B1513083754437N00316680WA0107901170
B1513093754438N00316671WA0107801169
B1513103754441N00316662WA0107601168
B1513113754443N00316652WA0107501167
B1513123754446N00316643WA0107301165
B1513133754448N00316634WA0107001164
B1513143754450N00316625WA0106901162
B1513153754452N00316616WA0107001161
B1513163754453N00316607WA0106801160
B1513173754455N00316598WA0106401157
B1513183754457N00316588WA0106101154
B1513193754459N00316578WA0105901151
B1513203754461N00316569WA0105901150
B1513213754463N00316560WA0105801148
B1513223754465N00316550WA0105701147
B1513233754466N00316540WA0105501146
B1513243754468N00316531WA0105201143
B1513253754470N00316521WA0105101141
B1513263754472N00316511WA0105001139
B1513273754474N00316502WA0104901138
B1513283754476N00316492WA0104801136
B1513293754477N00316482WA0104601135
B1513303754477N00316473WA0104401133
B1513313754478N00316464WA0104301132
B1513323754478N00316453WA0104201130
B1513333754478N00316444WA0104101129
B1513343754478N00316435WA0104001128
B1513353754478N00316427WA0103901127
B1513363754479N00316418WA0103301125
B1513373754480N00316409WA0103201122
B1513383754480N00316398WA0103301120
B1513393754479N00316388WA0103401118
B1513403754479N00316379WA0103301119
B1513413754479N00316371WA0103201118
B1513423754479N00316362WA0103001117
B1513433754479N00316353WA0102701115
B1513443754480N00316342WA0102401112
B1513453754480N00316331WA0102201109
B1513463754479N00316321WA0102201108
B1513473754476N00316311WA0102001108
B1513483754474N00316302WA0101801107
B1513493754471N00316293WA0101701106
B1513503754469N00316284WA0101501104
B1513513754466N00316274WA0101201102
B1513523754463N00316264WA0100801100
B1513533754459N00316254WA0100601097
B1513543754456N00316244WA0100601094
B1513553754454N00316235WA0100501093
B1513563754452N00316225WA0100401092
B1513573754450N00316214WA0100601092
B1513583754450N00316205WA0100601092
B1513593754449N00316197WA0100801094
B1514003754447N00316189WA0101001096
B1514013754444N00316182WA0101101096
B1514023754440N00316175WA0101001096
B1514033754433N00316170WA0100701095
B1514043754425N00316167WA0100701093
B1514053754418N00316168WA0100801092
B1514063754413N00316172WA0101001095
B1514073754411N00316177WA0101301098
B1514083754410N00316182WA0101501100
B1514093754410N00316186WA0101701102
B1514103754411N00316189WA0101701104
B1514113754414N00316190WA0101801105
B1514123754418N00316190WA0101801107
B1514133754422N00316188WA0101801108
B1514143754426N00316186WA0101701108
B1514153754429N00316182WA0102001109
B1514163754432N00316178WA0102101110
B1514173754435N00316173WA0102301110
B1514183754437N00316167WA0102301111
B1514193754438N00316160WA0102301111
B1514203754440N00316152WA0102301112
B1514213754441N00316143WA0102301112
B1514223754442N00316135WA0102401112
B1514233754443N00316127WA0102801114
B1514243754443N00316121WA0102901116
B1514253754442N00316115WA0103101118
B1514263754438N00316110WA0102901120
B1514273754433N00316105WA0102701120
B1514283754426N00316104WA0102501119
B1514293754417N00316104WA0102401116
B1514303754409N00316107WA0102501115
B1514313754403N00316109WA0102801115
B1514323754398N00316113WA0103101119
B1514333754396N00316116WA0103201120
B1514343754395N00316119WA0103201121
B1514353754395N00316121WA0103201121
B1514363754397N00316123WA0102901121
B1514373754399N00316124WA0102901120
B1514383754402N00316125WA0103101120
B1514393754405N00316125WA0103201120
B1514403754408N00316123WA0103201121
B1514413754412N00316120WA0103201121
B1514423754416N00316116WA0103301121
B1514433754419N00316113WA0103401121
B1514443754422N00316109WA0103501122
B1514453754425N00316105WA0103601123
B1514463754428N00316101WA0103501123
B1514473754431N00316096WA0103401123
B1514483754434N00316091WA0103401121
B1514493754436N00316086WA0103601122
B1514503754438N00316079WA0103701122
B1514513754440N00316072WA0103801123
B1514523754442N00316066WA0103801124
B1514533754443N00316059WA0103901124
B1514543754446N00316052WA0103901124
B1514553754448N00316044WA0103901124
B1514563754450N00316035WA0103901124
B1514573754451N00316027WA0104001124
B1514583754453N00316019WA0104101126
B1514593754454N00316012WA0104401128
B1515003754455N00316006WA0104501130
B1515013754456N00315998WA0104701131
B1515023754457N00315990WA0104901132
B1515033754457N00315981WA0104901133
B1515043754453N00315972WA0104601133
B1515053754446N00315965WA0104601133
B1515063754439N00315961WA0104601132
B1515073754432N00315960WA0104901133
B1515083754427N00315961WA0105101135
B1515093754424N00315963WA0105201137
B1515103754420N00315965WA0105201139
B1515113754417N00315968WA0105301140
B1515123754413N00315972WA0105501141
B1515133754410N00315976WA0105701143
B1515143754407N00315980WA0105901145
B1515153754406N00315984WA0106101147
B1515163754406N00315988WA0106301149
B1515173754408N00315992WA0106301150
B1515183754410N00315993WA0106501152
B1515193754413N00315993WA0106701154
B1515203754416N00315992WA0106801156
B1515213754419N00315988WA0106701155
B1515223754422N00315982WA0106601155
B1515233754425N00315974WA0106501154
B1515243754427N00315967WA0106501154
B1515253754429N00315959WA0106501154
B1515263754429N00315950WA0106501153
B1515273754429N00315941WA0106501153
B1515283754428N00315932WA0106601153
B1515293754427N00315923WA0106701154
B1515303754426N00315914WA0107101156
B1515313754427N00315907WA0107301159
B1515323754427N00315899WA0107501162
B1515333754426N00315892WA0107601164
B1515343754423N00315883WA0107601165
B1515353754417N00315877WA0107601165
B1515363754410N00315872WA0107601164
B1515373754403N00315871WA0107901166
B1515383754397N00315871WA0108201168
B1515393754394N00315872WA0108301171
B1515403754391N00315874WA0108401172
B1515413754390N00315877WA0108301172
B1515423754390N00315882WA0108301171
B1515433754391N00315887WA0108201170
B1515443754394N00315892WA0108301171
B1515453754398N00315894WA0108501172
B1515463754401N00315895WA0108701174
B1515473754404N00315895WA0108701176
B1515483754408N00315893WA0108701176
B1515493754411N00315888WA0108601175
B1515503754415N00315882WA0108301172
B1515513754419N00315874WA0108301171
B1515523754422N00315868WA0108301172
B1515533754424N00315862WA0108301173
B1515543754427N00315857WA0108201173
B1515553754430N00315851WA0108301172
B1515563754432N00315844WA0108201171
B1515573754436N00315837WA0108101170
B1515583754439N00315830WA0108101170
B1515593754442N00315823WA0108101169
B1516003754446N00315816WA0108301170
B1516013754449N00315808WA0108401170
B1516023754452N00315801WA0108701172
B1516033754455N00315795WA0108801175
B1516043754458N00315788WA0109001178
B1516053754460N00315781WA0109201179
B1516063754462N00315772WA0109401181
B1516073754462N00315763WA0109601183
B1516083754460N00315754WA0109801185
B1516093754457N00315746WA0110001187
B1516103754453N00315739WA0110101189
B1516113754447N00315734WA0110301191
B1516123754442N00315731WA0110401193
B1516133754437N00315730WA0110601195
B1516143754432N00315731WA0110701196
B1516153754429N00315734WA0110801197
B1516163754426N00315737WA0111001198
B1516173754425N00315742WA0111101200
B1516183754425N00315746WA0111201202
B1516193754427N00315749WA0111401203
B1516203754430N00315751WA0111601205
B1516213754433N00315751WA0111801206
B1516223754436N00315750WA0111901208
B1516233754440N00315747WA0112001210
B1516243754444N00315742WA0112201211
B1516253754448N00315735WA0112401212
B1516263754451N00315726WA0112501214
B1516273754452N00315717WA0112701216
B1516283754453N00315708WA0113001219
B1516293754452N00315699WA0113301222
B1516303754451N00315690WA0113501224
B1516313754449N00315681WA0113701226
B1516323754444N00315673WA0113801228
B1516333754439N00315666WA0113801230
B1516343754433N00315662WA0114101232
B1516353754427N00315660WA0114301234
B1516363754422N00315658WA0114501236
B1516373754418N00315658WA0114601238
B1516383754413N00315660WA0114601240
B1516393754410N00315663WA0114601241
B1516403754408N00315669WA0114701241
B1516413754407N00315674WA0114801242
B1516423754406N00315678WA0114901242
B1516433754406N00315682WA0115101245
B1516443754406N00315684WA0115201247
B1516453754406N00315687WA0115401248
B1516463754409N00315688WA0115301248
B1516473754413N00315688WA0115201248
B1516483754419N00315686WA0115201244
B1516493754425N00315681WA0115301243
B1516503754431N00315676WA0115701247
B1516513754434N00315670WA0116101250
B1516523754437N00315665WA0116501254
B1516533754438N00315657WA0116701257
B1516543754438N00315648WA0116901259
B1516553754437N00315638WA0117101261
B1516563754434N00315629WA0117301264
B1516573754429N00315621WA0117501266
B1516583754424N00315615WA0117701268
B1516593754419N00315612WA0117901271
B1517003754414N00315610WA0117901274
B1517013754409N00315611WA0117901276
B1517023754405N00315613WA0117901275
B1517033754400N00315617WA0117901276
B1517043754397N00315620WA0118001278
B1517053754393N00315623WA0118301280
B1517063754391N00315625WA0118501282
B1517073754390N00315628WA0118601283
B1517083754390N00315631WA0118601284
B1517093754391N00315634WA0118601284
B1517103754392N00315638WA0118401284
B1517113754395N00315641WA0118701284
B1517123754399N00315643WA0118801284
B1517133754404N00315644WA0119101285
B1517143754410N00315641WA0119301287
B1517153754415N00315638WA0119501291
B1517163754419N00315633WA0119801296
B1517173754421N00315627WA0120101299
B1517183754423N00315619WA0120401302
B1517193754424N00315611WA0120601304
B1517203754424N00315602WA0120901307
B1517213754422N00315594WA0121201309
B1517223754419N00315587WA0121401312
B1517233754415N00315581WA0121601314
B1517243754411N00315576WA0121901316
B1517253754406N00315573WA0122101318
B1517263754400N00315570WA0122201320
B1517273754395N00315570WA0122401322
B1517283754390N00315571WA0122501324
B1517293754386N00315573WA0122601326
B1517303754381N00315577WA0122801328
B1517313754378N00315581WA0123001330
B1517323754376N00315584WA0123301332
B1517333754375N00315587WA0123401334
B1517343754376N00315590WA0123501334
B1517353754379N00315594WA0123601333
B1517363754383N00315597WA0123601333
B1517373754389N00315600WA0123901334
B1517383754393N00315599WA0124301336
B1517393754397N00315597WA0124701340
B1517403754400N00315593WA0125001344
B1517413754403N00315587WA0125301347
B1517423754405N00315580WA0125501350
B1517433754406N00315571WA0125701352
B1517443754405N00315563WA0126101356
B1517453754403N00315556WA0126301359
B1517463754400N00315550WA0126601362
B1517473754396N00315544WA0126901365
B1517483754392N00315540WA0127101367
B1517493754386N00315537WA0127201370
B1517503754381N00315536WA0127401372
B1517513754376N00315537WA0127501374
B1517523754372N00315539WA0127701376
B1517533754368N00315542WA0128001378
B1517543754365N00315545WA0128101380
B1517553754362N00315549WA0128201382
B1517563754360N00315553WA0128401384
B1517573754359N00315558WA0128501385
B1517583754359N00315562WA0128501386
B1517593754359N00315567WA0128701388
B1518003754361N00315571WA0129001389
B1518013754364N00315575WA0129301391
B1518023754369N00315577WA0129801394
B1518033754372N00315576WA0130201397
B1518043754375N00315573WA0130501402
B1518053754377N00315568WA0130701405
B1518063754379N00315561WA0130801408
B1518073754378N00315553WA0131001410
B1518083754376N00315544WA0131101412
B1518093754373N00315536WA0131401414
B1518103754368N00315529WA0132001417
B1518113754363N00315523WA0132401422
B1518123754359N00315520WA0132801428
B1518133754355N00315519WA0133101432
B1518143754350N00315520WA0133201436
B1518153754345N00315523WA0133401437
B1518163754342N00315528WA0133501437
B1518173754339N00315534WA0133701438
B1518183754337N00315539WA0133901441
B1518193754336N00315545WA0134301444
B1518203754337N00315550WA0134501447
B1518213754339N00315554WA0134801450
B1518223754341N00315557WA0135101453
B1518233754344N00315557WA0135301455
B1518243754347N00315556WA0135501458
B1518253754350N00315553WA0135601460
B1518263754353N00315549WA0135701462
B1518273754356N00315544WA0135901464
B1518283754358N00315538WA0136201466
B1518293754359N00315531WA0136501468
B1518303754359N00315524WA0136701471
B1518313754358N00315517WA0136901474
B1518323754356N00315510WA0137001476
B1518333754352N00315501WA0137001477
B1518343754347N00315493WA0136701477
B1518353754341N00315485WA0137201477
B1518363754334N00315478WA0137501480
B1518373754327N00315474WA0137901486
B1518383754321N00315472WA0138301491
B1518393754316N00315472WA0138501495
B1518403754310N00315475WA0138601498
B1518413754305N00315479WA0138701497
B1518423754301N00315483WA0138901498
B1518433754297N00315489WA0139101500
B1518443754296N00315494WA0139201502
B1518453754296N00315500WA0139501504
B1518463754297N00315506WA0139501505
B1518473754299N00315510WA0139801506
B1518483754301N00315513WA0140001508
B1518493754304N00315514WA0140101510
B1518503754307N00315513WA0140101512
B1518513754310N00315509WA0140101511
B1518523754314N00315504WA0140001510
B1518533754317N00315497WA0140001510
B1518543754319N00315490WA0140101510
B1518553754321N00315482WA0140401511
B1518563754321N00315474WA0140701514
B1518573754320N00315466WA0140901515
B1518583754319N00315457WA0141101517
B1518593754317N00315449WA0141301519
B1519003754313N00315442WA0141601521
B1519013754308N00315436WA0141601523
B1519023754302N00315433WA0141601524
B1519033754294N00315432WA0141901525
B1519043754288N00315433WA0142201527
B1519053754284N00315434WA0142501530
B1519063754280N00315437WA0142701533
B1519073754277N00315440WA0142701535
B1519083754274N00315445WA0142601536
B1519093754272N00315451WA0142601537
B1519103754271N00315459WA0142801538
B1519113754270N00315466WA0143101540
B1519123754270N00315471WA0143401544
B1519133754270N00315474WA0143301547
B1519143754272N00315476WA0143301546
B1519153754275N00315477WA0143001545
B1519163754279N00315477WA0143001541
B1519173754284N00315475WA0143101540
B1519183754287N00315471WA0143201541
B1519193754290N00315468WA0143301543
B1519203754292N00315463WA0143401544
B1519213754295N00315458WA0143001544
B1519223754298N00315452WA0143101543
B1519233754301N00315445WA0143201543
B1519243754303N00315438WA0143301542
B1519253754304N00315431WA0143401544
B1519263754304N00315423WA0143601545
B1519273754303N00315416WA0143801546
B1519283754301N00315410WA0143801548
B1519293754298N00315403WA0143801548
B1519303754293N00315396WA0144001549
B1519313754288N00315389WA0144301550
B1519323754282N00315384WA0144501552
B1519333754276N00315381WA0144701557
B1519343754270N00315381WA0144901559
B1519353754263N00315382WA0145001561
B1519363754257N00315386WA0145101561
B1519373754253N00315391WA0145101562
B1519383754250N00315397WA0145201563
B1519393754250N00315403WA0145301565
B1519403754250N00315408WA0145501565
B1519413754251N00315411WA0145501566
B1519423754253N00315412WA0145501567
B1519433754256N00315413WA0145101567
B1519443754259N00315412WA0145101566
B1519453754264N00315410WA0145201563
B1519463754268N00315406WA0145201562
B1519473754272N00315402WA0145201561
B1519483754275N00315399WA0145301563
B1519493754277N00315395WA0145401564
B1519503754280N00315390WA0145401564
B1519513754283N00315383WA0145201563
B1519523754285N00315375WA0145101562
B1519533754286N00315366WA0145201562
B1519543754285N00315357WA0145401562
B1519553754285N00315350WA0145701563
B1519563754283N00315343WA0145901564
B1519573754282N00315336WA0146001566
B1519583754279N00315328WA0146001566
B1519593754275N00315320WA0146101567
B1520003754269N00315315WA0146101568
B1520013754262N00315312WA0146201570
B1520023754255N00315311WA0146301572
B1520033754249N00315312WA0146601575
B1520043754244N00315313WA0146801577
B1520053754240N00315316WA0146801578
B1520063754235N00315320WA0146801579
B1520073754232N00315325WA0146801580
B1520083754231N00315332WA0146901580
B1520093754231N00315338WA0147001581
B1520103754233N00315342WA0147101582
B1520113754235N00315344WA0147101583
B1520123754238N00315345WA0146801584
B1520133754242N00315346WA0146801583
B1520143754246N00315345WA0146901581
B1520153754250N00315344WA0146901580
B1520163754255N00315341WA0146901580
B1520173754259N00315337WA0147001581
B1520183754262N00315333WA0147201582
B1520193754265N00315329WA0147301583
B1520203754268N00315323WA0147401584
B1520213754270N00315316WA0147501584
B1520223754273N00315310WA0147601585
B1520233754274N00315303WA0147601586
B1520243754276N00315296WA0147701587
B1520253754276N00315289WA0147701588
B1520263754277N00315282WA0147601588
B1520273754277N00315272WA0147501588
B1520283754276N00315263WA0147401587
B1520293754274N00315254WA0147501587
B1520303754273N00315247WA0147801589
B1520313754272N00315241WA0148001591
B1520323754270N00315235WA0148301593
B1520333754267N00315228WA0148501595
B1520343754262N00315223WA0148601596
B1520353754257N00315220WA0148601597
B1520363754251N00315217WA0148701598
B1520373754245N00315217WA0148801599
B1520383754239N00315217WA0148901601
B1520393754233N00315220WA0148901602
B1520403754227N00315224WA0149001602
B1520413754222N00315230WA0149201603
B1520423754218N00315235WA0149401605
B1520433754216N00315240WA0149401607
B1520443754216N00315245WA0149301606
B1520453754218N00315251WA0149201604
B1520463754221N00315255WA0149001603
B1520473754225N00315259WA0149201602
B1520483754229N00315261WA0149401604
B1520493754232N00315260WA0149501605
B1520503754236N00315258WA0149501606
B1520513754239N00315254WA0149401606
B1520523754244N00315249WA0149401605
B1520533754247N00315243WA0149401605
B1520543754251N00315235WA0149501605
B1520553754254N00315228WA0149601606
B1520563754256N00315220WA0149801607
B1520573754257N00315213WA0150001609
B1520583754258N00315205WA0150101610
B1520593754258N00315197WA0150201612
B1521003754257N00315189WA0150301613
B1521013754256N00315181WA0150401614
B1521023754253N00315174WA0150501615
B1521033754250N00315169WA0150701617
B1521043754247N00315164WA0150601617
B1521053754243N00315162WA0150401618
B1521063754238N00315160WA0150401619
B1521073754233N00315160WA0150401618
B1521083754227N00315160WA0150401618
B1521093754220N00315160WA0150301617
B1521103754214N00315160WA0150401618
B1521113754208N00315159WA0150401618
B1521123754202N00315158WA0150401619
B1521133754197N00315157WA0150201619
B1521143754191N00315157WA0150201619
B1521153754185N00315159WA0149901616
B1521163754180N00315163WA0149501610
B1521173754176N00315169WA0149201606
B1521183754173N00315176WA0149001603
B1521193754171N00315184WA0149001601
B1521203754170N00315191WA0149001600
B1521213754170N00315196WA0149201600
B1521223754169N00315200WA0149101601
B1521233754169N00315204WA0148801600
B1521243754170N00315209WA0148201595
B1521253754172N00315214WA0147401591
B1521263754175N00315220WA0147101587
B1521273754179N00315225WA0147201583
B1521283754184N00315227WA0147401581
B1521293754187N00315227WA0147401582
B1521303754191N00315225WA0147401582
B1521313754195N00315222WA0147301581
B1521323754199N00315217WA0147101579
B1521333754204N00315212WA0146901577
B1521343754209N00315206WA0146801575
B1521353754213N00315200WA0146901575
B1521363754217N00315194WA0147101577
B1521373754220N00315190WA0147301580
B1521383754223N00315185WA0147301581
B1521393754225N00315180WA0147301582
B1521403754228N00315176WA0147001582
B1521413754232N00315171WA0146901581
B1521423754236N00315167WA0147101581
B1521433754240N00315162WA0147201581
B1521443754244N00315157WA0147201582
B1521453754247N00315153WA0147201582
B1521463754249N00315148WA0147101582
B1521473754252N00315142WA0147001581
B1521483754255N00315135WA0146901581
B1521493754258N00315128WA0146801579
B1521503754259N00315120WA0146901579
B1521513754261N00315112WA0146901579
B1521523754262N00315105WA0147001579
B1521533754264N00315097WA0147001580
B1521543754264N00315090WA0147101580
B1521553754264N00315082WA0147101581
B1521563754263N00315073WA0147001581
B1521573754261N00315065WA0147001581
B1521583754258N00315056WA0146901581
B1521593754255N00315048WA0146801580
B1522003754250N00315042WA0146801580
B1522013754244N00315037WA0146601579
B1522023754238N00315034WA0146501577
B1522033754231N00315032WA0146401574
B1522043754224N00315032WA0146301573
B1522053754217N00315034WA0146301571
B1522063754212N00315036WA0146201570
B1522073754209N00315039WA0146201570
B1522083754205N00315042WA0146001569
B1522093754203N00315045WA0145801569
B1522103754200N00315050WA0145801567
B1522113754198N00315054WA0145801566
B1522123754197N00315059WA0145701564
B1522133754196N00315064WA0145601563
B1522143754195N00315069WA0145601562
B1522153754195N00315073WA0145501562
B1522163754195N00315078WA0145501561
B1522173754196N00315082WA0145401561
B1522183754198N00315085WA0145301560
B1522193754200N00315088WA0145201560
B1522203754203N00315091WA0145201560
B1522213754204N00315094WA0145101560
B1522223754206N00315097WA0144801560
B1522233754209N00315099WA0144801559
B1522243754213N00315101WA0144701558
B1522253754217N00315102WA0144501556
B1522263754222N00315101WA0144501555
B1522273754227N00315101WA0144601555
B1522283754232N00315100WA0144501554
B1522293754236N00315100WA0144101554
B1522303754241N00315098WA0144101553
B1522313754247N00315096WA0144301553
B1522323754253N00315093WA0144401552
B1522333754257N00315089WA0144601555
B1522343754262N00315085WA0144901559
B1522353754265N00315081WA0145201562
B1522363754268N00315076WA0145301564
B1522373754269N00315070WA0145301565
B1522383754269N00315060WA0145101565
B1522393754268N00315050WA0145001564
B1522403754265N00315040WA0145201564
B1522413754261N00315032WA0145401566
B1522423754256N00315027WA0145501568
B1522433754252N00315023WA0145701570
B1522443754247N00315020WA0145801571
B1522453754241N00315019WA0145801571
B1522463754236N00315019WA0145801572
B1522473754230N00315020WA0145901572
B1522483754226N00315022WA0145901572
B1522493754223N00315025WA0146001572
B1522503754220N00315027WA0146001572
B1522513754218N00315030WA0145901572
B1522523754218N00315034WA0145901572
B1522533754219N00315039WA0145701570
B1522543754222N00315043WA0145601567
B1522553754225N00315047WA0145601566
B1522563754229N00315049WA0145601567
B1522573754233N00315050WA0145701567
B1522583754236N00315050WA0145701567
B1522593754241N00315049WA0145601567
B1523003754246N00315047WA0145601566
B1523013754251N00315044WA0145501565
B1523023754255N00315040WA0145501565
B1523033754259N00315037WA0145701566
B1523043754263N00315035WA0145801567
B1523053754266N00315033WA0146001568
B1523063754269N00315032WA0146101568
B1523073754273N00315030WA0146101569
B1523083754276N00315027WA0146201570
B1523093754280N00315023WA0146301572
B1523103754283N00315018WA0146501574
B1523113754285N00315012WA0146601575
B1523123754286N00315006WA0146601576
B1523133754286N00314997WA0146501577
B1523143754285N00314987WA0146401577
B1523153754281N00314977WA0146401576
B1523163754276N00314970WA0146501577
B1523173754270N00314964WA0146701578
B1523183754264N00314961WA0146901581
B1523193754259N00314959WA0147001583
B1523203754253N00314960WA0147201584
B1523213754248N00314962WA0147201585
B1523223754244N00314966WA0147401586
B1523233754241N00314969WA0147501587
B1523243754238N00314972WA0147501588
B1523253754236N00314976WA0147301589
B1523263754236N00314981WA0147101586
B1523273754238N00314986WA0147201584
B1523283754241N00314990WA0147201583
B1523293754244N00314992WA0147301584
B1523303754247N00314993WA0147501585
B1523313754251N00314995WA0147601587
B1523323754254N00314996WA0147701587
B1523333754256N00314996WA0147801588
B1523343754259N00314996WA0147801589
B1523353754263N00314996WA0147701589
B1523363754268N00314993WA0147301587
B1523373754272N00314989WA0147201585
B1523383754277N00314985WA0147101583
B1523393754281N00314980WA0147201583
B1523403754284N00314977WA0147201583
B1523413754288N00314973WA0147201583
B1523423754291N00314967WA0147001582
B1523433754295N00314960WA0146901581
B1523443754298N00314952WA0146901580
B1523453754301N00314944WA0146901580
B1523463754303N00314938WA0147201581
B1523473754306N00314933WA0147301583
B1523483754308N00314929WA0147401585
B1523493754311N00314925WA0147101585
B1523503754315N00314919WA0146801584
B1523513754319N00314912WA0147101584
B1523523754321N00314905WA0147401584
B1523533754324N00314899WA0147601586
B1523543754325N00314894WA0147801588
B1523553754326N00314887WA0148001589
B1523563754325N00314880WA0148001590
B1523573754321N00314871WA0147901589
B1523583754316N00314864WA0148001589
B1523593754311N00314859WA0148101590
B1524003754305N00314856WA0148201591
B1524013754300N00314853WA0148201592
B1524023754295N00314852WA0148101592
B1524033754289N00314853WA0148001592
B1524043754284N00314856WA0147801590
B1524053754280N00314859WA0147701588
B1524063754277N00314863WA0147601588
B1524073754276N00314867WA0147501587
B1524083754276N00314870WA0147201586
B1524093754278N00314874WA0146801584
B1524103754280N00314879WA0146901582
B1524113754283N00314883WA0146901582
B1524123754286N00314886WA0147201583
B1524133754287N00314889WA0147401584
B1524143754288N00314892WA0147501584
B1524153754289N00314894WA0147601585
B1524163754291N00314897WA0147601585
B1524173754293N00314900WA0147501585
B1524183754295N00314902WA0147401584
B1524193754299N00314905WA0147501584
B1524203754303N00314906WA0147501584
B1524213754307N00314906WA0147701586
B1524223754310N00314905WA0147901587
B1524233754313N00314904WA0148001589
B1524243754317N00314902WA0148201590
B1524253754320N00314900WA0148301591
B1524263754323N00314898WA0148401592
B1524273754326N00314895WA0148501593
B1524283754329N00314891WA0148501594
B1524293754332N00314885WA0148601595
B1524303754335N00314878WA0148601595
B1524313754337N00314870WA0148601596
B1524323754339N00314862WA0148601596
B1524333754341N00314854WA0148701597
B1524343754342N00314845WA0148801598
B1524353754343N00314836WA0149001599
B1524363754342N00314827WA0149101600
B1524373754339N00314818WA0149101601
B1524383754334N00314810WA0149101602
B1524393754328N00314803WA0149301603
B1524403754323N00314798WA0149401604
B1524413754317N00314794WA0149401606
B1524423754311N00314791WA0149301607
B1524433754304N00314790WA0149401607
B1524443754297N00314790WA0149301608
B1524453754290N00314790WA0149501609
B1524463754285N00314791WA0149701610
B1524473754279N00314793WA0149701610
B1524483754275N00314797WA0149701610
B1524493754273N00314803WA0149501609
B1524503754272N00314809WA0149401606
B1524513754274N00314815WA0149501606
B1524523754276N00314818WA0149701609
B1524533754278N00314819WA0149901611
B1524543754280N00314819WA0150001614
B1524553754282N00314818WA0150101615
B1524563754285N00314817WA0150101616
B1524573754289N00314814WA0150101616
B1524583754293N00314810WA0150001615
B1524593754297N00314805WA0150101615
B1525003754301N00314800WA0150201615
B1525013754305N00314795WA0150401616
B1525023754308N00314790WA0150501618
B1525033754311N00314786WA0150701619
B1525043754314N00314782WA0150701620
B1525053754317N00314778WA0150801621
B1525063754320N00314773WA0150701621
B1525073754324N00314766WA0150601621
B1525083754326N00314758WA0150701620
B1525093754327N00314749WA0150701620
B1525103754328N00314740WA0150801621
B1525113754327N00314732WA0150901622
B1525123754326N00314724WA0151001624
B1525133754324N00314716WA0151101624
B1525143754322N00314708WA0151201625
B1525153754318N00314701WA0151201626
B1525163754314N00314695WA0151301627
B1525173754309N00314691WA0151301628
B1525183754304N00314687WA0151201627
B1525193754298N00314685WA0151201626
B1525203754292N00314684WA0151201625
B1525213754286N00314685WA0151201625
B1525223754282N00314686WA0151101624
B1525233754278N00314688WA0150901624
B1525243754275N00314692WA0150901623
B1525253754273N00314697WA0150801621
B1525263754273N00314703WA0150701618
B1525273754275N00314709WA0150701618
B1525283754276N00314713WA0150901618
B1525293754277N00314716WA0151101617
B1525303754278N00314717WA0151201617
B1525313754281N00314718WA0151001617
B1525323754285N00314718WA0150801617
B1525333754290N00314718WA0150601616
B1525343754294N00314717WA0150701615
B1525353754298N00314717WA0150901616
B1525363754301N00314715WA0151001617
B1525373754304N00314713WA0151001618
B1525383754307N00314710WA0150801618
B1525393754311N00314706WA0150501616
B1525403754316N00314701WA0150701615
B1525413754320N00314696WA0150701615
B1525423754324N00314691WA0150801615
B1525433754328N00314687WA0150801616
B1525443754333N00314682WA0150901617
B1525453754336N00314676WA0150801617
B1525463754340N00314671WA0150801618
B1525473754344N00314664WA0150801619
B1525483754347N00314657WA0150801619
B1525493754351N00314650WA0150601619
B1525503754354N00314643WA0150401619
B1525513754357N00314636WA0150801620
B1525523754360N00314628WA0150901620
B1525533754362N00314620WA0151001620
B1525543754365N00314612WA0151001621
B1525553754367N00314604WA0151101622
B1525563754369N00314597WA0151201624
B1525573754370N00314589WA0151201624
B1525583754371N00314580WA0151201625
B1525593754372N00314571WA0151201626
B1526003754372N00314562WA0151201626
B1526013754371N00314552WA0151301627
B1526023754371N00314543WA0151301627
B1526033754369N00314535WA0151401628
B1526043754367N00314527WA0151401629
B1526053754364N00314519WA0151301629
B1526063754360N00314511WA0151201628
B1526073754355N00314504WA0151101628
B1526083754349N00314498WA0151101627
B1526093754343N00314493WA0151001626
B1526103754337N00314490WA0151101627
B1526113754332N00314488WA0151101627
B1526123754328N00314487WA0151101628
B1526133754324N00314487WA0151001627
B1526143754320N00314488WA0150801627
B1526153754316N00314490WA0150401624
B1526163754314N00314493WA0150301623
B1526173754312N00314496WA0150501622
B1526183754312N00314500WA0150401621
B1526193754312N00314504WA0150301620
B1526203754312N00314507WA0150301619
B1526213754313N00314510WA0150401618
B1526223754315N00314512WA0150401617
B1526233754317N00314513WA0150301618
B1526243754320N00314514WA0150301617
B1526253754324N00314514WA0149901617
B1526263754328N00314514WA0150101616
B1526273754332N00314513WA0150201616
B1526283754335N00314513WA0150301616
B1526293754339N00314512WA0150401616
B1526303754342N00314510WA0150401617
B1526313754346N00314508WA0150401618
B1526323754350N00314505WA0150501618
B1526333754354N00314503WA0150501618
B1526343754358N00314499WA0150501618
B1526353754362N00314495WA0150601619
B1526363754366N00314489WA0150701619
B1526373754370N00314484WA0150801621
B1526383754372N00314478WA0150901622
B1526393754375N00314471WA0150901623
B1526403754377N00314464WA0150801623
B1526413754380N00314456WA0150401623
B1526423754383N00314447WA0150801623
B1526433754385N00314438WA0150901624
B1526443754387N00314429WA0151101625
B1526453754389N00314422WA0151201627
B1526463754390N00314414WA0151401629
B1526473754391N00314406WA0151501630
B1526483754390N00314397WA0151401631
B1526493754389N00314388WA0151401631
B1526503754386N00314380WA0151501632
B1526513754383N00314373WA0151501632
B1526523754379N00314366WA0151501632
B1526533754374N00314360WA0151501632
B1526543754370N00314355WA0151401632
B1526553754366N00314351WA0151301630
B1526563754361N00314348WA0151301630
B1526573754357N00314346WA0151201630
B1526583754353N00314346WA0151201629
B1526593754350N00314346WA0150801628
B1527003754346N00314349WA0150601626
B1527013754344N00314352WA0150601624
B1527023754344N00314357WA0150601622
B1527033754345N00314362WA0150401620
B1527043754346N00314366WA0150401620
B1527053754347N00314369WA0150501621
B1527063754349N00314371WA0150501622
B1527073754352N00314374WA0150501621
B1527083754355N00314376WA0150401620
B1527093754359N00314378WA0150301620
B1527103754364N00314380WA0150401620
B1527113754367N00314380WA0150501620
B1527123754370N00314380WA0150701622
B1527133754373N00314379WA0150801623
B1527143754376N00314378WA0150701623
B1527153754380N00314376WA0150601621
B1527163754385N00314374WA0150501620
B1527173754390N00314370WA0150401618
B1527183754394N00314365WA0150501618
B1527193754398N00314360WA0150601618
B1527203754402N00314354WA0150601619
B1527213754405N00314349WA0150701620
B1527223754409N00314345WA0150601620
B1527233754412N00314341WA0150601621
B1527243754417N00314337WA0150401620
B1527253754422N00314331WA0150401619
B1527263754426N00314325WA0150701620
B1527273754430N00314318WA0150801621
B1527283754434N00314312WA0150801621
B1527293754438N00314306WA0150801622
B1527303754441N00314300WA0150601621
B1527313754444N00314293WA0150401621
B1527323754447N00314285WA0150401620
B1527333754450N00314276WA0150401619
B1527343754453N00314268WA0150401619
B1527353754457N00314260WA0150401620
B1527363754461N00314254WA0150401620
B1527373754465N00314247WA0150501620
B1527383754469N00314240WA0150401620
B1527393754471N00314231WA0150201620
B1527403754474N00314222WA0149901619
B1527413754475N00314212WA0150201619
B1527423754476N00314201WA0150101618
B1527433754477N00314191WA0150101618
B1527443754478N00314181WA0150301620
B1527453754479N00314171WA0150401620
B1527463754480N00314162WA0150401621
B1527473754482N00314152WA0150301621
B1527483754483N00314142WA0150301621
B1527493754483N00314131WA0150201621
B1527503754484N00314121WA0150201621
B1527513754486N00314111WA0150201621
B1527523754488N00314102WA0150001620
B1527533754490N00314092WA0149801619
B1527543754492N00314082WA0150001619
B1527553754494N00314072WA0150201620
B1527563754496N00314063WA0150301621
B1527573754498N00314054WA0150401621
B1527583754501N00314047WA0150301621
B1527593754504N00314040WA0150301622
B1528003754507N00314032WA0150301622
B1528013754510N00314023WA0150001621
B1528023754513N00314014WA0150101621
B1528033754515N00314005WA0150301621
B1528043754516N00313996WA0150601621
B1528053754516N00313988WA0150801623
B1528063754515N00313982WA0150901625
B1528073754513N00313976WA0151001626
B1528083754510N00313970WA0151101627
B1528093754506N00313966WA0151001626
B1528103754500N00313963WA0151001626
B1528113754496N00313962WA0151201628
B1528123754492N00313963WA0151201629
B1528133754490N00313965WA0151201629
B1528143754488N00313967WA0151201629
B1528153754487N00313970WA0151201629
B1528163754488N00313974WA0151101627
B1528173754489N00313979WA0150901626
B1528183754491N00313984WA0150901625
B1528193754494N00313987WA0150901624
B1528203754497N00313989WA0150901625
B1528213754501N00313990WA0150701625
B1528223754506N00313989WA0150401624
B1528233754513N00313987WA0150501621
B1528243754519N00313983WA0150401620
B1528253754525N00313978WA0150501619
B1528263754530N00313973WA0150701621
B1528273754535N00313968WA0150801622
B1528283754539N00313963WA0150901623
B1528293754544N00313957WA0150901624
B1528303754549N00313951WA0151001624
B1528313754553N00313944WA0151001625
B1528323754557N00313937WA0151001626
B1528333754561N00313929WA0151001626
B1528343754566N00313921WA0150701625
B1528353754570N00313913WA0150801625
B1528363754573N00313905WA0150901625
B1528373754575N00313896WA0150801625
B1528383754577N00313886WA0150701624
B1528393754579N00313877WA0150801624
B1528403754582N00313869WA0150801624
B1528413754585N00313861WA0150801624
B1528423754588N00313852WA0150601624
B1528433754591N00313843WA0150301624
B1528443754594N00313833WA0150301623
B1528453754596N00313823WA0150301622
B1528463754599N00313814WA0150501622
B1528473754601N00313806WA0150501623
B1528483754604N00313797WA0150401623
B1528493754606N00313788WA0150001623
B1528503754608N00313779WA0149901622
B1528513754610N00313769WA0149801621
B1528523754612N00313760WA0149701619
B1528533754615N00313751WA0149501617
B1528543754618N00313743WA0149401616
B1528553754620N00313736WA0149401615
B1528563754621N00313729WA0149301614
B1528573754623N00313721WA0149101612
B1528583754624N00313713WA0148901611
B1528593754627N00313705WA0148901609
B1529003754629N00313698WA0148801608
B1529013754631N00313691WA0148701606
B1529023754632N00313685WA0148601605
B1529033754632N00313678WA0148201603
B1529043754633N00313671WA0147801601
B1529053754634N00313664WA0147401595
B1529063754636N00313656WA0147201591
B1529073754638N00313649WA0146901588
B1529083754640N00313642WA0146701585
B1529093754643N00313636WA0146501583
B1529103754644N00313630WA0146201581
B1529113754646N00313623WA0145801578
B1529123754647N00313616WA0145301574
B1529133754649N00313608WA0145101570
B1529143754649N00313600WA0144801567
B1529153754649N00313592WA0144601564
B1529163754650N00313585WA0144201562
B1529173754651N00313578WA0144001558
B1529183754653N00313571WA0143701555
B1529193754654N00313563WA0143301551
B1529203754654N00313555WA0143001547
B1529213754655N00313548WA0142701543
B1529223754656N00313541WA0142501541
B1529233754658N00313534WA0142101537
B1529243754658N00313526WA0141701534
B1529253754658N00313519WA0141401530
B1529263754658N00313510WA0141001527
B1529273754658N00313502WA0140801523
B1529283754658N00313494WA0140501520
B1529293754658N00313486WA0140201517
B1529303754659N00313479WA0139701515
B1529313754660N00313471WA0139501511
B1529323754660N00313463WA0139301508
B1529333754660N00313454WA0139101505
B1529343754660N00313447WA0138801503
B1529353754661N00313439WA0138701502
B1529363754661N00313432WA0138601500
B1529373754662N00313425WA0138301497
B1529383754663N00313417WA0138001495
B1529393754664N00313409WA0137801492
B1529403754665N00313401WA0137601490
B1529413754666N00313393WA0137501488
B1529423754667N00313386WA0137401486
B1529433754669N00313378WA0137201484
B1529443754672N00313371WA0137101483
B1529453754674N00313364WA0137001481
B1529463754675N00313357WA0136801480
B1529473754676N00313349WA0136601479
B1529483754677N00313341WA0136201477
B1529493754679N00313333WA0136001474
B1529503754681N00313325WA0136101472
B1529513754682N00313317WA0136001471
B1529523754682N00313309WA0135901471
B1529533754682N00313301WA0135701469
B1529543754682N00313292WA0135601468
B1529553754683N00313283WA0135601466
B1529563754683N00313273WA0135401464
B1529573754683N00313264WA0135301463
B1529583754683N00313256WA0135301462
B1529593754682N00313249WA0135201461
B1530003754681N00313241WA0135001460
B1530013754680N00313232WA0134701459
B1530023754680N00313224WA0134401457
B1530033754679N00313216WA0134301455
B1530043754678N00313207WA0134101453
B1530053754678N00313199WA0134101451
B1530063754678N00313190WA0134001450
B1530073754679N00313183WA0133901449
B1530083754680N00313175WA0133801448
B1530093754680N00313167WA0133701447
B1530103754680N00313159WA0133501445
B1530113754681N00313150WA0133201442
B1530123754682N00313142WA0133001439
B1530133754683N00313133WA0132901438
B1530143754684N00313125WA0132901437
B1530153754684N00313117WA0132801436
B1530163754685N00313108WA0132601434
B1530173754685N00313099WA0132401433
B1530183754686N00313088WA0131801431
B1530193754686N00313078WA0132001429
B1530203754686N00313068WA0132001428
B1530213754686N00313059WA0131901427
B1530223754685N00313050WA0131701426
B1530233754685N00313041WA0131501424
B1530243754687N00313032WA0131201421
B1530253754688N00313023WA0131101418
B1530263754689N00313014WA0130901417
B1530273754689N00313005WA0130801416
B1530283754688N00312995WA0130601414
B1530293754686N00312986WA0130301412
B1530303754685N00312976WA0130101410
B1530313754685N00312966WA0129801408
B1530323754684N00312956WA0129501406
B1530333754684N00312947WA0129301403
B1530343754684N00312937WA0128901401
B1530353754683N00312927WA0128501398
B1530363754683N00312918WA0128201396
B1530373754682N00312908WA0128201393
B1530383754681N00312899WA0128001390
B1530393754681N00312889WA0127801387
B1530403754681N00312881WA0127501385
B1530413754682N00312872WA0127201382
B1530423754682N00312864WA0127001378
B1530433754683N00312854WA0126801375
B1530443754683N00312845WA0126601372
B1530453754683N00312836WA0126401370
B1530463754683N00312827WA0126201368
B1530473754684N00312819WA0126001366
B1530483754684N00312810WA0125701364
B1530493754685N00312800WA0125501361
B1530503754685N00312791WA0125301358
B1530513754686N00312781WA0125201356
B1530523754686N00312772WA0125101355
B1530533754687N00312763WA0125001354
B1530543754688N00312754WA0124801352
B1530553754689N00312745WA0124601351
B1530563754690N00312735WA0124401349
B1530573754691N00312726WA0124301348
B1530583754692N00312717WA0124201346
B1530593754693N00312708WA0124101345
B1531003754694N00312699WA0123901344
B1531013754695N00312689WA0123801342
B1531023754695N00312680WA0123801341
B1531033754695N00312671WA0123801340
B1531043754696N00312663WA0123701339
B1531053754696N00312654WA0123701339
B1531063754697N00312647WA0123701339
B1531073754698N00312639WA0123501339
B1531083754699N00312631WA0123501338
B1531093754700N00312622WA0123301337
B1531103754700N00312612WA0123301335
B1531113754701N00312604WA0123301335
B1531123754700N00312595WA0123201335
B1531133754699N00312586WA0123101334
B1531143754698N00312577WA0122901333
B1531153754698N00312567WA0122701331
B1531163754698N00312558WA0122601330
B1531173754698N00312548WA0122401329
B1531183754698N00312539WA0122401328
B1531193754697N00312530WA0122301327
B1531203754697N00312521WA0122201326
B1531213754697N00312511WA0122001324
B1531223754697N00312502WA0122001323
B1531233754697N00312492WA0122001322
B1531243754697N00312483WA0122101323
B1531253754696N00312475WA0122101322
B1531263754696N00312466WA0122001322
B1531273754695N00312457WA0121901321
B1531283754695N00312447WA0121601320
B1531293754693N00312436WA0121301319
B1531303754691N00312425WA0121301317
B1531313754690N00312415WA0121401317
B1531323754689N00312406WA0121401318
B1531333754690N00312396WA0121301317
B1531343754692N00312385WA0121101316
B1531353754692N00312375WA0121001314
B1531363754693N00312364WA0121001313
B1531373754694N00312354WA0120801314
B1531383754695N00312345WA0120901314
B1531393754696N00312336WA0121101313
B1531403754697N00312327WA0121001313
B1531413754698N00312317WA0121101313
B1531423754699N00312308WA0121201313
B1531433754700N00312298WA0121201314
B1531443754701N00312289WA0121301314
B1531453754703N00312281WA0121301314
B1531463754707N00312274WA0120901313
B1531473754712N00312267WA0120901312
B1531483754716N00312260WA0121101311
B1531493754720N00312253WA0121101311
B1531503754723N00312245WA0121101311
B1531513754725N00312237WA0121101311
B1531523754728N00312229WA0121101311
B1531533754730N00312220WA0121001311
B1531543754734N00312212WA0121001311
B1531553754737N00312204WA0121001311
B1531563754740N00312196WA0121101311
B1531573754742N00312187WA0121201312
B1531583754745N00312179WA0121301312
B1531593754748N00312171WA0121401313
B1532003754751N00312164WA0121601315
B1532013754754N00312157WA0121801316
B1532023754757N00312150WA0121901317
B1532033754760N00312142WA0121901318
B1532043754762N00312132WA0122001319
B1532053754762N00312121WA0122001320
B1532063754759N00312110WA0122101320
B1532073754755N00312101WA0122201321
B1532083754751N00312093WA0122301323
B1532093754746N00312087WA0122401324
B1532103754741N00312082WA0122401324
B1532113754735N00312079WA0122301323
B1532123754729N00312080WA0122301323
B1532133754726N00312082WA0122301322
B1532143754724N00312086WA0122301322
B1532153754724N00312088WA0122601322
B1532163754724N00312090WA0122801324
B1532173754726N00312091WA0123001326
B1532183754727N00312091WA0123201328
B1532193754729N00312091WA0123401330
B1532203754732N00312089WA0123401331
B1532213754736N00312085WA0123301331
B1532223754742N00312080WA0123301330
B1532233754748N00312073WA0123701331
B1532243754751N00312064WA0124101336
B1532253754751N00312055WA0124401341
B1532263754749N00312046WA0124401344
B1532273754745N00312037WA0124401344
B1532283754741N00312028WA0124301343
B1532293754735N00312020WA0124401344
B1532303754729N00312015WA0124501345
B1532313754723N00312012WA0124601347
B1532323754718N00312011WA0124601348
B1532333754713N00312012WA0124701348
B1532343754709N00312014WA0124501349
B1532353754706N00312018WA0124301350
B1532363754705N00312023WA0124801350
B1532373754705N00312027WA0125101351
B1532383754705N00312030WA0125301353
B1532393754707N00312032WA0125601356
B1532403754709N00312032WA0125901358
B1532413754712N00312033WA0126101361
B1532423754714N00312033WA0126301363
B1532433754718N00312032WA0126501365
B1532443754723N00312029WA0126601367
B1532453754727N00312022WA0126701368
B1532463754730N00312012WA0126801368
B1532473754730N00312002WA0127001370
B1532483754728N00311992WA0127501373
B1532493754724N00311984WA0127801378
B1532503754719N00311978WA0128201383
B1532513754713N00311975WA0128401385
B1532523754707N00311975WA0128501388
B1532533754702N00311977WA0128701390
B1532543754700N00311982WA0128801392
B1532553754701N00311986WA0128901393
B1532563754705N00311989WA0129101395
B1532573754709N00311990WA0129401398
B1532583754713N00311990WA0129701400
B1532593754717N00311989WA0129901403
B1533003754721N00311985WA0130101404
B1533013754725N00311977WA0130201404
B1533023754727N00311968WA0130201405
B1533033754727N00311957WA0130401407
B1533043754725N00311947WA0130501409
B1533053754721N00311937WA0130801411
B1533063754716N00311930WA0131101414
B1533073754711N00311926WA0131401417
B1533083754706N00311923WA0131701421
B1533093754701N00311923WA0132001423
B1533103754698N00311924WA0132101426
B1533113754696N00311926WA0132301427
B1533123754696N00311930WA0132401429
B1533133754697N00311934WA0132601431
B1533143754699N00311937WA0132801433
B1533153754701N00311940WA0133201435
B1533163754703N00311941WA0133501439
B1533173754706N00311941WA0133701442
B1533183754709N00311939WA0133801444
B1533193754714N00311936WA0133801444
B1533203754718N00311929WA0133901444
B1533213754722N00311921WA0134001445
B1533223754725N00311912WA0134301447
B1533233754725N00311903WA0134601450
B1533243754725N00311894WA0134801452
B1533253754722N00311885WA0135001454
B1533263754718N00311876WA0135201456
B1533273754713N00311869WA0135401458
B1533283754707N00311865WA0135501461
B1533293754702N00311863WA0135701463
B1533303754697N00311862WA0135901465
B1533313754692N00311861WA0136201468
B1533323754688N00311862WA0136501470
B1533333754685N00311864WA0136701473
B1533343754684N00311868WA0136801475
B1533353754685N00311872WA0136901477
B1533363754688N00311876WA0137001477
B1533373754692N00311878WA0137301480
B1533383754696N00311879WA0137501483
B1533393754700N00311878WA0137801486
B1533403754704N00311876WA0138101489
B1533413754709N00311872WA0138201490
B1533423754713N00311866WA0138401492
B1533433754717N00311859WA0138401493
B1533443754720N00311849WA0138601495
B1533453754722N00311839WA0138901497
B1533463754722N00311829WA0139201500
B1533473754720N00311820WA0139401502
B1533483754718N00311811WA0139601505
B1533493754714N00311803WA0139901508
B1533503754709N00311796WA0140101510
B1533513754703N00311791WA0140401513
B1533523754698N00311788WA0140601515
B1533533754692N00311785WA0140901518
B1533543754687N00311785WA0141101520
B1533553754684N00311787WA0141301523
B1533563754683N00311791WA0141401525
B1533573754683N00311795WA0141501524
B1533583754684N00311799WA0141601526
B1533593754687N00311801WA0141901528
B1534003754689N00311802WA0142201532
B1534013754692N00311803WA0142401534
B1534023754696N00311802WA0142601536
B1534033754700N00311801WA0142801538
B1534043754705N00311799WA0142901540
B1534053754709N00311794WA0143101541
B1534063754713N00311787WA0143201542
B1534073754716N00311778WA0143201544
B1534083754719N00311768WA0143401545
B1534093754719N00311758WA0143601546
B1534103754717N00311748WA0143801548
B1534113754714N00311739WA0143801550
B1534123754710N00311732WA0144101552
B1534133754705N00311725WA0144301554
B1534143754700N00311719WA0144701558
B1534153754695N00311715WA0145001561
B1534163754690N00311713WA0145201563
B1534173754686N00311714WA0145401565
B1534183754682N00311716WA0145401566
B1534193754681N00311720WA0145601567
B1534203754681N00311724WA0145701568
B1534213754682N00311728WA0146001570
B1534223754684N00311731WA0146101572
B1534233754686N00311732WA0146301574
B1534243754690N00311733WA0146501577
B1534253754694N00311732WA0146701579
B1534263754699N00311730WA0147001581
B1534273754703N00311727WA0147201584
B1534283754707N00311722WA0147201585
B1534293754710N00311714WA0147401586
B1534303754713N00311705WA0147501587
B1534313754714N00311696WA0147601588
B1534323754713N00311686WA0147801590
B1534333754710N00311677WA0147901592
B1534343754706N00311669WA0148101594
B1534353754701N00311662WA0148201595
B1534363754695N00311656WA0148501597
B1534373754689N00311653WA0148701600
B1534383754684N00311651WA0148901602
B1534393754680N00311652WA0149201605
B1534403754677N00311654WA0149301607
B1534413754676N00311656WA0149301608
B1534423754675N00311660WA0149401609
B1534433754675N00311663WA0149601611
B1534443754675N00311665WA0149701612
B1534453754677N00311667WA0149801613
B1534463754680N00311669WA0150101614
B1534473754683N00311671WA0150201617
B1534483754686N00311672WA0150501620
B1534493754689N00311673WA0150801623
B1534503754692N00311672WA0151001625
B1534513754696N00311670WA0151101627
B1534523754701N00311665WA0151101627
B1534533754705N00311659WA0151101628
B1534543754709N00311652WA0151201628
B1534553754712N00311645WA0151201629
B1534563754714N00311637WA0151201630
B1534573754715N00311628WA0151301630
B1534583754715N00311618WA0151301630
B1534593754714N00311608WA0151301631
B1535003754713N00311599WA0151401632
B1535013754711N00311590WA0151601633
B1535023754709N00311580WA0151701633
B1535033754706N00311571WA0151901634
B1535043754703N00311562WA0152001635
B1535053754699N00311555WA0152201638
B1535063754695N00311550WA0152301639
B1535073754690N00311547WA0152501640
B1535083754685N00311545WA0152601641
B1535093754681N00311545WA0152701642
B1535103754677N00311545WA0153001644
B1535113754674N00311546WA0153201645
B1535123754672N00311546WA0153401647
B1535133754671N00311547WA0153601649
B1535143754671N00311549WA0153501650
B1535153754672N00311552WA0153601648
B1535163754674N00311555WA0153601649
B1535173754676N00311557WA0153801650
B1535183754678N00311558WA0154001651
B1535193754681N00311559WA0154201654
B1535203754684N00311558WA0154501657
B1535213754688N00311556WA0154601659
B1535223754692N00311552WA0154701660
B1535233754697N00311546WA0154601661
B1535243754700N00311539WA0154701662
B1535253754703N00311530WA0154501663
B1535263754705N00311521WA0154601663
B1535273754707N00311512WA0154401663
B1535283754707N00311501WA0154501664
B1535293754706N00311491WA0154401664
B1535303754704N00311481WA0154401663
B1535313754701N00311471WA0154401663
B1535323754698N00311462WA0154601664
B1535333754695N00311453WA0154901665
B1535343754692N00311444WA0155001667
B1535353754689N00311436WA0155201668
B1535363754685N00311429WA0155301670
B1535373754681N00311425WA0155501672
B1535383754676N00311422WA0155701673
B1535393754671N00311420WA0156001675
B1535403754668N00311420WA0156301678
B1535413754667N00311421WA0156401680
B1535423754668N00311424WA0156401681
B1535433754670N00311426WA0156201680
B1535443754674N00311430WA0156301679
B1535453754678N00311432WA0156401680
B1535463754683N00311432WA0156801684
B1535473754688N00311429WA0157101687
B1535483754693N00311424WA0157201690
B1535493754697N00311418WA0157301692
B1535503754701N00311411WA0157301692
B1535513754704N00311403WA0157201693
B1535523754706N00311393WA0157201693
B1535533754707N00311380WA0156901692
B1535543754706N00311368WA0156901691
B1535553754703N00311357WA0157001691
B1535563754700N00311348WA0157201692
B1535573754696N00311340WA0157201693
B1535583754692N00311333WA0157301695
B1535593754687N00311327WA0157401695
B1536003754682N00311322WA0157401695
B1536013754677N00311318WA0157301695
B1536023754671N00311316WA0157401695
B1536033754666N00311314WA0157501696
B1536043754662N00311314WA0157901697
B1536053754658N00311313WA0158201701
B1536063754656N00311313WA0158601703
B1536073754655N00311314WA0158701706
B1536083754656N00311316WA0158901707
B1536093754660N00311318WA0159001708
B1536103754664N00311318WA0159101709
B1536113754670N00311317WA0159301711
B1536123754675N00311314WA0159601713
B1536133754680N00311308WA0159701716
B1536143754684N00311300WA0159701717
B1536153754688N00311291WA0159801717
B1536163754690N00311279WA0159701718
B1536173754692N00311268WA0159601718
B1536183754692N00311257WA0159701718
B1536193754692N00311246WA0159501719
B1536203754691N00311236WA0159901721
B1536213754689N00311226WA0160001722
B1536223754687N00311218WA0160001723
B1536233754683N00311209WA0159901723
B1536243754678N00311201WA0159801723
B1536253754673N00311193WA0159701722
B1536263754666N00311186WA0159601722
B1536273754659N00311181WA0159701721
B1536283754653N00311178WA0159801722
B1536293754646N00311176WA0159901723
B1536303754640N00311174WA0160001724
B1536313754635N00311173WA0160301726
B1536323754631N00311173WA0160501727
B1536333754628N00311174WA0160601727
B1536343754627N00311176WA0160601728
B1536353754626N00311178WA0160701729
B1536363754626N00311180WA0160801729
B1536373754627N00311182WA0160901730
B1536383754629N00311183WA0160901731
B1536393754631N00311184WA0161001732
B1536403754634N00311184WA0160901732
B1536413754639N00311183WA0160901731
B1536423754645N00311181WA0160901731
B1536433754651N00311177WA0160901731
B1536443754656N00311172WA0161001733
B1536453754661N00311167WA0161201735
B1536463754665N00311161WA0161301736
B1536473754668N00311152WA0161301737
B1536483754671N00311142WA0161201737
B1536493754672N00311131WA0161301737
B1536503754671N00311120WA0161401737
B1536513754668N00311111WA0161701739
B1536523754665N00311103WA0161901742
B1536533754663N00311095WA0162201744
B1536543754659N00311088WA0162401746
B1536553754654N00311082WA0162501747
B1536563754648N00311077WA0162601749
B1536573754642N00311074WA0162701750
B1536583754638N00311072WA0162801752
B1536593754635N00311072WA0162901753
B1537003754632N00311073WA0162601754
B1537013754631N00311075WA0162701753
B1537023754630N00311077WA0162801754
B1537033754631N00311079WA0162801754
B1537043754632N00311080WA0162901754
B1537053754635N00311081WA0162701753
B1537063754638N00311081WA0162701752
B1537073754642N00311081WA0162701751
B1537083754647N00311081WA0162701750
B1537093754652N00311078WA0162801750
B1537103754657N00311074WA0162801751
B1537113754661N00311069WA0162901752
B1537123754664N00311064WA0163101753
B1537133754667N00311058WA0163201754
B1537143754670N00311052WA0163201755
B1537153754671N00311045WA0163201756
B1537163754674N00311036WA0162801756
B1537173754676N00311028WA0163201756
B1537183754678N00311020WA0163601758
B1537193754680N00311011WA0164001760
B1537203754681N00311003WA0164201762
B1537213754681N00310995WA0164301765
B1537223754680N00310986WA0164401766
B1537233754678N00310977WA0164501767
B1537243754675N00310968WA0164501767
B1537253754670N00310959WA0164601769
B1537263754665N00310953WA0164901772
B1537273754659N00310949WA0165101775
B1537283754654N00310947WA0165201777
B1537293754649N00310947WA0165401778
B1537303754643N00310948WA0165401779
B1537313754639N00310951WA0165601780
B1537323754636N00310954WA0166001783
B1537333754635N00310956WA0166301785
B1537343754636N00310957WA0166301788
B1537353754638N00310958WA0166501789
B1537363754641N00310959WA0166501790
B1537373754645N00310959WA0166401790
B1537383754650N00310958WA0166501791
B1537393754655N00310956WA0166701791
B1537403754661N00310952WA0166901792
B1537413754666N00310947WA0167201795
B1537423754669N00310941WA0167501799
B1537433754672N00310934WA0167701801
B1537443754674N00310925WA0167901803
B1537453754675N00310916WA0168001804
B1537463754676N00310907WA0168101805
B1537473754676N00310899WA0168301807
B1537483754675N00310891WA0168501809
B1537493754672N00310885WA0168601811
B1537503754669N00310879WA0168501811
B1537513754664N00310874WA0168501811
B1537523754658N00310870WA0168601811
B1537533754653N00310868WA0168401812
B1537543754647N00310866WA0168501813
B1537553754642N00310865WA0168801814
B1537563754638N00310864WA0168901815
B1537573754633N00310864WA0169001816
B1537583754630N00310865WA0169201818
B1537593754628N00310866WA0169201819
B1538003754627N00310869WA0169201819
B1538013754627N00310872WA0169301819
B1538023754629N00310875WA0169401820
B1538033754632N00310877WA0169501820
B1538043754635N00310878WA0169501821
B1538053754639N00310877WA0169601823
B1538063754644N00310876WA0169601823
B1538073754650N00310873WA0169501824
B1538083754656N00310870WA0169701824
B1538093754661N00310866WA0170001827
B1538103754666N00310863WA0170301829
B1538113754670N00310859WA0170401831
B1538123754675N00310853WA0170301832
B1538133754679N00310845WA0170201832
B1538143754683N00310836WA0170301832
B1538153754686N00310827WA0170401833
B1538163754688N00310819WA0170501834
B1538173754689N00310810WA0170701835
B1538183754688N00310802WA0170801836
B1538193754688N00310794WA0170801837
B1538203754687N00310786WA0170801837
B1538213754685N00310778WA0170801837
B1538223754681N00310771WA0170901837
B1538233754677N00310766WA0170901837
B1538243754672N00310762WA0170901837
B1538253754667N00310760WA0170901838
B1538263754663N00310759WA0170801837
B1538273754659N00310759WA0170801837
B1538283754655N00310760WA0170901837
B1538293754652N00310761WA0171001837
B1538303754648N00310762WA0171001837
B1538313754646N00310764WA0171201837
B1538323754644N00310766WA0171101838
B1538333754644N00310769WA0171001837
B1538343754646N00310773WA0170501835
B1538353754649N00310776WA0170701834
B1538363754651N00310779WA0171001835
B1538373754654N00310781WA0171101835
B1538383754658N00310782WA0171101835
B1538393754662N00310782WA0171001835
B1538403754667N00310782WA0171001835
B1538413754672N00310782WA0171101836
B1538423754676N00310781WA0171101836
B1538433754680N00310778WA0171201837
B1538443754685N00310774WA0171201837
B1538453754689N00310768WA0170801837
B1538463754693N00310762WA0170601836
B1538473754696N00310755WA0170901836
B1538483754698N00310748WA0170901835
B1538493754699N00310741WA0170801835
B1538503754700N00310732WA0170701834
B1538513754702N00310724WA0170501833
B1538523754704N00310715WA0170301832
B1538533754706N00310706WA0170301831
B1538543754709N00310698WA0170201830
B1538553754711N00310690WA0169701830
B1538563754713N00310681WA0169601829
B1538573754715N00310671WA0169701827
B1538583754716N00310662WA0169601825
B1538593754718N00310653WA0169501824
B1539003754719N00310644WA0169201823
B1539013754720N00310636WA0168801821
B1539023754720N00310626WA0168601819
B1539033754719N00310615WA0168101816
B1539043754719N00310605WA0167801813
B1539053754718N00310595WA0167501810
B1539063754719N00310586WA0167301807
B1539073754719N00310579WA0167001805
B1539083754719N00310570WA0166401801
B1539093754718N00310562WA0166001797
B1539103754718N00310553WA0165401793
B1539113754719N00310545WA0165301789
B1539123754720N00310537WA0165201786
B1539133754720N00310530WA0164801782
B1539143754720N00310523WA0164301778
B1539153754719N00310515WA0163601772
B1539163754719N00310506WA0163201767
B1539173754719N00310497WA0162801761
B1539183754719N00310488WA0162501757
B1539193754720N00310481WA0162301754
B1539203754721N00310475WA0162001751
B1539213754721N00310468WA0161501747
B1539223754721N00310460WA0161101742
B1539233754720N00310451WA0160601737
B1539243754721N00310442WA0160401733
B1539253754722N00310434WA0160401730
B1539263754723N00310427WA0160301728
B1539273754724N00310420WA0160101727
B1539283754724N00310413WA0159901725
B1539293754725N00310404WA0159701722
B1539303754724N00310396WA0159501719
B1539313754724N00310389WA0159401718
B1539323754723N00310381WA0159201716
B1539333754724N00310373WA0158801715
B1539343754724N00310365WA0158801712
B1539353754724N00310356WA0158601710
B1539363754724N00310347WA0158501708
B1539373754724N00310338WA0158501708
B1539383754723N00310330WA0158601711
B1539393754722N00310324WA0158501710
B1539403754721N00310317WA0158301708
B1539413754720N00310309WA0158101705
B1539423754719N00310301WA0157601703
B1539433754718N00310293WA0157401700
B1539443754716N00310285WA0157301699
B1539453754714N00310277WA0157201697
B1539463754713N00310269WA0157101695
B1539473754712N00310261WA0156901693
B1539483754712N00310253WA0156701690
B1539493754712N00310244WA0156601688
B1539503754712N00310236WA0156401687
B1539513754712N00310227WA0156201685
B1539523754712N00310219WA0156101683
B1539533754713N00310211WA0155901682
B1539543754714N00310202WA0155801680
B1539553754714N00310194WA0155601678
B1539563754715N00310186WA0155401677
B1539573754715N00310178WA0155201675
B1539583754716N00310170WA0154601673
B1539593754717N00310162WA0154501670
B1540003754718N00310153WA0154401668
B1540013754719N00310145WA0154301666
B1540023754719N00310137WA0154101664
B1540033754720N00310129WA0154001662
B1540043754721N00310121WA0153801660
B1540053754722N00310113WA0153601657
B1540063754723N00310105WA0153401655
B1540073754725N00310097WA0153301653
B1540083754726N00310090WA0153001651
B1540093754728N00310082WA0152701648
B1540103754731N00310075WA0152401645
B1540113754734N00310068WA0152201642
B1540123754737N00310062WA0152001640
B1540133754739N00310055WA0151901639
B1540143754741N00310049WA0151801638
B1540153754743N00310042WA0151601636
B1540163754744N00310035WA0151301635
B1540173754744N00310028WA0151101632
B1540183754745N00310020WA0150801627
B1540193754746N00310012WA0150501624
B1540203754747N00310003WA0150401621
B1540213754748N00309994WA0150201620
B1540223754749N00309986WA0150001618
B1540233754750N00309978WA0149901617
B1540243754750N00309970WA0149801615
B1540253754751N00309961WA0149501613
B1540263754751N00309954WA0149401612
B1540273754751N00309946WA0149201610
B1540283754752N00309938WA0149101609
B1540293754752N00309930WA0149101608
B1540303754753N00309922WA0149001607
B1540313754753N00309915WA0148901606
B1540323754753N00309907WA0148901606
B1540333754753N00309899WA0148801605
B1540343754753N00309891WA0148701604
B1540353754753N00309883WA0148701603
B1540363754753N00309875WA0148701603
B1540373754752N00309866WA0148601602
B1540383754751N00309857WA0148501601
B1540393754750N00309848WA0148401601
B1540403754749N00309839WA0148501600
B1540413754748N00309830WA0148601599
B1540423754747N00309821WA0148601599
B1540433754747N00309813WA0148601600
B1540443754746N00309804WA0148601600
B1540453754747N00309794WA0148501599
B1540463754746N00309785WA0148501599
B1540473754746N00309775WA0148501599
B1540483754746N00309767WA0148501599
B1540493754746N00309758WA0148401599
B1540503754746N00309748WA0148301598
B1540513754747N00309738WA0148201597
B1540523754747N00309727WA0148201596
B1540533754746N00309717WA0148301596
B1540543754746N00309707WA0148301597
B1540553754745N00309697WA0148501597
B1540563754745N00309687WA0148501598
B1540573754745N00309677WA0148501599
B1540583754745N00309667WA0148501599
B1540593754744N00309657WA0148201599
B1541003754744N00309647WA0148101600
B1541013754744N00309637WA0148601601
B1541023754743N00309627WA0148601602
B1541033754743N00309618WA0148701603
B1541043754742N00309609WA0148901605
B1541053754741N00309601WA0149101606
B1541063754737N00309593WA0149101607
B1541073754732N00309586WA0149001608
B1541083754725N00309581WA0148801609
B1541093754718N00309579WA0148801609
B1541103754712N00309580WA0148901609
B1541113754708N00309582WA0149001609
B1541123754705N00309584WA0148901609
B1541133754703N00309588WA0148901608
B1541143754702N00309592WA0148701607
B1541153754703N00309596WA0148601603
B1541163754706N00309600WA0148501601
B1541173754710N00309601WA0148501600
B1541183754714N00309602WA0148501600
B1541193754718N00309600WA0148601600
B1541203754722N00309597WA0148601600
B1541213754726N00309592WA0148501599
B1541223754730N00309587WA0148401598
B1541233754735N00309581WA0148301597
B1541243754739N00309576WA0148301597
B1541253754743N00309569WA0148301597
B1541263754746N00309562WA0148401597
B1541273754749N00309554WA0148301598
B1541283754752N00309547WA0148101598
B1541293754755N00309540WA0148101598
B1541303754759N00309533WA0148401599
B1541313754762N00309526WA0148501599
B1541323754765N00309519WA0148501599
B1541333754768N00309511WA0148601599
B1541343754771N00309503WA0148701601
B1541353754774N00309495WA0149001604
B1541363754776N00309488WA0149201606
B1541373754778N00309481WA0149401608
B1541383754779N00309473WA0149501610
B1541393754778N00309464WA0149501611
B1541403754775N00309455WA0149501612
B1541413754771N00309445WA0149601611
B1541423754766N00309438WA0149601612
B1541433754760N00309432WA0149701612
B1541443754753N00309428WA0149701612
B1541453754747N00309425WA0149701612
B1541463754740N00309424WA0149601612
B1541473754735N00309426WA0149501611
B1541483754730N00309431WA0149401610
B1541493754728N00309436WA0149301609
B1541503754728N00309440WA0149201608
B1541513754728N00309444WA0149101607
B1541523754730N00309447WA0149201606
B1541533754733N00309450WA0149401606
B1541543754737N00309451WA0149501608
B1541553754741N00309450WA0149801609
B1541563754744N00309449WA0149901612
B1541573754748N00309446WA0150001613
B1541583754752N00309443WA0150001614
B1541593754756N00309439WA0150001614
B1542003754761N00309434WA0150001614
B1542013754767N00309429WA0150001614
B1542023754772N00309425WA0150201615
B1542033754778N00309421WA0150301617
B1542043754782N00309417WA0150501619
B1542053754787N00309413WA0150701621
B1542063754791N00309408WA0150701622
B1542073754795N00309402WA0150801623
B1542083754799N00309393WA0150701624
B1542093754801N00309383WA0150701623
B1542103754801N00309373WA0150801624
B1542113754799N00309364WA0151101625
B1542123754796N00309356WA0151201627
B1542133754791N00309351WA0151201629
B1542143754785N00309348WA0151101629
B1542153754779N00309345WA0150901626
B1542163754772N00309343WA0150601624
B1542173754766N00309343WA0150501624
B1542183754760N00309345WA0150601623
B1542193754756N00309348WA0150801623
B1542203754754N00309352WA0151001624
B1542213754752N00309355WA0151201625
B1542223754752N00309358WA0151301627
B1542233754753N00309360WA0151401629
B1542243754755N00309362WA0151401629
B1542253754758N00309365WA0151301629
B1542263754763N00309366WA0151201629
B1542273754768N00309368WA0151301629
B1542283754773N00309368WA0151501630
B1542293754777N00309366WA0151701632
B1542303754782N00309364WA0151801634
B1542313754786N00309361WA0151901635
B1542323754790N00309356WA0151901633
B1542333754794N00309350WA0151901633
B1542343754798N00309342WA0152001633
B1542353754801N00309334WA0152001633
B1542363754804N00309326WA0152101634
B1542373754808N00309318WA0152101635
B1542383754811N00309311WA0152201636
B1542393754813N00309303WA0152301637
B1542403754815N00309295WA0152401638
B1542413754815N00309287WA0152301639
B1542423754814N00309279WA0152101639
B1542433754811N00309270WA0151801638
B1542443754808N00309262WA0151401637
B1542453754805N00309254WA0151501636
B1542463754801N00309246WA0151501635
B1542473754797N00309240WA0151401633
B1542483754792N00309234WA0151301632
B1542493754786N00309229WA0151101631
B1542503754780N00309226WA0151001630
B1542513754774N00309225WA0150801628
B1542523754768N00309226WA0150601626
B1542533754762N00309229WA0150501623
B1542543754758N00309232WA0150401622
B1542553754756N00309236WA0150301620
B1542563754754N00309241WA0150201619
B1542573754754N00309247WA0150101617
B1542583754756N00309252WA0150201616
B1542593754759N00309255WA0150201615
B1543003754762N00309257WA0150401616
B1543013754766N00309258WA0150501617
B1543023754770N00309259WA0150601618
B1543033754775N00309258WA0150601619
B1543043754780N00309256WA0150601619
B1543053754784N00309254WA0150601620
B1543063754789N00309252WA0150601620
B1543073754793N00309249WA0150501620
B1543083754797N00309245WA0150201620
B1543093754801N00309241WA0150301619
B1543103754804N00309236WA0150301618
B1543113754806N00309230WA0150101618
B1543123754809N00309224WA0149901616
B1543133754813N00309217WA0149501613
B1543143754816N00309210WA0149301611
B1543153754819N00309202WA0149101609
B1543163754822N00309195WA0149001607
B1543173754825N00309188WA0148901606
B1543183754828N00309181WA0148801605
B1543193754831N00309175WA0148701604
B1543203754834N00309168WA0148601602
B1543213754837N00309161WA0148501601
B1543223754840N00309153WA0148201599
B1543233754843N00309146WA0148001598
B1543243754845N00309138WA0147901596
B1543253754848N00309131WA0147701595
B1543263754851N00309124WA0147601594
B1543273754853N00309117WA0147501592
B1543283754855N00309110WA0147301591
B1543293754857N00309102WA0147001589
B1543303754859N00309094WA0146801586
B1543313754860N00309085WA0146501584
B1543323754862N00309076WA0146301582
B1543333754863N00309066WA0146101579
B1543343754865N00309057WA0146101578
B1543353754868N00309049WA0146101579
B1543363754870N00309041WA0146101580
B1543373754872N00309034WA0146101580
B1543383754875N00309027WA0146101579
B1543393754877N00309018WA0146101578
B1543403754879N00309009WA0146001577
B1543413754880N00309000WA0146101576
B1543423754882N00308992WA0146101577
B1543433754883N00308984WA0146101577
B1543443754885N00308976WA0145801577
B1543453754888N00308967WA0145701577
B1543463754890N00308957WA0145801575
B1543473754892N00308948WA0145701574
B1543483754895N00308939WA0145701573
B1543493754897N00308932WA0145801574
B1543503754899N00308925WA0145801574
B1543513754900N00308917WA0145501573
B1543523754902N00308909WA0145101571
B1543533754903N00308899WA0144701569
B1543543754905N00308891WA0145101568
B1543553754906N00308883WA0145201568
B1543563754907N00308877WA0145301571
B1543573754909N00308872WA0145201571
B1543583754910N00308866WA0145101570
B1543593754912N00308859WA0144801568
B1544003754914N00308851WA0144501565
B1544013754915N00308843WA0144501563
B1544023754915N00308835WA0144401562
B1544033754915N00308829WA0144301562
B1544043754914N00308822WA0143901561
B1544053754913N00308815WA0143801561
B1544063754911N00308807WA0143801559
B1544073754909N00308799WA0143801558
B1544083754906N00308791WA0143601556
B1544093754904N00308784WA0143301554
B1544103754901N00308778WA0143201553
B1544113754900N00308772WA0143001550
B1544123754898N00308766WA0142601546
B1544133754895N00308758WA0142301541
B1544143754892N00308750WA0142001538
B1544153754889N00308743WA0141901535
B1544163754887N00308737WA0141901534
B1544173754885N00308731WA0141801532
B1544183754883N00308726WA0141601531
B1544193754880N00308720WA0141301528
B1544203754877N00308713WA0141001524
B1544213754874N00308706WA0140601521
B1544223754872N00308699WA0140501519
B1544233754870N00308692WA0140401518
B1544243754869N00308686WA0140201516
B1544253754868N00308680WA0139801513
B1544263754866N00308672WA0139501510
B1544273754864N00308664WA0139301507
B1544283754862N00308655WA0139101504
B1544293754862N00308647WA0139101502
B1544303754862N00308639WA0138901500
B1544313754861N00308631WA0138801499
B1544323754860N00308623WA0138401497
B1544333754859N00308614WA0138001495
B1544343754857N00308606WA0137901493
B1544353754856N00308599WA0137901492
B1544363754855N00308592WA0137901491
B1544373754853N00308584WA0138001490
B1544383754850N00308578WA0137701488
B1544393754848N00308570WA0137501484
B1544403754845N00308562WA0137401482
B1544413754843N00308554WA0137301480
B1544423754840N00308546WA0137201479
B1544433754838N00308539WA0137001478
B1544443754836N00308531WA0136801476
B1544453754833N00308523WA0136601474
B1544463754831N00308515WA0136301472
B1544473754829N00308507WA0136301471
B1544483754826N00308499WA0136201469
B1544493754823N00308491WA0136001468
B1544503754820N00308484WA0135801466
B1544513754817N00308476WA0135601464
B1544523754814N00308469WA0135501463
B1544533754811N00308462WA0135301460
B1544543754807N00308455WA0135001458
B1544553754804N00308447WA0134701456
B1544563754802N00308439WA0134501453
B1544573754800N00308430WA0134401451
B1544583754798N00308422WA0134301450
B1544593754797N00308415WA0134201450
B1545003754795N00308408WA0133901448
B1545013754794N00308400WA0133701446
B1545023754792N00308392WA0133301443
B1545033754791N00308383WA0133201440
B1545043754791N00308374WA0133101437
B1545053754792N00308367WA0133001436
B1545063754792N00308360WA0132801434
B1545073754793N00308353WA0132501432
B1545083754794N00308344WA0132201429
B1545093754794N00308336WA0131701426
B1545103754794N00308327WA0131201423
B1545113754794N00308319WA0131101421
B1545123754794N00308312WA0131101419
B1545133754794N00308305WA0130901417
B1545143754794N00308297WA0130601415
B1545153754794N00308288WA0130201411
B1545163754795N00308279WA0130101407
B1545173754796N00308271WA0129901406
B1545183754797N00308263WA0129801404
B1545193754798N00308256WA0129601402
B1545203754798N00308248WA0129301399
B1545213754799N00308240WA0129101397
B1545223754799N00308232WA0128801394
B1545233754799N00308224WA0128501392
B1545243754800N00308217WA0128501389
B1545253754800N00308209WA0128201387
B1545263754800N00308202WA0127901385
B1545273754799N00308194WA0127601382
B1545283754798N00308186WA0127301379
B1545293754798N00308178WA0127001376
B1545303754797N00308171WA0126901373
B1545313754797N00308163WA0126501370
B1545323754797N00308154WA0126201368
B1545333754797N00308146WA0125901365
B1545343754797N00308138WA0125601362
B1545353754797N00308130WA0125301359
B1545363754796N00308122WA0125101356
B1545373754797N00308114WA0124901353
B1545383754797N00308106WA0124701351
B1545393754796N00308099WA0124601349
B1545403754795N00308091WA0124301347
B1545413754794N00308084WA0124001344
B1545423754793N00308076WA0123901341
B1545433754793N00308068WA0123701338
B1545443754792N00308061WA0123601337
B1545453754791N00308055WA0123301335
B1545463754790N00308048WA0123001332
B1545473754788N00308041WA0122701330
B1545483754787N00308033WA0122401326
B1545493754787N00308025WA0122101322
B1545503754787N00308018WA0121901320
B1545513754786N00308011WA0121701317
B1545523754786N00308004WA0121401315
B1545533754786N00307997WA0121101312
B1545543754787N00307989WA0120701309
B1545553754788N00307982WA0120401304
B1545563754788N00307974WA0120001301
B1545573754789N00307967WA0119701298
B1545583754791N00307960WA0119401295
B1545593754793N00307953WA0119201291
B1546003754795N00307945WA0118801288
B1546013754797N00307938WA0118501285
B1546023754799N00307931WA0118201282
B1546033754802N00307924WA0118001279
B1546043754805N00307917WA0117801276
B1546053754808N00307911WA0117501274
B1546063754811N00307904WA0117301271
B1546073754815N00307898WA0117001268
B1546083754819N00307892WA0116801266
B1546093754823N00307886WA0116501263
B1546103754827N00307881WA0116401261
B1546113754831N00307876WA0116201259
B1546123754836N00307871WA0115901257
B1546133754840N00307867WA0115701255
B1546143754845N00307863WA0115501253
B1546153754849N00307859WA0115201250
B1546163754854N00307856WA0115001247
B1546173754860N00307853WA0114601244
B1546183754866N00307850WA0114401241
B1546193754871N00307847WA0114401240
B1546203754875N00307844WA0114301239
B1546213754879N00307840WA0114101238
B1546223754883N00307835WA0113801236
B1546233754885N00307828WA0113601234
B1546243754887N00307820WA0113201231
B1546253754888N00307812WA0113001229
B1546263754888N00307805WA0112801226
B1546273754889N00307798WA0112601225
B1546283754889N00307791WA0112301222
B1546293754888N00307784WA0112001219
B1546303754888N00307777WA0111701216
B1546313754887N00307769WA0111301213
B1546323754886N00307761WA0111001207
B1546333754885N00307753WA0110701204
B1546343754883N00307745WA0110501202
B1546353754882N00307738WA0110101199
B1546363754881N00307730WA0109801195
B1546373754880N00307721WA0109301192
B1546383754878N00307712WA0108901188
B1546393754876N00307702WA0108601184
B1546403754874N00307693WA0108401180
B1546413754872N00307685WA0108201178
B1546423754870N00307677WA0108101176
B1546433754869N00307669WA0107801173
B1546443754867N00307660WA0107501170
B1546453754865N00307651WA0107301167
B1546463754863N00307642WA0107201164
B1546473754861N00307633WA0107101162
B1546483754859N00307626WA0107001161
B1546493754857N00307618WA0106701159
B1546503754856N00307610WA0106401157
B1546513754855N00307601WA0106301154
B1546523754853N00307591WA0105901151
B1546533754851N00307581WA0106001149
B1546543754849N00307572WA0106201148
B1546553754848N00307564WA0106701150
B1546563754846N00307558WA0107301155
B1546573754845N00307553WA0107501159
B1546583754842N00307549WA0107801163
B1546593754838N00307546WA0107901166
B1547003754832N00307543WA0108101167
B1547013754826N00307544WA0108201168
B1547023754821N00307546WA0108501170
B1547033754817N00307549WA0108701173
B1547043754815N00307553WA0108801176
B1547053754815N00307557WA0108901177
B1547063754817N00307562WA0108801176
B1547073754821N00307566WA0108701174
B1547083754826N00307568WA0108601174
B1547093754832N00307567WA0108601174
B1547103754837N00307562WA0108501174
B1547113754841N00307556WA0108501174
B1547123754844N00307549WA0108501174
B1547133754846N00307542WA0108801175
B1547143754848N00307536WA0109101177
B1547153754849N00307532WA0109401181
B1547163754850N00307527WA0109601183
B1547173754849N00307522WA0109601185
B1547183754847N00307515WA0109401184
B1547193754844N00307508WA0109101183
B1547203754840N00307502WA0109501183
B1547213754836N00307499WA0109601184
B1547223754830N00307496WA0109901185
B1547233754825N00307496WA0110101188
B1547243754819N00307498WA0110201190
B1547253754814N00307501WA0110401192
B1547263754810N00307505WA0110501194
B1547273754807N00307510WA0110701195
B1547283754804N00307516WA0110901197
B1547293754803N00307523WA0111101199
B1547303754802N00307529WA0111301202
B1547313754803N00307535WA0111401204
B1547323754805N00307540WA0111301205
B1547333754809N00307544WA0111201206
B1547343754814N00307545WA0110501203
B1547353754821N00307544WA0110601201
B1547363754828N00307541WA0110701199
B1547373754832N00307536WA0110701199
B1547383754835N00307530WA0110701200
B1547393754838N00307523WA0110601199
B1547403754840N00307516WA0110401198
B1547413754842N00307508WA0110301197
B1547423754843N00307499WA0110201196
B1547433754843N00307491WA0110201195
B1547443754842N00307484WA0110301195
B1547453754841N00307478WA0110201196
B1547463754841N00307472WA0110001195
B1547473754841N00307465WA0110001194
B1547483754840N00307458WA0109801192
B1547493754839N00307450WA0109701191
B1547503754838N00307442WA0109801190
B1547513754837N00307435WA0110101192
B1547523754836N00307429WA0110401194
B1547533754836N00307425WA0110601197
B1547543754836N00307421WA0110901199
B1547553754833N00307417WA0110801200
B1547563754828N00307414WA0110601199
B1547573754821N00307412WA0110601198
B1547583754814N00307413WA0110701199
B1547593754808N00307416WA0111001203
B1548003754803N00307420WA0111401206
B1548013754800N00307425WA0111601209
B1548023754797N00307431WA0111801211
B1548033754794N00307438WA0111801212
B1548043754792N00307446WA0112001214
B1548053754792N00307453WA0112101215
B1548063754793N00307460WA0112201217
B1548073754795N00307467WA0112301218
B1548083754797N00307472WA0112501219
B1548093754800N00307475WA0112501220
B1548103754801N00307476WA0112501220
B1548113754804N00307475WA0112301220
B1548123754806N00307474WA0112101218
B1548133754809N00307469WA0111601216
B1548143754812N00307462WA0111301213
B1548153754813N00307454WA0111201211
B1548163754812N00307447WA0111201210
B1548173754811N00307441WA0111201209
B1548183754810N00307435WA0111201209
B1548193754808N00307429WA0111101207
B1548203754805N00307423WA0110901205
B1548213754801N00307415WA0110801203
B1548223754799N00307407WA0110901202
B1548233754797N00307400WA0111201202
B1548243754795N00307394WA0111401203
B1548253754792N00307390WA0111701206
B1548263754789N00307388WA0111901209
B1548273754784N00307388WA0111901209
B1548283754777N00307390WA0111901210
B1548293754771N00307394WA0112101211
B1548303754766N00307398WA0112401213
B1548313754760N00307402WA0112601216
B1548323754756N00307406WA0113001220
B1548333754751N00307410WA0113301223
B1548343754747N00307415WA0113401225
B1548353754745N00307421WA0113501227
B1548363754745N00307429WA0113501227
B1548373754748N00307435WA0113601225
B1548383754753N00307437WA0113501225
B1548393754758N00307435WA0113401226
B1548403754761N00307431WA0113401227
B1548413754763N00307425WA0113501228
B1548423754763N00307419WA0113401229
B1548433754762N00307413WA0113501229
B1548443754760N00307405WA0113601229
B1548453754758N00307398WA0113801230
B1548463754756N00307391WA0113901231
B1548473754755N00307385WA0114301234
B1548483754753N00307381WA0114601237
B1548493754749N00307376WA0114701239
B1548503754745N00307374WA0114801241
B1548513754738N00307374WA0114701240
B1548523754732N00307376WA0114801240
B1548533754726N00307380WA0115201243
B1548543754722N00307383WA0115301245
B1548553754718N00307387WA0115501248
B1548563754714N00307393WA0115801249
B1548573754710N00307400WA0115801251
B1548583754707N00307407WA0115901252
B1548593754704N00307413WA0116201254
B1549003754702N00307418WA0116401257
B1549013754701N00307424WA0116501259
B1549023754700N00307429WA0116501261
B1549033754702N00307433WA0116501261
B1549043754705N00307436WA0116501260
B1549053754710N00307437WA0116501260
B1549063754714N00307435WA0116501260
B1549073754718N00307431WA0116501261
B1549083754721N00307427WA0116501261
B1549093754725N00307422WA0116501261
B1549103754728N00307416WA0116501261
B1549113754731N00307411WA0116501261
B1549123754733N00307404WA0116501261
B1549133754735N00307396WA0116501261
B1549143754735N00307388WA0116501261
B1549153754735N00307378WA0116501260
B1549163754734N00307370WA0116601261
B1549173754732N00307361WA0116801262
B1549183754729N00307354WA0117201265
B1549193754726N00307349WA0117501268
B1549203754723N00307345WA0117601271
B1549213754720N00307341WA0117401272
B1549223754716N00307337WA0117101268
B1549233754711N00307331WA0116401264
B1549243754705N00307325WA0116401261
B1549253754700N00307320WA0116601260
B1549263754696N00307316WA0116801259
B1549273754692N00307312WA0116901261
B1549283754688N00307309WA0116801261
B1549293754683N00307307WA0116701261
B1549303754676N00307307WA0116501259
B1549313754669N00307309WA0116301257
B1549323754662N00307313WA0116301255
B1549333754658N00307318WA0116401256
B1549343754655N00307323WA0116401257
B1549353754653N00307329WA0116201257
B1549363754653N00307337WA0116201257
B1549373754655N00307344WA0116601258
B1549383754657N00307350WA0116801260
B1549393754658N00307354WA0117101262
B1549403754660N00307358WA0117301265
B1549413754662N00307360WA0117501267
B1549423754664N00307361WA0117501268
B1549433754667N00307362WA0117501268
B1549443754671N00307361WA0117301267
B1549453754677N00307359WA0117401267
B1549463754681N00307356WA0117601269
B1549473754684N00307351WA0117901272
B1549483754686N00307345WA0118001274
B1549493754685N00307339WA0118101275
B1549503754683N00307333WA0118101276
B1549513754680N00307328WA0117901276
B1549523754675N00307323WA0117901275
B1549533754670N00307317WA0117801274
B1549543754664N00307314WA0117701273
B1549553754658N00307311WA0117701272
B1549563754652N00307310WA0117801272
B1549573754646N00307310WA0117901275
B1549583754640N00307312WA0117901276
B1549593754635N00307315WA0117901277
B1550003754629N00307319WA0117901277
B1550013754623N00307322WA0118001277
B1550023754617N00307326WA0118101278
B1550033754612N00307331WA0118201279
B1550043754608N00307335WA0118401280
B1550053754605N00307339WA0118601281
B1550063754602N00307344WA0118701282
B1550073754600N00307348WA0118901284
B1550083754599N00307352WA0118901284
B1550093754599N00307356WA0118901285
B1550103754600N00307359WA0118901285
B1550113754603N00307362WA0118701285
B1550123754607N00307363WA0118301283
B1550133754611N00307362WA0118601283
B1550143754616N00307360WA0118601283
B1550153754621N00307357WA0118701283
B1550163754625N00307353WA0118801284
B1550173754629N00307351WA0119101285
B1550183754633N00307350WA0119301287
B1550193754636N00307349WA0119301289
B1550203754640N00307347WA0119401290
B1550213754643N00307343WA0119301290
B1550223754646N00307335WA0119201289
B1550233754648N00307326WA0119101288
B1550243754648N00307317WA0119101288
B1550253754646N00307311WA0119301289
B1550263754644N00307305WA0119401290
B1550273754641N00307301WA0119401291
B1550283754638N00307297WA0119301291
B1550293754634N00307292WA0119001290
B1550303754629N00307288WA0118801287
B1550313754622N00307284WA0118801284
B1550323754616N00307281WA0119101284
B1550333754611N00307279WA0119201285
B1550343754605N00307278WA0119301286
B1550353754600N00307277WA0119401287
B1550363754594N00307277WA0119301287
B1550373754588N00307278WA0119101287
B1550383754581N00307279WA0119001287
B1550393754576N00307282WA0119301288
B1550403754571N00307285WA0119601289
B1550413754568N00307288WA0119701291
B1550423754566N00307292WA0119701292
B1550433754564N00307296WA0119601292
B1550443754565N00307301WA0119501291
B1550453754567N00307305WA0119401290
B1550463754569N00307310WA0119501290
B1550473754570N00307314WA0119601291
B1550483754571N00307317WA0119801291
B1550493754572N00307320WA0119801292
B1550503754574N00307323WA0119801292
B1550513754577N00307324WA0119501290
B1550523754582N00307324WA0119301287
B1550533754588N00307322WA0119301286
B1550543754592N00307320WA0119501287
B1550553754594N00307317WA0119701290
B1550563754597N00307314WA0119801291
B1550573754598N00307312WA0119901292
B1550583754601N00307308WA0119701293
B1550593754603N00307304WA0119301292
B1551003754605N00307299WA0119301291
B1551013754607N00307293WA0119301289
B1551023754610N00307288WA0119401289
B1551033754613N00307283WA0119401290
B1551043754615N00307279WA0119401291
B1551053754617N00307275WA0119501291
B1551063754619N00307269WA0119301291
B1551073754621N00307263WA0119201290
B1551083754624N00307256WA0119101289
B1551093754626N00307249WA0119101288
B1551103754628N00307243WA0119201288
B1551113754628N00307237WA0119101289
B1551123754629N00307231WA0118701288
B1551133754630N00307224WA0118601288
B1551143754631N00307217WA0118601286
B1551153754633N00307211WA0118401284
B1551163754634N00307204WA0118201282
B1551173754636N00307198WA0118101280
B1551183754636N00307190WA0117901279
B1551193754636N00307182WA0117301277
B1551203754635N00307174WA0117301275
B1551213754635N00307167WA0117201273
B1551223754634N00307160WA0116901270
B1551233754634N00307151WA0116901268
B1551243754634N00307143WA0116801267
B1551253754633N00307136WA0116801265
B1551263754632N00307129WA0116701264
B1551273754631N00307123WA0116501263
B1551283754630N00307115WA0116201260
B1551293754628N00307107WA0115701257
B1551303754628N00307100WA0115701255
B1551313754627N00307092WA0115801253
B1551323754626N00307085WA0115601252
B1551333754625N00307078WA0115401250
B1551343754625N00307070WA0115201248
B1551353754625N00307061WA0115001245
B1551363754626N00307051WA0114601242
B1551373754626N00307042WA0114701240
B1551383754626N00307032WA0114701239
B1551393754626N00307023WA0114801240
B1551403754627N00307014WA0114801240
B1551413754627N00307006WA0114701240
B1551423754628N00306997WA0114601240
B1551433754629N00306987WA0114601239
B1551443754630N00306977WA0114601239
B1551453754630N00306968WA0114701239
B1551463754631N00306959WA0114801240
B1551473754631N00306950WA0114801240
B1551483754631N00306941WA0115001241
B1551493754630N00306932WA0115201243
B1551503754630N00306924WA0115501247
B1551513754628N00306917WA0115901250
B1551523754625N00306911WA0116101253
B1551533754620N00306907WA0116101254
B1551543754614N00306905WA0116001255
B1551553754608N00306904WA0116101256
B1551563754604N00306904WA0116201257
B1551573754599N00306905WA0116301258
B1551583754594N00306908WA0116301258
B1551593754590N00306911WA0116301259
B1552003754586N00306915WA0116201259
B1552013754585N00306920WA0116301259
B1552023754585N00306925WA0116301258
B1552033754587N00306929WA0116301259
B1552043754589N00306931WA0116401259
B1552053754593N00306932WA0116401259
B1552063754597N00306932WA0116501260
B1552073754601N00306931WA0116501260
B1552083754605N00306930WA0116501260
B1552093754609N00306928WA0116501260
B1552103754614N00306925WA0116501261
B1552113754618N00306922WA0116601261
B1552123754622N00306918WA0116601261
B1552133754626N00306914WA0116701262
B1552143754630N00306910WA0116801262
B1552153754634N00306905WA0116801263
B1552163754637N00306899WA0116801263
B1552173754640N00306892WA0116801263
B1552183754642N00306884WA0116801263
B1552193754644N00306876WA0116801263
B1552203754645N00306868WA0116901264
B1552213754647N00306860WA0117001265
B1552223754648N00306853WA0117001266
B1552233754650N00306845WA0117001266
B1552243754651N00306837WA0117001266
B1552253754652N00306830WA0117101266
B1552263754652N00306822WA0117201267
B1552273754651N00306814WA0117101267
B1552283754650N00306806WA0116901267
B1552293754647N00306797WA0117001267
B1552303754643N00306789WA0117001266
B1552313754639N00306782WA0117101267
B1552323754634N00306776WA0117501268
B1552333754629N00306771WA0117801271
B1552343754625N00306769WA0117901276
B1552353754622N00306767WA0118101278
B1552363754618N00306769WA0118201280
B1552373754616N00306773WA0118101280
B1552383754616N00306778WA0117901280
B1552393754617N00306783WA0117901279
B1552403754620N00306786WA0118001279
B1552413754623N00306788WA0118401281
B1552423754627N00306787WA0118601282
B1552433754631N00306783WA0118501283
B1552443754635N00306777WA0118601284
B1552453754638N00306769WA0118701285
B1552463754640N00306760WA0118801286
B1552473754641N00306751WA0118901287
B1552483754642N00306743WA0119001288
B1552493754642N00306735WA0119101289
B1552503754641N00306726WA0119101288
B1552513754640N00306716WA0119001287
B1552523754638N00306707WA0119001286
B1552533754634N00306698WA0119101287
B1552543754630N00306690WA0119301288
B1552553754626N00306684WA0119301289
B1552563754622N00306678WA0119601291
B1552573754617N00306673WA0119701292
B1552583754612N00306669WA0119801293
B1552593754607N00306666WA0119901294
B1553003754602N00306666WA0119801295
B1553013754598N00306668WA0119801295
B1553023754594N00306672WA0119801295
B1553033754592N00306677WA0119801295
B1553043754590N00306681WA0119601296
B1553053754590N00306684WA0120201298
B1553063754592N00306686WA0120401300
B1553073754594N00306687WA0120401301
B1553083754598N00306687WA0120301301
B1553093754602N00306686WA0120201301
B1553103754607N00306682WA0120101300
B1553113754612N00306677WA0120101300
B1553123754617N00306671WA0120301300
B1553133754622N00306665WA0120501302
B1553143754625N00306658WA0120801304
B1553153754628N00306651WA0121001307
B1553163754631N00306645WA0121201309
B1553173754632N00306637WA0121301310
B1553183754634N00306629WA0121201311
B1553193754635N00306621WA0121301311
B1553203754636N00306613WA0121301311
B1553213754638N00306604WA0121401311
B1553223754639N00306595WA0121501312
B1553233754638N00306588WA0121601314
B1553243754637N00306580WA0121601315
B1553253754635N00306573WA0121501315
B1553263754632N00306566WA0121101314
B1553273754627N00306560WA0121001313
B1553283754622N00306555WA0121201312
B1553293754616N00306551WA0121301312
B1553303754611N00306548WA0121401313
B1553313754606N00306547WA0121501314
B1553323754601N00306547WA0121501315
B1553333754597N00306549WA0121501315
B1553343754594N00306552WA0121301315
B1553353754591N00306556WA0121301314
B1553363754588N00306560WA0121401314
B1553373754586N00306564WA0121501314
B1553383754584N00306568WA0121701316
B1553393754582N00306572WA0121801317
B1553403754581N00306576WA0121901318
B1553413754580N00306580WA0122001318
B1553423754580N00306584WA0122101319
B1553433754579N00306588WA0122201320
B1553443754579N00306592WA0122201321
B1553453754579N00306596WA0122301321
B1553463754581N00306600WA0122401322
B1553473754582N00306603WA0122501323
B1553483754584N00306605WA0122601324
B1553493754587N00306606WA0122701325
B1553503754592N00306606WA0122801326
B1553513754597N00306605WA0122801326
B1553523754602N00306602WA0122901326
B1553533754606N00306598WA0123001327
B1553543754609N00306592WA0123101328
B1553553754612N00306586WA0123101330
B1553563754614N00306579WA0123001330
B1553573754615N00306571WA0123001331
B1553583754614N00306562WA0122801331
B1553593754613N00306553WA0122701329
B1554003754610N00306544WA0122701327
B1554013754606N00306536WA0122701326
B1554023754602N00306530WA0122801326
B1554033754598N00306525WA0122901326
B1554043754594N00306521WA0122901327
B1554053754590N00306519WA0122801328
B1554063754585N00306518WA0122601326
B1554073754579N00306520WA0122201324
B1554083754575N00306521WA0122301323
B1554093754571N00306523WA0122601324
B1554103754569N00306526WA0122801324
B1554113754567N00306529WA0122801324
B1554123754566N00306532WA0122701324
B1554133754565N00306537WA0122701323
B1554143754565N00306542WA0122601323
B1554153754565N00306547WA0122601323
B1554163754565N00306551WA0122701323
B1554173754565N00306556WA0122801324
B1554183754565N00306560WA0122801324
B1554193754566N00306565WA0122801325
B1554203754566N00306569WA0122901326
B1554213754567N00306573WA0123001326
B1554223754568N00306576WA0123001327
B1554233754568N00306581WA0122901326
B1554243754568N00306585WA0122801325
B1554253754569N00306590WA0122801324
B1554263754570N00306594WA0122801324
B1554273754571N00306598WA0122701324
B1554283754574N00306601WA0122601324
B1554293754578N00306603WA0122201323
B1554303754582N00306602WA0122001321
B1554313754586N00306600WA0122201320
B1554323754590N00306597WA0122001318
B1554333754594N00306595WA0122001318
B1554343754597N00306591WA0121901317
B1554353754601N00306587WA0121701316
B1554363754605N00306582WA0121501315
B1554373754608N00306577WA0121401314
B1554383754611N00306571WA0121201312
B1554393754614N00306566WA0120801311
B1554403754617N00306561WA0120701308
B1554413754620N00306555WA0120701306
B1554423754623N00306548WA0120401303
B1554433754626N00306542WA0120101301
B1554443754628N00306535WA0119901298
B1554453754629N00306528WA0119701296
B1554463754630N00306520WA0119301293
B1554473754632N00306511WA0118901290
B1554483754634N00306503WA0118901287
B1554493754634N00306495WA0118601285
B1554503754634N00306487WA0118501283
B1554513754634N00306480WA0118301282
B1554523754634N00306473WA0118001280
B1554533754634N00306464WA0117801278
B1554543754634N00306455WA0117501274
B1554553754634N00306445WA0117101271
B1554563754634N00306436WA0117001268
B1554573754634N00306427WA0116901267
B1554583754635N00306420WA0116801267
B1554593754635N00306412WA0116401265
B1555003754636N00306404WA0116001263
B1555013754635N00306394WA0116001261
B1555023754635N00306385WA0115901258
B1555033754635N00306376WA0115801256
B1555043754636N00306367WA0115601254
B1555053754637N00306359WA0115401252
B1555063754638N00306351WA0115201250
B1555073754640N00306343WA0115201248
B1555083754641N00306334WA0115001246
B1555093754642N00306326WA0114701244
B1555103754644N00306318WA0114501241
B1555113754645N00306309WA0114201238
B1555123754647N00306301WA0113901236
B1555133754649N00306292WA0113801233
B1555143754650N00306283WA0113801232
B1555153754651N00306275WA0113801230
B1555163754653N00306267WA0113501229
B1555173754654N00306259WA0113401228
B1555183754655N00306249WA0113001226
B1555193754656N00306240WA0112801223
B1555203754657N00306230WA0112601220
B1555213754658N00306221WA0112501219
B1555223754658N00306213WA0112401218
B1555233754659N00306205WA0112201216
B1555243754659N00306195WA0111801214
B1555253754660N00306185WA0111201212
B1555263754659N00306176WA0110901209
B1555273754659N00306167WA0110901207
B1555283754657N00306159WA0110801206
B1555293754655N00306151WA0110901204
B1555303754653N00306142WA0110801202
B1555313754652N00306133WA0110701200
B1555323754650N00306124WA0110601200
B1555333754649N00306116WA0110701200
B1555343754648N00306109WA0110701199
B1555353754648N00306101WA0110601198
B1555363754648N00306092WA0110301197
B1555373754648N00306083WA0110201195
B1555383754646N00306075WA0110101194
B1555393754644N00306067WA0110001193
B1555403754642N00306059WA0109701191
B1555413754640N00306050WA0109301189
B1555423754638N00306041WA0109301187
B1555433754636N00306031WA0109101184
B1555443754633N00306022WA0109001183
B1555453754631N00306013WA0109001182
B1555463754629N00306005WA0109001182
B1555473754627N00305996WA0109001181
B1555483754626N00305987WA0108901180
B1555493754624N00305977WA0109101181
B1555503754623N00305969WA0109401182
B1555513754622N00305962WA0109501184
B1555523754621N00305954WA0109501185
B1555533754619N00305946WA0109501185
B1555543754618N00305936WA0109501185
B1555553754617N00305926WA0109701186
B1555563754616N00305916WA0110001189
B1555573754616N00305907WA0110401192
B1555583754615N00305899WA0110901196
B1555593754614N00305892WA0111201200
B1556003754611N00305886WA0111601204
B1556013754607N00305881WA0111801207
B1556023754601N00305878WA0111901209
B1556033754594N00305878WA0112001210
B1556043754588N00305881WA0112301212
B1556053754584N00305885WA0112501214
B1556063754582N00305891WA0112701216
B1556073754582N00305896WA0113001219
B1556083754584N00305900WA0113301221
B1556093754587N00305904WA0113601223
B1556103754591N00305905WA0113901227
B1556113754594N00305903WA0114201231
B1556123754598N00305899WA0114501234
B1556133754601N00305892WA0114601236
B1556143754604N00305884WA0114701238
B1556153754605N00305875WA0115001240
B1556163754606N00305866WA0115201243
B1556173754606N00305858WA0115501247
B1556183754604N00305850WA0115801250
B1556193754601N00305842WA0116101252
B1556203754597N00305836WA0116401255
B1556213754592N00305831WA0116501258
B1556223754587N00305828WA0116601260
B1556233754581N00305828WA0116801262
B1556243754575N00305830WA0116901264
B1556253754570N00305834WA0117001265
B1556263754567N00305840WA0117301266
B1556273754566N00305846WA0117501268
B1556283754566N00305850WA0117901271
B1556293754568N00305854WA0118201274
B1556303754571N00305856WA0118501277
B1556313754575N00305856WA0118701279
B1556323754579N00305854WA0119001282
B1556333754583N00305851WA0119201284
B1556343754587N00305847WA0119401287
B1556353754591N00305841WA0119601290
B1556363754593N00305833WA0119801292
B1556373754594N00305824WA0119801294
B1556383754594N00305815WA0120101295
B1556393754592N00305807WA0120501297
B1556403754590N00305800WA0120801303
B1556413754587N00305796WA0121001308
B1556423754584N00305793WA0121101310
B1556433754579N00305790WA0121101311
B1556443754573N00305788WA0121101312
B1556453754565N00305787WA0121201313
B1556463754559N00305787WA0121501315
B1556473754554N00305789WA0121701317
B1556483754550N00305793WA0121801319
B1556493754548N00305798WA0121901321
B1556503754547N00305803WA0122001321
B1556513754547N00305808WA0122201322
B1556523754548N00305812WA0122501324
B1556533754550N00305815WA0122901326
B1556543754554N00305816WA0123201329
B1556553754557N00305815WA0123401332
B1556563754560N00305812WA0123601334
B1556573754564N00305806WA0123701336
B1556583754566N00305799WA0123801337
B1556593754568N00305789WA0123901338
B1557003754567N00305779WA0124101340
B1557013754566N00305770WA0124501342
B1557023754563N00305763WA0124901347
B1557033754559N00305758WA0125301353
B1557043754555N00305755WA0125501356
B1557053754551N00305752WA0125401356
B1557063754546N00305750WA0125201356
B1557073754540N00305751WA0125301354
B1557083754533N00305753WA0125301354
B1557093754528N00305756WA0125501354
B1557103754523N00305758WA0125701356
B1557113754520N00305761WA0125901358
B1557123754517N00305765WA0126001360
B1557133754516N00305770WA0126001361
B1557143754515N00305776WA0125901361
B1557153754515N00305783WA0125901360
B1557163754515N00305789WA0126101361
B1557173754516N00305795WA0126501363
B1557183754518N00305798WA0126901365
B1557193754520N00305799WA0127101367
B1557203754522N00305798WA0127201369
B1557213754526N00305795WA0127201370
B1557223754531N00305789WA0127101369
B1557233754535N00305781WA0127201369
B1557243754537N00305773WA0127501372
B1557253754538N00305766WA0128001377
B1557263754537N00305759WA0128201380
B1557273754534N00305752WA0128301382
B1557283754529N00305746WA0128501382
B1557293754522N00305741WA0128601383
B1557303754515N00305739WA0128901386
B1557313754510N00305740WA0129001389
B1557323754506N00305743WA0129101391
B1557333754503N00305747WA0129201392
B1557343754501N00305753WA0129301393
B1557353754500N00305758WA0129401394
B1557363754499N00305764WA0129401395
B1557373754500N00305768WA0129601397
B1557383754501N00305772WA0129801398
B1557393754502N00305776WA0130001400
B1557403754503N00305778WA0130201402
B1557413754505N00305779WA0130201403
B1557423754508N00305778WA0130101403
B1557433754512N00305777WA0129701403
B1557443754517N00305773WA0130001402
B1557453754522N00305769WA0130201402
B1557463754525N00305763WA0130201403
B1557473754527N00305757WA0130201404
B1557483754529N00305750WA0130201405
B1557493754530N00305741WA0130201405
B1557503754531N00305732WA0130201405
B1557513754532N00305722WA0130201404
B1557523754533N00305712WA0130301405
B1557533754532N00305703WA0130501406
B1557543754530N00305694WA0130701409
B1557553754527N00305687WA0130801412
B1557563754523N00305680WA0130901412
B1557573754517N00305673WA0130801413
B1557583754511N00305667WA0130401413
B1557593754505N00305662WA0130801413
B1558003754499N00305660WA0131001415
B1558013754494N00305658WA0131201417
B1558023754489N00305658WA0131401419
B1558033754484N00305659WA0131601421
B1558043754480N00305663WA0131701422
B1558053754478N00305667WA0131801423
B1558063754476N00305672WA0132001424
B1558073754476N00305677WA0132001425
B1558083754477N00305683WA0132201427
B1558093754479N00305688WA0132301428
B1558103754481N00305693WA0132701429
B1558113754484N00305696WA0133001432
B1558123754487N00305697WA0133201436
B1558133754490N00305696WA0133201438
B1558143754494N00305693WA0133101437
B1558153754500N00305688WA0132801435
B1558163754504N00305682WA0132901434
B1558173754507N00305675WA0133201436
B1558183754508N00305668WA0133501438
B1558193754506N00305661WA0133601440
B1558203754503N00305654WA0133701441
B1558213754498N00305647WA0133601442
B1558223754492N00305641WA0133701442
B1558233754486N00305636WA0133701443
B1558243754481N00305633WA0133901445
B1558253754476N00305630WA0134001447
B1558263754471N00305629WA0134101448
B1558273754464N00305629WA0134201449
B1558283754457N00305631WA0134301449
B1558293754451N00305633WA0134501450
B1558303754446N00305637WA0134901452
B1558313754442N00305639WA0135201456
B1558323754439N00305643WA0135501459
B1558333754437N00305647WA0135601462
B1558343754437N00305653WA0135601463
B1558353754439N00305660WA0135701463
B1558363754443N00305665WA0135901464
B1558373754446N00305669WA0136201467
B1558383754450N00305671WA0136501470
B1558393754454N00305670WA0136701472
B1558403754458N00305667WA0136801473
B1558413754462N00305662WA0136801474
B1558423754464N00305655WA0136901475
B1558433754464N00305647WA0137001476
B1558443754464N00305640WA0137201477
B1558453754462N00305633WA0137301479
B1558463754459N00305627WA0137401480
B1558473754454N00305621WA0137401480
B1558483754448N00305617WA0137401481
B1558493754442N00305614WA0137501482
B1558503754435N00305613WA0137901484
B1558513754431N00305614WA0138201489
B1558523754427N00305615WA0138501492
B1558533754423N00305619WA0138701494
B1558543754420N00305624WA0138901495
B1558553754417N00305630WA0139001497
B1558563754416N00305637WA0139201499
B1558573754417N00305642WA0139501502
B1558583754418N00305647WA0139601505
B1558593754421N00305651WA0139801507
B1559003754425N00305654WA0139801508
B1559013754429N00305655WA0139901508
B1559023754434N00305655WA0140001509
B1559033754439N00305652WA0140001509
B1559043754443N00305649WA0139801510
B1559053754447N00305644WA0139801511
B1559063754450N00305640WA0140201512
B1559073754453N00305635WA0140301513
B1559083754454N00305629WA0140101513
B1559093754454N00305621WA0140001513
B1559103754451N00305613WA0139601510
B1559113754447N00305605WA0139301506
B1559123754441N00305597WA0139401503
B1559133754437N00305591WA0139501502
B1559143754433N00305585WA0139601503
B1559153754429N00305581WA0139801504
B1559163754424N00305577WA0139801505
B1559173754419N00305573WA0139801505
B1559183754413N00305571WA0139801505
B1559193754406N00305570WA0139901506
B1559203754400N00305571WA0140001507
B1559213754395N00305573WA0140201508
B1559223754390N00305576WA0140401511
B1559233754387N00305579WA0140501513
B1559243754384N00305583WA0140801515
B1559253754381N00305588WA0140801517
B1559263754379N00305593WA0141001518
B1559273754377N00305599WA0141101519
B1559283754376N00305605WA0141301521
B1559293754376N00305611WA0141501523
B1559303754375N00305618WA0141701525
B1559313754375N00305624WA0141901528
B1559323754375N00305630WA0142301530
B1559333754376N00305634WA0142601533
B1559343754378N00305638WA0142801535
B1559353754382N00305640WA0142601534
B1559363754388N00305639WA0142501534
B1559373754393N00305636WA0142601533
B1559383754397N00305630WA0142701535
B1559393754399N00305625WA0143001537
B1559403754399N00305619WA0143101539
B1559413754397N00305613WA0143101540
B1559423754395N00305606WA0143001541
B1559433754392N00305598WA0143101541
B1559443754389N00305589WA0143201541
B1559453754385N00305582WA0143501542
B1559463754381N00305577WA0143701545
B1559473754377N00305574WA0143801547
B1559483754372N00305572WA0143801547
B1559493754367N00305573WA0143701547
B1559503754361N00305577WA0143701547
B1559513754355N00305582WA0143901548
B1559523754352N00305586WA0144301553
B1559533754349N00305589WA0144601557
B1559543754346N00305591WA0144901560
B1559553754345N00305595WA0144901561
B1559563754344N00305599WA0145001562
B1559573754343N00305605WA0144901562
B1559583754343N00305611WA0145001561
B1559593754343N00305615WA0145101562
B1600003754343N00305619WA0145201563
B1600013754343N00305622WA0145301564
B1600023754344N00305624WA0145101564
B1600033754346N00305627WA0144601561
B1600043754350N00305629WA0144201558
B1600053754356N00305630WA0144301555
B1600063754362N00305629WA0144201553
B1600073754367N00305627WA0144201552
B1600083754371N00305625WA0144201552
B1600093754376N00305622WA0144201552
B1600103754380N00305618WA0143801551
B1600113754384N00305613WA0143801550
B1600123754388N00305606WA0143801548
B1600133754392N00305598WA0143801548
B1600143754395N00305590WA0143901548
B1600153754397N00305583WA0144101550
B1600163754399N00305577WA0144301553
B1600173754399N00305571WA0144401554
B1600183754399N00305563WA0144301555
B1600193754398N00305553WA0144101555
B1600203754397N00305543WA0144001554
B1600213754396N00305532WA0144101554
B1600223754395N00305524WA0144401555
B1600233754394N00305517WA0144601557
B1600243754393N00305511WA0144801559
B1600253754391N00305505WA0144701560
B1600263754388N00305498WA0144501558
B1600273754384N00305492WA0144301556
B1600283754379N00305485WA0143901554
B1600293754373N00305480WA0143801553
B1600303754367N00305476WA0144001552
B1600313754360N00305473WA0144201553
B1600323754355N00305472WA0144301554
B1600333754349N00305471WA0144401556
B1600343754345N00305471WA0144401556
B1600353754341N00305474WA0144301556
B1600363754337N00305478WA0144101555
B1600373754335N00305483WA0144001553
B1600383754333N00305488WA0144101553
B1600393754331N00305493WA0144101554
B1600403754330N00305498WA0144001553
B1600413754330N00305503WA0143901552
B1600423754332N00305508WA0144001552
B1600433754334N00305511WA0144101553
B1600443754336N00305514WA0144201553
B1600453754339N00305515WA0144101553
B1600463754343N00305515WA0144001553
B1600473754347N00305515WA0143901552
B1600483754352N00305512WA0143801551
B1600493754357N00305508WA0143801550
B1600503754362N00305504WA0143501549
B1600513754366N00305499WA0143501550
B1600523754370N00305495WA0143801552
B1600533754373N00305489WA0143801553
B1600543754376N00305483WA0143901553
B1600553754380N00305477WA0143901553
B1600563754384N00305471WA0143801553
B1600573754388N00305466WA0143801552
B1600583754393N00305460WA0143901553
B1600593754396N00305454WA0144001554
B1601003754398N00305447WA0144101555
B1601013754399N00305441WA0144101555
B1601023754400N00305435WA0143901555
B1601033754402N00305428WA0143801553
B1601043754403N00305421WA0143601551
B1601053754405N00305412WA0143401549
B1601063754406N00305404WA0143401548
B1601073754406N00305396WA0143401548
B1601083754406N00305389WA0143401547
B1601093754405N00305382WA0143301547
B1601103754404N00305374WA0143101546
B1601113754403N00305367WA0143001544
B1601123754402N00305358WA0143001542
B1601133754401N00305350WA0142901541
B1601143754401N00305341WA0142901541
B1601153754400N00305334WA0142801541
B1601163754401N00305326WA0142501541
B1601173754400N00305318WA0142601541
B1601183754399N00305308WA0142701540
B1601193754398N00305299WA0142501539
B1601203754398N00305290WA0142601539
B1601213754397N00305282WA0142601539
B1601223754397N00305274WA0142501539
B1601233754396N00305265WA0142501538
B1601243754395N00305256WA0142401538
B1601253754393N00305247WA0142401537
B1601263754391N00305238WA0142601538
B1601273754388N00305231WA0142701538
B1601283754386N00305223WA0142801539
B1601293754384N00305215WA0142901540
B1601303754381N00305207WA0142901540
B1601313754378N00305200WA0143001541
B1601323754374N00305193WA0143001541
B1601333754369N00305186WA0142901540
B1601343754362N00305180WA0142801540
B1601353754355N00305174WA0142801540
B1601363754347N00305170WA0142801539
B1601373754340N00305167WA0142901540
B1601383754333N00305166WA0142901541
B1601393754327N00305165WA0142901542
B1601403754321N00305166WA0142801541
B1601413754315N00305169WA0142701541
B1601423754311N00305173WA0142501540
B1601433754308N00305178WA0142501539
B1601443754306N00305183WA0142501539
B1601453754304N00305186WA0142701540
B1601463754302N00305189WA0142701540
B1601473754302N00305192WA0142601540
B1601483754302N00305197WA0142301539
B1601493754304N00305201WA0141801536
B1601503754309N00305204WA0142001535
B1601513754314N00305204WA0142101534
B1601523754319N00305202WA0142301534
B1601533754322N00305200WA0142501537
B1601543754324N00305196WA0142701539
B1601553754326N00305192WA0142601540
B1601563754329N00305185WA0142401539
B1601573754331N00305177WA0142101536
B1601583754334N00305169WA0142101534
B1601593754335N00305161WA0142301535
B1602003754335N00305154WA0142401537
B1602013754334N00305146WA0142501537
B1602023754333N00305139WA0142401537
B1602033754332N00305130WA0142101536
B1602043754331N00305120WA0141701534
B1602053754329N00305110WA0142001533
B1602063754326N00305100WA0142001533
B1602073754324N00305091WA0142201534
B1602083754320N00305083WA0142201535
B1602093754316N00305075WA0142301536
B1602103754311N00305068WA0142201535
B1602113754305N00305060WA0142001535
B1602123754298N00305054WA0142001534
B1602133754291N00305048WA0142001533
B1602143754285N00305044WA0142001534
B1602153754278N00305040WA0142101534
B1602163754272N00305038WA0142001534
B1602173754266N00305037WA0141601532
B1602183754260N00305039WA0141401530
B1602193754255N00305043WA0141301528
B1602203754250N00305048WA0141101525
B1602213754245N00305052WA0141001524
B1602223754240N00305056WA0141201524
B1602233754236N00305059WA0141201525
B1602243754233N00305062WA0141201525
B1602253754232N00305066WA0141101525
B1602263754231N00305070WA0140901522
B1602273754232N00305075WA0140801521
B1602283754234N00305079WA0140701519
B1602293754236N00305081WA0140701518
B1602303754238N00305082WA0140701518
B1602313754240N00305083WA0140701517
B1602323754243N00305084WA0140201516
B1602333754247N00305083WA0139901515
B1602343754252N00305079WA0140101513
B1602353754257N00305073WA0140401513
B1602363754260N00305067WA0140601515
B1602373754262N00305060WA0140901518
B1602383754263N00305054WA0141101521
B1602393754263N00305047WA0141201523
B1602403754262N00305038WA0141201524
B1602413754259N00305029WA0141101525
B1602423754255N00305020WA0141101525
B1602433754250N00305012WA0141201525
B1602443754246N00305007WA0141301527
B1602453754241N00305003WA0141401528
B1602463754235N00305001WA0141201527
B1602473754228N00304999WA0141001525
B1602483754220N00304998WA0140901523
B1602493754213N00304998WA0140901522
B1602503754206N00305000WA0141001522
B1602513754201N00305002WA0141001522
B1602523754197N00305005WA0140901522
B1602533754194N00305009WA0140601521
B1602543754192N00305014WA0140301519
B1602553754190N00305020WA0140201518
B1602563754189N00305025WA0140201517
B1602573754190N00305030WA0140201516
B1602583754190N00305035WA0140201515
B1602593754190N00305039WA0140301514
B1603003754191N00305042WA0140301515
B1603013754193N00305044WA0140301514
B1603023754196N00305044WA0140301514
B1603033754201N00305043WA0140201513
B1603043754205N00305041WA0140201513
B1603053754208N00305038WA0140401514
B1603063754211N00305034WA0140501515
B1603073754213N00305029WA0140501515
B1603083754215N00305024WA0140401515
B1603093754218N00305017WA0139901514
B1603103754220N00305010WA0140001513
B1603113754222N00305002WA0140001512
B1603123754224N00304994WA0140101512
B1603133754226N00304986WA0140101512
B1603143754228N00304979WA0140201512
B1603153754230N00304971WA0140301513
B1603163754232N00304965WA0140301513
B1603173754235N00304959WA0140301514
B1603183754236N00304951WA0140201513
B1603193754237N00304942WA0140101512
B1603203754237N00304933WA0140001511
B1603213754236N00304923WA0139901510
B1603223754234N00304913WA0139901510
B1603233754233N00304905WA0139801509
B1603243754233N00304897WA0139401507
B1603253754232N00304887WA0139101505
B1603263754231N00304877WA0138901502
B1603273754231N00304867WA0138701499
B1603283754230N00304857WA0138401497
B1603293754229N00304847WA0138201494
B1603303754228N00304838WA0138201493
B1603313754228N00304829WA0138301494
B1603323754226N00304822WA0138201493
B1603333754225N00304813WA0137901492
B1603343754223N00304803WA0137701491
B1603353754221N00304793WA0137501489
B1603363754218N00304784WA0137501488
B1603373754216N00304775WA0137501487
B1603383754213N00304767WA0137301485
B1603393754210N00304759WA0137101483
B1603403754208N00304750WA0136801481
B1603413754205N00304740WA0136601478
B1603423754203N00304730WA0136601476
B1603433754201N00304721WA0136601474
B1603443754200N00304712WA0136501474
B1603453754200N00304703WA0136301472
B1603463754200N00304694WA0136101470
B1603473754200N00304684WA0135901468
B1603483754199N00304673WA0135801466
B1603493754198N00304663WA0135701465
B1603503754197N00304653WA0135601464
B1603513754196N00304644WA0135601463
B1603523754196N00304634WA0135401462
B1603533754196N00304623WA0135201460
B1603543754196N00304613WA0135101458
B1603553754197N00304603WA0135101458
B1603563754198N00304594WA0135001457
B1603573754199N00304586WA0135001457
B1603583754201N00304577WA0135001457
B1603593754202N00304569WA0134801456
B1604003754204N00304560WA0134301454
B1604013754206N00304551WA0134501452
B1604023754209N00304542WA0134501452
B1604033754212N00304535WA0134601451
B1604043754214N00304527WA0134601451
B1604053754216N00304519WA0134501450
B1604063754217N00304510WA0134501450
B1604073754219N00304501WA0134501449
B1604083754220N00304492WA0134401448
B1604093754222N00304483WA0134401448
B1604103754223N00304474WA0134401448
B1604113754225N00304465WA0134201449
B1604123754226N00304457WA0134201450
B1604133754228N00304448WA0134201449
B1604143754230N00304439WA0134101447
B1604153754233N00304430WA0134001447
B1604163754235N00304420WA0134001446
B1604173754237N00304411WA0133901447
B1604183754239N00304402WA0134001447
B1604193754241N00304394WA0133701447
B1604203754243N00304385WA0133701447
B1604213754245N00304376WA0133701446
B1604223754247N00304367WA0133801445
B1604233754249N00304359WA0133701445
B1604243754252N00304351WA0133501445
B1604253754255N00304344WA0133501444
B1604263754257N00304336WA0133601444
B1604273754259N00304328WA0133601443
B1604283754262N00304322WA0133501442
B1604293754265N00304315WA0133501441
B1604303754268N00304310WA0133401440
B1604313754271N00304304WA0133301440
B1604323754274N00304300WA0132801439
B1604333754278N00304294WA0132301436
B1604343754282N00304289WA0132201433
B1604353754285N00304284WA0132001430
B1604363754288N00304279WA0132001427
B1604373754291N00304274WA0131801425
B1604383754293N00304270WA0131501423
B1604393754296N00304264WA0131201421
B1604403754299N00304258WA0131001417
B1604413754302N00304251WA0130801415
B1604423754304N00304245WA0130801414
B1604433754306N00304240WA0130601412
B1604443754307N00304234WA0130301411
B1604453754309N00304229WA0130101408
B1604463754312N00304223WA0129701405
B1604473754315N00304217WA0129401402
B1604483754318N00304211WA0129101399
B1604493754322N00304205WA0128701396
B1604503754326N00304199WA0128701394
B1604513754330N00304193WA0128601392
B1604523754332N00304186WA0128501390
B1604533754334N00304179WA0128501389
B1604543754336N00304172WA0128401388
B1604553754337N00304165WA0128101387
B1604563754339N00304158WA0128001385
B1604573754341N00304150WA0127701382
B1604583754342N00304141WA0127401379
B1604593754343N00304132WA0127301377
B1605003754344N00304123WA0127301376
B1605013754345N00304115WA0127101375
B1605023754346N00304108WA0127001374
B1605033754347N00304099WA0126801372
B1605043754347N00304091WA0126501370
B1605053754348N00304081WA0126301367
B1605063754348N00304071WA0126101365
B1605073754347N00304061WA0126001363
B1605083754346N00304051WA0125901362
B1605093754346N00304042WA0125801362
B1605103754347N00304033WA0125601360
B1605113754347N00304023WA0125501358
B1605123754347N00304014WA0125401357
B1605133754347N00304006WA0125301356
B1605143754348N00303997WA0125101354
B1605153754349N00303989WA0124701352
B1605163754350N00303979WA0124201348
B1605173754351N00303969WA0123801344
B1605183754351N00303958WA0123701341
B1605193754350N00303948WA0123601338
B1605203754349N00303938WA0123501337
B1605213754349N00303929WA0123401336
B1605223754349N00303920WA0123101334
B1605233754348N00303910WA0122901332
B1605243754346N00303900WA0122601329
B1605253754344N00303890WA0122301326
B1605263754342N00303880WA0122201323
B1605273754340N00303870WA0122001321
B1605283754340N00303861WA0121801319
B1605293754339N00303851WA0121501316
B1605303754339N00303840WA0121301314
B1605313754338N00303829WA0121301312
B1605323754337N00303819WA0121601314
B1605333754336N00303811WA0121801316
B1605343754336N00303804WA0121801317
B1605353754336N00303796WA0121801317
B1605363754336N00303786WA0121601316
B1605373754336N00303776WA0121501315
B1605383754336N00303767WA0121601315
B1605393754336N00303758WA0121801316
B1605403754336N00303750WA0121901317
B1605413754336N00303741WA0121901318
B1605423754336N00303732WA0121801317
B1605433754336N00303722WA0121701317
B1605443754336N00303712WA0121801316
B1605453754336N00303702WA0121901317
B1605463754335N00303694WA0122001318
B1605473754335N00303686WA0122001319
B1605483754335N00303677WA0121901318
B1605493754335N00303668WA0121701317
B1605503754334N00303658WA0121601316
B1605513754334N00303648WA0121601315
B1605523754333N00303639WA0121601315
B1605533754333N00303630WA0121601316
B1605543754332N00303621WA0121601316
B1605553754332N00303612WA0121601316
B1605563754331N00303603WA0121501315
B1605573754330N00303594WA0121301314
B1605583754330N00303584WA0121001313
B1605593754330N00303575WA0120801312
B1606003754330N00303565WA0121101311
B1606013754329N00303556WA0121101311
B1606023754328N00303548WA0121001310
B1606033754327N00303539WA0120801309
B1606043754327N00303529WA0120701307
B1606053754326N00303520WA0120601305
B1606063754325N00303511WA0120501304
B1606073754323N00303501WA0120401302
B1606083754322N00303492WA0120301301
B1606093754321N00303483WA0120201300
B1606103754321N00303474WA0120101299
B1606113754320N00303464WA0119901297
B1606123754318N00303455WA0119801296
B1606133754317N00303446WA0119701295
B1606143754314N00303437WA0119501294
B1606153754312N00303428WA0119401293
B1606163754311N00303419WA0119201291
B1606173754310N00303409WA0119001289
B1606183754309N00303399WA0118901288
B1606193754307N00303390WA0118701286
B1606203754307N00303380WA0118501284
B1606213754307N00303370WA0118301283
B1606223754307N00303360WA0118101281
B1606233754308N00303350WA0118001279
B1606243754308N00303340WA0117901278
B1606253754309N00303331WA0117801276
B1606263754310N00303322WA0117501274
B1606273754312N00303313WA0117201272
B1606283754313N00303303WA0117001269
B1606293754314N00303293WA0116701266
B1606303754314N00303284WA0116701265
B1606313754316N00303276WA0116601265
B1606323754318N00303269WA0116501264
B1606333754320N00303261WA0116301262
B1606343754321N00303251WA0115901259
B1606353754322N00303241WA0115601256
B1606363754323N00303231WA0115501253
B1606373754323N00303221WA0115501252
B1606383754324N00303212WA0115501252
B1606393754324N00303203WA0115401251
B1606403754325N00303195WA0115201250
B1606413754325N00303186WA0114901248
B1606423754326N00303176WA0114701245
B1606433754326N00303167WA0114401243
B1606443754325N00303157WA0114201240
B1606453754324N00303148WA0114101238
B1606463754323N00303139WA0114001236
B1606473754324N00303129WA0113901235
B1606483754324N00303120WA0113801233
B1606493754325N00303111WA0113701232
B1606503754325N00303102WA0113501230
B1606513754325N00303093WA0113301228
B1606523754324N00303084WA0113101226
B1606533754323N00303075WA0113001225
B1606543754322N00303066WA0112901223
B1606553754322N00303058WA0112701222
B1606563754322N00303050WA0112501220
B1606573754322N00303041WA0112501219
B1606583754322N00303032WA0112401217
B1606593754321N00303023WA0112401216
B1607003754321N00303014WA0112401216
B1607013754320N00303006WA0112301216
B1607023754321N00302997WA0112301215
B1607033754322N00302989WA0112201215
B1607043754322N00302980WA0112201214
B1607053754321N00302972WA0112201214
B1607063754320N00302963WA0112201214
B1607073754320N00302954WA0112301214
B1607083754320N00302945WA0112301215
B1607093754320N00302937WA0112401215
B1607103754320N00302929WA0112401215
B1607113754319N00302921WA0112201216
B1607123754318N00302913WA0112301216
B1607133754318N00302904WA0112401216
B1607143754317N00302896WA0112501217
B1607153754316N00302889WA0112501217
B1607163754316N00302882WA0112501218
B1607173754315N00302874WA0112401217
B1607183754316N00302866WA0112301216
B1607193754317N00302857WA0112201215
B1607203754318N00302850WA0112301215
B1607213754318N00302842WA0112301215
B1607223754318N00302835WA0112201215
B1607233754319N00302828WA0112101214
B1607243754321N00302820WA0111801213
B1607253754323N00302812WA0111701211
B1607263754324N00302803WA0111701209
B1607273754325N00302794WA0111701209
B1607283754326N00302786WA0111901210
B1607293754327N00302778WA0112101212
B1607303754329N00302771WA0112101212
B1607313754332N00302764WA0112101213
B1607323754334N00302757WA0112101213
B1607333754336N00302748WA0112101213
B1607343754338N00302740WA0112201213
B1607353754339N00302731WA0112301214
B1607363754341N00302722WA0112301214
B1607373754342N00302713WA0112401214
B1607383754345N00302705WA0112501215
B1607393754348N00302698WA0112701217
B1607403754352N00302692WA0112801219
B1607413754356N00302688WA0113101221
B1607423754360N00302685WA0113201223
B1607433754364N00302683WA0113501225
B1607443754367N00302682WA0113601226
B1607453754371N00302682WA0113701228
B1607463754373N00302683WA0113801229
B1607473754375N00302687WA0113801231
B1607483754375N00302693WA0113801231
B1607493754373N00302699WA0113801231
B1607503754369N00302704WA0113801232
B1607513754364N00302707WA0113901233
B1607523754360N00302708WA0114301236
B1607533754356N00302707WA0114401238
B1607543754352N00302705WA0114301238
B1607553754346N00302701WA0113901237
B1607563754339N00302695WA0113501233
B1607573754333N00302690WA0113801232
B1607583754327N00302684WA0114001233
B1607593754323N00302678WA0114101235
B1608003754320N00302672WA0114201236
B1608013754316N00302664WA0114301237
B1608023754313N00302656WA0114401237
B1608033754309N00302646WA0114601238
B1608043754306N00302637WA0115001240
B1608053754305N00302628WA0115301245
B1608063754306N00302619WA0115501248
B1608073754308N00302611WA0115801251
B1608083754313N00302605WA0115901253
B1608093754318N00302601WA0116101254
B1608103754323N00302598WA0116201256
B1608113754328N00302597WA0116501258
B1608123754332N00302596WA0116801262
B1608133754335N00302595WA0117201264
B1608143754337N00302596WA0117301267
B1608153754339N00302600WA0117101268
B1608163754340N00302606WA0116901268
B1608173754339N00302612WA0117201268
B1608183754338N00302617WA0117501271
B1608193754336N00302621WA0117801274
B1608203754332N00302623WA0117901275
B1608213754326N00302623WA0117801277
B1608223754319N00302621WA0117501276
B1608233754312N00302618WA0117601275
B1608243754305N00302615WA0117801276
B1608253754300N00302611WA0117901278
B1608263754295N00302605WA0117901279
B1608273754290N00302598WA0118001279
B1608283754285N00302590WA0118001279
B1608293754281N00302582WA0118101279
B1608303754277N00302573WA0118601281
B1608313754275N00302566WA0119101285
B1608323754274N00302559WA0119301289
B1608333754275N00302552WA0119301290
B1608343754278N00302544WA0119301290
B1608353754281N00302536WA0119201289
B1608363754285N00302528WA0119301289
B1608373754289N00302521WA0119601291
B1608383754292N00302515WA0119901293
B1608393754296N00302509WA0120201296
B1608403754300N00302504WA0120301298
B1608413754305N00302502WA0120401299
B1608423754310N00302503WA0120201299
B1608433754315N00302505WA0120301300
B1608443754320N00302507WA0120601302
B1608453754323N00302509WA0120901304
B1608463754324N00302511WA0121001307
B1608473754325N00302515WA0121101308
B1608483754323N00302519WA0120801307
B1608493754319N00302523WA0120801305
B1608503754314N00302525WA0120801304
B1608513754308N00302526WA0121001304
B1608523754302N00302525WA0121101306
B1608533754297N00302522WA0121401309
B1608543754292N00302517WA0121501310
B1608553754287N00302510WA0121501311
B1608563754283N00302501WA0121301311
B1608573754279N00302491WA0121601311
B1608583754276N00302482WA0121901313
B1608593754274N00302474WA0122401317
B1609003754273N00302467WA0122701320
B1609013754274N00302459WA0122801323
B1609023754277N00302451WA0122901323
B1609033754281N00302444WA0122701322
B1609043754286N00302438WA0123001324
B1609053754291N00302434WA0123301326
B1609063754295N00302431WA0123601329
B1609073754298N00302431WA0123601331
B1609083754302N00302433WA0123501332
B1609093754306N00302436WA0123401331
B1609103754309N00302442WA0123201331
B1609113754311N00302448WA0123401331
B1609123754310N00302453WA0123701333
B1609133754307N00302457WA0123801333
B1609143754303N00302459WA0123801334
B1609153754298N00302459WA0123701334
B1609163754292N00302458WA0123401334
B1609173754285N00302455WA0123601334
B1609183754280N00302451WA0123801335
B1609193754274N00302446WA0124001337
B1609203754269N00302441WA0124201338
B1609213754265N00302436WA0124501340
B1609223754260N00302431WA0124801343
B1609233754256N00302427WA0125201347
B1609243754253N00302419WA0125201349
B1609253754251N00302409WA0125001350
B1609263754249N00302399WA0124901350
B1609273754247N00302389WA0125101351
B1609283754246N00302381WA0125401355
B1609293754246N00302375WA0125601358
B1609303754248N00302369WA0125601359
B1609313754252N00302363WA0125501358
B1609323754257N00302356WA0125201356
B1609333754262N00302350WA0125201355
B1609343754268N00302345WA0125301355
B1609353754272N00302340WA0125501355
B1609363754277N00302335WA0125701356
B1609373754280N00302331WA0125801356
B1609383754285N00302327WA0125601356
B1609393754291N00302324WA0125201356
B1609403754297N00302322WA0125201354
B1609413754303N00302321WA0125201353
B1609423754308N00302320WA0125201353
B1609433754314N00302319WA0125301353
B1609443754318N00302317WA0125101352
B1609453754322N00302313WA0125001352
B1609463754326N00302308WA0124801350
B1609473754330N00302301WA0124701349
B1609483754333N00302294WA0124601347
B1609493754336N00302287WA0124501346
B1609503754337N00302280WA0124401345
B1609513754339N00302273WA0124301344
B1609523754341N00302266WA0124101342
B1609533754343N00302259WA0123701340
B1609543754344N00302251WA0123401338
B1609553754346N00302243WA0123401336
B1609563754348N00302234WA0123201334
B1609573754350N00302226WA0123101332
B1609583754352N00302219WA0122901331
B1609593754354N00302212WA0122801330
B1610003754356N00302205WA0122701329
B1610013754359N00302197WA0122501327
B1610023754361N00302189WA0122301325
B1610033754364N00302181WA0122301323
B1610043754366N00302173WA0122101322
B1610053754368N00302165WA0121901321
B1610063754370N00302156WA0121601319
B1610073754371N00302148WA0121301317
B1610083754371N00302138WA0121301315
B1610093754370N00302129WA0121101313
B1610103754369N00302121WA0121001311
B1610113754368N00302112WA0120801309
B1610123754368N00302104WA0120501308
B1610133754368N00302095WA0120401306
B1610143754369N00302086WA0120301304
B1610153754369N00302077WA0120401302
B1610163754369N00302069WA0120501303
B1610173754368N00302061WA0120401303
B1610183754368N00302053WA0120201302
B1610193754367N00302044WA0120001300
B1610203754368N00302035WA0120101299
B1610213754368N00302026WA0120001298
B1610223754368N00302018WA0120001298
B1610233754369N00302010WA0119901298
B1610243754370N00302001WA0119801297
B1610253754370N00301992WA0119301295
B1610263754371N00301983WA0119101293
B1610273754372N00301974WA0119101292
B1610283754372N00301965WA0119101291
B1610293754372N00301956WA0119201291
B1610303754372N00301948WA0119101290
B1610313754372N00301940WA0118901288
B1610323754372N00301932WA0118601285
B1610333754371N00301923WA0118401283
B1610343754369N00301915WA0118201281
B1610353754368N00301906WA0117901278
B1610363754366N00301898WA0117501276
B1610373754364N00301889WA0117501274
B1610383754361N00301881WA0117301272
B1610393754359N00301872WA0117001269
B1610403754357N00301863WA0116701267
B1610413754356N00301854WA0116601264
B1610423754355N00301845WA0116701263
B1610433754354N00301836WA0116701262
B1610443754352N00301828WA0116601261
B1610453754351N00301820WA0116301260
B1610463754349N00301812WA0116101259
B1610473754347N00301804WA0116001256
B1610483754345N00301795WA0115801254
B1610493754342N00301786WA0115401251
B1610503754339N00301778WA0115401250
B1610513754335N00301770WA0115401249
B1610523754332N00301763WA0115401249
B1610533754329N00301756WA0115301249
B1610543754326N00301749WA0114901248
B1610553754323N00301741WA0114601246
B1610563754319N00301733WA0114601244
B1610573754315N00301726WA0114501242
B1610583754312N00301720WA0114601242
B1610593754309N00301714WA0114601242
B1611003754306N00301708WA0114501241
B1611013754303N00301702WA0114201240
B1611023754299N00301694WA0113801238
B1611033754294N00301686WA0113801235
B1611043754290N00301677WA0114101235
B1611053754287N00301671WA0114501239
B1611063754285N00301665WA0114701242
B1611073754282N00301662WA0114701243
B1611083754278N00301659WA0114601243
B1611093754272N00301658WA0114301241
B1611103754265N00301658WA0114001237
B1611113754260N00301660WA0114001235
B1611123754256N00301662WA0114101236
B1611133754254N00301665WA0114201236
B1611143754254N00301667WA0114101236
B1611153754254N00301671WA0113801234
B1611163754256N00301676WA0113301231
B1611173754259N00301681WA0113301228
B1611183754264N00301683WA0113201226
B1611193754269N00301684WA0113301225
B1611203754274N00301682WA0113301227
B1611213754278N00301680WA0113201227
B1611223754282N00301676WA0112801226
B1611233754287N00301671WA0112701225
B1611243754293N00301665WA0112901223
B1611253754298N00301658WA0112901223
B1611263754302N00301651WA0113201225
B1611273754305N00301645WA0113401227
B1611283754307N00301638WA0113501229
B1611293754309N00301631WA0113501229
B1611303754311N00301622WA0113201229
B1611313754313N00301612WA0112701228
B1611323754314N00301603WA0112701226
B1611333754315N00301594WA0112901226
B1611343754314N00301585WA0112801226
B1611353754314N00301577WA0112501225
B1611363754313N00301568WA0112401224
B1611373754313N00301559WA0112301221
B1611383754312N00301548WA0112001219
B1611393754311N00301538WA0111801217
B1611403754310N00301528WA0111901216
B1611413754309N00301520WA0112101218
B1611423754308N00301512WA0112301219
B1611433754308N00301503WA0112201219
B1611443754306N00301494WA0111901219
B1611453754304N00301484WA0111601217
B1611463754302N00301474WA0111801214
B1611473754298N00301464WA0111701213
B1611483754296N00301455WA0111901213
B1611493754293N00301446WA0112101213
B1611503754292N00301438WA0112201214
B1611513754293N00301429WA0112101213
B1611523754294N00301419WA0111601212
B1611533754296N00301410WA0111501211
B1611543754297N00301400WA0111701210
B1611553754298N00301389WA0111701210
B1611563754298N00301380WA0111801211
B1611573754298N00301372WA0112001211
B1611583754298N00301364WA0112101213
B1611593754297N00301355WA0112001213
B1612003754294N00301345WA0111801213
B1612013754290N00301335WA0111601212
B1612023754286N00301326WA0111601211
B1612033754282N00301318WA0111701211
B1612043754280N00301311WA0111601210
B1612053754277N00301303WA0111401211
B1612063754274N00301295WA0111601211
B1612073754270N00301288WA0111601210
B1612083754267N00301281WA0111701210
B1612093754265N00301273WA0111801210
B1612103754264N00301266WA0111901211
B1612113754263N00301260WA0112101211
B1612123754261N00301254WA0112001212
B1612133754258N00301248WA0111601211
B1612143754252N00301244WA0111301209
B1612153754246N00301241WA0110901205
B1612163754239N00301240WA0110801202
B1612173754234N00301242WA0110601200
B1612183754229N00301245WA0110301197
B1612193754225N00301249WA0110001195
B1612203754223N00301255WA0109701192
B1612213754220N00301260WA0109501189
B1612223754220N00301267WA0109201186
B1612233754221N00301272WA0109101184
B1612243754223N00301276WA0109001182
B1612253754225N00301279WA0109001181
B1612263754228N00301281WA0108901180
B1612273754231N00301282WA0108701179
B1612283754235N00301283WA0108801178
B1612293754239N00301283WA0108701178
B1612303754244N00301282WA0108701177
B1612313754249N00301280WA0108701177
B1612323754253N00301276WA0108701176
B1612333754257N00301271WA0108701176
B1612343754260N00301264WA0108601175
B1612353754262N00301256WA0108501175
B1612363754262N00301246WA0108101174
B1612373754261N00301236WA0108001172
B1612383754259N00301226WA0108401172
B1612393754259N00301217WA0108501173
B1612403754259N00301208WA0108501174
B1612413754258N00301200WA0108101173
B1612423754257N00301190WA0107901172
B1612433754254N00301180WA0107601170
B1612443754251N00301170WA0107501166
B1612453754248N00301159WA0107301164
B1612463754246N00301150WA0107501164
B1612473754243N00301143WA0107401166
B1612483754239N00301137WA0107301165
B1612493754235N00301129WA0107001162
B1612503754231N00301121WA0106601160
B1612513754228N00301113WA0106501158
B1612523754224N00301105WA0106501157
B1612533754220N00301099WA0106601157
B1612543754216N00301093WA0106701157
B1612553754212N00301088WA0106601158
B1612563754208N00301082WA0106401157
B1612573754203N00301075WA0106301155
B1612583754199N00301068WA0106201153
B1612593754194N00301060WA0106301153
B1613003754189N00301055WA0106701156
B1613013754185N00301051WA0107201159
B1613023754181N00301049WA0107501162
B1613033754176N00301050WA0107501164
B1613043754170N00301053WA0107501165
B1613053754164N00301057WA0107501164
B1613063754160N00301062WA0107701166
B1613073754157N00301067WA0108001169
B1613083754155N00301071WA0108101171
B1613093754155N00301076WA0108201172
B1613103754155N00301081WA0108101171
B1613113754158N00301086WA0108001170
B1613123754161N00301092WA0108001170
B1613133754164N00301096WA0108201170
B1613143754166N00301099WA0108601173
B1613153754167N00301102WA0108701175
B1613163754170N00301103WA0108601176
B1613173754173N00301103WA0107901174
B1613183754179N00301102WA0107701169
B1613193754185N00301098WA0107701165
B1613203754189N00301094WA0107701165
B1613213754192N00301090WA0107601164
B1613223754193N00301085WA0107501164
B1613233754194N00301078WA0107101162
B1613243754194N00301070WA0106401159
B1613253754191N00301060WA0106501157
B1613263754187N00301053WA0106501155
B1613273754182N00301047WA0106501154
B1613283754177N00301043WA0106601155
B1613293754172N00301040WA0106501155
B1613303754165N00301038WA0106201153
B1613313754158N00301038WA0106001152
B1613323754150N00301039WA0106301151
B1613333754144N00301039WA0106601151
B1613343754138N00301040WA0107001156
B1613353754133N00301040WA0107401161
B1613363754128N00301042WA0107501163
B1613373754123N00301047WA0107501164
B1613383754119N00301052WA0107501165
B1613393754115N00301059WA0107501164
B1613403754112N00301065WA0107801165
B1613413754110N00301071WA0107801166
B1613423754109N00301076WA0107801167
B1613433754109N00301081WA0107701167
B1613443754110N00301086WA0107501166
B1613453754112N00301091WA0107501165
B1613463754115N00301095WA0107501164
B1613473754118N00301098WA0107501164
B1613483754121N00301100WA0107501164
B1613493754125N00301099WA0107401164
B1613503754128N00301097WA0107301163
B1613513754131N00301093WA0107101162
B1613523754134N00301087WA0106801159
B1613533754135N00301079WA0106201157
B1613543754134N00301070WA0105901155
B1613553754130N00301062WA0106001153
B1613563754123N00301058WA0105801151
B1613573754116N00301056WA0106001150
B1613583754110N00301055WA0106201151
B1613593754104N00301055WA0106401151
B1614003754098N00301055WA0106501152
B1614013754093N00301055WA0106601152
B1614023754088N00301057WA0106501153
B1614033754082N00301058WA0106401152
B1614043754077N00301060WA0106301152
B1614053754070N00301061WA0106301152
B1614063754064N00301062WA0106101151
B1614073754058N00301064WA0105901150
B1614083754052N00301067WA0105701148
B1614093754047N00301070WA0105601147
B1614103754042N00301073WA0105501146
B1614113754036N00301075WA0105301144
B1614123754030N00301078WA0105201143
B1614133754025N00301081WA0105201142
B1614143754020N00301084WA0105101142
B1614153754016N00301087WA0105101141
B1614163754012N00301090WA0104801139
B1614173754008N00301094WA0104401137
B1614183754003N00301098WA0104101134
B1614193753997N00301101WA0104101132
B1614203753991N00301103WA0104101131
B1614213753985N00301105WA0104001129
B1614223753979N00301107WA0104001129
B1614233753973N00301110WA0104001127
B1614243753967N00301114WA0103801126
B1614253753960N00301117WA0103701125
B1614263753953N00301119WA0103701126
B1614273753947N00301121WA0104001127
B1614283753941N00301123WA0104301129
B1614293753937N00301124WA0104401130
B1614303753932N00301126WA0104301131
B1614313753926N00301128WA0104001131
B1614323753920N00301131WA0103901130
B1614333753913N00301133WA0103801129
B1614343753905N00301132WA0103701128
B1614353753898N00301131WA0103701127
B1614363753891N00301129WA0103701127
B1614373753884N00301128WA0103701127
B1614383753878N00301127WA0103801127
B1614393753871N00301127WA0103701126
B1614403753863N00301128WA0103601125
B1614413753856N00301129WA0103501124
B1614423753850N00301132WA0103401123
B1614433753845N00301136WA0103201122
B1614443753841N00301140WA0103101120
B1614453753838N00301145WA0103101119
B1614463753836N00301149WA0103101119
B1614473753836N00301153WA0102901118
B1614483753837N00301156WA0102701117
B1614493753840N00301159WA0102401115
B1614503753843N00301159WA0102301112
B1614513753846N00301157WA0102201110
B1614523753849N00301154WA0102301109
B1614533753852N00301152WA0102401107
B1614543753855N00301151WA0102201106
B1614553753858N00301151WA0101901105
B1614563753862N00301151WA0101801104
B1614573753866N00301150WA0101801103
B1614583753870N00301148WA0102001105
B1614593753872N00301146WA0102201107
B1615003753874N00301143WA0102301108
B1615013753876N00301141WA0102101108
B1615023753879N00301140WA0101501106
B1615033753884N00301139WA0101001101
B1615043753888N00301136WA0100901098
B1615053753892N00301134WA0101201097
B1615063753895N00301132WA0101401099
B1615073753896N00301130WA0101401099
B1615083753898N00301130WA0101101098
B1615093753901N00301128WA0100601095
B1615103753905N00301126WA0100101093
B1615113753910N00301122WA0099901089
B1615123753913N00301119WA0100301088
B1615133753917N00301115WA0100401089
B1615143753920N00301112WA0100301090
B1615153753922N00301110WA0100301089
B1615163753926N00301108WA0100101088
B1615173753929N00301106WA0099801087
B1615183753934N00301102WA0099701086
B1615193753937N00301099WA0100001086
B1615203753941N00301095WA0100201087
B1615213753943N00301093WA0100301088
B1615223753946N00301091WA0100101088
B1615233753950N00301090WA0099701085
B1615243753954N00301089WA0099401082
B1615253753960N00301088WA0099201079
B1615263753964N00301087WA0099201077
B1615273753968N00301085WA0099401076
B1615283753971N00301082WA0099501076
B1615293753975N00301080WA0099301075
B1615303753979N00301078WA0099001074
B1615313753984N00301075WA0098801071
B1615323753989N00301071WA0098701069
B1615333753993N00301066WA0098401068
B1615343753997N00301062WA0098401068
B1615353754000N00301058WA0098501068
B1615363754004N00301055WA0098701068
B1615373754008N00301053WA0098401068
B1615383754014N00301049WA0098301067
B1615393754019N00301045WA0098201066
B1615403754024N00301042WA0098301065
B1615413754028N00301039WA0098401066
B1615423754032N00301037WA0098401066
B1615433754036N00301035WA0098101066
B1615443754041N00301032WA0098201065
B1615453754045N00301029WA0098101064
B1615463754050N00301024WA0098001063
B1615473754054N00301020WA0097901063
B1615483754058N00301017WA0097801062
B1615493754063N00301013WA0097701061
B1615503754068N00301009WA0097601060
B1615513754073N00301004WA0097701059
B1615523754077N00300999WA0097801059
B1615533754081N00300995WA0097801060
B1615543754085N00300991WA0097601060
B1615553754090N00300987WA0097701061
B1615563754093N00300982WA0097801061
B1615573754096N00300978WA0098101063
B1615583754099N00300976WA0098301064
B1615593754102N00300975WA0098301064
B1616003754106N00300975WA0098201064
B1616013754110N00300977WA0098301064
B1616023754112N00300981WA0098401065
B1616033754113N00300986WA0098401066
B1616043754112N00300991WA0098601067
B1616053754111N00300995WA0098701068
B1616063754110N00300999WA0098801069
B1616073754109N00301004WA0098801070
B1616083754109N00301009WA0098901070
B1616093754108N00301013WA0098901071
B1616103754105N00301017WA0098901072
B1616113754100N00301021WA0098801072
B1616123754095N00301026WA0098801072
B1616133754091N00301031WA0098901072
B1616143754087N00301036WA0099101074
B1616153754084N00301041WA0099401077
B1616163754082N00301045WA0099601079
B1616173754082N00301049WA0099901081
B1616183754084N00301052WA0099901082
B1616193754087N00301054WA0100101084
B1616203754091N00301053WA0100301085
B1616213754094N00301050WA0100501086
B1616223754096N00301044WA0100601088
B1616233754097N00301036WA0100801090
B1616243754095N00301028WA0100901091
B1616253754091N00301019WA0101001091
B1616263754084N00301013WA0101201093
B1616273754077N00301011WA0101601095
B1616283754071N00301011WA0101701097
B1616293754067N00301014WA0101701099
B1616303754062N00301017WA0101701100
B1616313754058N00301023WA0101601101
B1616323754054N00301029WA0101501102
B1616333754050N00301035WA0101701103
B1616343754045N00301040WA0102201106
B1616353754042N00301043WA0102601109
B1616363754040N00301046WA0102901112
B1616373754038N00301049WA0103001115
B1616383754037N00301054WA0103101116
B1616393754036N00301058WA0103201118
B1616403754034N00301063WA0103501119
B1616413754032N00301067WA0103901122
B1616423754030N00301070WA0104201126
B1616433754027N00301073WA0104601130
B1616443754026N00301076WA0104801133
B1616453754026N00301080WA0104901135
B1616463754030N00301084WA0104901135
B1616473754034N00301086WA0105001135
B1616483754039N00301085WA0105201137
B1616493754042N00301081WA0105301139
B1616503754045N00301075WA0105501141
B1616513754046N00301068WA0105701142
B1616523754045N00301060WA0105701143
B1616533754042N00301052WA0105601143
B1616543754038N00301044WA0105201141
B1616553754032N00301038WA0105001140
B1616563754023N00301035WA0105301140
B1616573754016N00301033WA0105601141
B1616583754010N00301033WA0105901144
B1616593754005N00301034WA0106301147
B1617003754002N00301036WA0106501150
B1617013754000N00301040WA0106501152
B1617023753998N00301043WA0106701154
B1617033753997N00301048WA0106901155
B1617043753996N00301052WA0107201157
B1617053753997N00301056WA0107301159
B1617063753998N00301060WA0107601162
B1617073753999N00301062WA0108001165
B1617083754000N00301063WA0108001168
B1617093754001N00301063WA0108001169
B1617103754003N00301063WA0107901169
B1617113754007N00301063WA0107601165
B1617123754011N00301061WA0107501162
B1617133754015N00301060WA0107501161
B1617143754018N00301057WA0107701162
B1617153754021N00301054WA0107801163
B1617163754023N00301050WA0107801164
B1617173754025N00301044WA0107701163
B1617183754026N00301036WA0107701162
B1617193754026N00301026WA0107501160
B1617203754022N00301016WA0107501160
B1617213754016N00301009WA0107301159
B1617223754009N00301004WA0107001159
B1617233754002N00301002WA0107101159
B1617243753996N00301001WA0107301160
B1617253753990N00301001WA0107401161
B1617263753985N00301003WA0107401161
B1617273753980N00301006WA0107401160
B1617283753975N00301008WA0107401160
B1617293753970N00301012WA0107301160
B1617303753966N00301015WA0107401161
B1617313753962N00301018WA0107501161
B1617323753958N00301022WA0107501162
B1617333753953N00301025WA0107501163
B1617343753949N00301028WA0107501163
B1617353753944N00301032WA0107501163
B1617363753939N00301035WA0107601164
B1617373753934N00301038WA0107801165
B1617383753929N00301040WA0107901166
B1617393753924N00301042WA0107901168
B1617403753920N00301044WA0107601167
B1617413753914N00301048WA0107501165
B1617423753909N00301053WA0107501164
B1617433753903N00301057WA0107601164
B1617443753898N00301060WA0107801165
B1617453753893N00301062WA0108001167
B1617463753889N00301065WA0108201169
B1617473753885N00301068WA0108201169
B1617483753882N00301071WA0108101170
B1617493753878N00301075WA0108301170
B1617503753874N00301078WA0108301171
B1617513753870N00301082WA0108501172
B1617523753867N00301086WA0108701173
B1617533753864N00301089WA0108701175
B1617543753862N00301093WA0109001177
B1617553753860N00301096WA0109101179
B1617563753858N00301100WA0109301180
B1617573753857N00301103WA0109501182
B1617583753857N00301106WA0109501183
B1617593753857N00301108WA0109401184
B1618003753859N00301108WA0109001184
B1618013753863N00301107WA0108801179
B1618023753868N00301105WA0109101178
B1618033753872N00301100WA0109301179
B1618043753875N00301093WA0109601180
B1618053753876N00301086WA0109701182
B1618063753878N00301080WA0109801184
B1618073753880N00301074WA0109901185
B1618083753883N00301071WA0109801185
B1618093753886N00301068WA0109801185
B1618103753889N00301067WA0109801185
B1618113753892N00301068WA0110001185
B1618123753894N00301070WA0110001186
B1618133753894N00301073WA0109901186
B1618143753893N00301077WA0109801186
B1618153753889N00301081WA0109601185
B1618163753884N00301085WA0109501185
B1618173753879N00301089WA0109501185
B1618183753874N00301092WA0109501187
B1618193753869N00301095WA0109801188
B1618203753866N00301097WA0110101190
B1618213753863N00301099WA0110401192
B1618223753861N00301100WA0110501193
B1618233753859N00301102WA0110601194
B1618243753858N00301105WA0110601195
B1618253753858N00301108WA0110701196
B1618263753858N00301110WA0110801197
B1618273753859N00301112WA0110901198
B1618283753860N00301114WA0111001199
B1618293753862N00301116WA0110901198
B1618303753865N00301119WA0110901198
B1618313753869N00301121WA0110901198
B1618323753873N00301123WA0111101199
B1618333753876N00301124WA0111301200
B1618343753879N00301126WA0111801203
B1618353753881N00301126WA0112301207
B1618363753883N00301125WA0112401210
B1618373753887N00301122WA0112401211
B1618383753892N00301115WA0112301210
B1618393753896N00301106WA0112201209
B1618403753898N00301096WA0112401209
B1618413753897N00301087WA0112601212
B1618423753895N00301078WA0112801215
B1618433753892N00301071WA0112801217
B1618443753888N00301064WA0112501216
B1618453753882N00301057WA0112401216
B1618463753875N00301053WA0112401216
B1618473753867N00301052WA0112401214
B1618483753861N00301053WA0112301215
B1618493753857N00301054WA0112601217
B1618503753853N00301056WA0112901219
B1618513753849N00301058WA0113001221
B1618523753846N00301061WA0113001221
B1618533753844N00301066WA0113101221
B1618543753841N00301070WA0113101222
B1618553753840N00301075WA0113301223
B1618563753841N00301078WA0113801227
B1618573753842N00301079WA0114001231
B1618583753844N00301079WA0114001232
B1618593753846N00301079WA0114101234
B1619003753850N00301079WA0114101235
B1619013753854N00301081WA0114001236
B1619023753857N00301082WA0113901236
B1619033753861N00301082WA0114201237
B1619043753865N00301082WA0114401239
B1619053753869N00301079WA0114401239
B1619063753872N00301075WA0114301238
B1619073753876N00301070WA0114101237
B1619083753879N00301064WA0114001236
B1619093753882N00301057WA0113801235
B1619103753883N00301049WA0113701234
B1619113753881N00301040WA0113801232
B1619123753878N00301029WA0113601230
B1619133753872N00301020WA0113701229
B1619143753867N00301012WA0113801229
B1619153753861N00301006WA0114001231
B1619163753855N00301003WA0114001232
B1619173753850N00301000WA0113801233
B1619183753843N00301000WA0113601233
B1619193753836N00301001WA0113401231
B1619203753829N00301005WA0113401230
B1619213753824N00301009WA0113601230
B1619223753821N00301013WA0113901232
B1619233753818N00301014WA0114301234
B1619243753816N00301015WA0114601237
B1619253753815N00301016WA0114601239
B1619263753815N00301018WA0114601239
B1619273753816N00301021WA0114301238
B1619283753816N00301027WA0114201237
B1619293753817N00301032WA0114401236
B1619303753818N00301036WA0114601239
B1619313753820N00301037WA0114601241
B1619323753822N00301038WA0114301240
B1619333753825N00301038WA0114101239
B1619343753828N00301039WA0114001237
B1619353753833N00301038WA0113901234
B1619363753836N00301035WA0113901233
B1619373753839N00301031WA0114001233
B1619383753841N00301025WA0114001233
B1619393753842N00301018WA0114001232
B1619403753841N00301009WA0113901232
B1619413753839N00300999WA0113901231
B1619423753835N00300990WA0114101232
B1619433753831N00300983WA0114101234
B1619443753827N00300978WA0114001234
B1619453753822N00300973WA0113801234
B1619463753815N00300971WA0113301234
B1619473753807N00300970WA0113301230
B1619483753801N00300971WA0113101228
B1619493753796N00300974WA0113001226
B1619503753793N00300977WA0112801225
B1619513753791N00300980WA0112701223
B1619523753791N00300983WA0112301221
B1619533753792N00300986WA0112101219
B1619543753794N00300988WA0112001216
B1619553753796N00300990WA0111801214
B1619563753799N00300992WA0111401212
B1619573753802N00300994WA0111701210
B1619583753805N00300994WA0111301209
B1619593753809N00300994WA0111201207
B1620003753813N00300996WA0111201206
B1620013753816N00300998WA0111101205
B1620023753818N00301000WA0111201204
B1620033753820N00301003WA0111301204
B1620043753822N00301005WA0111401204
B1620053753824N00301007WA0111301204
B1620063753827N00301010WA0111201203
B1620073753830N00301013WA0111201202
B1620083753833N00301015WA0111201201
B1620093753836N00301016WA0111201201
B1620103753839N00301019WA0111001200
B1620113753841N00301022WA0111001200
B1620123753843N00301026WA0110901199
B1620133753845N00301030WA0111001199
B1620143753846N00301033WA0111101200
B1620153753847N00301036WA0111101200
B1620163753848N00301040WA0111001199
B1620173753849N00301044WA0110801198
B1620183753851N00301047WA0110701197
B1620193753852N00301051WA0110701197
B1620203753853N00301054WA0110701197
B1620213753855N00301057WA0110601196
B1620223753856N00301060WA0110501195
B1620233753858N00301063WA0110101194
B1620243753860N00301066WA0110001193
B1620253753862N00301068WA0109901191
B1620263753865N00301070WA0109801190
B1620273753869N00301070WA0109501188
B1620283753873N00301070WA0109301186
B1620293753876N00301072WA0109401184
B1620303753879N00301076WA0109101183
B1620313753880N00301081WA0109001181
B1620323753882N00301085WA0108801181
B1620333753884N00301088WA0108801181
B1620343753886N00301091WA0108801179
B1620353753887N00301095WA0108601178
B1620363753889N00301100WA0108501176
B1620373753890N00301105WA0108301175
B1620383753891N00301111WA0108301174
B1620393753893N00301116WA0108301173
B1620403753894N00301120WA0108301174
B1620413753897N00301124WA0108201173
B1620423753898N00301129WA0108201173
B1620433753900N00301134WA0108101172
B1620443753901N00301140WA0108101172
B1620453753902N00301145WA0108301172
B1620463753903N00301149WA0108301173
B1620473753905N00301154WA0108301173
B1620483753907N00301159WA0108201172
B1620493753908N00301164WA0108201172
B1620503753910N00301169WA0108201171
B1620513753910N00301175WA0108101171
B1620523753911N00301180WA0108101171
B1620533753911N00301185WA0108101171
B1620543753912N00301191WA0108001171
B1620553753913N00301196WA0107901170
B1620563753913N00301200WA0108001170
B1620573753914N00301204WA0108001170
B1620583753914N00301209WA0107701170
B1620593753914N00301214WA0107501168
B1621003753915N00301219WA0107401165
B1621013753917N00301224WA0107301163
B1621023753918N00301229WA0107201162
B1621033753920N00301232WA0107201162
B1621043753922N00301235WA0107201161
B1621053753925N00301238WA0107101161
B1621063753927N00301241WA0106901160
B1621073753930N00301243WA0106601158
B1621083753934N00301243WA0106501157
B1621093753938N00301241WA0106301155
B1621103753941N00301237WA0106201153
B1621113753944N00301231WA0106001152
B1621123753945N00301224WA0106101150
B1621133753944N00301216WA0106101148
B1621143753943N00301208WA0106001148
B1621153753942N00301200WA0105901147
B1621163753942N00301193WA0105701145
B1621173753942N00301185WA0105201144
B1621183753942N00301176WA0105101141
B1621193753942N00301167WA0104801139
B1621203753941N00301159WA0104701137
B1621213753941N00301150WA0104801136
B1621223753941N00301142WA0104801135
B1621233753941N00301134WA0104701134
B1621243753941N00301126WA0104601133
B1621253753941N00301118WA0104201132
B1621263753942N00301111WA0104101131
B1621273753943N00301103WA0104001129
B1621283753945N00301096WA0103901128
B1621293753947N00301089WA0103901126
B1621303753950N00301082WA0103701124
B1621313753953N00301076WA0103501123
B1621323753956N00301069WA0103501122
B1621333753958N00301063WA0103401122
B1621343753961N00301056WA0103201120
B1621353753964N00301050WA0103101119
B1621363753968N00301044WA0103101118
B1621373753971N00301039WA0103201119
B1621383753974N00301033WA0103201120
B1621393753977N00301027WA0103301120
B1621403753979N00301020WA0103401119
B1621413753982N00301014WA0103401119
B1621423753985N00301007WA0103301118
B1621433753988N00301002WA0103201118
B1621443753991N00300996WA0103001116
B1621453753994N00300990WA0102801115
B1621463753997N00300983WA0102801114
B1621473754000N00300975WA0102801113
B1621483754002N00300969WA0102801111
B1621493754005N00300962WA0102401110
B1621503754008N00300955WA0102301109
B1621513754011N00300947WA0102101107
B1621523754013N00300939WA0101701105
B1621533754016N00300932WA0101701103
B1621543754020N00300925WA0101601101
B1621553754023N00300919WA0101201099
B1621563754027N00300913WA0101101097
B1621573754031N00300908WA0101101096
B1621583754035N00300901WA0101001094
B1621593754039N00300895WA0100701092
B1622003754043N00300888WA0100501090
B1622013754047N00300882WA0100301088
B1622023754051N00300876WA0100101086
B1622033754055N00300871WA0099901085
B1622043754058N00300865WA0099501082
B1622053754063N00300859WA0099001079
B1622063754068N00300853WA0098801076
B1622073754073N00300848WA0098701073
B1622083754078N00300843WA0098801073
B1622093754083N00300837WA0098801073
B1622103754087N00300832WA0098901073
B1622113754091N00300826WA0099101074
B1622123754095N00300819WA0099301073
B1622133754098N00300812WA0099601075
B1622143754100N00300805WA0100001078
B1622153754101N00300800WA0100301082
B1622163754103N00300795WA0100401084
B1622173754106N00300792WA0100501085
B1622183754110N00300791WA0100301085
B1622193754114N00300791WA0100301083
B1622203754118N00300792WA0100201083
B1622213754121N00300795WA0100301083
B1622223754122N00300798WA0100501084
B1622233754121N00300802WA0100401084
B1622243754117N00300806WA0100101083
B1622253754110N00300808WA0099901081
B1622263754102N00300807WA0099801080
B1622273754095N00300802WA0100001081
B1622283754090N00300795WA0100201082
B1622293754087N00300788WA0100501084
B1622303754086N00300780WA0100701087
B1622313754086N00300772WA0100701089
B1622323754087N00300764WA0100801090
B1622333754088N00300757WA0101001091
B1622343754089N00300751WA0101001092
B1622353754091N00300745WA0100901092
B1622363754094N00300738WA0100501090
B1622373754096N00300730WA0100601089
B1622383754098N00300722WA0100601089
B1622393754100N00300714WA0100701090
B1622403754101N00300708WA0100801091
B1622413754103N00300701WA0100701091
B1622423754105N00300695WA0100501089
B1622433754109N00300689WA0099801086
B1622443754113N00300683WA0099501081
B1622453754117N00300675WA0099201079
B1622463754120N00300666WA0099001076
B1622473754123N00300658WA0098901074
B1622483754125N00300651WA0098801073
B1622493754128N00300644WA0098701071
B1622503754131N00300637WA0098401069
B1622513754135N00300630WA0098301067
B1622523754139N00300623WA0098201065
B1622533754143N00300619WA0098301065
B1622543754147N00300616WA0098201065
B1622553754150N00300614WA0097801064
B1622563754155N00300613WA0097301061
B1622573754160N00300611WA0096901057
B1622583754165N00300610WA0097001055
B1622593754169N00300610WA0097001053
B1623003754173N00300610WA0096901051
B1623013754178N00300612WA0096601049
B1623023754182N00300613WA0096401047
B1623033754187N00300614WA0096401045
B1623043754192N00300615WA0096401044
B1623053754197N00300617WA0096201043
B1623063754201N00300618WA0096001041
B1623073754206N00300620WA0095801039
B1623083754211N00300620WA0095701037
B1623093754216N00300620WA0095501035
B1623103754222N00300620WA0095401034
B1623113754227N00300621WA0095201033
B1623123754232N00300621WA0095101032
B1623133754237N00300621WA0095201032
B1623143754242N00300622WA0095101032
B1623153754246N00300622WA0095101032
B1623163754250N00300621WA0095201032
B1623173754255N00300621WA0095101031
B1623183754260N00300620WA0094901030
B1623193754264N00300619WA0094701028
B1623203754268N00300619WA0094401026
B1623213754273N00300618WA0094101024
B1623223754277N00300615WA0093701021
B1623233754283N00300612WA0093401017
B1623243754288N00300611WA0093101014
B1623253754294N00300612WA0092801010
B1623263754299N00300614WA0092601008
B1623273754304N00300614WA0092601007
B1623283754309N00300613WA0092401005
B1623293754315N00300612WA0092101003
B1623303754320N00300613WA0091701001
B1623313754325N00300615WA0091500999
B1623323754331N00300617WA0091500997
B1623333754336N00300617WA0091700996
B1623343754342N00300616WA0091600995
B1623353754348N00300613WA0091200994
B1623363754353N00300611WA0091300994
B1623373754358N00300610WA0091600994
B1623383754363N00300609WA0091600995
B1623393754367N00300608WA0091600995
B1623403754373N00300608WA0091500994
B1623413754379N00300610WA0091500994
B1623423754384N00300614WA0091400994
B1623433754388N00300618WA0091700995
B1623443754391N00300622WA0092000997
B1623453754395N00300625WA0092100998
B1623463754399N00300628WA0092100999
B1623473754403N00300631WA0092001000
B1623483754407N00300636WA0091901000
B1623493754411N00300641WA0092001000
B1623503754413N00300647WA0092101001
B1623513754415N00300652WA0092401003
B1623523754417N00300656WA0092801006
B1623533754418N00300659WA0093001008
B1623543754420N00300663WA0093101010
B1623553754423N00300666WA0093001010
B1623563754427N00300668WA0092901009
B1623573754432N00300668WA0092901008
B1623583754437N00300666WA0093001007
B1623593754440N00300663WA0093201008
B1624003754443N00300658WA0093501010
B1624013754442N00300652WA0093601012
B1624023754440N00300646WA0093701013
B1624033754435N00300641WA0093601013
B1624043754430N00300638WA0093801014
B1624053754424N00300637WA0094001016
B1624063754419N00300638WA0094101017
B1624073754414N00300640WA0094101018
B1624083754411N00300644WA0094101019
B1624093754408N00300650WA0094101018
B1624103754405N00300657WA0094001018
B1624113754403N00300665WA0094101018
B1624123754402N00300671WA0094401022
B1624133754401N00300676WA0094801024
B1624143754401N00300680WA0095001027
B1624153754402N00300684WA0095101028
B1624163754404N00300688WA0095101028
B1624173754407N00300692WA0095101028
B1624183754411N00300696WA0095001028
B1624193754415N00300697WA0094901028
B1624203754419N00300697WA0094901028
B1624213754424N00300695WA0094901028
B1624223754428N00300691WA0095001027
B1624233754430N00300685WA0094801027
B1624243754431N00300677WA0094801026
B1624253754431N00300669WA0095101027
B1624263754429N00300663WA0095401030
B1624273754427N00300658WA0095601032
B1624283754423N00300654WA0095801035
B1624293754418N00300651WA0096001036
B1624303754413N00300648WA0096001037
B1624313754406N00300647WA0096201038
B1624323754400N00300648WA0096301040
B1624333754394N00300650WA0096601042
B1624343754389N00300653WA0096701043
B1624353754386N00300658WA0096901046
B1624363754384N00300662WA0097001047
B1624373754384N00300666WA0097101048
B1624383754384N00300671WA0097101048
B1624393754385N00300675WA0097201048
B1624403754387N00300680WA0097301049
B1624413754388N00300684WA0097301050
B1624423754390N00300687WA0097301051
B1624433754392N00300690WA0097401052
B1624443754394N00300693WA0097401053
B1624453754397N00300696WA0097401054
B1624463754401N00300699WA0097401054
B1624473754405N00300700WA0097401054
B1624483754410N00300700WA0097501055
B1624493754414N00300696WA0097401055
B1624503754418N00300692WA0097401055
B1624513754420N00300686WA0097301055
B1624523754421N00300681WA0097301056
B1624533754420N00300675WA0097501056
B1624543754417N00300669WA0097701056
B1624553754414N00300662WA0097901057
B1624563754410N00300657WA0098101058
B1624573754406N00300653WA0098401061
B1624583754403N00300650WA0098601063
B1624593754398N00300647WA0098801065
B1625003754393N00300646WA0098901067
B1625013754387N00300647WA0098901068
B1625023754382N00300649WA0099101069
B1625033754377N00300653WA0099301071
B1625043754373N00300658WA0099301071
B1625053754371N00300663WA0099501073
B1625063754370N00300668WA0099501074
B1625073754371N00300672WA0099501075
B1625083754372N00300675WA0099401075
B1625093754375N00300678WA0099101074
B1625103754379N00300679WA0099201074
B1625113754384N00300679WA0099201073
B1625123754389N00300676WA0099101072
B1625133754393N00300672WA0099101072
B1625143754397N00300666WA0099201072
B1625153754399N00300659WA0099301073
B1625163754399N00300651WA0099401073
B1625173754398N00300644WA0099501074
B1625183754396N00300636WA0099701075
B1625193754394N00300630WA0100101078
B1625203754391N00300626WA0100501081
B1625213754387N00300622WA0100601084
B1625223754383N00300618WA0100801086
B1625233754378N00300616WA0100801087
B1625243754372N00300615WA0100901088
B1625253754365N00300615WA0101201090
B1625263754360N00300618WA0101301092
B1625273754357N00300622WA0101501094
B1625283754355N00300627WA0101701095
B1625293754354N00300632WA0101801098
B1625303754354N00300636WA0101801099
B1625313754355N00300639WA0101901100
B1625323754357N00300642WA0101701101
B1625333754361N00300645WA0101501100
B1625343754365N00300645WA0101601098
B1625353754371N00300643WA0101501097
B1625363754376N00300639WA0101701096
B1625373754380N00300634WA0101901098
B1625383754382N00300629WA0102201101
B1625393754385N00300625WA0102401104
B1625403754387N00300619WA0102701106
B1625413754388N00300614WA0102801108
B1625423754388N00300607WA0103001110
B1625433754386N00300601WA0103101112
B1625443754383N00300596WA0103301114
B1625453754380N00300591WA0103401116
B1625463754376N00300586WA0103701118
B1625473754371N00300581WA0103801119
B1625483754366N00300577WA0104001121
B1625493754360N00300574WA0104101123
B1625503754353N00300571WA0104301125
B1625513754347N00300569WA0104501127
B1625523754341N00300569WA0104701129
B1625533754335N00300572WA0104801131
B1625543754330N00300576WA0105101132
B1625553754326N00300581WA0105101133
B1625563754324N00300585WA0105201135
B1625573754321N00300590WA0105401137
B1625583754320N00300594WA0105401139
B1625593754319N00300599WA0105601139
B1626003754319N00300603WA0105601140
B1626013754321N00300606WA0105501140
B1626023754324N00300609WA0105201141
B1626033754329N00300609WA0105101141
B1626043754334N00300608WA0105301140
B1626053754338N00300604WA0105301139
B1626063754343N00300599WA0105601139
B1626073754346N00300593WA0105801141
B1626083754348N00300588WA0106201143
B1626093754349N00300583WA0106401146
B1626103754349N00300577WA0106601148
B1626113754349N00300570WA0106601150
B1626123754348N00300561WA0106701150
B1626133754345N00300554WA0107101152
B1626143754342N00300547WA0107401154
B1626153754337N00300542WA0107701158
B1626163754333N00300539WA0108001162
B1626173754328N00300537WA0108201165
B1626183754323N00300537WA0108401167
B1626193754317N00300538WA0108501169
B1626203754312N00300541WA0108701172
B1626213754308N00300544WA0108901174
B1626223754305N00300547WA0109201177
B1626233754303N00300550WA0109401179
B1626243754302N00300554WA0109501181
B1626253754302N00300557WA0109601182
B1626263754304N00300561WA0109501182
B1626273754307N00300564WA0109501182
B1626283754310N00300567WA0109601182
B1626293754313N00300570WA0109701183
B1626303754316N00300572WA0109801184
B1626313754319N00300574WA0109901185
B1626323754323N00300573WA0109901186
B1626333754327N00300572WA0110001187
B1626343754333N00300570WA0110201188
B1626353754338N00300568WA0110601190
B1626363754342N00300564WA0111001194
B1626373754344N00300559WA0111301197
B1626383754344N00300554WA0111501201
B1626393754344N00300548WA0111601203
B1626403754342N00300542WA0111701204
B1626413754339N00300535WA0111701204
B1626423754335N00300529WA0111801205
B1626433754331N00300522WA0112101206
B1626443754326N00300516WA0112501210
B1626453754322N00300513WA0112901215
B1626463754317N00300511WA0113101219
B1626473754312N00300512WA0113301222
B1626483754306N00300514WA0113501225
B1626493754302N00300518WA0113601227
B1626503754298N00300524WA0113801228
B1626513754296N00300528WA0114001230
B1626523754295N00300532WA0114201233
B1626533754294N00300535WA0114501236
B1626543754293N00300538WA0114501238
B1626553754293N00300543WA0114601238
B1626563754292N00300549WA0114501238
B1626573754291N00300555WA0114701239
B1626583754291N00300560WA0115001241
B1626593754292N00300564WA0115201243
B1627003754293N00300567WA0115401245
B1627013754295N00300570WA0115601247
B1627023754298N00300573WA0115701243
B1627033754302N00300573WA0115901244
B1627043754307N00300571WA0116101245
B1627053754310N00300568WA0116401247
B1627063754312N00300564WA0116601249
B1627073754313N00300559WA0116901252
B1627083754312N00300554WA0117001254
B1627093754311N00300548WA0117201256
B1627103754309N00300542WA0117301258
B1627113754306N00300535WA0117501260
B1627123754301N00300529WA0117701261
B1627133754294N00300525WA0118001263
B1627143754287N00300526WA0118401265
B1627153754281N00300528WA0118801271
B1627163754276N00300531WA0119301277
B1627173754272N00300534WA0119601282
B1627183754269N00300536WA0119901286
B1627193754266N00300540WA0119901288
B1627203754264N00300544WA0120001289
B1627213754263N00300550WA0119901289
B1627223754263N00300557WA0119901289
B1627233754263N00300564WA0120001290
B1627243754264N00300569WA0120401293
B1627253754265N00300573WA0120801297
B1627263754267N00300575WA0120801300
B1627273754270N00300577WA0120801301
B1627283754274N00300578WA0120801302
B1627293754279N00300578WA0120601302
B1627303754284N00300577WA0121201305
B1627313754288N00300574WA0121701308
B1627323754290N00300571WA0122201312
B1627333754291N00300568WA0122301316
B1627343754292N00300563WA0122501319
B1627353754291N00300556WA0122801321
B1627363754290N00300549WA0123001322
B1627373754286N00300543WA0123301324
B1627383754280N00300538WA0123601327
B1627393754274N00300535WA0123801330
B1627403754267N00300534WA0124001333
B1627413754261N00300535WA0124201335
B1627423754254N00300538WA0124501337
B1627433754249N00300542WA0124801340
B1627443754244N00300547WA0125101343
B1627453754243N00300552WA0125301346
B1627463754242N00300558WA0125501343
B1627473754242N00300562WA0125701345
B1627483754244N00300566WA0125901347
B1627493754246N00300569WA0126001350
B1627503754249N00300570WA0126201352
B1627513754253N00300569WA0126401354
B1627523754257N00300568WA0126301355
B1627533754261N00300566WA0126601357
B1627543754266N00300563WA0126901359
B1627553754269N00300561WA0127301364
B1627563754271N00300557WA0127701369
B1627573754271N00300552WA0127901372
B1627583754270N00300545WA0128101375
B1627593754268N00300538WA0128401378
B1628003754265N00300532WA0128701381
B1628013754261N00300527WA0129001385
B1628023754257N00300524WA0129301389
B1628033754251N00300521WA0129501391
B1628043754245N00300521WA0129601393
B1628053754238N00300521WA0129501395
B1628063754231N00300520WA0129901397
B1628073754226N00300521WA0130301400
B1628083754221N00300523WA0130601403
B1628093754217N00300527WA0130601405
B1628103754212N00300532WA0130701406
B1628113754207N00300537WA0131001408
B1628123754203N00300542WA0131401411
B1628133754201N00300545WA0131601415
B1628143754200N00300550WA0131701417
B1628153754202N00300554WA0131501417
B1628163754205N00300558WA0131501416
B1628173754209N00300561WA0131601417
B1628183754212N00300562WA0132001419
B1628193754214N00300563WA0132101421
B1628203754216N00300562WA0132201423
B1628213754219N00300560WA0132301423
B1628223754222N00300556WA0132501425
B1628233754224N00300552WA0132901428
B1628243754225N00300547WA0133301432
B1628253754224N00300542WA0133501435
B1628263754223N00300537WA0133701438
B1628273754220N00300530WA0133701439
B1628283754216N00300522WA0133801440
B1628293754210N00300515WA0134001441
B1628303754204N00300510WA0134401444
B1628313754198N00300507WA0134801448
B1628323754192N00300506WA0135001452
B1628333754185N00300507WA0135201454
B1628343754178N00300509WA0135301456
B1628353754172N00300513WA0135401457
B1628363754166N00300519WA0135501458
B1628373754163N00300524WA0135601459
B1628383754161N00300529WA0135601461
B1628393754161N00300533WA0135601459
B1628403754162N00300537WA0135601459
B1628413754165N00300540WA0135601459
B1628423754168N00300543WA0135401458
B1628433754173N00300543WA0135401458
B1628443754177N00300541WA0135201457
B1628453754180N00300537WA0135301458
B1628463754183N00300532WA0135601460
B1628473754185N00300526WA0135801461
B1628483754185N00300520WA0136201463
B1628493754186N00300514WA0136301466
B1628503754185N00300507WA0136501468
B1628513754185N00300500WA0136701470
B1628523754183N00300492WA0136901472
B1628533754182N00300485WA0137101474
B1628543754179N00300478WA0137301476
B1628553754175N00300472WA0137401478
B1628563754171N00300468WA0137401480
B1628573754166N00300463WA0137401480
B1628583754160N00300459WA0137401480
B1628593754154N00300456WA0137401479
B1629003754147N00300456WA0137501480
B1629013754142N00300457WA0137601481
B1629023754137N00300461WA0137801481
B1629033754134N00300465WA0137801483
B1629043754132N00300469WA0138001482
B1629053754130N00300473WA0138001482
B1629063754129N00300479WA0138001482
B1629073754129N00300484WA0138001482
B1629083754130N00300489WA0138101483
B1629093754132N00300493WA0138201484
B1629103754135N00300496WA0138301485
B1629113754138N00300497WA0138501486
B1629123754141N00300497WA0138601488
B1629133754145N00300496WA0138701489
B1629143754149N00300493WA0138801491
B1629153754152N00300488WA0138901492
B1629163754155N00300483WA0139001493
B1629173754156N00300476WA0139101494
B1629183754156N00300469WA0139301496
B1629193754155N00300463WA0139401498
B1629203754154N00300458WA0139501499
B1629213754152N00300452WA0139301500
B1629223754150N00300445WA0139101500
B1629233754147N00300438WA0139201498
B1629243754143N00300431WA0139401499
B1629253754139N00300425WA0139501500
B1629263754135N00300421WA0139601502
B1629273754131N00300417WA0139701503
B1629283754126N00300413WA0139601504
B1629293754121N00300408WA0139401505
B1629303754115N00300404WA0139501505
B1629313754109N00300402WA0139701505
B1629323754104N00300400WA0139801506
B1629333754100N00300400WA0139801507
B1629343754095N00300401WA0139701507
B1629353754090N00300404WA0139501507
B1629363754084N00300407WA0139501505
B1629373754079N00300411WA0139501504
B1629383754076N00300415WA0139601506
B1629393754074N00300420WA0139601506
B1629403754074N00300425WA0139501506
B1629413754075N00300429WA0139401506
B1629423754077N00300434WA0139501505
B1629433754080N00300437WA0139501505
B1629443754084N00300439WA0139601504
B1629453754088N00300441WA0139701506
B1629463754091N00300443WA0140001507
B1629473754094N00300445WA0140101509
B1629483754097N00300447WA0140101510
B1629493754100N00300449WA0140101510
B1629503754103N00300452WA0140001510
B1629513754108N00300455WA0140001509
B1629523754112N00300458WA0140101509
B1629533754117N00300460WA0140401512
B1629543754120N00300462WA0140701516
B1629553754123N00300461WA0140801518
B1629563754127N00300459WA0140801519
B1629573754131N00300455WA0140801518
B1629583754134N00300449WA0140801518
B1629593754138N00300444WA0141101519
B1630003754141N00300438WA0141401521
B1630013754142N00300433WA0141701524
B1630023754142N00300428WA0141901527
B1630033754142N00300422WA0142001528
B1630043754139N00300415WA0142101529
B1630053754135N00300408WA0142001529
B1630063754130N00300403WA0142201530
B1630073754124N00300400WA0142401532
B1630083754119N00300400WA0142701534
B1630093754114N00300402WA0142801536
B1630103754109N00300404WA0142901537
B1630113754105N00300408WA0143101538
B1630123754101N00300411WA0143101540
B1630133754098N00300415WA0143201540
B1630143754095N00300420WA0143301541
B1630153754094N00300425WA0143401542
B1630163754093N00300431WA0143101542
B1630173754094N00300437WA0143301542
B1630183754097N00300442WA0143501543
B1630193754099N00300446WA0143801545
B1630203754101N00300448WA0144001547
B1630213754104N00300450WA0144101549
B1630223754108N00300449WA0144301551
B1630233754112N00300447WA0144301552
B1630243754116N00300443WA0144401553
B1630253754120N00300439WA0144501554
B1630263754123N00300435WA0144601555
B1630273754125N00300430WA0144701556
B1630283754126N00300424WA0144501557
B1630293754126N00300417WA0144501557
B1630303754126N00300409WA0144701557
B1630313754124N00300400WA0144901558
B1630323754122N00300392WA0145101559
B1630333754120N00300385WA0145501562
B1630343754118N00300379WA0145701565
B1630353754116N00300373WA0145901568
B1630363754112N00300367WA0146001569
B1630373754107N00300361WA0145901570
B1630383754102N00300356WA0146001571
B1630393754096N00300351WA0146101571
B1630403754090N00300347WA0146101573
B1630413754085N00300343WA0146401575
B1630423754079N00300341WA0146601577
B1630433754074N00300340WA0146701579
B1630443754068N00300341WA0146701580
B1630453754062N00300344WA0146801581
B1630463754057N00300349WA0146901582
B1630473754053N00300354WA0147101584
B1630483754050N00300359WA0147301586
B1630493754048N00300364WA0147401587
B1630503754047N00300370WA0147501588
B1630513754048N00300376WA0147401588
B1630523754050N00300382WA0147001588
B1630533754053N00300386WA0147201587
B1630543754057N00300389WA0147501589
B1630553754061N00300390WA0147801590
B1630563754065N00300390WA0147901592
B1630573754069N00300388WA0147901592
B1630583754073N00300384WA0147501592
B1630593754077N00300378WA0147701592
B1631003754081N00300373WA0147901592
B1631013754084N00300367WA0148001593
B1631023754087N00300361WA0148101594
B1631033754089N00300355WA0148001594
B1631043754091N00300348WA0148001594
B1631053754093N00300340WA0148101594
B1631063754093N00300332WA0148301595
B1631073754093N00300325WA0148501596
B1631083754092N00300318WA0148601598
B1631093754091N00300311WA0148601600
B1631103754090N00300304WA0148701600
B1631113754088N00300296WA0148801601
B1631123754085N00300289WA0148901602
B1631133754082N00300283WA0149101603
B1631143754078N00300278WA0149201605
B1631153754074N00300273WA0149201606
B1631163754068N00300269WA0149301607
B1631173754062N00300266WA0149301607
B1631183754056N00300264WA0149401608
B1631193754050N00300264WA0149601609
B1631203754044N00300264WA0149701610
B1631213754039N00300265WA0149901612
B1631223754034N00300268WA0150001613
B1631233754031N00300272WA0150001614
B1631243754028N00300278WA0149901614
B1631253754027N00300284WA0149901614
B1631263754028N00300290WA0149901615
B1631273754029N00300296WA0150401618
B1631283754032N00300300WA0150801621
B1631293754036N00300302WA0151001623
B1631303754039N00300302WA0151201625
B1631313754044N00300300WA0151101626
B1631323754048N00300295WA0150901625
B1631333754052N00300288WA0150901623
B1631343754056N00300282WA0151001623
B1631353754059N00300276WA0151101623
B1631363754061N00300271WA0151201624
B1631373754063N00300265WA0151001625
B1631383754064N00300257WA0151001624
B1631393754065N00300249WA0151001623
B1631403754066N00300240WA0151101623
B1631413754067N00300231WA0151201624
B1631423754066N00300224WA0151501627
B1631433754066N00300218WA0151701630
B1631443754064N00300211WA0151801631
B1631453754060N00300204WA0151601632
B1631463754055N00300197WA0151501631
B1631473754050N00300191WA0151501630
B1631483754044N00300185WA0151701631
B1631493754040N00300181WA0151801633
B1631503754035N00300177WA0152001635
B1631513754030N00300174WA0152101636
B1631523754025N00300173WA0152201637
B1631533754018N00300173WA0152401638
B1631543754013N00300175WA0152501639
B1631553754008N00300177WA0152601641
B1631563754005N00300180WA0152601642
B1631573754003N00300185WA0152401642
B1631583754002N00300190WA0152401642
B1631593754003N00300196WA0152701642
B1632003754004N00300202WA0153001645
B1632013754007N00300205WA0153301649
B1632023754010N00300207WA0153501652
B1632033754013N00300208WA0153701654
B1632043754017N00300208WA0153701655
B1632053754022N00300207WA0153701655
B1632063754027N00300203WA0153701656
B1632073754031N00300199WA0153801656
B1632083754035N00300195WA0153601657
B1632093754038N00300189WA0153801657
B1632103754041N00300183WA0154001658
B1632113754043N00300176WA0153901658
B1632123754045N00300167WA0153901657
B1632133754046N00300158WA0153901656
B1632143754047N00300150WA0154001656
B1632153754047N00300142WA0154101657
B1632163754045N00300134WA0154201659
B1632173754044N00300127WA0154201660
B1632183754041N00300119WA0154101660
B1632193754038N00300111WA0154101659
B1632203754035N00300103WA0154101659
B1632213754033N00300096WA0154101659
B1632223754029N00300089WA0154201659
B1632233754024N00300082WA0154101659
B1632243754018N00300078WA0154101659
B1632253754011N00300075WA0154201659
B1632263754004N00300074WA0154401659
B1632273753999N00300075WA0154501660
B1632283753993N00300076WA0154701661
B1632293753989N00300079WA0154801662
B1632303753985N00300083WA0154801663
B1632313753984N00300089WA0154701663
B1632323753983N00300095WA0154401663
B1632333753984N00300101WA0154501663
B1632343753986N00300106WA0155001664
B1632353753987N00300110WA0155101666
B1632363753989N00300113WA0155101667
B1632373753993N00300115WA0155101668
B1632383753998N00300116WA0154901667
B1632393754003N00300117WA0154901666
B1632403754008N00300116WA0155001666
B1632413754012N00300114WA0155201668
B1632423754016N00300111WA0155301670
B1632433754018N00300107WA0155401671
B1632443754021N00300101WA0155401671
B1632453754023N00300094WA0155301671
B1632463754025N00300086WA0155401671
B1632473754026N00300079WA0155601672
B1632483754026N00300072WA0155701673
B1632493754026N00300066WA0155701674
B1632503754025N00300059WA0155601674
B1632513754023N00300051WA0155301672
B1632523754020N00300043WA0155101670
B1632533754015N00300036WA0155301669
B1632543754010N00300032WA0155401670
B1632553754004N00300029WA0155501671
B1632563753999N00300028WA0155601671
B1632573753993N00300028WA0155501672
B1632583753988N00300030WA0155401671
B1632593753982N00300032WA0155401671
B1633003753976N00300035WA0155501671
B1633013753972N00300038WA0155701673
B1633023753970N00300041WA0155901675
B1633033753968N00300045WA0156001677
B1633043753968N00300050WA0155801677
B1633053753969N00300055WA0155501676
B1633063753971N00300060WA0155701676
B1633073753973N00300064WA0155601675
B1633083753977N00300067WA0155601674
B1633093753981N00300070WA0155501674
B1633103753986N00300074WA0155501673
B1633113753990N00300078WA0155401672
B1633123753993N00300084WA0155301671
B1633133753996N00300089WA0155301672
B1633143753999N00300094WA0155501672
B1633153754002N00300098WA0155501672
B1633163754004N00300102WA0155601673
B1633173754006N00300107WA0155601673
B1633183754008N00300113WA0155501673
B1633193754010N00300118WA0155401672
B1633203754012N00300124WA0155401671
B1633213754014N00300129WA0155401671
B1633223754016N00300133WA0155401671
B1633233754018N00300136WA0155301671
B1633243754021N00300140WA0154901669
B1633253754024N00300143WA0154601667
B1633263754027N00300148WA0154301664
B1633273754030N00300153WA0154101665
B1633283754032N00300159WA0153901663
B1633293754034N00300164WA0153601661
B1633303754036N00300169WA0153401658
B1633313754039N00300174WA0153201656
B1633323754041N00300178WA0153001653
B1633333754043N00300184WA0152901651
B1633343754045N00300189WA0152801649
B1633353754047N00300193WA0152601648
B1633363754051N00300195WA0152401646
B1633373754056N00300197WA0152101643
B1633383754061N00300195WA0151401640
B1633393754066N00300191WA0151301636
B1633403754070N00300187WA0151201634
B1633413754073N00300183WA0151201632
B1633423754077N00300178WA0150901630
B1633433754081N00300174WA0150601626
B1633443754085N00300168WA0150201623
B1633453754090N00300163WA0150001619
B1633463754096N00300157WA0149801617
B1633473754101N00300153WA0149801617
B1633483754105N00300150WA0149801617
B1633493754109N00300148WA0149701616
B1633503754113N00300144WA0149401614
B1633513754117N00300140WA0149201611
B1633523754122N00300135WA0149001609
B1633533754127N00300132WA0148801606
B1633543754132N00300130WA0148801605
B1633553754136N00300129WA0148701604
B1633563754140N00300128WA0148601603
B1633573754144N00300126WA0148401601
B1633583754148N00300122WA0148101598
B1633593754153N00300118WA0147901595
B1634003754158N00300114WA0147601592
B1634013754162N00300110WA0147401590
B1634023754167N00300106WA0147201588
B1634033754171N00300101WA0146901585
B1634043754176N00300095WA0146801583
B1634053754181N00300089WA0146701580
B1634063754185N00300084WA0146401580
B1634073754189N00300079WA0146301580
B1634083754192N00300073WA0146201579
B1634093754196N00300067WA0146101578
B1634103754199N00300060WA0146001577
B1634113754202N00300053WA0146101575
B1634123754206N00300046WA0146101575
B1634133754210N00300040WA0146001574
B1634143754214N00300034WA0145901574
B1634153754217N00300029WA0145901573
B1634163754221N00300023WA0145801572
B1634173754225N00300016WA0145701571
B1634183754229N00300010WA0145601570
B1634193754232N00300003WA0145601569
B1634203754235N00259996WA0145501569
B1634213754238N00259988WA0145401568
B1634223754241N00259981WA0145201567
B1634233754244N00259973WA0144901565
B1634243754247N00259965WA0144801563
B1634253754251N00259957WA0144701561
B1634263754254N00259951WA0144801561
B1634273754257N00259944WA0144701561
B1634283754259N00259938WA0144701560
B1634293754262N00259931WA0144401558
B1634303754266N00259924WA0144201555
B1634313754270N00259917WA0144101553
B1634323754274N00259911WA0144001552
B1634333754277N00259905WA0143801552
B1634343754280N00259899WA0143901553
B1634353754283N00259892WA0143901552
B1634363754286N00259886WA0143701550
B1634373754290N00259879WA0143501547
B1634383754294N00259873WA0143301545
B1634393754298N00259867WA0143201544
B1634403754301N00259861WA0143101542
B1634413754305N00259855WA0142801541
B1634423754308N00259849WA0142401538
B1634433754313N00259844WA0142001535
B1634443754318N00259838WA0141801532
B1634453754323N00259832WA0141701529
B1634463754327N00259828WA0141601527
B1634473754330N00259823WA0141701525
B1634483754334N00259819WA0141601525
B1634493754338N00259814WA0141201523
B1634503754343N00259809WA0141001520
B1634513754348N00259805WA0140701517
B1634523754352N00259801WA0140601515
B1634533754357N00259796WA0140501512
B1634543754361N00259791WA0140301511
B1634553754364N00259785WA0140001510
B1634563754367N00259780WA0139701508
B1634573754371N00259775WA0139701507
B1634583754374N00259769WA0139801506
B1634593754376N00259762WA0139501504
B1635003754378N00259755WA0139501502
B1635013754379N00259748WA0139201500
B1635023754382N00259741WA0139001498
B1635033754384N00259734WA0138901497
B1635043754386N00259727WA0138801495
B1635053754388N00259722WA0138601495
B1635063754390N00259717WA0138501494
B1635073754393N00259712WA0138301492
B1635083754396N00259707WA0138001489
B1635093754399N00259702WA0137801486
B1635103754401N00259696WA0137501483
B1635113754404N00259690WA0137101480
B1635123754407N00259685WA0136801477
B1635133754411N00259680WA0136601473
B1635143754416N00259677WA0136401471
B1635153754420N00259674WA0136201468
B1635163754424N00259671WA0135901467
B1635173754428N00259668WA0135701465
B1635183754432N00259664WA0135401462
B1635193754436N00259662WA0135101459
B1635203754441N00259660WA0134801456
B1635213754446N00259658WA0134601453
B1635223754450N00259657WA0134201450
B1635233754455N00259655WA0133701447
B1635243754460N00259654WA0133601444
B1635253754464N00259652WA0133301441
B1635263754469N00259651WA0132901437
B1635273754475N00259650WA0132501433
B1635283754480N00259649WA0132301430
B1635293754485N00259649WA0132101427
B1635303754490N00259648WA0132001426
B1635313754495N00259647WA0131701424
B1635323754500N00259645WA0131401421
B1635333754505N00259644WA0131101418
B1635343754511N00259644WA0130901415
B1635353754516N00259643WA0130701412
B1635363754520N00259641WA0130501410
B1635373754524N00259640WA0130201408
B1635383754529N00259638WA0130001405
B1635393754534N00259637WA0129701402
B1635403754539N00259635WA0129401399
B1635413754543N00259631WA0129301397
B1635423754547N00259627WA0129101395
B1635433754551N00259622WA0129001393
B1635443754555N00259619WA0128601392
B1635453754559N00259616WA0128401389
B1635463754564N00259614WA0128101385
B1635473754569N00259611WA0127901383
B1635483754573N00259607WA0127801381
B1635493754577N00259604WA0127601379
B1635503754582N00259602WA0127201377
B1635513754587N00259599WA0127001375
B1635523754591N00259596WA0126901373
B1635533754595N00259593WA0126901372
B1635543754599N00259588WA0126801370
B1635553754603N00259584WA0126501368
B1635563754607N00259581WA0126101366
B1635573754612N00259578WA0125901364
B1635583754616N00259575WA0125601362
B1635593754621N00259572WA0125601360
B1636003754626N00259569WA0125501359
B1636013754630N00259566WA0125601358
B1636023754634N00259564WA0125401357
B1636033754639N00259562WA0125301355
B1636043754644N00259559WA0125101353
B1636053754649N00259556WA0125001351
B1636063754654N00259552WA0124701349
B1636073754659N00259548WA0124601348
B1636083754663N00259545WA0124601347
B1636093754667N00259542WA0124601347
B1636103754671N00259540WA0124401346
B1636113754676N00259538WA0124301344
B1636123754681N00259535WA0124301343
B1636133754686N00259532WA0124401343
B1636143754691N00259529WA0124401344
B1636153754694N00259527WA0124501345
B1636163754699N00259524WA0124401344
B1636173754704N00259522WA0124201343
B1636183754709N00259520WA0124101341
B1636193754714N00259517WA0124101341
B1636203754718N00259514WA0124201341
B1636213754721N00259512WA0124301341
B1636223754725N00259509WA0124401342
B1636233754729N00259507WA0124401342
B1636243754733N00259505WA0124301342
B1636253754737N00259502WA0124301341
B1636263754741N00259498WA0124201341
B1636273754746N00259495WA0124301341
B1636283754751N00259491WA0124401341
B1636293754755N00259488WA0124601342
B1636303754758N00259484WA0124701344
B1636313754761N00259481WA0124701345
B1636323754764N00259478WA0124701345
B1636333754768N00259474WA0124701345
B1636343754772N00259470WA0124801345
B1636353754775N00259464WA0124801346
B1636363754777N00259459WA0124901347
B1636373754779N00259454WA0125001348
B1636383754782N00259449WA0125001349
B1636393754785N00259443WA0125101349
B1636403754787N00259436WA0125101350
B1636413754790N00259430WA0124901349
B1636423754793N00259423WA0124501349
B1636433754795N00259416WA0124801349
B1636443754797N00259409WA0125101349
B1636453754799N00259402WA0124901349
B1636463754800N00259393WA0124701348
B1636473754801N00259384WA0124701346
B1636483754803N00259374WA0124901346
B1636493754805N00259364WA0125101347
B1636503754807N00259356WA0125201347
B1636513754811N00259348WA0125301349
B1636523754814N00259341WA0125701352
B1636533754817N00259335WA0126001355
B1636543754819N00259328WA0126101358
B1636553754821N00259321WA0126301360
B1636563754822N00259314WA0126401360
B1636573754824N00259306WA0126401361
B1636583754827N00259300WA0126501362
B1636593754830N00259295WA0126501362
B1637003754833N00259292WA0126401363
B1637013754836N00259289WA0126101363
B1637023754840N00259284WA0125701361
B1637033754844N00259279WA0125801359
B1637043754848N00259275WA0125801357
B1637053754853N00259271WA0125701357
B1637063754857N00259268WA0125701357
B1637073754860N00259265WA0125801358
B1637083754864N00259262WA0125601358
B1637093754868N00259259WA0125501357
B1637103754873N00259256WA0125301355
B1637113754877N00259253WA0125301354
B1637123754882N00259250WA0125201353
B1637133754886N00259248WA0125101352
B1637143754890N00259247WA0125001351
B1637153754894N00259245WA0124901350
B1637163754898N00259244WA0124801349
B1637173754903N00259242WA0124701348
B1637183754907N00259240WA0124701347
B1637193754911N00259237WA0124701347
B1637203754914N00259233WA0124601346
B1637213754917N00259229WA0124601346
B1637223754920N00259225WA0124501345
B1637233754924N00259220WA0124201344
B1637243754927N00259216WA0123801343
B1637253754931N00259211WA0123801342
B1637263754933N00259206WA0123901342
B1637273754935N00259201WA0124101342
B1637283754937N00259196WA0124001341
B1637293754940N00259190WA0123801340
B1637303754943N00259183WA0123601337
B1637313754945N00259176WA0123501335
B1637323754946N00259169WA0123501333
B1637333754947N00259162WA0123501333
B1637343754948N00259155WA0123401333
B1637353754950N00259149WA0123201332
B1637363754952N00259141WA0123001330
B1637373754954N00259134WA0122801328
B1637383754956N00259126WA0122801326
B1637393754958N00259118WA0122501325
B1637403754959N00259112WA0122401324
B1637413754962N00259105WA0122201323
B1637423754964N00259099WA0122201321
B1637433754967N00259092WA0121901319
B1637443754969N00259085WA0121701316
B1637453754972N00259078WA0121501314
B1637463754975N00259072WA0121401313
B1637473754978N00259066WA0121301312
B1637483754980N00259059WA0121101310
B1637493754982N00259053WA0120901308
B1637503754985N00259046WA0120701306
B1637513754988N00259040WA0120101304
B1637523754991N00259033WA0119901301
B1637533754993N00259027WA0119901299
B1637543754994N00259019WA0119901297
B1637553754995N00259012WA0119701295
B1637563754997N00259005WA0119501293
B1637573754999N00258999WA0119301290
B1637583755002N00258992WA0119201288
B1637593755004N00258985WA0119101287
B1638003755005N00258979WA0119001285
B1638013755007N00258972WA0118901285
B1638023755009N00258965WA0118901284
B1638033755012N00258958WA0118801283
B1638043755015N00258950WA0118801283
B1638053755019N00258943WA0118901283
B1638063755021N00258937WA0119001284
B1638073755023N00258931WA0119101285
B1638083755026N00258925WA0119301286
B1638093755028N00258917WA0119301286
B1638103755030N00258910WA0119501289
B1638113755031N00258904WA0119801291
B1638123755032N00258900WA0119901294
B1638133755033N00258895WA0119801295
B1638143755034N00258890WA0119601295
B1638153755034N00258884WA0119401295
B1638163755033N00258877WA0119801294
B1638173755033N00258871WA0119901294
B1638183755034N00258865WA0119801294
B1638193755037N00258859WA0119901294
B1638203755040N00258855WA0120001294
B1638213755042N00258850WA0120201295
B1638223755045N00258845WA0120401297
B1638233755047N00258840WA0120501299
B1638243755048N00258834WA0120701300
B1638253755050N00258830WA0120801302
B1638263755053N00258826WA0120801303
B1638273755057N00258822WA0120801304
B1638283755062N00258819WA0120601303
B1638293755066N00258815WA0120801303
B1638303755069N00258810WA0121001305
B1638313755070N00258806WA0121101307
B1638323755072N00258802WA0121001307
B1638333755076N00258798WA0120801306
B1638343755080N00258794WA0120001304
B1638353755084N00258790WA0120401303
B1638363755087N00258785WA0120501302
B1638373755089N00258781WA0120701302
B1638383755092N00258778WA0120501302
B1638393755096N00258775WA0120301301
B1638403755100N00258773WA0120201299
B1638413755104N00258770WA0120301298
B1638423755109N00258766WA0120401298
B1638433755113N00258763WA0120701299
B1638443755116N00258761WA0120801301
B1638453755118N00258758WA0120701301
B1638463755122N00258755WA0120501301
B1638473755126N00258752WA0120001300
B1638483755130N00258749WA0119901297
B1638493755135N00258746WA0119901296
B1638503755139N00258743WA0120001296
B1638513755143N00258739WA0120001296
B1638523755146N00258736WA0120101296
B1638533755150N00258733WA0120001296
B1638543755154N00258730WA0119801295
B1638553755158N00258726WA0119701294
B1638563755163N00258723WA0119701294
B1638573755167N00258719WA0119401293
B1638583755170N00258715WA0119401294
B1638593755173N00258711WA0119701294
B1639003755177N00258707WA0119601294
B1639013755180N00258702WA0119401293
B1639023755185N00258698WA0119301291
B1639033755189N00258693WA0119201289
B1639043755194N00258689WA0119101289
B1639053755199N00258685WA0119001288
B1639063755204N00258681WA0119001287
B1639073755208N00258677WA0118901287
B1639083755213N00258671WA0118901286
B1639093755218N00258666WA0118901286
B1639103755223N00258663WA0118901285
B1639113755228N00258659WA0118901285
B1639123755233N00258656WA0118901285
B1639133755238N00258652WA0119001285
B1639143755243N00258648WA0118901286
B1639153755248N00258644WA0118601285
B1639163755253N00258640WA0118701285
B1639173755259N00258636WA0118901285
B1639183755264N00258632WA0118801285
B1639193755269N00258627WA0118801284
B1639203755274N00258623WA0118901284
B1639213755278N00258619WA0119001285
B1639223755282N00258615WA0119001285
B1639233755286N00258611WA0118901285
B1639243755290N00258606WA0118701283
B1639253755296N00258601WA0118501281
B1639263755302N00258596WA0118501279
B1639273755308N00258591WA0118501279
B1639283755313N00258587WA0118701280
B1639293755317N00258583WA0118801282
B1639303755321N00258579WA0118701282
B1639313755327N00258575WA0118701281
B1639323755333N00258571WA0118601280
B1639333755338N00258568WA0118601280
B1639343755343N00258564WA0118401280
B1639353755349N00258561WA0118201280
B1639363755354N00258557WA0118101279
B1639373755360N00258554WA0118201278
B1639383755365N00258550WA0118201277
B1639393755370N00258547WA0118001277
B1639403755375N00258544WA0117901276
B1639413755381N00258541WA0117801275
B1639423755388N00258539WA0117701272
B1639433755395N00258538WA0117601271
B1639443755401N00258537WA0117701271
B1639453755406N00258537WA0118001273
B1639463755411N00258538WA0118101274
B1639473755415N00258539WA0118301276
B1639483755419N00258542WA0118301276
B1639493755423N00258545WA0118401277
B1639503755427N00258549WA0118601279
B1639513755430N00258553WA0118801281
B1639523755434N00258556WA0119001283
B1639533755438N00258559WA0119201285
B1639543755443N00258560WA0119301287
B1639553755448N00258560WA0119301288
B1639563755454N00258556WA0119401288
B1639573755459N00258550WA0119401288
B1639583755462N00258543WA0119801289
B1639593755462N00258536WA0120101293
B1640003755459N00258530WA0120201296
B1640013755456N00258525WA0120301297
B1640023755450N00258521WA0120501298
B1640033755444N00258518WA0120801299
B1640043755438N00258517WA0120901300
B1640053755433N00258518WA0121101302
B1640063755429N00258521WA0121301305
B1640073755426N00258524WA0121601307
B1640083755423N00258529WA0121701308
B1640093755421N00258534WA0121901310
B1640103755420N00258539WA0122101313
B1640113755419N00258545WA0122301316
B1640123755419N00258549WA0122601319
B1640133755420N00258554WA0122701321
B1640143755424N00258557WA0122701323
B1640153755429N00258559WA0122701323
B1640163755435N00258560WA0122701323
B1640173755441N00258561WA0122801323
B1640183755446N00258561WA0122901325
B1640193755452N00258559WA0123001327
B1640203755457N00258555WA0123001327
B1640213755460N00258549WA0123201327
B1640223755462N00258541WA0123301328
B1640233755462N00258533WA0123601330
B1640243755459N00258526WA0123901334
B1640253755456N00258520WA0124201338
B1640263755450N00258517WA0124601342
B1640273755445N00258517WA0124701344
B1640283755440N00258520WA0124901346
B1640293755436N00258524WA0125201349
B1640303755433N00258529WA0125301352
B1640313755431N00258533WA0125401354
B1640323755430N00258539WA0125501356
B1640333755429N00258544WA0125601355
B1640343755428N00258549WA0125801357
B1640353755427N00258554WA0126001359
B1640363755426N00258559WA0126001360
B1640373755427N00258565WA0126001361
B1640383755429N00258571WA0125901359
B1640393755431N00258577WA0125801357
B1640403755435N00258583WA0125701356
B1640413755439N00258587WA0125601355
B1640423755442N00258591WA0125601356
B1640433755445N00258594WA0125701356
B1640443755448N00258597WA0125401356
B1640453755450N00258600WA0125101355
B1640463755453N00258602WA0124801352
B1640473755457N00258602WA0124501348
B1640483755461N00258602WA0124201343
B1640493755466N00258600WA0123801338
B1640503755471N00258597WA0123701335
B1640513755474N00258593WA0123401333
B1640523755477N00258587WA0122901330
B1640533755478N00258580WA0122601327
B1640543755478N00258572WA0122401324
B1640553755476N00258564WA0122201320
B1640563755473N00258556WA0122001317
B1640573755470N00258550WA0121901315
B1640583755466N00258544WA0121801313
B1640593755462N00258540WA0121601312
B1641003755456N00258535WA0121301310
B1641013755450N00258531WA0121101307
B1641023755444N00258527WA0121001305
B1641033755438N00258525WA0121101304
B1641043755432N00258523WA0121201304
B1641053755427N00258521WA0121201305
B1641063755421N00258521WA0121001304
B1641073755415N00258520WA0120901303
B1641083755409N00258519WA0120901303
B1641093755403N00258518WA0121101303
B1641103755398N00258517WA0121301304
B1641113755394N00258516WA0121401306
B1641123755389N00258515WA0121301307
B1641133755384N00258515WA0120801306
B1641143755379N00258517WA0120701306
B1641153755375N00258518WA0120701305
B1641163755370N00258519WA0120701305
B1641173755366N00258521WA0120701305
B1641183755361N00258522WA0120601304
B1641193755357N00258523WA0120301303
B1641203755351N00258524WA0120001301
B1641213755346N00258526WA0119901299
B1641223755341N00258528WA0119801297
B1641233755336N00258530WA0119701296
B1641243755332N00258533WA0119501295
B1641253755327N00258535WA0119301293
B1641263755323N00258537WA0119301291
B1641273755318N00258540WA0119001288
B1641283755315N00258543WA0118701287
B1641293755312N00258546WA0118501285
B1641303755310N00258550WA0118401283
B1641313755309N00258554WA0118301281
B1641323755309N00258559WA0118101279
B1641333755310N00258564WA0117901277
B1641343755311N00258570WA0117701273
B1641353755312N00258575WA0117501271
B1641363755314N00258581WA0117401270
B1641373755315N00258586WA0117101269
B1641383755317N00258591WA0117001268
B1641393755319N00258596WA0117001269
B1641403755321N00258601WA0116801268
B1641413755324N00258606WA0116701266
B1641423755326N00258611WA0116401263
B1641433755328N00258617WA0116301261
B1641443755329N00258623WA0116101259
B1641453755331N00258628WA0115901257
B1641463755333N00258634WA0115701255
B1641473755335N00258639WA0115501253
B1641483755337N00258645WA0115401251
B1641493755339N00258650WA0115201249
B1641503755340N00258656WA0115201248
B1641513755342N00258662WA0114801246
B1641523755344N00258667WA0114601245
B1641533755346N00258673WA0114401243
B1641543755349N00258679WA0114301241
B1641553755352N00258684WA0114401239
B1641563755356N00258688WA0114201238
B1641573755359N00258694WA0114001236
B1641583755362N00258699WA0113801235
B1641593755365N00258705WA0113801233
B1642003755368N00258710WA0113601231
B1642013755371N00258716WA0113501229
B1642023755374N00258721WA0113501228
B1642033755377N00258727WA0113301227
B1642043755381N00258732WA0113101226
B1642053755385N00258738WA0112901225
B1642063755389N00258742WA0113001224
B1642073755394N00258746WA0112901223
B1642083755398N00258750WA0112701222
B1642093755403N00258754WA0112501220
B1642103755407N00258759WA0112101219
B1642113755411N00258764WA0112001217
B1642123755415N00258770WA0112001215
B1642133755420N00258775WA0112001215
B1642143755423N00258782WA0112201216
B1642153755425N00258788WA0112401217
B1642163755427N00258793WA0112601218
B1642173755429N00258798WA0112901220
B1642183755431N00258802WA0113101222
B1642193755434N00258806WA0113201223
B1642203755437N00258809WA0113201224
B1642213755441N00258811WA0113301225
B1642223755445N00258812WA0113501226
B1642233755449N00258812WA0113701227
B1642243755453N00258809WA0113801229
B1642253755457N00258803WA0113901230
B1642263755458N00258795WA0114101231
B1642273755457N00258786WA0114001231
B1642283755454N00258778WA0114001232
B1642293755449N00258771WA0114201232
B1642303755444N00258767WA0114301234
B1642313755440N00258764WA0114501235
B1642323755436N00258764WA0114501236
B1642333755431N00258765WA0114501237
B1642343755427N00258768WA0114401237
B1642353755422N00258772WA0114301237
B1642363755417N00258777WA0114301237
B1642373755414N00258782WA0114501238
B1642383755410N00258787WA0114801240
B1642393755408N00258791WA0115101242
B1642403755406N00258796WA0115201245
B1642413755405N00258801WA0115301246
B1642423755404N00258806WA0115401247
B1642433755403N00258812WA0115601248
B1642443755402N00258817WA0115701250
B1642453755401N00258823WA0115901252
B1642463755400N00258828WA0116101253
B1642473755399N00258833WA0116301255
B1642483755398N00258839WA0116401257
B1642493755398N00258844WA0116501258
B1642503755400N00258849WA0116601259
B1642513755403N00258854WA0116601259
B1642523755407N00258858WA0116601260
B1642533755411N00258861WA0116701261
B1642543755415N00258863WA0116801262
B1642553755420N00258862WA0116701263
B1642563755425N00258860WA0116401262
B1642573755429N00258856WA0116501260
B1642583755434N00258850WA0116501260
B1642593755439N00258844WA0116501259
B1643003755443N00258838WA0116601259
B1643013755446N00258831WA0116601259
B1643023755447N00258823WA0116501259
B1643033755446N00258814WA0116501259
B1643043755443N00258805WA0116501259
B1643053755439N00258797WA0116801260
B1643063755435N00258791WA0117101263
B1643073755431N00258787WA0117301266
B1643083755427N00258785WA0117401268
B1643093755422N00258784WA0117301270
B1643103755415N00258784WA0117101270
B1643113755409N00258786WA0117101270
B1643123755403N00258788WA0117301271
B1643133755398N00258788WA0117701274
B1643143755394N00258788WA0118101278
B1643153755391N00258788WA0118301281
B1643163755389N00258790WA0118401282
B1643173755386N00258793WA0118501282
B1643183755384N00258798WA0118301282
B1643193755384N00258805WA0118301283
B1643203755384N00258811WA0118501283
B1643213755386N00258815WA0118801285
B1643223755387N00258818WA0118901287
B1643233755389N00258821WA0118901288
B1643243755393N00258824WA0118801287
B1643253755399N00258826WA0118701286
B1643263755405N00258826WA0118701284
B1643273755410N00258825WA0118901285
B1643283755415N00258823WA0119101287
B1643293755418N00258819WA0119201289
B1643303755421N00258814WA0119101288
B1643313755424N00258806WA0118901288
B1643323755426N00258797WA0118701286
B1643333755427N00258787WA0118901286
B1643343755427N00258778WA0119201288
B1643353755426N00258770WA0119301291
B1643363755425N00258764WA0119601293
B1643373755423N00258759WA0119801295
B1643383755418N00258754WA0119801295
B1643393755412N00258750WA0119801296
B1643403755406N00258747WA0119901296
B1643413755401N00258746WA0120101297
B1643423755397N00258746WA0120301299
B1643433755393N00258748WA0120501300
B1643443755390N00258751WA0120601301
B1643453755387N00258755WA0120601301
B1643463755384N00258759WA0120801302
B1643473755382N00258764WA0120801303
B1643483755381N00258769WA0120801304
B1643493755381N00258773WA0121001306
B1643503755381N00258776WA0121001307
B1643513755382N00258779WA0121001307
B1643523755386N00258782WA0120801305
B1643533755391N00258784WA0120701304
B1643543755397N00258784WA0120501302
B1643553755403N00258782WA0120701303
B1643563755408N00258779WA0120801304
B1643573755412N00258776WA0120901305
B1643583755416N00258771WA0120801305
B1643593755419N00258765WA0120801305
B1644003755422N00258757WA0120701304
B1644013755423N00258748WA0120701303
B1644023755424N00258739WA0120801303
B1644033755423N00258731WA0120901305
B1644043755421N00258724WA0121101306
B1644053755418N00258718WA0121201307
B1644063755414N00258712WA0121301307
B1644073755409N00258707WA0121401308
B1644083755404N00258704WA0121501309
B1644093755399N00258702WA0121701310
B1644103755394N00258700WA0121901311
B1644113755390N00258700WA0122001312
B1644123755385N00258701WA0122101314
B1644133755381N00258702WA0122101314
B1644143755377N00258705WA0122201315
B1644153755373N00258709WA0122201316
B1644163755370N00258713WA0122301318
B1644173755366N00258716WA0122501319
B1644183755364N00258718WA0122601321
B1644193755362N00258721WA0122701322
B1644203755361N00258724WA0122701322
B1644213755360N00258727WA0122701323
B1644223755360N00258731WA0122501323
B1644233755361N00258735WA0122401322
B1644243755364N00258739WA0122301320
B1644253755368N00258742WA0122301320
B1644263755373N00258743WA0122201319
B1644273755377N00258743WA0122201319
B1644283755381N00258741WA0122101319
B1644293755385N00258736WA0121701317
B1644303755389N00258729WA0121801315
B1644313755392N00258720WA0121601313
B1644323755393N00258709WA0121701312
B1644333755392N00258699WA0121901312
B1644343755391N00258691WA0122101314
B1644353755389N00258685WA0122201317
B1644363755387N00258679WA0122201317
B1644373755382N00258672WA0121701317
B1644383755376N00258666WA0121601316
B1644393755370N00258662WA0121901316
B1644403755365N00258659WA0122101316
B1644413755360N00258657WA0122201318
B1644423755356N00258656WA0122301319
B1644433755351N00258657WA0122301319
B1644443755347N00258659WA0122201319
B1644453755342N00258660WA0122201319
B1644463755338N00258661WA0122101320
B1644473755334N00258663WA0122201320
B1644483755330N00258665WA0122101321
B1644493755326N00258667WA0122201320
B1644503755321N00258668WA0122101319
B1644513755317N00258669WA0122201319
B1644523755312N00258670WA0122201319
B1644533755309N00258672WA0122301321
B1644543755306N00258674WA0122401322
B1644553755302N00258676WA0122401322
B1644563755299N00258678WA0122501323
B1644573755294N00258679WA0122501323
B1644583755290N00258681WA0122501324
B1644593755284N00258681WA0122601324
B1645003755279N00258682WA0122801325
B1645013755274N00258683WA0123001326
B1645023755270N00258684WA0123201328
B1645033755265N00258685WA0123401330
B1645043755262N00258687WA0123501332
B1645053755259N00258690WA0123701334
B1645063755256N00258694WA0123801335
B1645073755254N00258699WA0123901337
B1645083755252N00258702WA0124201339
B1645093755251N00258706WA0124401342
B1645103755250N00258709WA0124501344
B1645113755250N00258713WA0124701346
B1645123755251N00258717WA0124801346
B1645133755255N00258721WA0124801346
B1645143755260N00258722WA0124601345
B1645153755265N00258721WA0124701344
B1645163755271N00258719WA0124801345
B1645173755275N00258715WA0125101347
B1645183755279N00258710WA0125201348
B1645193755281N00258704WA0125201349
B1645203755282N00258695WA0125001350
B1645213755280N00258686WA0124501350
B1645223755277N00258677WA0124801349
B1645233755272N00258670WA0125001351
B1645243755267N00258665WA0125301353
B1645253755262N00258663WA0125501356
B1645263755258N00258662WA0125701358
B1645273755254N00258663WA0125801360
B1645283755249N00258665WA0125801361
B1645293755244N00258667WA0125901362
B1645303755239N00258670WA0126001363
B1645313755234N00258672WA0126201365
B1645323755229N00258673WA0126401366
B1645333755225N00258674WA0126701369
B1645343755221N00258675WA0126901371
B1645353755218N00258677WA0127001373
B1645363755216N00258679WA0127001373
B1645373755214N00258683WA0126901373
B1645383755213N00258689WA0126901372
B1645393755212N00258695WA0126801370
B1645403755212N00258700WA0126901371
B1645413755212N00258704WA0127001372
B1645423755212N00258707WA0127101373
B1645433755213N00258711WA0127201373
B1645443755214N00258715WA0127101372
B1645453755216N00258721WA0127001371
B1645463755219N00258726WA0127101372
B1645473755221N00258730WA0127301372
B1645483755224N00258733WA0127501373
B1645493755228N00258735WA0127501374
B1645503755233N00258735WA0127301373
B1645513755238N00258733WA0127101369
B1645523755245N00258729WA0126901365
B1645533755251N00258722WA0126801364
B1645543755254N00258713WA0126701362
B1645553755255N00258705WA0126901364
B1645563755253N00258698WA0126901364
B1645573755250N00258692WA0127001365
B1645583755246N00258686WA0127001366
B1645593755241N00258681WA0127101366
B1646003755236N00258677WA0127101368
B1646013755230N00258674WA0127101368
B1646023755224N00258673WA0126901369
B1646033755218N00258673WA0126901369
B1646043755213N00258674WA0127101370
B1646053755207N00258675WA0127401371
B1646063755202N00258677WA0127601373
B1646073755197N00258677WA0127701374
B1646083755191N00258678WA0127801375
B1646093755185N00258680WA0128101377
B1646103755180N00258681WA0128201379
B1646113755175N00258683WA0128401381
B1646123755170N00258685WA0128701384
B1646133755165N00258686WA0128901386
B1646143755160N00258688WA0129301390
B1646153755155N00258689WA0129601394
B1646163755152N00258690WA0130001397
B1646173755148N00258691WA0130201401
B1646183755144N00258692WA0130401404
B1646193755140N00258693WA0130601407
B1646203755135N00258693WA0130601409
B1646213755129N00258693WA0130701411
B1646223755123N00258693WA0131101414
B1646233755118N00258693WA0131701417
B1646243755114N00258693WA0132101422
B1646253755111N00258692WA0132501427
B1646263755108N00258693WA0132701430
B1646273755104N00258695WA0132801433
B1646283755100N00258698WA0132901435
B1646293755095N00258699WA0133101437
B1646303755091N00258699WA0133401439
B1646313755087N00258699WA0133701442
B1646323755083N00258699WA0133801444
B1646333755079N00258700WA0133901445
B1646343755075N00258703WA0134001446
B1646353755072N00258707WA0134101447
B1646363755070N00258711WA0134301449
B1646373755069N00258715WA0134601451
B1646383755070N00258720WA0134901453
B1646393755072N00258723WA0135001456
B1646403755074N00258727WA0135201457
B1646413755077N00258730WA0135301458
B1646423755081N00258732WA0135401460
B1646433755086N00258733WA0135501461
B1646443755091N00258730WA0135501461
B1646453755096N00258725WA0135501461
B1646463755099N00258716WA0135501460
B1646473755100N00258706WA0135501460
B1646483755098N00258696WA0135601460
B1646493755095N00258688WA0135901461
B1646503755091N00258682WA0136301464
B1646513755087N00258680WA0136601467
B1646523755083N00258679WA0136801470
B1646533755078N00258679WA0136901472
B1646543755073N00258680WA0137101473
B1646553755069N00258681WA0137301475
B1646563755065N00258683WA0137501478
B1646573755062N00258685WA0137701481
B1646583755060N00258689WA0138001483
B1646593755059N00258694WA0138101485
B1647003755060N00258700WA0138301486
B1647013755061N00258704WA0138401489
B1647023755063N00258708WA0138601491
B1647033755065N00258712WA0138601492
B1647043755068N00258716WA0138601493
B1647053755072N00258719WA0138501494
B1647063755078N00258720WA0138501494
B1647073755084N00258718WA0138401493
B1647083755090N00258714WA0138501492
B1647093755094N00258707WA0138501492
B1647103755096N00258697WA0138101492
B1647113755095N00258686WA0138001490
B1647123755092N00258677WA0138501491
B1647133755088N00258669WA0138901494
B1647143755083N00258664WA0139101499
B1647153755079N00258661WA0139301501
B1647163755074N00258659WA0139501503
B1647173755069N00258658WA0139601505
B1647183755065N00258658WA0139801507
B1647193755060N00258658WA0139901509
B1647203755056N00258659WA0140201511
B1647213755052N00258659WA0140501513
B1647223755048N00258659WA0140701515
B1647233755045N00258661WA0140801517
B1647243755043N00258666WA0140801518
B1647253755042N00258672WA0140901517
B1647263755041N00258678WA0140901517
B1647273755041N00258685WA0141101518
B1647283755041N00258691WA0141101520
B1647293755042N00258696WA0141001521
B1647303755043N00258701WA0140701519
B1647313755045N00258706WA0140401519
B1647323755048N00258711WA0140301516
B1647333755051N00258715WA0140301515
B1647343755055N00258717WA0140301514
B1647353755059N00258717WA0140401514
B1647363755063N00258716WA0140501515
B1647373755069N00258715WA0140701516
B1647383755074N00258713WA0141001518
B1647393755078N00258709WA0141201520
B1647403755082N00258705WA0141401522
B1647413755084N00258698WA0141601524
B1647423755086N00258690WA0141601525
B1647433755086N00258680WA0141501525
B1647443755084N00258670WA0141601524
B1647453755082N00258661WA0141801526
B1647463755080N00258654WA0142001528
B1647473755077N00258647WA0142101530
B1647483755073N00258641WA0142001530
B1647493755068N00258635WA0141601529
B1647503755061N00258630WA0141601528
B1647513755055N00258626WA0141601528
B1647523755050N00258622WA0141701528
B1647533755046N00258620WA0141801529
B1647543755042N00258619WA0141801529
B1647553755037N00258619WA0141701529
B1647563755031N00258618WA0141601529
B1647573755025N00258617WA0141701529
B1647583755019N00258616WA0142201531
B1647593755015N00258616WA0142601535
B1648003755013N00258618WA0142801537
B1648013755012N00258620WA0142601537
B1648023755009N00258624WA0142201535
B1648033755008N00258630WA0141801533
B1648043755008N00258636WA0141601530
B1648053755009N00258642WA0141501528
B1648063755011N00258647WA0141401527
B1648073755012N00258651WA0141401527
B1648083755014N00258654WA0141301526
B1648093755016N00258657WA0141001523
B1648103755020N00258661WA0140701520
B1648113755025N00258664WA0140401517
B1648123755030N00258666WA0140401515
B1648133755035N00258667WA0140201513
B1648143755040N00258668WA0140301515
B1648153755044N00258669WA0140501516
B1648163755049N00258671WA0140601516
B1648173755054N00258672WA0140701517
B1648183755058N00258674WA0140901517
B1648193755062N00258675WA0141101518
B1648203755066N00258675WA0141301520
B1648213755070N00258675WA0141501521
B1648223755074N00258673WA0141501522
B1648233755079N00258668WA0141601524
B1648243755083N00258661WA0141801526
B1648253755085N00258652WA0142101528
B1648263755086N00258642WA0142401530
B1648273755083N00258633WA0142601532
B1648283755078N00258626WA0142901534
B1648293755073N00258621WA0143201537
B1648303755068N00258619WA0143401539
B1648313755064N00258619WA0143501541
B1648323755060N00258620WA0143701543
B1648333755057N00258623WA0143801545
B1648343755056N00258626WA0143801545
B1648353755056N00258629WA0143801547
B1648363755056N00258632WA0144001548
B1648373755057N00258636WA0144201550
B1648383755059N00258639WA0144301552
B1648393755061N00258643WA0144501554
B1648403755065N00258646WA0144701555
B1648413755068N00258649WA0145001557
B1648423755072N00258651WA0145401559
B1648433755076N00258651WA0145801564
B1648443755082N00258648WA0146101567
B1648453755086N00258642WA0146201571
B1648463755088N00258634WA0146501573
B1648473755089N00258625WA0146701576
B1648483755087N00258617WA0147001579
B1648493755084N00258608WA0147201581
B1648503755079N00258600WA0147601584
B1648513755074N00258594WA0148001588
B1648523755069N00258592WA0148401592
B1648533755064N00258592WA0148601596
B1648543755061N00258594WA0148901600
B1648553755058N00258596WA0149201604
B1648563755057N00258600WA0149501607
B1648573755057N00258605WA0149701610
B1648583755059N00258609WA0149901612
B1648593755061N00258612WA0150301616
B1649003755063N00258615WA0150601619
B1649013755066N00258616WA0151001623
B1649023755071N00258616WA0151201625
B1649033755076N00258614WA0151401627
B1649043755081N00258609WA0151801630
B1649053755085N00258604WA0152201635
B1649063755087N00258598WA0152601639
B1649073755090N00258591WA0152901642
B1649083755092N00258583WA0153001643
B1649093755093N00258573WA0153201645
B1649103755093N00258563WA0153401647
B1649113755091N00258554WA0153801651
B1649123755089N00258546WA0154101654
B1649133755086N00258540WA0154301657
B1649143755082N00258535WA0154601660
B1649153755076N00258530WA0154701662
B1649163755070N00258526WA0154901664
B1649173755064N00258524WA0155201666
B1649183755058N00258523WA0155601669
B1649193755053N00258523WA0155801672
B1649203755049N00258525WA0156101675
B1649213755046N00258528WA0156401677
B1649223755042N00258533WA0156501679
B1649233755040N00258538WA0156701682
B1649243755040N00258542WA0156901684
B1649253755041N00258544WA0157101686
B1649263755043N00258546WA0157101688
B1649273755046N00258546WA0157201689
B1649283755051N00258547WA0157201690
B1649293755058N00258545WA0157701692
B1649303755064N00258542WA0158401696
B1649313755068N00258536WA0158801704
B1649323755069N00258528WA0159301711
B1649333755070N00258520WA0159701715
B1649343755071N00258512WA0160001719
B1649353755071N00258503WA0160301722
B1649363755071N00258493WA0160601725
B1649373755067N00258484WA0160701727
B1649383755063N00258476WA0161101730
B1649393755058N00258469WA0161301734
B1649403755052N00258465WA0161601737
B1649413755046N00258464WA0161701739
B1649423755041N00258466WA0161701742
B1649433755038N00258469WA0161801743
B1649443755035N00258473WA0162001745
B1649453755034N00258477WA0162101745
B1649463755035N00258481WA0162201745
B1649473755037N00258485WA0162301746
B1649483755041N00258488WA0162501747
B1649493755044N00258490WA0162901749
B1649503755047N00258490WA0163301752
B1649513755051N00258489WA0163501755
B1649523755056N00258485WA0163701758
B1649533755059N00258480WA0164001760
B1649543755062N00258472WA0164301762
B1649553755063N00258464WA0164601766
B1649563755062N00258457WA0165001770
B1649573755059N00258451WA0165301774
B1649583755055N00258445WA0165301778
B1649593755050N00258440WA0165201779
B1650003755044N00258436WA0165401779
B1650013755038N00258433WA0165501779
B1650023755033N00258432WA0165601780
B1650033755028N00258433WA0165701781
B1650043755024N00258435WA0165701782
B1650053755020N00258438WA0165701782
B1650063755018N00258442WA0165301782
B1650073755018N00258448WA0165201781
B1650083755020N00258455WA0165201777
B1650093755023N00258460WA0165301777
B1650103755025N00258463WA0165401778
B1650113755028N00258464WA0165501779
B1650123755031N00258464WA0165601779
B1650133755036N00258464WA0165501779
B1650143755040N00258463WA0165401778
B1650153755045N00258462WA0165101778
B1650163755051N00258459WA0165001778
B1650173755056N00258455WA0165701778
B1650183755063N00258449WA0166401780
B1650193755066N00258443WA0167101785
B1650203755067N00258435WA0167501792
B1650213755067N00258427WA0167901796
B1650223755064N00258418WA0168201799
B1650233755061N00258410WA0168301802
B1650243755057N00258404WA0168501805
B1650253755052N00258401WA0168701807
B1650263755048N00258401WA0168801810
B1650273755043N00258402WA0168801811
B1650283755039N00258405WA0168801812
B1650293755035N00258410WA0168901813
B1650303755034N00258416WA0169101815
B1650313755036N00258420WA0169301816
B1650323755039N00258421WA0169501819
B1650333755043N00258421WA0169901824
B1650343755046N00258421WA0170301827
B1650353755050N00258422WA0170601830
B1650363755055N00258421WA0171001834
B1650373755060N00258419WA0171501838
B1650383755065N00258415WA0171901843
B1650393755069N00258410WA0172101847
B1650403755072N00258403WA0172501850
B1650413755075N00258395WA0172801854
B1650423755076N00258387WA0173001857
B1650433755075N00258378WA0173301859
B1650443755071N00258370WA0173601861
B1650453755066N00258364WA0174001864
B1650463755061N00258362WA0174401868
B1650473755056N00258361WA0174701872
B1650483755053N00258363WA0175001875
B1650493755050N00258365WA0175201878
B1650503755048N00258369WA0175501881
B1650513755046N00258373WA0175701883
B1650523755043N00258376WA0176101887
B1650533755040N00258378WA0176601891
B1650543755039N00258380WA0176901896
B1650553755040N00258383WA0177101899
B1650563755043N00258385WA0177101899
B1650573755048N00258388WA0177101900
B1650583755053N00258389WA0177401902
B1650593755058N00258389WA0177901906
B1651003755064N00258387WA0178301913
B1651013755068N00258383WA0178701918
B1651023755072N00258377WA0179101922
B1651033755075N00258371WA0179401925
B1651043755078N00258363WA0179701928
B1651053755079N00258356WA0180101932
B1651063755079N00258349WA0180501936
B1651073755077N00258341WA0180701939
B1651083755073N00258334WA0181001942
B1651093755068N00258328WA0181201944
B1651103755063N00258324WA0181601947
B1651113755059N00258322WA0182001952
B1651123755055N00258322WA0182301955
B1651133755051N00258323WA0182601959
B1651143755047N00258324WA0182801962
B1651153755044N00258327WA0183101965
B1651163755042N00258332WA0183501968
B1651173755040N00258337WA0183901972
B1651183755040N00258341WA0184301976
B1651193755041N00258344WA0184601981
B1651203755042N00258347WA0185101985
B1651213755045N00258349WA0185301988
B1651223755049N00258350WA0185601991
B1651233755054N00258350WA0185801994
B1651243755060N00258350WA0186201997
B1651253755064N00258347WA0186402000
B1651263755068N00258342WA0186502003
B1651273755071N00258334WA0186502005
B1651283755073N00258324WA0186902006
B1651293755073N00258313WA0187402009
B1651303755071N00258305WA0188002015
B1651313755069N00258300WA0188602023
B1651323755065N00258296WA0189002028
B1651333755061N00258295WA0189202032
B1651343755056N00258294WA0189402035
B1651353755051N00258294WA0189802038
B1651363755047N00258294WA0190102042
B1651373755044N00258295WA0190502046
B1651383755042N00258298WA0190802049
B1651393755041N00258301WA0190902049
B1651403755042N00258305WA0191002050
B1651413755043N00258310WA0191202051
B1651423755046N00258314WA0191602054
B1651433755049N00258316WA0191902058
B1651443755054N00258316WA0192202061
B1651453755059N00258314WA0192402063
B1651463755065N00258309WA0192602065
B1651473755069N00258302WA0192802067
B1651483755071N00258293WA0193202070
B1651493755071N00258285WA0193602074
B1651503755069N00258277WA0193702077
B1651513755067N00258270WA0193902080
B1651523755063N00258262WA0194402083
B1651533755059N00258256WA0194902088
B1651543755054N00258252WA0195202092
B1651553755049N00258250WA0195602096
B1651563755044N00258251WA0195902100
B1651573755040N00258253WA0196202103
B1651583755037N00258255WA0196502106
B1651593755035N00258258WA0196702109
B1652003755034N00258260WA0197002112
B1652013755033N00258263WA0197102115
B1652023755032N00258266WA0197202117
B1652033755033N00258269WA0197402117
B1652043755035N00258273WA0197402117
B1652053755037N00258277WA0197502117
B1652063755040N00258281WA0197802119
B1652073755043N00258284WA0198002120
B1652083755046N00258286WA0198202123
B1652093755049N00258286WA0198402125
B1652103755054N00258285WA0198502126
B1652113755061N00258282WA0198602126
B1652123755067N00258278WA0198802127
B1652133755072N00258273WA0199102130
B1652143755076N00258267WA0199402134
B1652153755079N00258260WA0199702137
B1652163755080N00258252WA0199902140
B1652173755079N00258243WA0200202143
B1652183755077N00258235WA0200502146
B1652193755074N00258228WA0200802148
B1652203755069N00258223WA0201102153
B1652213755064N00258220WA0201302156
B1652223755059N00258219WA0201402159
B1652233755054N00258221WA0201602161
B1652243755049N00258224WA0201902163
B1652253755046N00258228WA0202402166
B1652263755044N00258231WA0202802170
B1652273755043N00258235WA0203102174
B1652283755044N00258239WA0203202177
B1652293755046N00258242WA0203302178
B1652303755049N00258245WA0203402179
B1652313755054N00258247WA0203402179
B1652323755059N00258249WA0203602180
B1652333755065N00258252WA0203802181
B1652343755070N00258254WA0204102183
B1652353755074N00258255WA0204302185
B1652363755079N00258254WA0204402187
B1652373755085N00258253WA0204502188
B1652383755091N00258249WA0204402187
B1652393755098N00258244WA0204502187
B1652403755104N00258238WA0204702189
B1652413755107N00258231WA0204902191
B1652423755110N00258224WA0205102194
B1652433755112N00258218WA0205402197
B1652443755113N00258211WA0205602199
B1652453755112N00258202WA0205602200
B1652463755110N00258193WA0205502200
B1652473755108N00258185WA0205402202
B1652483755105N00258177WA0205802203
B1652493755102N00258170WA0206002205
B1652503755098N00258165WA0206202207
B1652513755092N00258160WA0206102208
B1652523755086N00258157WA0206202209
B1652533755079N00258155WA0206502210
B1652543755073N00258154WA0206802212
B1652553755068N00258153WA0207202215
B1652563755064N00258154WA0207502218
B1652573755060N00258156WA0207702221
B1652583755058N00258161WA0207802223
B1652593755056N00258166WA0208002224
B1653003755056N00258172WA0208202227
B1653013755057N00258176WA0208502230
B1653023755059N00258180WA0208802234
B1653033755062N00258182WA0209102237
B1653043755067N00258183WA0209302240
B1653053755072N00258184WA0209402242
B1653063755077N00258183WA0209702244
B1653073755082N00258180WA0209902247
B1653083755086N00258176WA0210002249
B1653093755089N00258170WA0210102251
B1653103755092N00258163WA0210102252
B1653113755095N00258154WA0210102252
B1653123755096N00258145WA0210302253
B1653133755096N00258136WA0210502253
B1653143755094N00258128WA0210702255
B1653153755091N00258120WA0210902258
B1653163755088N00258114WA0211102260
B1653173755084N00258109WA0211402262
B1653183755080N00258106WA0211502264
B1653193755074N00258104WA0211502265
B1653203755069N00258103WA0211602266
B1653213755064N00258102WA0211802267
B1653223755058N00258103WA0212002269
B1653233755053N00258103WA0212402270
B1653243755048N00258104WA0212602272
B1653253755045N00258105WA0212802275
B1653263755041N00258108WA0213102277
B1653273755039N00258113WA0213302279
B1653283755038N00258118WA0213502282
B1653293755038N00258122WA0213902286
B1653303755039N00258126WA0214102290
B1653313755042N00258128WA0214302292
B1653323755046N00258130WA0213902293
B1653333755052N00258131WA0213902292
B1653343755059N00258130WA0214102292
B1653353755065N00258128WA0214502295
B1653363755069N00258123WA0214902300
B1653373755071N00258117WA0215102303
B1653383755072N00258110WA0215302306
B1653393755072N00258102WA0215502307
B1653403755071N00258094WA0215502308
B1653413755068N00258086WA0215702309
B1653423755063N00258080WA0216002312
B1653433755058N00258076WA0216302316
B1653443755054N00258073WA0216502319
B1653453755049N00258071WA0216802322
B1653463755044N00258070WA0216802324
B1653473755038N00258070WA0216802326
B1653483755033N00258070WA0217002327
B1653493755027N00258071WA0217102329
B1653503755022N00258072WA0217402331
B1653513755018N00258074WA0217802333
B1653523755014N00258076WA0218002335
B1653533755012N00258080WA0218202336
B1653543755012N00258086WA0218202337
B1653553755014N00258091WA0218102336
B1653563755019N00258095WA0218002335
B1653573755024N00258097WA0218102335
B1653583755029N00258098WA0218202336
B1653593755033N00258097WA0218002336
B1654003755038N00258094WA0218202336
B1654013755043N00258089WA0218202336
B1654023755048N00258083WA0218202335
B1654033755053N00258077WA0218302335
B1654043755057N00258070WA0218402336
B1654053755059N00258062WA0218602337
B1654063755060N00258054WA0218802339
B1654073755058N00258046WA0218902341
B1654083755055N00258039WA0219002342
B1654093755051N00258032WA0218902343
B1654103755048N00258026WA0219002345
B1654113755044N00258021WA0219202346
B1654123755039N00258016WA0219302347
B1654133755033N00258012WA0219402347
B1654143755026N00258010WA0219602348
B1654153755020N00258009WA0219802350
B1654163755015N00258009WA0220102351
B1654173755010N00258010WA0220402354
B1654183755006N00258011WA0220602356
B1654193755002N00258013WA0220702358
B1654203754999N00258017WA0220802360
B1654213754996N00258023WA0221002361
B1654223754995N00258029WA0221302362
B1654233754995N00258034WA0221602367
B1654243754996N00258038WA0222002372
B1654253754998N00258040WA0222102375
B1654263755001N00258042WA0222202377
B1654273755006N00258043WA0222202379
B1654283755012N00258043WA0222102378
B1654293755018N00258042WA0222102377
B1654303755023N00258038WA0222202378
B1654313755026N00258032WA0222402379
B1654323755028N00258026WA0222302380
B1654333755029N00258017WA0222402380
B1654343755029N00258008WA0222502380
B1654353755028N00258000WA0222702382
B1654363755025N00257992WA0223002385
B1654373755022N00257986WA0223202387
B1654383755018N00257982WA0223302389
B1654393755013N00257978WA0223302389
B1654403755007N00257976WA0223102390
B1654413755000N00257975WA0223202391
B1654423754994N00257975WA0223502392
B1654433754988N00257976WA0223902393
B1654443754983N00257978WA0224102395
B1654453754978N00257979WA0224102397
B1654463754974N00257981WA0224302398
B1654473754970N00257984WA0224402399
B1654483754966N00257989WA0224402399
B1654493754962N00257994WA0224502400
B1654503754958N00257999WA0224702402
B1654513754957N00258005WA0224902404
B1654523754958N00258010WA0225002407
B1654533754959N00258014WA0225102408
B1654543754962N00258019WA0225202408
B1654553754965N00258023WA0225202408
B1654563754969N00258026WA0225302408
B1654573754974N00258028WA0225602409
B1654583754978N00258029WA0225702410
B1654593754983N00258028WA0225702411
B1655003754988N00258026WA0225902413
B1655013754994N00258023WA0226002414
B1655023754998N00258020WA0226302417
B1655033755002N00258016WA0226602420
B1655043755004N00258011WA0226702422
B1655053755005N00258004WA0226602423
B1655063755006N00257995WA0226302422
B1655073755004N00257986WA0226302420
B1655083755001N00257978WA0226402421
B1655093754996N00257973WA0226602424
B1655103754992N00257969WA0226802426
B1655113754988N00257967WA0227102429
B1655123754983N00257966WA0227302430
B1655133754977N00257966WA0227302432
B1655143754972N00257968WA0227402433
B1655153754967N00257970WA0227502434
B1655163754963N00257973WA0227702436
B1655173754959N00257976WA0227802437
B1655183754956N00257981WA0227902437
B1655193754954N00257986WA0228002438
B1655203754954N00257993WA0228202439
B1655213754955N00257999WA0228302441
B1655223754957N00258004WA0228302442
B1655233754960N00258009WA0228202442
B1655243754964N00258013WA0227902441
B1655253754969N00258016WA0227702439
B1655263754975N00258018WA0227802438
B1655273754981N00258019WA0227802437
B1655283754986N00258018WA0227802437
B1655293754991N00258016WA0227702437
B1655303754996N00258013WA0227702437
B1655313755001N00258008WA0227702436
B1655323755006N00258002WA0227602435
B1655333755011N00257996WA0227702436
B1655343755015N00257990WA0227902437
B1655353755020N00257985WA0228102439
B1655363755025N00257982WA0228202441
B1655373755030N00257980WA0228302442
B1655383755035N00257978WA0228402443
B1655393755041N00257975WA0228402443
B1655403755046N00257972WA0228402444
B1655413755052N00257968WA0228302444
B1655423755057N00257965WA0228202444
B1655433755063N00257961WA0228302445
B1655443755068N00257957WA0228302445
B1655453755074N00257954WA0228402445
B1655463755080N00257950WA0228402445
B1655473755087N00257947WA0228302444
B1655483755093N00257944WA0228302444
B1655493755099N00257940WA0228402444
B1655503755104N00257935WA0228402445
B1655513755110N00257932WA0228402445
B1655523755116N00257929WA0228402445
B1655533755122N00257928WA0228202446
B1655543755127N00257928WA0228202446
B1655553755132N00257928WA0228302447
B1655563755137N00257926WA0228402447
B1655573755142N00257924WA0228302445
B1655583755148N00257922WA0228102444
B1655593755154N00257921WA0228002443
B1656003755160N00257919WA0227902442
B1656013755165N00257917WA0227902442
B1656023755171N00257915WA0227902441
B1656033755176N00257914WA0227802440
B1656043755182N00257912WA0227702439
B1656053755188N00257911WA0227702438
B1656063755194N00257911WA0227502437
B1656073755201N00257910WA0227502437
B1656083755207N00257911WA0227502436
B1656093755213N00257912WA0227302435
B1656103755219N00257914WA0227202434
B1656113755225N00257916WA0227102432
B1656123755230N00257918WA0227002431
B1656133755236N00257918WA0226702431
B1656143755241N00257917WA0226702430
B1656153755247N00257915WA0226802428
B1656163755253N00257913WA0226602427
B1656173755259N00257910WA0226302425
B1656183755265N00257907WA0226002424
B1656193755271N00257903WA0225902423
B1656203755277N00257899WA0226002422
B1656213755282N00257895WA0225802421
B1656223755288N00257890WA0225702419
B1656233755294N00257886WA0225502417
B1656243755300N00257881WA0225302415
B1656253755306N00257877WA0225302413
B1656263755312N00257873WA0225202412
B1656273755318N00257870WA0225102411
B1656283755324N00257866WA0225002409
B1656293755330N00257862WA0224802408
B1656303755336N00257859WA0224702406
B1656313755343N00257856WA0224602404
B1656323755349N00257853WA0224402404
B1656333755354N00257850WA0224302404
B1656343755359N00257846WA0224202404
B1656353755364N00257842WA0224302403
B1656363755370N00257839WA0224202402
B1656373755376N00257835WA0224002399
B1656383755382N00257832WA0223902398
B1656393755388N00257828WA0223902398
B1656403755393N00257825WA0223902397
B1656413755399N00257821WA0223602397
B1656423755405N00257817WA0223502396
B1656433755410N00257813WA0223302394
B1656443755417N00257810WA0223202392
B1656453755423N00257808WA0223002391
B1656463755429N00257806WA0223002390
B1656473755434N00257804WA0223002390
B1656483755440N00257802WA0222902389
B1656493755445N00257800WA0222702388
B1656503755451N00257798WA0222402386
B1656513755458N00257796WA0222202384
B1656523755464N00257794WA0222002381
B1656533755470N00257791WA0221802379
B1656543755476N00257788WA0221702378
B1656553755481N00257786WA0221302376
B1656563755487N00257784WA0220702374
B1656573755493N00257782WA0220602372
B1656583755498N00257780WA0220702369
B1656593755503N00257777WA0220502367
B1657003755508N00257774WA0220302364
B1657013755514N00257772WA0220002362
B1657023755519N00257769WA0219802359
B1657033755524N00257767WA0219502356
B1657043755530N00257764WA0219202354
B1657053755536N00257761WA0219002351
B1657063755541N00257759WA0218702348
B1657073755546N00257756WA0218502345
B1657083755552N00257753WA0218102342
B1657093755557N00257749WA0217802338
B1657103755562N00257746WA0217402335
B1657113755567N00257743WA0217202331
B1657123755572N00257740WA0217002329
B1657133755576N00257737WA0216702326
B1657143755581N00257735WA0216402323
B1657153755586N00257733WA0216102320
B1657163755591N00257730WA0215902317
B1657173755597N00257728WA0215902315
B1657183755602N00257726WA0215802313
B1657193755608N00257726WA0215802312
B1657203755612N00257725WA0215702311
B1657213755617N00257726WA0215602310
B1657223755622N00257725WA0215402309
B1657233755627N00257725WA0215302308
B1657243755633N00257725WA0215202306
B1657253755638N00257725WA0215202306
B1657263755642N00257726WA0215002305
B1657273755647N00257726WA0214902304
B1657283755652N00257727WA0214802302
B1657293755657N00257727WA0214602301
B1657303755662N00257729WA0214402300
B1657313755666N00257731WA0214302298
B1657323755672N00257733WA0214002297
B1657333755678N00257735WA0213602297
B1657343755683N00257738WA0213402297
B1657353755688N00257742WA0213102296
B1657363755693N00257745WA0212902293
B1657373755699N00257748WA0212902291
B1657383755704N00257751WA0212702289
B1657393755709N00257753WA0212602286
B1657403755714N00257755WA0212302284
B1657413755719N00257757WA0212102281
B1657423755725N00257759WA0211702278
B1657433755731N00257761WA0211602275
B1657443755737N00257763WA0211402273
B1657453755743N00257764WA0211302271
B1657463755748N00257765WA0211202269
B1657473755754N00257767WA0211102267
B1657483755760N00257768WA0210902265
B1657493755766N00257770WA0210702262
B1657503755773N00257771WA0210602261
B1657513755779N00257772WA0210602260
B1657523755785N00257772WA0210502259
B1657533755791N00257772WA0210402258
B1657543755797N00257772WA0210302257
B1657553755804N00257772WA0210002256
B1657563755810N00257773WA0209702254
B1657573755816N00257774WA0209702252
B1657583755823N00257775WA0209602251
B1657593755829N00257775WA0209402249
B1658003755835N00257775WA0209302249
B1658013755841N00257775WA0209202247
B1658023755847N00257776WA0209002246
B1658033755853N00257776WA0208802244
B1658043755860N00257777WA0208602242
B1658053755866N00257777WA0208402240
B1658063755872N00257777WA0208302238
B1658073755879N00257778WA0208102236
B1658083755885N00257779WA0208002235
B1658093755891N00257779WA0207802233
B1658103755897N00257779WA0207502230
B1658113755904N00257779WA0207302228
B1658123755911N00257780WA0207002225
B1658133755917N00257781WA0206802223
B1658143755924N00257783WA0206602221
B1658153755930N00257784WA0206502218
B1658163755937N00257785WA0206302216
B1658173755943N00257786WA0206102215
B1658183755949N00257787WA0205902213
B1658193755955N00257788WA0206002211
B1658203755961N00257789WA0205902210
B1658213755967N00257789WA0205602209
B1658223755973N00257790WA0205402207
B1658233755979N00257791WA0205102204
B1658243755985N00257792WA0204902202
B1658253755991N00257793WA0204802201
B1658263755997N00257794WA0204602199
B1658273756003N00257794WA0204502197
B1658283756009N00257795WA0204302196
B1658293756014N00257796WA0204002193
B1658303756020N00257798WA0203702190
B1658313756027N00257799WA0203402187
B1658323756033N00257801WA0203202185
B1658333756039N00257802WA0203102183
B1658343756045N00257803WA0203002181
B1658353756051N00257805WA0202802179
B1658363756057N00257807WA0202702177
B1658373756063N00257809WA0202602175
B1658383756069N00257811WA0202402173
B1658393756074N00257812WA0202202171
B1658403756080N00257813WA0202102170
B1658413756085N00257815WA0201802168
B1658423756091N00257817WA0201602165
B1658433756097N00257820WA0201302163
B1658443756102N00257823WA0201102161
B1658453756107N00257826WA0201102159
B1658463756113N00257829WA0200902157
B1658473756118N00257831WA0200702156
B1658483756124N00257834WA0200502154
B1658493756130N00257836WA0200302152
B1658503756135N00257839WA0200102150
B1658513756141N00257842WA0199902148
B1658523756147N00257844WA0199802146
B1658533756154N00257846WA0199602144
B1658543756160N00257848WA0199502143
B1658553756166N00257850WA0199302141
B1658563756172N00257852WA0199202140
B1658573756179N00257854WA0199102138
B1658583756185N00257856WA0198902137
B1658593756191N00257858WA0198702135
B1659003756197N00257860WA0198402134
B1659013756203N00257862WA0198402133
B1659023756209N00257863WA0198202131
B1659033756216N00257864WA0198002130
B1659043756222N00257865WA0197802128
B1659053756229N00257867WA0197702126
B1659063756235N00257868WA0197502124
B1659073756241N00257870WA0197302122
B1659083756248N00257872WA0197202120
B1659093756254N00257874WA0196902118
B1659103756261N00257875WA0196702116
B1659113756267N00257877WA0196602114
B1659123756273N00257879WA0196402112
B1659133756279N00257880WA0196202110
B1659143756285N00257882WA0196002108
B1659153756291N00257884WA0195702106
B1659163756297N00257887WA0195502103
B1659173756303N00257890WA0195402101
B1659183756309N00257893WA0195202099
B1659193756315N00257896WA0195002097
B1659203756320N00257899WA0194902095
B1659213756326N00257902WA0194702093
B1659223756330N00257906WA0194502092
B1659233756335N00257910WA0194202090
B1659243756340N00257914WA0194002087
B1659253756344N00257919WA0193902085
B1659263756349N00257924WA0193702083
B1659273756353N00257929WA0193602082
B1659283756358N00257933WA0193602080
B1659293756363N00257937WA0193502079
B1659303756367N00257941WA0193402078
B1659313756371N00257946WA0193402078
B1659323756375N00257951WA0193302078
B1659333756378N00257956WA0193202077
B1659343756382N00257960WA0193102076
B1659353756386N00257965WA0193002075
B1659363756390N00257970WA0192902074
B1659373756394N00257975WA0192802073
B1659383756398N00257979WA0192702072
B1659393756402N00257983WA0192702071
B1659403756407N00257986WA0192602070
B1659413756412N00257989WA0192402069
B1659423756418N00257992WA0192302068
B1659433756423N00257995WA0191902066
B1659443756429N00257997WA0192002065
B1659453756434N00258000WA0191902064
B1659463756440N00258002WA0192002063
B1659473756445N00258004WA0191902063
B1659483756450N00258006WA0191802062
B1659493756455N00258008WA0191802061
B1659503756461N00258010WA0191602060
B1659513756466N00258012WA0191302058
B1659523756472N00258014WA0191202057
B1659533756477N00258016WA0191102055
B1659543756483N00258017WA0191102054
B1659553756489N00258018WA0191002053
B1659563756494N00258020WA0190902053
B1659573756499N00258021WA0190802052
B1659583756505N00258023WA0190802051
B1659593756511N00258024WA0190602050
B1700003756517N00258024WA0190502049
B1700013756522N00258025WA0190402048
B1700023756528N00258026WA0190302048
B1700033756534N00258027WA0190202046
B1700043756540N00258028WA0190102045
B1700053756546N00258028WA0189902044
B1700063756552N00258027WA0189902042
B1700073756558N00258027WA0189702041
B1700083756564N00258027WA0189502039
B1700093756571N00258027WA0189402038
B1700103756577N00258027WA0189302037
B1700113756583N00258027WA0189302036
B1700123756590N00258026WA0189202035
B1700133756596N00258027WA0189202035
B1700143756602N00258029WA0189102035
B1700153756607N00258032WA0189102034
B1700163756612N00258036WA0189102034
B1700173756617N00258039WA0189202034
B1700183756622N00258041WA0189502035
B1700193756625N00258043WA0189702036
B1700203756628N00258044WA0189802037
B1700213756631N00258044WA0189802038
B1700223756635N00258045WA0189302037
B1700233756640N00258046WA0188902037
B1700243756644N00258046WA0189002036
B1700253756649N00258045WA0189402036
B1700263756653N00258045WA0189402036
B1700273756656N00258044WA0189402036
B1700283756660N00258044WA0189302036
B1700293756664N00258043WA0189102036
B1700303756669N00258043WA0189002036
B1700313756673N00258042WA0188902035
B1700323756677N00258042WA0188902035
B1700333756680N00258043WA0188802034
B1700343756684N00258043WA0188702033
B1700353756687N00258043WA0188602032
B1700363756691N00258042WA0188502031
B1700373756695N00258042WA0188502030
B1700383756699N00258042WA0188402029
B1700393756702N00258042WA0188302030
B1700403756705N00258043WA0188102030
B1700413756708N00258044WA0188002028
B1700423756712N00258045WA0188002027
B1700433756716N00258045WA0188002026
B1700443756720N00258045WA0188002025
B1700453756723N00258044WA0188002025
B1700463756727N00258043WA0187902025
B1700473756731N00258043WA0187702025
B1700483756735N00258042WA0187502024
B1700493756740N00258042WA0187402024
B1700503756745N00258041WA0187302023
B1700513756750N00258039WA0187102023
B1700523756755N00258036WA0187002022
B1700533756760N00258034WA0186902021
B1700543756764N00258032WA0186702019
B1700553756768N00258031WA0186602017
B1700563756772N00258030WA0186402014
B1700573756777N00258028WA0186302012
B1700583756781N00258027WA0186002009
B1700593756785N00258027WA0185802007
B1701003756789N00258027WA0185702004
B1701013756793N00258026WA0185502002
B1701023756797N00258026WA0185302000
B1701033756801N00258025WA0185001998
B1701043756805N00258025WA0184701995
B1701053756809N00258026WA0184501992
B1701063756813N00258027WA0184401989
B1701073756817N00258029WA0184301987
B1701083756820N00258031WA0184201986
B1701093756823N00258032WA0184101985
B1701103756826N00258034WA0183801984
B1701113756828N00258036WA0183701983
B1701123756831N00258038WA0183601981
B1701133756833N00258040WA0183501980
B1701143756835N00258042WA0183401978
B1701153756837N00258045WA0183301976
B1701163756839N00258047WA0183101974
B1701173756841N00258050WA0182901972
B1701183756843N00258053WA0182801970
B1701193756846N00258056WA0182601968
B1701203756848N00258058WA0182401966
B1701213756850N00258061WA0182301964
B1701223756853N00258065WA0182101962
B1701233756855N00258068WA0181901960
B1701243756857N00258071WA0181801959
B1701253756860N00258074WA0181701957
B1701263756862N00258078WA0181601956
B1701273756864N00258081WA0181501954
B1701283756867N00258085WA0181401953
B1701293756869N00258088WA0181401953
B1701303756872N00258091WA0181401952
B1701313756875N00258094WA0181401952
B1701323756877N00258097WA0181301952
B1701333756880N00258100WA0181201951
B1701343756881N00258104WA0181101950
B1701353756883N00258108WA0181101950
B1701363756884N00258113WA0180901949
B1701373756884N00258118WA0180901948
B1701383756885N00258123WA0180901947
B1701393756885N00258128WA0181001947
B1701403756886N00258132WA0181101948
B1701413756888N00258134WA0181201948
B1701423756890N00258135WA0181201948
B1701433756893N00258136WA0181201949
B1701443756896N00258137WA0181201949
B1701453756899N00258138WA0181101949
B1701463756902N00258138WA0181001948
B1701473756906N00258137WA0181001948
B1701483756909N00258137WA0181101948
B1701493756913N00258138WA0181101948
B1701503756916N00258137WA0181201948
B1701513756920N00258136WA0181301949
B1701523756923N00258134WA0181301949
B1701533756927N00258132WA0181401950
B1701543756930N00258130WA0181401951
B1701553756934N00258130WA0181201951
B1701563756938N00258130WA0181201950
B1701573756942N00258129WA0181101949
B1701583756947N00258128WA0181101949
B1701593756951N00258126WA0181101949
B1702003756955N00258123WA0181201949
B1702013756959N00258122WA0181201949
B1702023756962N00258121WA0181001949
B1702033756966N00258120WA0180901948
B1702043756970N00258119WA0180701947
B1702053756975N00258119WA0180701946
B1702063756979N00258118WA0180701947
B1702073756983N00258118WA0180701947
B1702083756986N00258118WA0180701947
B1702093756989N00258117WA0180601947
B1702103756994N00258116WA0180601947
B1702113756999N00258116WA0180601946
B1702123757003N00258115WA0180601946
B1702133757007N00258115WA0180701946
B1702143757010N00258115WA0180801946
B1702153757014N00258115WA0180801946
B1702163757017N00258114WA0180801946
B1702173757021N00258114WA0180801946
B1702183757025N00258114WA0180801947
B1702193757028N00258115WA0180801946
B1702203757032N00258116WA0180801946
B1702213757035N00258116WA0180901946
B1702223757038N00258115WA0181101946
B1702233757041N00258114WA0181101946
B1702243757045N00258112WA0181201947
B1702253757049N00258111WA0181201947
B1702263757053N00258109WA0181201948
B1702273757057N00258107WA0181201948
B1702283757061N00258106WA0181301949
B1702293757064N00258105WA0181301949
B1702303757068N00258104WA0181301950
B1702313757071N00258104WA0181301950
B1702323757075N00258103WA0181201949
B1702333757079N00258102WA0181201949
B1702343757083N00258102WA0181201949
B1702353757086N00258101WA0181301950
B1702363757090N00258099WA0181301950
B1702373757094N00258098WA0181301950
B1702383757098N00258096WA0181301951
B1702393757102N00258095WA0181301951
B1702403757105N00258093WA0181301952
B1702413757109N00258092WA0181301953
B1702423757112N00258091WA0181201952
B1702433757116N00258090WA0181101952
B1702443757120N00258089WA0181001952
B1702453757125N00258087WA0180901951
B1702463757129N00258086WA0180801951
B1702473757133N00258085WA0180701951
B1702483757137N00258085WA0180701950
B1702493757141N00258085WA0180701950
B1702503757145N00258085WA0180601949
B1702513757149N00258085WA0180601949
B1702523757153N00258084WA0180501948
B1702533757157N00258084WA0180401948
B1702543757161N00258084WA0180101947
B1702553757166N00258084WA0180101946
B1702563757170N00258084WA0180201946
B1702573757174N00258084WA0180501946
B1702583757179N00258083WA0180601946
B1702593757183N00258083WA0180601946
B1703003757186N00258084WA0180801946
B1703013757190N00258085WA0180901947
B1703023757193N00258085WA0181001949
B1703033757196N00258084WA0181201951
B1703043757200N00258083WA0181301952
B1703053757204N00258081WA0181501954
B1703063757207N00258078WA0181701956
B1703073757211N00258076WA0181901958
B1703083757214N00258074WA0182101959
B1703093757218N00258071WA0182101961
B1703103757221N00258067WA0182101961
B1703113757224N00258061WA0182001960
B1703123757226N00258053WA0181901959
B1703133757227N00258044WA0181801958
B1703143757225N00258035WA0181701957
B1703153757222N00258026WA0181501955
B1703163757217N00258018WA0181501954
B1703173757212N00258012WA0181501954
B1703183757206N00258007WA0181501953
B1703193757200N00258003WA0181401953
B1703203757194N00258002WA0181301952
B1703213757187N00258002WA0181201951
B1703223757182N00258004WA0181201951
B1703233757176N00258007WA0181101950
B1703243757172N00258010WA0181101950
B1703253757168N00258013WA0181301951
B1703263757165N00258017WA0181501953
B1703273757163N00258021WA0181701954
B1703283757163N00258024WA0181901956
B1703293757164N00258028WA0182201958
B1703303757166N00258030WA0182501961
B1703313757169N00258030WA0182801964
B1703323757171N00258029WA0183001966
B1703333757173N00258026WA0183201968
B1703343757176N00258021WA0183201969
B1703353757179N00258014WA0183301970
B1703363757180N00258006WA0183401970
B1703373757180N00257997WA0183501971
B1703383757178N00257988WA0183601973
B1703393757175N00257980WA0183701974
B1703403757171N00257973WA0183801975
B1703413757166N00257966WA0183801976
B1703423757160N00257961WA0183701976
B1703433757153N00257958WA0183801975
B1703443757146N00257956WA0183901976
B1703453757139N00257957WA0184001977
B1703463757133N00257958WA0184201978
B1703473757128N00257961WA0184401980
B1703483757125N00257964WA0184601982
B1703493757122N00257968WA0184801983
B1703503757121N00257972WA0185001985
B1703513757121N00257976WA0185301988
B1703523757122N00257978WA0185601991
B1703533757124N00257980WA0185801994
B1703543757126N00257981WA0186001997
B1703553757129N00257980WA0186302000
B1703563757133N00257979WA0186502002
B1703573757137N00257975WA0186702004
B1703583757140N00257969WA0186902006
B1703593757142N00257961WA0187102008
B1704003757141N00257952WA0187302011
B1704013757139N00257944WA0187502014
B1704023757135N00257936WA0187602016
B1704033757130N00257928WA0187802018
B1704043757125N00257921WA0187802019
B1704053757118N00257916WA0187902019
B1704063757110N00257912WA0188002019
B1704073757102N00257909WA0188202020
B1704083757095N00257908WA0188502021
B1704093757089N00257907WA0188702023
B1704103757084N00257909WA0188902026
B1704113757081N00257912WA0189102028
B1704123757079N00257916WA0189202029
B1704133757078N00257921WA0189302030
B1704143757078N00257926WA0189502032
B1704153757078N00257930WA0189802035
B1704163757079N00257934WA0190202039
B1704173757079N00257936WA0190402043
B1704183757081N00257937WA0190602046
B1704193757085N00257937WA0190802048
B1704203757089N00257936WA0190902049
B1704213757093N00257935WA0191102051
B1704223757096N00257931WA0191202054
B1704233757099N00257926WA0191402056
B1704243757101N00257919WA0191702058
B1704253757101N00257910WA0191802059
B1704263757100N00257901WA0191902060
B1704273757098N00257891WA0192102062
B1704283757096N00257882WA0192302064
B1704293757092N00257874WA0192502067
B1704303757087N00257866WA0192702069
B1704313757081N00257859WA0193002071
B1704323757075N00257854WA0193102073
B1704333757068N00257851WA0193202075
B1704343757061N00257850WA0193502077
B1704353757054N00257851WA0193702079
B1704363757049N00257854WA0194002081
B1704373757045N00257856WA0194202084
B1704383757041N00257859WA0194502087
B1704393757038N00257863WA0194702089
B1704403757036N00257867WA0194802091
B1704413757035N00257872WA0195002093
B1704423757033N00257876WA0195302095
B1704433757032N00257880WA0195402097
B1704443757032N00257884WA0195602099
B1704453757033N00257887WA0195802101
B1704463757034N00257890WA0195902102
B1704473757035N00257893WA0196002103
B1704483757037N00257895WA0196102105
B1704493757039N00257897WA0196102106
B1704503757042N00257899WA0196202107
B1704513757044N00257901WA0196302109
B1704523757048N00257903WA0196402110
B1704533757051N00257905WA0196502111
B1704543757055N00257906WA0196602112
B1704553757057N00257907WA0196702114
B1704563757060N00257908WA0196902115
B1704573757062N00257909WA0196902115
B1704583757066N00257911WA0196902115
B1704593757069N00257912WA0196902116
B1705003757072N00257913WA0197002117
B1705013757075N00257913WA0197002118
B1705023757078N00257914WA0196802117
B1705033757082N00257915WA0196402116
B1705043757085N00257916WA0196402116
B1705053757089N00257916WA0196602116
B1705063757093N00257916WA0196702116
B1705073757096N00257917WA0196702116
B1705083757099N00257918WA0196702116
B1705093757101N00257919WA0196502115
B1705103757105N00257919WA0196202114
B1705113757109N00257921WA0195902111
B1705123757113N00257923WA0195402108
B1705133757117N00257927WA0195102104
B1705143757121N00257931WA0195302103
B1705153757125N00257933WA0195502101
B1705163757129N00257935WA0195502101
B1705173757132N00257937WA0195402101
B1705183757135N00257940WA0195302100
B1705193757137N00257944WA0195002099
B1705203757140N00257949WA0194802095
B1705213757144N00257953WA0194702094
B1705223757148N00257957WA0194802093
B1705233757151N00257960WA0194902093
B1705243757154N00257963WA0194802094
B1705253757157N00257967WA0195002095
B1705263757160N00257971WA0195002095
B1705273757163N00257974WA0194902094
B1705283757166N00257978WA0195102094
B1705293757169N00257982WA0195002094
B1705303757172N00257987WA0195002095
B1705313757174N00257990WA0195202096
B1705323757176N00257994WA0195402097
B1705333757178N00257997WA0195402098
B1705343757181N00258001WA0195502099
B1705353757183N00258005WA0195602100
B1705363757186N00258008WA0195702101
B1705373757189N00258012WA0195802102
B1705383757193N00258014WA0196002103
B1705393757196N00258017WA0196002105
B1705403757200N00258019WA0196002105
B1705413757205N00258022WA0196002106
B1705423757209N00258025WA0196002106
B1705433757214N00258028WA0196002106
B1705443757219N00258031WA0196202107
B1705453757223N00258033WA0196302107
B1705463757226N00258036WA0196402108
B1705473757230N00258039WA0196402109
B1705483757234N00258043WA0196402109
B1705493757239N00258047WA0196402109
B1705503757243N00258050WA0196502109
B1705513757247N00258053WA0196602110
B1705523757251N00258055WA0196702111
B1705533757254N00258058WA0196702112
B1705543757257N00258060WA0196402111
B1705553757262N00258064WA0196402110
B1705563757267N00258067WA0196302109
B1705573757272N00258071WA0196402108
B1705583757276N00258073WA0196602109
B1705593757280N00258075WA0196802112
B1706003757284N00258077WA0197002114
B1706013757289N00258079WA0196902115
B1706023757294N00258082WA0197002115
B1706033757299N00258085WA0197002115
B1706043757303N00258089WA0197202116
B1706053757307N00258092WA0197502118
B1706063757311N00258093WA0197602119
B1706073757314N00258095WA0197602120
B1706083757317N00258098WA0197502120
B1706093757320N00258103WA0197302118
B1706103757323N00258109WA0197302118
B1706113757326N00258114WA0197602120
B1706123757328N00258119WA0198002124
B1706133757328N00258122WA0198202127
B1706143757328N00258126WA0198602130
B1706153757329N00258131WA0198502130
B1706163757330N00258136WA0198502130
B1706173757333N00258140WA0198502130
B1706183757337N00258144WA0198602131
B1706193757342N00258146WA0198802133
B1706203757345N00258147WA0199202135
B1706213757349N00258149WA0199402138
B1706223757353N00258151WA0199502139
B1706233757358N00258153WA0199602141
B1706243757363N00258154WA0199702142
B1706253757368N00258155WA0200002144
B1706263757373N00258157WA0200302147
B1706273757377N00258159WA0200502150
B1706283757381N00258161WA0200802153
B1706293757385N00258163WA0200702155
B1706303757390N00258165WA0200902158
B1706313757394N00258167WA0201302160
B1706323757399N00258170WA0201502157
B1706333757403N00258173WA0201702159
B1706343757407N00258177WA0201802161
B1706353757411N00258180WA0201902162
B1706363757416N00258183WA0202002164
B1706373757421N00258186WA0202002165
B1706383757426N00258189WA0202102165
B1706393757431N00258192WA0202202166
B1706403757436N00258194WA0202302167
B1706413757441N00258197WA0202402168
B1706423757446N00258198WA0202502169
B1706433757451N00258200WA0202702170
B1706443757456N00258202WA0202902172
B1706453757460N00258204WA0202902171
B1706463757465N00258208WA0202802172
B1706473757469N00258211WA0202502172
B1706483757474N00258215WA0202202172
B1706493757478N00258218WA0202502172
B1706503757483N00258221WA0202702172
B1706513757488N00258223WA0202702173
B1706523757492N00258225WA0202802173
B1706533757496N00258228WA0202802174
B1706543757499N00258231WA0202602173
B1706553757504N00258234WA0202502172
B1706563757509N00258237WA0202402171
B1706573757514N00258238WA0202402171
B1706583757519N00258238WA0202502171
B1706593757523N00258239WA0202402171
B1707003757527N00258240WA0202302171
B1707013757531N00258242WA0202202169
B1707023757536N00258243WA0202102167
B1707033757541N00258244WA0201902166
B1707043757546N00258245WA0201902166
B1707053757551N00258246WA0201902166
B1707063757556N00258247WA0201802166
B1707073757560N00258249WA0201802166
B1707083757564N00258251WA0201702166
B1707093757569N00258253WA0201602165
B1707103757574N00258256WA0201502164
B1707113757579N00258258WA0201402163
B1707123757584N00258261WA0201502163
B1707133757588N00258263WA0201602164
B1707143757592N00258267WA0201602165
B1707153757595N00258270WA0201602165
B1707163757599N00258274WA0201502165
B1707173757603N00258277WA0201502164
B1707183757607N00258282WA0201502164
B1707193757610N00258286WA0201402164
B1707203757613N00258291WA0201302163
B1707213757616N00258296WA0201402163
B1707223757618N00258300WA0201302163
B1707233757621N00258304WA0201302163
B1707243757623N00258308WA0201402163
B1707253757626N00258312WA0201402163
B1707263757628N00258315WA0201302162
B1707273757632N00258318WA0201202162
B1707283757637N00258320WA0200702160
B1707293757642N00258322WA0200502159
B1707303757647N00258323WA0200502158
B1707313757651N00258325WA0200702157
B1707323757656N00258327WA0200602156
B1707333757661N00258328WA0200502155
B1707343757666N00258329WA0200402154
B1707353757671N00258330WA0200302152
B1707363757676N00258330WA0200202151
B1707373757682N00258330WA0200002150
B1707383757687N00258331WA0199902149
B1707393757692N00258333WA0199702147
B1707403757698N00258334WA0199502146
B1707413757703N00258335WA0199502145
B1707423757708N00258337WA0199502144
B1707433757712N00258339WA0199502144
B1707443757717N00258341WA0199202142
B1707453757721N00258344WA0199002140
B1707463757725N00258347WA0199102139
B1707473757730N00258350WA0198902137
B1707483757735N00258352WA0198902136
B1707493757740N00258354WA0198902135
B1707503757745N00258355WA0199002135
B1707513757750N00258355WA0198902134
B1707523757756N00258355WA0198702134
B1707533757761N00258354WA0198402132
B1707543757767N00258354WA0197802130
B1707553757774N00258354WA0197602128
B1707563757780N00258352WA0197702126
B1707573757787N00258351WA0197702124
B1707583757792N00258350WA0197602123
B1707593757796N00258349WA0197502122
B1708003757801N00258349WA0197402120
B1708013757807N00258348WA0197102118
B1708023757813N00258348WA0196802116
B1708033757819N00258347WA0196702114
B1708043757824N00258347WA0196602113
B1708053757829N00258347WA0196502111
B1708063757834N00258347WA0196402110
B1708073757840N00258347WA0196202108
B1708083757846N00258347WA0196002110
B1708093757851N00258347WA0195702109
B1708103757856N00258347WA0195402106
B1708113757861N00258347WA0195102103
B1708123757866N00258348WA0194902101
B1708133757872N00258349WA0194702098
B1708143757877N00258350WA0194402095
B1708153757882N00258351WA0194202093
B1708163757887N00258352WA0194002090
B1708173757891N00258353WA0193702087
B1708183757896N00258354WA0193502084
B1708193757901N00258355WA0193302082
B1708203757906N00258355WA0193402080
B1708213757911N00258355WA0193402079
B1708223757916N00258353WA0193402079
B1708233757920N00258352WA0193402080
B1708243757924N00258351WA0193302079
B1708253757928N00258351WA0192902077
B1708263757932N00258353WA0192202073
B1708273757936N00258353WA0192202074
B1708283757940N00258353WA0192102072
B1708293757944N00258352WA0192302071
B1708303757947N00258351WA0192402071
B1708313757951N00258350WA0192302072
B1708323757955N00258350WA0192002070
B1708333757959N00258350WA0191902068
B1708343757964N00258350WA0191802066
B1708353757968N00258350WA0191802065
B1708363757972N00258349WA0191802065
B1708373757975N00258348WA0191802065
B1708383757978N00258348WA0191802064
B1708393757982N00258348WA0191702063
B1708403757987N00258347WA0191602064
B1708413757992N00258346WA0191502063
B1708423757997N00258345WA0191402063
B1708433758001N00258344WA0191402062
B1708443758005N00258344WA0191202061
B1708453758009N00258344WA0191202060
B1708463758013N00258345WA0191102059
B1708473758017N00258345WA0191002058
B1708483758021N00258346WA0190802057
B1708493758025N00258347WA0190502055
B1708503758029N00258349WA0190502053
B1708513758034N00258351WA0190402051
B1708523758039N00258352WA0190302050
B1708533758044N00258353WA0190402049
B1708543758049N00258353WA0190302049
B1708553758053N00258354WA0190302048
B1708563758058N00258355WA0190202047
B1708573758062N00258356WA0190102046
B1708583758067N00258356WA0190002046
B1708593758072N00258357WA0190002045
B1709003758077N00258358WA0190002045
B1709013758082N00258358WA0190002044
B1709023758087N00258358WA0189902044
B1709033758091N00258358WA0189902044
B1709043758096N00258359WA0189902044
B1709053758100N00258360WA0189902044
B1709063758104N00258361WA0189902043
B1709073758109N00258362WA0189902043
B1709083758113N00258363WA0189702043
B1709093758118N00258364WA0189602042
B1709103758123N00258365WA0189402041
B1709113758127N00258367WA0189502040
B1709123758132N00258369WA0189502040
B1709133758137N00258371WA0189502040
B1709143758141N00258374WA0189502040
B1709153758145N00258377WA0189502040
B1709163758148N00258380WA0189502040
B1709173758152N00258383WA0189602041
B1709183758155N00258386WA0189702041
B1709193758158N00258388WA0189702041
B1709203758162N00258392WA0189502040
B1709213758164N00258396WA0189402040
B1709223758167N00258401WA0189402039
B1709233758171N00258405WA0189302038
B1709243758175N00258409WA0189302037
B1709253758178N00258412WA0189302037
B1709263758182N00258415WA0189302037
B1709273758185N00258418WA0189302036
B1709283758187N00258422WA0189202036
B1709293758191N00258426WA0189102035
B1709303758194N00258429WA0189002034
B1709313758198N00258432WA0188802033
B1709323758202N00258435WA0188702032
B1709333758206N00258438WA0188602030
B1709343758210N00258441WA0188602029
B1709353758214N00258444WA0188502028
B1709363758217N00258446WA0188302027
B1709373758221N00258449WA0188202026
B1709383758224N00258452WA0188102024
B1709393758228N00258456WA0187902022
B1709403758232N00258459WA0187802021
B1709413758236N00258462WA0187802020
B1709423758240N00258465WA0187702018
B1709433758244N00258468WA0187602017
B1709443758248N00258470WA0187502016
B1709453758252N00258474WA0187302014
B1709463758256N00258477WA0187102013
B1709473758260N00258479WA0186902011
B1709483758265N00258482WA0186802009
B1709493758270N00258484WA0186602007
B1709503758274N00258487WA0186402005
B1709513758278N00258489WA0186202003
B1709523758283N00258492WA0186002001
B1709533758287N00258495WA0185901999
B1709543758292N00258498WA0185701997
B1709553758297N00258499WA0185601995
B1709563758301N00258501WA0185301993
B1709573758306N00258504WA0185001991
B1709583758310N00258508WA0184901989
B1709593758315N00258511WA0184601987
B1710003758319N00258512WA0184501985
B1710013758323N00258513WA0184501984
B1710023758327N00258515WA0184301982
B1710033758331N00258519WA0183901980
B1710043758336N00258523WA0183601977
B1710053758341N00258526WA0183501974
B1710063758346N00258527WA0183501973
B1710073758351N00258528WA0183501972
B1710083758355N00258529WA0183501972
B1710093758359N00258530WA0183301971
B1710103758362N00258533WA0183001970
B1710113758367N00258537WA0182701967
B1710123758372N00258540WA0182401963
B1710133758377N00258542WA0182301960
B1710143758383N00258544WA0182201959
B1710153758388N00258544WA0182101959
B1710163758393N00258546WA0181901958
B1710173758397N00258548WA0181701956
B1710183758401N00258550WA0181401954
B1710193758406N00258552WA0181201952
B1710203758411N00258554WA0180901949
B1710213758417N00258555WA0180701947
B1710223758422N00258556WA0180501944
B1710233758427N00258557WA0180201942
B1710243758432N00258560WA0180101939
B1710253758437N00258561WA0179801937
B1710263758442N00258563WA0179601934
B1710273758447N00258564WA0179301932
B1710283758452N00258564WA0179101929
B1710293758458N00258565WA0178801926
B1710303758463N00258566WA0178601924
B1710313758469N00258567WA0178401922
B1710323758474N00258567WA0178301920
B1710333758479N00258567WA0178001918
B1710343758485N00258567WA0177701915
B1710353758490N00258569WA0177401913
B1710363758495N00258570WA0177201910
B1710373758500N00258571WA0177001908
B1710383758506N00258571WA0176801906
B1710393758511N00258572WA0176501904
B1710403758516N00258574WA0176401901
B1710413758521N00258575WA0176201899
B1710423758526N00258577WA0176001897
B1710433758531N00258579WA0175701894
B1710443758536N00258580WA0175401891
B1710453758541N00258582WA0175101888
B1710463758547N00258584WA0174901885
B1710473758552N00258586WA0174701882
B1710483758558N00258588WA0174501880
B1710493758563N00258589WA0174301878
B1710503758568N00258590WA0174001875
B1710513758573N00258592WA0173701872
B1710523758579N00258594WA0173301868
B1710533758584N00258596WA0173001865
B1710543758590N00258598WA0172701862
B1710553758596N00258599WA0172601860
B1710563758601N00258601WA0172401858
B1710573758607N00258602WA0172001855
B1710583758612N00258603WA0171701852
B1710593758617N00258605WA0171301848
B1711003758623N00258607WA0171001844
B1711013758629N00258608WA0170601840
B1711023758635N00258610WA0170201837
B1711033758641N00258611WA0170001834
B1711043758647N00258612WA0169701831
B1711053758652N00258614WA0169501829
B1711063758657N00258616WA0169301826
B1711073758663N00258617WA0168801822
B1711083758669N00258619WA0168401818
B1711093758675N00258621WA0168101814
B1711103758681N00258623WA0167901811
B1711113758686N00258626WA0167701808
B1711123758692N00258628WA0167501805
B1711133758698N00258629WA0167301804
B1711143758703N00258629WA0167201802
B1711153758709N00258629WA0167001800
B1711163758714N00258629WA0166801798
B1711173758719N00258631WA0166601796
B1711183758725N00258633WA0166301793
B1711193758731N00258634WA0166001790
B1711203758737N00258635WA0165801788
B1711213758743N00258636WA0165601786
B1711223758748N00258637WA0165401784
B1711233758754N00258639WA0165101781
B1711243758760N00258640WA0164801779
B1711253758766N00258642WA0164601775
B1711263758772N00258644WA0164301772
B1711273758778N00258645WA0164101770
B1711283758785N00258646WA0163901768
B1711293758791N00258647WA0163701766
B1711303758796N00258648WA0163501764
B1711313758802N00258649WA0163201762
B1711323758808N00258651WA0162901759
B1711333758814N00258653WA0162501755
B1711343758820N00258656WA0162301752
B1711353758826N00258658WA0162101750
B1711363758831N00258661WA0162101748
B1711373758837N00258664WA0162001748
B1711383758841N00258668WA0162001748
B1711393758846N00258671WA0161901747
B1711403758851N00258674WA0161701746
B1711413758857N00258678WA0161601744
B1711423758861N00258683WA0161301742
B1711433758866N00258689WA0161101739
B1711443758870N00258695WA0161001737
B1711453758875N00258701WA0160901736
B1711463758880N00258706WA0160901735
B1711473758885N00258712WA0160901734
B1711483758890N00258717WA0160901734
B1711493758895N00258722WA0160801733
B1711503758901N00258727WA0160501732
B1711513758907N00258732WA0160701731
B1711523758912N00258737WA0160701730
B1711533758917N00258742WA0160801731
B1711543758921N00258748WA0160901733
B1711553758924N00258753WA0161301736
B1711563758927N00258757WA0161901740
B1711573758931N00258760WA0162101743
B1711583758935N00258762WA0162201746
B1711593758940N00258763WA0162401748
B1712003758945N00258764WA0162501750
B1712013758949N00258764WA0162701752
B1712023758954N00258764WA0162901755
B1712033758958N00258762WA0163001757
B1712043758963N00258760WA0163001759
B1712053758967N00258754WA0163101758
B1712063758971N00258747WA0163101759
B1712073758973N00258738WA0163201760
B1712083758973N00258728WA0163201760
B1712093758971N00258719WA0163301761
B1712103758967N00258712WA0163401762
B1712113758962N00258706WA0163501763
B1712123758957N00258702WA0163601762
B1712133758950N00258700WA0163601762
B1712143758945N00258700WA0163801763
B1712153758939N00258701WA0164001765
B1712163758935N00258702WA0164201767
B1712173758931N00258705WA0164301769
B1712183758928N00258709WA0164401770
B1712193758927N00258713WA0164301772
B1712203758926N00258719WA0164401772
B1712213758926N00258724WA0164601773
B1712223758927N00258730WA0164601774
B1712233758928N00258735WA0164901776
B1712243758929N00258739WA0165201779
B1712253758930N00258743WA0165401781
B1712263758931N00258747WA0165501782
B1712273758934N00258750WA0165601783
B1712283758938N00258753WA0165701785
B1712293758942N00258755WA0165801786
B1712303758947N00258755WA0165801787
B1712313758951N00258754WA0165901788
B1712323758956N00258752WA0165901789
B1712333758960N00258748WA0166001789
B1712343758964N00258742WA0165901789
B1712353758966N00258734WA0165601789
B1712363758969N00258725WA0165801789
B1712373758969N00258716WA0165901790
B1712383758968N00258707WA0166001790
B1712393758966N00258699WA0166101791
B1712403758962N00258692WA0166101791
B1712413758957N00258687WA0166001791
B1712423758951N00258683WA0166101790
B1712433758945N00258682WA0165901792
B1712443758940N00258684WA0166101793
B1712453758936N00258686WA0166501794
B1712463758933N00258689WA0166801796
B1712473758931N00258693WA0167001798
B1712483758929N00258696WA0167201799
B1712493758928N00258701WA0167201801
B1712503758929N00258706WA0167301802
B1712513758931N00258711WA0167201800
B1712523758933N00258716WA0167301800
B1712533758935N00258721WA0167501801
B1712543758936N00258726WA0167701803
B1712553758937N00258730WA0167801804
B1712563758938N00258734WA0167901806
B1712573758940N00258737WA0168001807
B1712583758943N00258740WA0168101808
B1712593758947N00258741WA0168201809
B1713003758951N00258740WA0168301810
B1713013758956N00258737WA0168301810
B1713023758960N00258732WA0168301811
B1713033758964N00258725WA0168501812
B1713043758965N00258717WA0168701813
B1713053758964N00258709WA0168701814
B1713063758962N00258701WA0168801815
B1713073758959N00258693WA0168701816
B1713083758954N00258686WA0168801817
B1713093758949N00258679WA0168901817
B1713103758942N00258674WA0169101819
B1713113758937N00258670WA0169201821
B1713123758931N00258668WA0169301823
B1713133758927N00258668WA0169401824
B1713143758922N00258670WA0169401824
B1713153758918N00258673WA0169501825
B1713163758915N00258677WA0169501825
B1713173758913N00258682WA0169501826
B1713183758912N00258687WA0169601827
B1713193758911N00258692WA0169601828
B1713203758911N00258697WA0169801829
B1713213758912N00258702WA0169801830
B1713223758913N00258706WA0169901830
B1713233758914N00258711WA0169901830
B1713243758916N00258715WA0169901830
B1713253758918N00258719WA0170001831
B1713263758920N00258723WA0170001831
B1713273758922N00258727WA0170101832
B1713283758925N00258730WA0170101832
B1713293758928N00258733WA0170001832
B1713303758932N00258736WA0170001832
B1713313758936N00258738WA0170201833
B1713323758941N00258740WA0170301833
B1713333758945N00258742WA0170401834
B1713343758948N00258745WA0170601835
B1713353758952N00258748WA0170601836
B1713363758954N00258750WA0170701836
B1713373758957N00258753WA0170801837
B1713383758960N00258755WA0170901838
B1713393758962N00258755WA0170901839
B1713403758966N00258754WA0170701839
B1713413758969N00258751WA0170501837
B1713423758973N00258745WA0170301835
B1713433758976N00258737WA0170401834
B1713443758977N00258729WA0170501834
B1713453758976N00258722WA0170601835
B1713463758974N00258715WA0170601835
B1713473758972N00258707WA0170501835
B1713483758967N00258700WA0170301835
B1713493758962N00258694WA0170201834
B1713503758955N00258690WA0170101833
B1713513758948N00258688WA0170001833
B1713523758942N00258689WA0170101834
B1713533758936N00258690WA0170101835
B1713543758931N00258692WA0170101835
B1713553758927N00258695WA0170101835
B1713563758922N00258699WA0170001834
B1713573758918N00258704WA0169901833
B1713583758915N00258710WA0170001832
B1713593758913N00258715WA0170001833
B1714003758912N00258720WA0170101833
B1714013758913N00258725WA0170101834
B1714023758914N00258730WA0170101833
B1714033758917N00258734WA0170001832
B1714043758920N00258738WA0169901831
B1714053758924N00258743WA0169901830
B1714063758927N00258748WA0169901830
B1714073758930N00258752WA0170001830
B1714083758933N00258756WA0169901831
B1714093758936N00258761WA0169901831
B1714103758939N00258766WA0169601830
B1714113758943N00258771WA0169501829
B1714123758947N00258776WA0169501829
B1714133758952N00258780WA0169601828
B1714143758955N00258784WA0169601828
B1714153758959N00258787WA0169601829
B1714163758964N00258790WA0169701829
B1714173758968N00258792WA0169801829
B1714183758972N00258793WA0169901829
B1714193758976N00258794WA0169901830
B1714203758980N00258795WA0169901830
B1714213758984N00258797WA0169901830
B1714223758989N00258799WA0169801830
B1714233758993N00258800WA0169901830
B1714243758997N00258802WA0170101832
B1714253759001N00258802WA0170101833
B1714263759005N00258803WA0170101833
B1714273759009N00258803WA0169901833
B1714283759014N00258804WA0169801831
B1714293759019N00258806WA0169801830
B1714303759023N00258807WA0169901831
B1714313759027N00258809WA0170001831
B1714323759030N00258809WA0170101832
B1714333759034N00258809WA0170101832
B1714343759037N00258809WA0170001832
B1714353759041N00258810WA0169901832
B1714363759045N00258811WA0169901831
B1714373759049N00258812WA0169701831
B1714383759052N00258814WA0169501830
B1714393759055N00258815WA0169501830
B1714403759059N00258816WA0169601829
B1714413759063N00258817WA0169601829
B1714423759066N00258818WA0169501828
B1714433759069N00258820WA0169501827
B1714443759073N00258822WA0169501826
B1714453759076N00258824WA0169401826
B1714463759079N00258826WA0169201824
B1714473759082N00258828WA0169101823
B1714483759085N00258830WA0169001822
B1714493759087N00258832WA0168901820
B1714503759090N00258834WA0168601818
B1714513759094N00258837WA0168401815
B1714523759097N00258839WA0168301813
B1714533759100N00258842WA0168101812
B1714543759103N00258843WA0167901810
B1714553759107N00258844WA0167701808
B1714563759110N00258846WA0167501806
B1714573759114N00258848WA0167201804
B1714583759118N00258850WA0167101802
B1714593759121N00258852WA0166901800
B1715003759125N00258853WA0166801799
B1715013759129N00258853WA0166601797
B1715023759132N00258854WA0166301795
B1715033759136N00258854WA0166101793
B1715043759140N00258854WA0165901791
B1715053759144N00258856WA0165701788
B1715063759149N00258857WA0165501785
B1715073759153N00258859WA0165301784
B1715083759156N00258862WA0165201783
B1715093759159N00258865WA0165001782
B1715103759162N00258868WA0164901780
B1715113759166N00258870WA0164601777
B1715123759169N00258873WA0164601775
B1715133759173N00258876WA0164501773
B1715143759176N00258879WA0164501772
B1715153759179N00258882WA0164401771
B1715163759182N00258884WA0164201770
B1715173759186N00258886WA0164001768
B1715183759190N00258888WA0163901766
B1715193759194N00258890WA0163901765
B1715203759197N00258892WA0163801764
B1715213759201N00258893WA0163701764
B1715223759204N00258895WA0163401762
B1715233759208N00258897WA0163001761
B1715243759212N00258898WA0163201759
B1715253759216N00258899WA0163101758
B1715263759220N00258901WA0163101757
B1715273759224N00258902WA0162901756
B1715283759228N00258903WA0162701754
B1715293759233N00258904WA0162501753
B1715303759238N00258905WA0162401751
B1715313759242N00258906WA0162401750
B1715323759246N00258908WA0162201749
B1715333759249N00258910WA0162101748
B1715343759253N00258912WA0161901747
B1715353759257N00258914WA0161801745
B1715363759260N00258916WA0161601743
B1715373759264N00258919WA0161401741
B1715383759267N00258922WA0161201740
B1715393759270N00258927WA0160901738
B1715403759273N00258931WA0160601736
B1715413759277N00258935WA0160501734
B1715423759282N00258938WA0160301731
B1715433759287N00258940WA0160201730
B1715443759292N00258943WA0160301729
B1715453759297N00258946WA0160201728
B1715463759301N00258949WA0160001727
B1715473759306N00258953WA0159801725
B1715483759311N00258957WA0159601723
B1715493759315N00258962WA0159401721
B1715503759320N00258966WA0159301719
B1715513759325N00258970WA0159401719
B1715523759330N00258973WA0159401719
B1715533759335N00258976WA0159301719
B1715543759339N00258981WA0159201718
B1715553759341N00258986WA0159301718
B1715563759342N00258990WA0159601720
B1715573759342N00258993WA0159901722
B1715583759342N00258995WA0160001724
B1715593759343N00258998WA0159901724
B1716003759346N00259002WA0159701723
B1716013759349N00259006WA0159501721
B1716023759351N00259011WA0159501720
B1716033759353N00259015WA0159701721
B1716043759355N00259019WA0159701722
B1716053759357N00259022WA0159601722
B1716063759359N00259026WA0159201721
B1716073759362N00259030WA0159401721
B1716083759365N00259033WA0159401720
B1716093759368N00259037WA0159401719
B1716103759371N00259040WA0159401719
B1716113759374N00259044WA0159301719
B1716123759377N00259047WA0159201718
B1716133759381N00259051WA0159101717
B1716143759385N00259054WA0159101716
B1716153759389N00259057WA0159001716
B1716163759393N00259060WA0158901715
B1716173759397N00259064WA0158901714
B1716183759402N00259067WA0159001713
B1716193759406N00259070WA0159001713
B1716203759410N00259072WA0159001713
B1716213759414N00259074WA0159001714
B1716223759417N00259076WA0158901713
B1716233759421N00259079WA0158701712
B1716243759425N00259082WA0158301709
B1716253759431N00259085WA0158201706
B1716263759437N00259088WA0158101704
B1716273759442N00259092WA0158101703
B1716283759446N00259096WA0158101703
B1716293759450N00259098WA0158101703
B1716303759454N00259100WA0157901702
B1716313759459N00259102WA0157601701
B1716323759465N00259104WA0157501699
B1716333759470N00259105WA0157301698
B1716343759474N00259107WA0157401698
B1716353759478N00259108WA0157501699
B1716363759481N00259109WA0157501699
B1716373759485N00259111WA0157301698
B1716383759489N00259113WA0157201696
B1716393759494N00259116WA0157201694
B1716403759498N00259118WA0157201694
B1716413759503N00259118WA0157201694
B1716423759508N00259118WA0157101694
B1716433759513N00259119WA0157001694
B1716443759518N00259120WA0156801692
B1716453759523N00259120WA0156601691
B1716463759529N00259120WA0156401689
B1716473759534N00259120WA0156201688
B1716483759539N00259121WA0156101686
B1716493759544N00259121WA0156001684
B1716503759549N00259121WA0155801683
B1716513759554N00259121WA0155701682
B1716523759559N00259122WA0155501680
B1716533759564N00259124WA0155501679
B1716543759567N00259125WA0155501678
B1716553759571N00259126WA0155401677
B1716563759575N00259127WA0155301676
B1716573759579N00259130WA0155101674
B1716583759583N00259133WA0155001673
B1716593759586N00259136WA0154901671
B1717003759590N00259138WA0154801671
B1717013759594N00259140WA0154801670
B1717023759597N00259143WA0154701669
B1717033759601N00259145WA0154701668
B1717043759606N00259147WA0154601668
B1717053759610N00259149WA0154401667
B1717063759615N00259150WA0154101667
B1717073759620N00259152WA0154201666
B1717083759624N00259154WA0154301666
B1717093759629N00259156WA0154501666
B1717103759633N00259157WA0154401666
B1717113759636N00259158WA0154101664
B1717123759639N00259160WA0154001663
B1717133759642N00259162WA0153701660
B1717143759645N00259164WA0153501657
B1717153759649N00259167WA0153201653
B1717163759652N00259169WA0152901651
B1717173759656N00259170WA0152601648
B1717183759659N00259173WA0152501645
B1717193759663N00259176WA0152301642
B1717203759666N00259182WA0152201640
B1717213759668N00259187WA0152301640
B1717223759670N00259190WA0152401642
B1717233759671N00259192WA0152401644
B1717243759673N00259194WA0152101643
B1717253759676N00259197WA0151601641
B1717263759679N00259202WA0151201632
B1717273759682N00259207WA0150801627
B1717283759684N00259213WA0150601623
B1717293759686N00259217WA0150401622
B1717303759688N00259221WA0150001620
B1717313759690N00259225WA0149401617
B1717323759692N00259230WA0148901613
B1717333759696N00259235WA0148601606
B1717343759700N00259240WA0148201601
B1717353759704N00259244WA0147901597
B1717363759708N00259248WA0147601594
B1717373759712N00259251WA0147401592
B1717383759717N00259255WA0147101588
B1717393759722N00259259WA0146801585
B1717403759726N00259263WA0146801583
B1717413759730N00259266WA0146801583
B1717423759733N00259268WA0146801583
B1717433759736N00259271WA0146701582
B1717443759739N00259273WA0146501581
B1717453759743N00259276WA0146301579
B1717463759747N00259280WA0146201578
B1717473759752N00259282WA0146201577
B1717483759757N00259283WA0146301577
B1717493759761N00259283WA0146301578
B1717503759765N00259283WA0146401578
B1717513759769N00259285WA0146401579
B1717523759773N00259287WA0146401579
B1717533759776N00259290WA0146301579
B1717543759780N00259291WA0146101579
B1717553759784N00259293WA0146001579
B1717563759789N00259295WA0146101578
B1717573759793N00259297WA0146101578
B1717583759797N00259299WA0146201578
B1717593759801N00259302WA0146301578
B1718003759805N00259304WA0146501581
B1718013759808N00259305WA0146601582
B1718023759812N00259307WA0146701583
B1718033759816N00259310WA0146801584
B1718043759820N00259312WA0146901584
B1718053759825N00259314WA0146901585
B1718063759829N00259315WA0146901586
B1718073759833N00259316WA0146801586
B1718083759838N00259318WA0146401586
B1718093759842N00259320WA0146501585
B1718103759847N00259322WA0146401584
B1718113759852N00259323WA0146301583
B1718123759856N00259325WA0146301583
B1718133759860N00259328WA0146201581
B1718143759864N00259331WA0146201580
B1718153759869N00259333WA0146101580
B1718163759873N00259334WA0146001579
B1718173759878N00259335WA0145901578
B1718183759881N00259337WA0145601577
B1718193759885N00259339WA0145301576
B1718203759889N00259343WA0145001574
B1718213759892N00259346WA0144901572
B1718223759895N00259348WA0144901571
B1718233759897N00259350WA0144701569
B1718243759900N00259352WA0144401567
B1718253759903N00259355WA0143901565
B1718263759906N00259357WA0143801561
B1718273759910N00259359WA0143701559
B1718283759914N00259361WA0143601556
B1718293759917N00259362WA0143401554
B1718303759920N00259363WA0143201552
B1718313759923N00259364WA0142901550
B1718323759927N00259366WA0142601546
B1718333759932N00259367WA0142301543
B1718343759937N00259369WA0141801539
B1718353759942N00259371WA0141601535
B1718363759947N00259373WA0141401532
B1718373759953N00259374WA0140901529
B1718383759959N00259375WA0140701527
B1718393759964N00259375WA0140701525
B1718403759969N00259375WA0140401522
B1718413759974N00259376WA0140101519
B1718423759979N00259377WA0139601516
B1718433759985N00259378WA0139301512
B1718443759991N00259380WA0138901508
B1718453759998N00259381WA0138501504
B1718463800004N00259383WA0138301500
B1718473800009N00259386WA0138101497
B1718483800014N00259389WA0137601493
B1718493800019N00259393WA0137501490
B1718503800025N00259395WA0137401487
B1718513800031N00259396WA0137101485
B1718523800037N00259398WA0136901483
B1718533800042N00259399WA0136701480
B1718543800048N00259401WA0136501478
B1718553800053N00259403WA0136401477
B1718563800059N00259404WA0136401475
B1718573800064N00259405WA0136101473
B1718583800070N00259406WA0135801471
B1718593800075N00259407WA0135601469
B1719003800080N00259408WA0135601468
B1719013800085N00259409WA0135501466
B1719023800091N00259409WA0135301464
B1719033800096N00259409WA0135001463
B1719043800102N00259409WA0134801461
B1719053800108N00259410WA0134701459
B1719063800115N00259410WA0134501457
B1719073800121N00259411WA0134401455
B1719083800127N00259411WA0134301454
B1719093800132N00259411WA0134201453
B1719103800136N00259411WA0133901452
B1719113800141N00259411WA0133501449
B1719123800146N00259412WA0133001443
B1719133800153N00259414WA0132501438
B1719143800159N00259416WA0132201433
B1719153800165N00259418WA0132201431
B1719163800170N00259419WA0132101430
B1719173800175N00259420WA0132001429
B1719183800179N00259421WA0131801427
B1719193800184N00259423WA0131301422
B1719203800189N00259424WA0130901418
B1719213800195N00259426WA0130401413
B1719223800201N00259428WA0130201410
B1719233800207N00259428WA0130001407
B1719243800212N00259428WA0129701404
B1719253800217N00259428WA0129401402
B1719263800223N00259429WA0128901398
B1719273800229N00259429WA0128601395
B1719283800236N00259430WA0128501392
B1719293800242N00259430WA0128301390
B1719303800247N00259431WA0128201389
B1719313800252N00259433WA0128101387
B1719323800257N00259434WA0127801385
B1719333800262N00259434WA0127401382
B1719343800267N00259434WA0127001378
B1719353800273N00259436WA0126801375
B1719363800278N00259438WA0126601372
B1719373800283N00259441WA0126301369
B1719383800288N00259443WA0126201367
B1719393800293N00259446WA0126001365
B1719403800298N00259448WA0125701363
B1719413800303N00259450WA0125301360
B1719423800308N00259451WA0125101357
B1719433800314N00259453WA0124801354
B1719443800318N00259456WA0124601351
B1719453800323N00259458WA0124401348
B1719463800327N00259461WA0124201346
B1719473800332N00259463WA0123901344
B1719483800336N00259465WA0123701341
B1719493800341N00259467WA0123401338
B1719503800345N00259469WA0123101335
B1719513800350N00259471WA0123001333
B1719523800354N00259472WA0122701331
B1719533800359N00259473WA0122501328
B1719543800363N00259475WA0122201325
B1719553800368N00259477WA0121801322
B1719563800372N00259480WA0121401318
B1719573800377N00259482WA0121101315
B1719583800382N00259484WA0120801312
B1719593800387N00259485WA0120601309
B1720003800393N00259487WA0120301306
B1720013800398N00259489WA0120001303
B1720023800403N00259490WA0119701300
B1720033800409N00259491WA0119501297
B1720043800415N00259491WA0119301294
B1720053800421N00259491WA0119101292
B1720063800426N00259492WA0118801289
B1720073800431N00259494WA0118601287
B1720083800436N00259495WA0118201284
B1720093800441N00259496WA0117901281
B1720103800446N00259495WA0117701278
B1720113800452N00259495WA0117301275
B1720123800457N00259495WA0117101272
B1720133800462N00259496WA0116901270
B1720143800467N00259498WA0116801268
B1720153800471N00259499WA0116601266
B1720163800474N00259501WA0116301264
B1720173800478N00259503WA0116001261
B1720183800482N00259507WA0115501257
B1720193800487N00259510WA0115201253
B1720203800491N00259512WA0115101250
B1720213800496N00259514WA0114801248
B1720223800500N00259517WA0114701245
B1720233800504N00259520WA0114401243
B1720243800508N00259523WA0114101240
B1720253800512N00259527WA0113901238
B1720263800516N00259530WA0113801235
B1720273800520N00259533WA0113401233
B1720283800524N00259535WA0113101230
B1720293800528N00259537WA0112701226
B1720303800532N00259539WA0112301222
B1720313800536N00259542WA0111801218
B1720323800540N00259546WA0111501214
B1720333800544N00259549WA0111301211
B1720343800548N00259552WA0111201209
B1720353800552N00259553WA0111101207
B1720363800556N00259554WA0110801205
B1720373800560N00259555WA0110401202
B1720383800564N00259557WA0110001198
B1720393800568N00259560WA0109701194
B1720403800573N00259563WA0109301191
B1720413800578N00259566WA0109101187
B1720423800583N00259569WA0108901185
B1720433800588N00259571WA0108801183
B1720443800592N00259574WA0108801182
B1720453800596N00259577WA0108701181
B1720463800599N00259579WA0108601180
B1720473800603N00259582WA0108401178
B1720483800608N00259584WA0108201175
B1720493800613N00259586WA0108001174
B1720503800618N00259589WA0107901172
B1720513800623N00259591WA0107901171
B1720523800628N00259592WA0107901171
B1720533800633N00259593WA0107801171
B1720543800638N00259594WA0107701170
B1720553800643N00259596WA0107501169
B1720563800648N00259597WA0107501168
B1720573800654N00259597WA0107601168
B1720583800660N00259597WA0107601168
B1720593800665N00259597WA0107501168
B1721003800670N00259598WA0107501168
B1721013800675N00259600WA0107601168
B1721023800679N00259603WA0107801168
B1721033800683N00259605WA0108001169
B1721043800688N00259606WA0108001169
B1721053800692N00259606WA0108101171
B1721063800697N00259605WA0108001173
B1721073800702N00259605WA0107901173
B1721083800706N00259605WA0107801173
B1721093800710N00259606WA0107901172
B1721103800715N00259607WA0107801171
B1721113800719N00259608WA0108001170
B1721123800724N00259608WA0108101170
B1721133800728N00259607WA0108201171
B1721143800731N00259606WA0108001171
B1721153800735N00259606WA0107801171
B1721163800740N00259605WA0107501169
B1721173800745N00259603WA0107301166
B1721183800750N00259601WA0107301164
B1721193800755N00259600WA0107201163
B1721203800759N00259600WA0107101162
B1721213800762N00259602WA0107201161
B1721223800765N00259603WA0107301161
B1721233800767N00259605WA0107001161
B1721243800771N00259606WA0106601160
B1721253800774N00259608WA0106501158
B1721263800778N00259611WA0106301156
B1721273800782N00259614WA0106301154
B1721283800785N00259618WA0106301153
B1721293800787N00259621WA0106301153
B1721303800788N00259624WA0106401153
B1721313800789N00259626WA0106601154
B1721323800789N00259630WA0106501155
B1721333800787N00259633WA0106201155
B1721343800786N00259637WA0106201154
B1721353800784N00259641WA0106301155
B1721363800782N00259644WA0106501157
B1721373800780N00259647WA0106801158
B1721383800778N00259650WA0106801159
B1721393800776N00259654WA0106801159
B1721403800775N00259658WA0106601159
B1721413800774N00259662WA0106701159
B1721423800773N00259666WA0106901159
B1721433800772N00259669WA0107201161
B1721443800771N00259673WA0107201162
B1721453800769N00259676WA0107201163
B1721463800768N00259679WA0107201163
B1721473800767N00259683WA0107201163
B1721483800766N00259688WA0107201163
B1721493800766N00259692WA0107301164
B1721503800765N00259696WA0107501165
B1721513800764N00259698WA0107601168
B1721523800763N00259700WA0107801169
B1721533800762N00259702WA0107901170
B1721543800761N00259704WA0107901170
B1721553800760N00259707WA0107801171
B1721563800759N00259711WA0107601171
B1721573800758N00259715WA0107601170
B1721583800756N00259719WA0107801171
B1721593800756N00259722WA0107901172
B1722003800755N00259726WA0108101173
B1722013800755N00259728WA0108301174
B1722023800755N00259731WA0108501175
B1722033800756N00259733WA0108601177
B1722043800758N00259735WA0108701177
B1722053800761N00259736WA0108701178
B1722063800765N00259735WA0108701179
B1722073800770N00259731WA0108701179
B1722083800774N00259724WA0108901179
B1722093800776N00259715WA0109101180
B1722103800777N00259706WA0109401182
B1722113800776N00259697WA0109501184
B1722123800773N00259689WA0109701185
B1722133800769N00259681WA0109701186
B1722143800763N00259675WA0109701187
B1722153800756N00259673WA0109701187
B1722163800749N00259673WA0109901188
B1722173800744N00259674WA0110001191
B1722183800741N00259676WA0110301194
B1722193800738N00259678WA0110501196
B1722203800736N00259680WA0110601198
B1722213800735N00259683WA0110701200
B1722223800734N00259686WA0110701201
B1722233800734N00259690WA0110801202
B1722243800734N00259693WA0110901202
B1722253800733N00259697WA0110901202
B1722263800733N00259699WA0111001203
B1722273800733N00259702WA0111001204
B1722283800734N00259703WA0111001204
B1722293800735N00259704WA0110901203
B1722303800737N00259705WA0110801202
B1722313800741N00259704WA0110701201
B1722323800746N00259700WA0110401199
B1722333800751N00259692WA0110401197
B1722343800753N00259683WA0110301196
B1722353800753N00259674WA0110501197
B1722363800752N00259665WA0110601197
B1722373800748N00259657WA0110701198
B1722383800745N00259650WA0110801199
B1722393800740N00259643WA0110401199
B1722403800734N00259637WA0110301198
B1722413800728N00259634WA0110601199
B1722423800722N00259633WA0110601199
B1722433800717N00259634WA0110501199
B1722443800713N00259635WA0110601199
B1722453800709N00259637WA0110601199
B1722463800707N00259639WA0110501199
B1722473800705N00259642WA0110401199
B1722483800703N00259645WA0110301198
B1722493800703N00259648WA0110001198
B1722503800702N00259651WA0110101197
B1722513800703N00259653WA0110201197
B1722523800703N00259655WA0110201197
B1722533800704N00259657WA0110001196
B1722543800704N00259660WA0110001195
B1722553800705N00259663WA0109901193
B1722563800706N00259666WA0109801192
B1722573800707N00259668WA0109801191
B1722583800708N00259671WA0109901191
B1722593800708N00259673WA0109701190
B1723003800709N00259674WA0109601190
B1723013800710N00259676WA0109501189
B1723023800712N00259679WA0109301187
B1723033800713N00259681WA0109201186
B1723043800714N00259683WA0109201185
B1723053800715N00259686WA0109201185
B1723063800715N00259687WA0109101184
B1723073800716N00259688WA0109001184
B1723083800718N00259688WA0108801182
B1723093800720N00259689WA0108401180
B1723103800723N00259689WA0108101178
B1723113800727N00259689WA0108201176
B1723123800731N00259689WA0108101174
B1723133800735N00259687WA0108101173
B1723143800739N00259685WA0108101173
B1723153800742N00259683WA0108001172
B1723163800746N00259681WA0107701172
B1723173800750N00259679WA0107501171
B1723183800754N00259677WA0107601170
B1723193800759N00259675WA0107601171
B1723203800763N00259672WA0107501170
B1723213800768N00259668WA0107601169
B1723223800772N00259664WA0107701169
B1723233800776N00259660WA0107701169
B1723243800780N00259657WA0107701169
B1723253800785N00259653WA0107501169
B1723263800789N00259649WA0107601169
B1723273800793N00259644WA0107701170
B1723283800798N00259640WA0107901170
B1723293800802N00259636WA0108101173
B1723303800806N00259634WA0108401174
B1723313800809N00259632WA0108601176
B1723323800812N00259628WA0108801179
B1723333800815N00259622WA0108801180
B1723343800817N00259613WA0108701182
B1723353800817N00259602WA0108701182
B1723363800814N00259592WA0109001182
B1723373800809N00259584WA0109301185
B1723383800804N00259578WA0109601188
B1723393800799N00259573WA0109801190
B1723403800794N00259570WA0109901191
B1723413800789N00259569WA0110001192
B1723423800783N00259570WA0109901192
B1723433800779N00259573WA0110001192
B1723443800776N00259576WA0110001194
B1723453800774N00259578WA0110201196
B1723463800772N00259581WA0110501198
B1723473800771N00259583WA0110501199
B1723483800770N00259585WA0110601200
B1723493800770N00259589WA0110601200
B1723503800771N00259592WA0110601200
B1723513800772N00259595WA0110801201
B1723523800772N00259597WA0111001202
B1723533800772N00259599WA0111101203
B1723543800773N00259600WA0111101204
B1723553800775N00259601WA0111101204
B1723563800778N00259601WA0111101204
B1723573800781N00259599WA0111001204
B1723583800784N00259596WA0111001204
B1723593800787N00259591WA0111101205
B1724003800789N00259583WA0111101204
B1724013800790N00259573WA0110901203
B1724023800789N00259562WA0110201202
B1724033800786N00259550WA0110401200
B1724043800781N00259539WA0110701199
B1724053800775N00259530WA0110801201
B1724063800769N00259524WA0110901203
B1724073800763N00259519WA0111001205
B1724083800757N00259516WA0111001206
B1724093800751N00259516WA0111001206
B1724103800745N00259517WA0110901205
B1724113800740N00259519WA0110901204
B1724123800737N00259522WA0111001204
B1724133800734N00259524WA0111101205
B1724143800732N00259526WA0111201207
B1724153800731N00259528WA0111201207
B1724163800730N00259530WA0111101208
B1724173800730N00259534WA0110901207
B1724183800732N00259537WA0110801205
B1724193800732N00259540WA0111001205
B1724203800733N00259541WA0111101207
B1724213800733N00259543WA0110801207
B1724223800734N00259547WA0110301205
B1724233800737N00259549WA0110201204
B1724243800740N00259551WA0110301203
B1724253800744N00259550WA0110701204
B1724263800747N00259550WA0110801204
B1724273800750N00259549WA0110801204
B1724283800753N00259549WA0110501203
B1724293800757N00259549WA0110301201
B1724303800761N00259549WA0110301200
B1724313800766N00259548WA0110301199
B1724323800770N00259548WA0110501200
B1724333800774N00259548WA0110601200
B1724343800777N00259548WA0110801200
B1724353800781N00259547WA0110701200
B1724363800785N00259546WA0110601200
B1724373800788N00259543WA0110501200
B1724383800793N00259541WA0110501200
B1724393800797N00259540WA0110401199
B1724403800800N00259539WA0110301198
B1724413800804N00259539WA0110101196
B1724423800807N00259540WA0110001194
B1724433800810N00259540WA0110001193
B1724443800813N00259541WA0110001193
B1724453800815N00259541WA0110001193
B1724463800817N00259543WA0110001192
B1724473800818N00259544WA0109801191
B1724483800820N00259546WA0109601189
B1724493800823N00259548WA0109501188
B1724503800826N00259549WA0109401187
B1724513800829N00259551WA0109501187
B1724523800831N00259552WA0109601187
B1724533800834N00259553WA0109501187
B1724543800836N00259555WA0109501187
B1724553800838N00259557WA0109501187
B1724563800840N00259559WA0109501187
B1724573800842N00259561WA0109601187
B1724583800844N00259563WA0109401187
B1724593800845N00259565WA0109101187
B1725003800847N00259568WA0109101186
B1725013800849N00259570WA0109301185
B1725023800850N00259573WA0109301185
B1725033800851N00259574WA0109501185
B1725043800851N00259575WA0109401185
B1725053800852N00259577WA0109201185
B1725063800853N00259579WA0109101183
B1725073800854N00259581WA0109101182
B1725083800855N00259583WA0109101182
B1725093800855N00259585WA0109201182
B1725103800856N00259587WA0109101182
B1725113800857N00259589WA0109101182
B1725123800859N00259590WA0109101182
B1725133800862N00259591WA0109101181
B1725143800864N00259592WA0109201182
B1725153800865N00259593WA0109201183
B1725163800867N00259595WA0109101183
B1725173800868N00259597WA0108701183
B1725183800870N00259598WA0108701182
B1725193800873N00259599WA0108801182
B1725203800876N00259600WA0108801182
B1725213800879N00259601WA0108701181
B1725223800882N00259602WA0108701181
B1725233800885N00259603WA0108601180
B1725243800888N00259605WA0108501179
B1725253800892N00259606WA0108401178
B1725263800896N00259607WA0108401178
B1725273800899N00259608WA0108301177
B1725283800901N00259610WA0107901175
B1725293800904N00259612WA0107701173
B1725303800907N00259614WA0107501171
B1725313800911N00259616WA0107401169
B1725323800914N00259618WA0107201167
B1725333800916N00259621WA0106801165
B1725343800919N00259624WA0106501163
B1725353800922N00259627WA0106301160
B1725363800926N00259630WA0106001156
B1725373800931N00259633WA0105801153
B1725383800935N00259636WA0105501150
B1725393800939N00259639WA0105201148
B1725403800942N00259643WA0105201146
B1725413800945N00259646WA0105101145
B1725423800949N00259647WA0104901143
B1725433800952N00259649WA0104601140
B1725443800956N00259652WA0104401137
B1725453800958N00259656WA0104101135
B1725463800961N00259661WA0103801132
B1725473800964N00259664WA0103701130
B1725483800967N00259667WA0103501128
B1725493800971N00259670WA0103601127
B1725503800973N00259673WA0103401126
B1725513800975N00259676WA0103401125
B1725523800978N00259679WA0103401124
B1725533800981N00259682WA0103201123
B1725543800984N00259685WA0103101122
B1725553800988N00259686WA0103101122
B1725563800992N00259688WA0103201121
B1725573800995N00259689WA0103101121
B1725583800999N00259690WA0103001121
B1725593801002N00259692WA0102801119
B1726003801005N00259694WA0102701118
B1726013801009N00259696WA0102401116
B1726023801013N00259698WA0102301114
B1726033801016N00259699WA0102301113
B1726043801020N00259700WA0102301112
B1726053801024N00259701WA0102201111
B1726063801028N00259702WA0101901109
B1726073801032N00259703WA0101701107
B1726083801037N00259705WA0101601105
B1726093801041N00259707WA0101501103
B1726103801045N00259709WA0101401102
B1726113801048N00259711WA0101301101
B1726123801051N00259713WA0101101100
B1726133801053N00259716WA0100801098
B1726143801056N00259719WA0100601096
B1726153801059N00259723WA0100501094
B1726163801062N00259727WA0100401091
B1726173801065N00259732WA0100401091
B1726183801067N00259737WA0100601091
B1726193801068N00259740WA0101001093
B1726203801068N00259741WA0101401098
B1726213801068N00259742WA0101601101
B1726223801068N00259744WA0101601103
B1726233801068N00259747WA0101201104
B1726243801069N00259751WA0101001103
B1726253801070N00259754WA0100801103
B1726263801070N00259757WA0100901102
B1726273801071N00259758WA0101101102
B1726283801072N00259759WA0101101102
B1726293801073N00259760WA0100901102
B1726303801074N00259762WA0100701100
B1726313801076N00259764WA0100601099
B1726323801078N00259765WA0100701099
B1726333801080N00259765WA0100901099
B1726343801081N00259765WA0101001101
B1726353801082N00259765WA0100901101
B1726363801084N00259766WA0100601098
B1726373801086N00259768WA0100001095
B1726383801088N00259772WA0099701091
B1726393801091N00259776WA0099801089
B1726403801094N00259780WA0100001089
B1726413801096N00259784WA0100301090
B1726423801097N00259785WA0100601092
B1726433801097N00259785WA0100801094
B1726443801099N00259786WA0100801094
B1726453801101N00259787WA0100401093
B1726463801103N00259790WA0099901090
B1726473801106N00259794WA0099501086
B1726483801110N00259796WA0099601085
B1726493801113N00259797WA0099701085
B1726503801116N00259797WA0099801084
B1726513801118N00259798WA0099601084
B1726523801120N00259800WA0099301082
B1726533801122N00259803WA0098801080
B1726543801126N00259805WA0098601077
B1726553801130N00259807WA0098601075
B1726563801132N00259810WA0098801076
B1726573801133N00259812WA0098901077
B1726583801133N00259814WA0098801076
B1726593801134N00259817WA0098601076
B1727003801136N00259820WA0098401074
B1727013801139N00259822WA0098401073
B1727023801141N00259824WA0098401072
B1727033801142N00259827WA0098301072
B1727043801143N00259830WA0098101071
B1727053801144N00259833WA0098001070
B1727063801147N00259836WA0097801068
B1727073801150N00259838WA0097801066
B1727083801153N00259841WA0097801065
B1727093801156N00259844WA0097701065
B1727103801158N00259846WA0097801065
B1727113801161N00259849WA0097601064
B1727123801164N00259851WA0097301062
B1727133801168N00259854WA0097201061
B1727143801171N00259856WA0097201060
B1727153801174N00259859WA0097201059
B1727163801177N00259861WA0097201059
B1727173801180N00259864WA0097201058
B1727183801183N00259866WA0097001058
B1727193801187N00259867WA0096901056
B1727203801191N00259868WA0096801055
B1727213801195N00259869WA0096701054
B1727223801199N00259870WA0096701053
B1727233801203N00259873WA0096501053
B1727243801206N00259875WA0096501052
B1727253801210N00259876WA0096401051
B1727263801214N00259877WA0096201050
B1727273801219N00259878WA0096201049
B1727283801223N00259879WA0096101048
B1727293801226N00259881WA0096001047
B1727303801230N00259882WA0095901046
B1727313801235N00259883WA0095801046
B1727323801239N00259884WA0095601045
B1727333801243N00259886WA0095301043
B1727343801247N00259889WA0095201041
B1727353801251N00259892WA0095201039
B1727363801253N00259896WA0095201039
B1727373801255N00259900WA0095201038
B1727383801257N00259904WA0095101038
B1727393801260N00259907WA0094901037
B1727403801262N00259910WA0094801035
B1727413801265N00259914WA0094601034
B1727423801267N00259917WA0094401032
B1727433801269N00259922WA0094001029
B1727443801272N00259927WA0093701026
B1727453801275N00259931WA0093501023
B1727463801278N00259935WA0093301020
B1727473801280N00259940WA0093101018
B1727483801281N00259946WA0092801015
B1727493801283N00259953WA0092601012
B1727503801284N00259960WA0092401010
B1727513801286N00259966WA0092501009
B1727523801287N00259972WA0092601009
B1727533801288N00259977WA0092601009
B1727543801288N00259982WA0092501009
B1727553801290N00259987WA0092301008
B1727563801291N00259992WA0092101005
B1727573801293N00259998WA0091901003
B1727583801294N00300004WA0091801002
B1727593801293N00300009WA0091701001
B1728003801293N00300015WA0091600999
B1728013801292N00300020WA0091500998
B1728023801292N00300026WA0091200996
B1728033801292N00300032WA0091100995
B1728043801292N00300038WA0091100994
B1728053801291N00300044WA0091100993
B1728063801289N00300050WA0091000993
B1728073801287N00300055WA0090800991
B1728083801286N00300062WA0090400989
B1728093801285N00300069WA0090100985
B1728103801285N00300076WA0090000983
B1728113801284N00300083WA0090100982
B1728123801283N00300090WA0090300981
B1728133801280N00300094WA0090500982
B1728143801277N00300096WA0090800984
B1728153801274N00300098WA0090900988
B1728163801272N00300101WA0090700988
B1728173801271N00300105WA0090300989
B1728183801269N00300109WA0090400987
B1728193801266N00300114WA0090300987
B1728203801262N00300117WA0090500987
B1728213801259N00300119WA0090800989
B1728223801255N00300121WA0090900990
B1728233801252N00300123WA0091100991
B1728243801250N00300125WA0091200993
B1728253801248N00300127WA0091300995
B1728263801248N00300130WA0091200995
B1728273801248N00300133WA0091000993
B1728283801248N00300136WA0090700991
B1728293801247N00300141WA0090600989
B1728303801245N00300144WA0090400988
B1728313801242N00300147WA0090400986
B1728323801240N00300151WA0090200985
B1728333801240N00300156WA0089900983
B1728343801239N00300162WA0089900980
B1728353801238N00300168WA0089800980
B1728363801236N00300172WA0090000981
B1728373801234N00300174WA0090100981
B1728383801232N00300177WA0090000981
B1728393801230N00300180WA0089800980
B1728403801228N00300186WA0089500978
B1728413801225N00300192WA0089400976
B1728423801222N00300197WA0089600978
B1728433801219N00300200WA0090100981
B1728443801216N00300201WA0090400984
B1728453801214N00300201WA0090600986
B1728463801212N00300202WA0090500987
B1728473801208N00300205WA0090500987
B1728483801204N00300208WA0090300986
B1728493801198N00300209WA0090200986
B1728503801193N00300208WA0090300986
B1728513801187N00300207WA0090500987
B1728523801183N00300206WA0090600987
B1728533801179N00300207WA0090500988
B1728543801175N00300209WA0090300987
B1728553801170N00300212WA0090100985
B1728563801165N00300214WA0089900984
B1728573801159N00300214WA0089800983
B1728583801153N00300212WA0089700981
B1728593801147N00300209WA0089600980
B1729003801142N00300204WA0089500980
B1729013801137N00300198WA0089300979
B1729023801133N00300192WA0089000977
B1729033801128N00300185WA0088800974
B1729043801123N00300178WA0088700972
B1729053801119N00300171WA0088600970
B1729063801115N00300162WA0088400969
B1729073801112N00300153WA0088300967
B1729083801108N00300146WA0088100966
B1729093801104N00300139WA0088200966
B1729103801100N00300132WA0088100965
B1729113801096N00300125WA0088000964
B1729123801092N00300117WA0087800963
B1729133801088N00300110WA0087600961
B1729143801083N00300104WA0087500960
B1729153801078N00300099WA0087500959
B1729163801074N00300094WA0087500959
B1729173801069N00300089WA0087400958
B1729183801064N00300085WA0087200956
B1729193801058N00300080WA0087000954
B1729203801052N00300076WA0086800952
B1729213801046N00300072WA0086700950
B1729223801040N00300068WA0086700949
B1729233801036N00300064WA0086700949
B1729243801030N00300060WA0086700948
B1729253801024N00300056WA0086400946
B1729263801018N00300053WA0086200944
B1729273801011N00300050WA0086200942
B1729283801005N00300046WA0086000941
B1729293800999N00300042WA0085800940
B1729303800993N00300039WA0085800939
B1729313800986N00300038WA0085500938
B1729323800979N00300038WA0085300935
B1729333800973N00300038WA0085200933
B1729343800967N00300038WA0085200932
B1729353800961N00300038WA0085200932
B1729363800956N00300037WA0085100931
B1729373800950N00300036WA0085000930
B1729383800944N00300034WA0084700929
B1729393800937N00300032WA0084600927
B1729403800930N00300030WA0084400925
B1729413800923N00300027WA0084300924
B1729423800917N00300024WA0084300923
B1729433800911N00300020WA0084300923
B1729443800906N00300015WA0084200922
B1729453800900N00300010WA0084200921
B1729463800894N00300005WA0083800919
B1729473800888N00300000WA0083600918
B1729483800882N00259995WA0083500917
B1729493800876N00259989WA0083400916
B1729503800870N00259983WA0083300915
B1729513800865N00259977WA0083200914
B1729523800859N00259971WA0083100913
B1729533800854N00259966WA0082900911
B1729543800847N00259962WA0082700909
B1729553800840N00259958WA0082500907
B1729563800833N00259954WA0082500906
B1729573800828N00259952WA0082700906
B1729583800822N00259952WA0082500905
B1729593800817N00259954WA0082400904
B1730003800812N00259957WA0082100901
B1730013800809N00259960WA0082000899
B1730023800805N00259963WA0082100899
B1730033800803N00259965WA0082200898
B1730043800800N00259967WA0082100898
B1730053800797N00259970WA0081800896
B1730063800795N00259973WA0081600894
B1730073800795N00259977WA0081500891
B1730083800795N00259980WA0081400890
B1730093800794N00259983WA0081300889
B1730103800794N00259985WA0081200887
B1730113800794N00259989WA0081000886
B1730123800794N00259991WA0080800885
B1730133800796N00259994WA0080700883
B1730143800798N00259998WA0080300881
B1730153800802N00300001WA0080200878
B1730163800805N00300002WA0080200877
B1730173800808N00300003WA0080300876
B1730183800810N00300004WA0080300876
B1730193800812N00300004WA0080300876
B1730203800813N00300004WA0080300875
B1730213800813N00300004WA0080200877
B1730223800813N00300004WA0080300877
B1730233800814N00300003WA0080300877
B1730243800814N00300003WA0080300877
B1730253800814N00300003WA0080300877
B1730263800814N00300003WA0080300877
B1730273800814N00300003WA0080300877
B1730283800813N00300003WA0080300877
B1730293800813N00300003WA0080200877
B1730303800813N00300003WA0080300877
B1730313800813N00300003WA0080200877
B1730323800813N00300003WA0080200877
B1730333800813N00300003WA0080200877
B1730343800813N00300003WA0080300877
B1730353800813N00300003WA0080200877
B1730363800813N00300003WA0080200877
B1730373800813N00300004WA0080200878
B1730383800813N00300004WA0080200877
B1730393800812N00300003WA0080300878
B1730403800812N00300003WA0080300878
B1730413800812N00300003WA0080200878
B1730423800812N00300003WA0080200878
B1730433800812N00300003WA0080200878
B1730443800812N00300003WA0080200878
B1730453800812N00300003WA0080300878
B1730463800812N00300003WA0080300878
B1730473800812N00300003WA0080200878
B1730483800812N00300003WA0080200878
B1730493800812N00300003WA0080300878
B1730503800812N00300003WA0080300878
B1730513800812N00300003WA0080300878
B1730523800811N00300002WA0080300877
B1730533800812N00300002WA0080300877
B1730543800812N00300002WA0080300877
B1730553800812N00300002WA0080300877
B1730563800812N00300002WA0080300877
B1730573800812N00300002WA0080300877
B1730583800812N00300002WA0080300877
B1730593800812N00300002WA0080300877
B1731003800812N00300002WA0080300877
B1731013800812N00300002WA0080300877
B1731023800812N00300001WA0080300877
B1731033800812N00300001WA0080300877
B1731043800812N00300000WA0080200877
B1731053800812N00300000WA0080300877
B1731063800811N00300000WA0080300877
B1731073800811N00300000WA0080200877
B1731083800811N00259999WA0080200877
B1731093800811N00300000WA0080200877
B1731103800812N00300000WA0080300877
B1731113800812N00300001WA0080200877
B1731123800812N00300001WA0080300877
B1731133800812N00300002WA0080300877
B1731143800812N00300002WA0080300877
B1731153800812N00300002WA0080300877
B1731163800812N00300002WA0080300877
B1731173800812N00300002WA0080300877
B1731183800812N00300002WA0080300877
B1731193800812N00300002WA0080200877
B1731203800812N00300002WA0080300877
B1731213800812N00300002WA0080300877
B1731223800812N00300002WA0080200877
B1731233800812N00300003WA0080200877
B1731243800812N00300003WA0080200877
B1731253800812N00300003WA0080200877
B1731263800812N00300002WA0080200877
B1731273800812N00300002WA0080200877
B1731283800812N00300002WA0080200877
B1731293800812N00300002WA0080300877
B1731303800812N00300002WA0080200877
B1731313800812N00300002WA0080200877
B1731323800812N00300003WA0080300877
B1731333800811N00300002WA0080200877
B1731343800811N00300002WA0080300876
B1731353800810N00300003WA0080200876
B1731363800810N00300003WA0080300876
B1731373800810N00300004WA0080200876
B1731383800810N00300003WA0080300876
B1731393800809N00300003WA0080300876
B1731403800809N00300004WA0080300876
B1731413800808N00300005WA0080300876
B1731423800808N00300005WA0080300876
B1731433800807N00300004WA0080300876
B1731443800807N00300004WA0080300876
B1731453800807N00300004WA0080300876
B1731463800806N00300005WA0080300876
B1731473800806N00300006WA0080300875
B1731483800805N00300007WA0080200875
B1731493800805N00300007WA0080200875
B1731503800805N00300007WA0080200875
B1731513800805N00300008WA0080300875
B1731523800804N00300008WA0080300875
B1731533800803N00300008WA0080300875
B1731543800803N00300008WA0080300875
B1731553800803N00300008WA0080300875
B1731563800802N00300009WA0080300875
B1731573800802N00300009WA0080300875
B1731583800801N00300010WA0080300875
B1731593800801N00300010WA0080300875
B1732003800800N00300010WA0080300875
B1732013800800N00300011WA0080300875
B1732023800799N00300011WA0080300875
B1732033800799N00300011WA0080300875
B1732043800798N00300011WA0080300875
B1732053800798N00300013WA0080300875
B1732063800798N00300014WA0080300875
B1732073800797N00300014WA0080300875
B1732083800797N00300014WA0080300875
B1732093800797N00300015WA0080300875
B1732103800796N00300016WA0080300875
B1732113800796N00300016WA0080300875
B1732123800795N00300015WA0080300875
B1732133800795N00300015WA0080300875
B1732143800795N00300015WA0080300875
B1732153800794N00300015WA0080300875
B1732163800794N00300014WA0080300875
B1732173800793N00300014WA0080300875
B1732183800793N00300015WA0080300875
B1732193800792N00300015WA0080300875
B1732203800792N00300016WA0080400875
B1732213800792N00300016WA0080400875
B1732223800792N00300017WA0080400875
B1732233800792N00300016WA0080400875
B1732243800792N00300016WA0080400875
B1732253800792N00300015WA0080400875
B1732263800792N00300015WA0080400875
B1732273800792N00300015WA0080400875
B1732283800793N00300014WA0080400875
B1732293800793N00300014WA0080400875
B1732303800793N00300013WA0080400875
B1732313800793N00300013WA0080400875
B1732323800793N00300013WA0080400875
B1732333800793N00300013WA0080400875
B1732343800793N00300013WA0080400875
B1732353800793N00300013WA0080400875
B1732363800794N00300014WA0080400875
B1732373800794N00300015WA0080400875
B1732383800795N00300015WA0080400875
B1732393800795N00300015WA0080400875
B1732403800795N00300015WA0080400875
B1732413800795N00300015WA0080400875
B1732423800796N00300015WA0080400875
B1732433800796N00300016WA0080400875
B1732443800796N00300016WA0080400875
B1732453800796N00300016WA0080400875
B1732463800796N00300016WA0080400875
B1732473800796N00300016WA0080400875
B1732483800795N00300016WA0080400874
B1732493800795N00300016WA0080300874
B1732503800796N00300016WA0080300874
B1732513800795N00300016WA0080300874
B1732523800796N00300015WA0080300874
B1732533800796N00300015WA0080300874
B1732543800796N00300015WA0080400874
B1732553800796N00300016WA0080300874
B1732563800796N00300016WA0080300874
B1732573800795N00300016WA0080300874
B1732583800795N00300016WA0080300874
B1732593800795N00300015WA0080300874
B1733003800795N00300015WA0080400874
B1733013800795N00300014WA0080300874
B1733023800795N00300013WA0080300874
B1733033800794N00300014WA0080300874
B1733043800794N00300013WA0080400874
B1733053800793N00300012WA0080400874
B1733063800792N00300010WA0080400875
B1733073800792N00300010WA0080400875
B1733083800791N00300010WA0080400875
B1733093800791N00300010WA0080400875
B1733103800790N00300010WA0080400875
B1733113800791N00300010WA0080400875
B1733123800791N00300010WA0080400875
B1733133800791N00300010WA0080400875
B1733143800791N00300009WA0080300875
B1733153800791N00300009WA0080300875
B1733163800791N00300009WA0080400875
B1733173800792N00300010WA0080400875
B1733183800792N00300010WA0080400875
B1733193800791N00300011WA0080400875
B1733203800792N00300011WA0080400875
B1733213800793N00300010WA0080400875
B1733223800794N00300010WA0080400875
B1733233800794N00300011WA0080400875
B1733243800794N00300011WA0080300875
B1733253800794N00300011WA0080400875
B1733263800794N00300012WA0080300875
B1733273800794N00300012WA0080400875
B1733283800794N00300013WA0080400875
B1733293800794N00300013WA0080400875
B1733303800795N00300013WA0080400875
B1733313800795N00300013WA0080400875
B1733323800795N00300013WA0080400875
B1733333800795N00300013WA0080300875
B1733343800795N00300013WA0080400875
B1733353800795N00300013WA0080400875
B1733363800796N00300013WA0080400875
B1733373800796N00300013WA0080400875
B1733383800796N00300013WA0080400875
B1733393800797N00300013WA0080400875
B1733403800797N00300012WA0080400875
B1733413800798N00300012WA0080400875
B1733423800798N00300011WA0080400875
B1733433800798N00300011WA0080400876
B1733443800798N00300011WA0080400876
B1733453800797N00300010WA0080400876
B1733463800797N00300010WA0080400876
B1733473800797N00300011WA0080400876
B1733483800797N00300012WA0080400876
B1733493800797N00300012WA0080400876
B1733503800797N00300012WA0080400876
B1733513800798N00300013WA0080400876
B1733523800798N00300013WA0080400876
B1733533800798N00300014WA0080400876
B1733543800798N00300013WA0080400876
B1733553800797N00300012WA0080400876
B1733563800797N00300012WA0080400876
B1733573800797N00300012WA0080400876
B1733583800797N00300012WA0080400876
B1733593800798N00300013WA0080400877
B1734003800797N00300013WA0080400877
B1734013800797N00300014WA0080400877
B1734023800797N00300014WA0080400877
B1734033800799N00300010WA0080400877
B1734043800800N00300008WA0080400877
B1734053800799N00300008WA0080400877
B1734063800799N00300008WA0080400877
B1734073800799N00300009WA0080400877
B1734083800799N00300010WA0080400877
B1734093800799N00300010WA0080400877
B1734103800799N00300011WA0080400877
B1734113800799N00300011WA0080400877
B1734123800799N00300012WA0080400877
B1734133800799N00300012WA0080400877
B1734143800799N00300012WA0080400877
B1734153800799N00300012WA0080400877
B1734163800798N00300012WA0080400877
B1734173800798N00300012WA0080400877
B1734183800798N00300011WA0080400877
B1734193800797N00300011WA0080400877
B1734203800797N00300011WA0080400878
B1734213800797N00300010WA0080400878
B1734223800797N00300010WA0080400878
B1734233800797N00300011WA0080400878
B1734243800797N00300011WA0080400878
B1734253800797N00300011WA0080400878
B1734263800797N00300011WA0080400878
B1734273800797N00300011WA0080400878
B1734283800797N00300011WA0080400878
B1734293800796N00300011WA0080400878
B1734303800796N00300012WA0080400878
B1734313800797N00300012WA0080400878
B1734323800797N00300012WA0080400878
B1734333800797N00300012WA0080400878
B1734343800797N00300012WA0080400878
B1734353800796N00300012WA0080400878
B1734363800796N00300012WA0080400878
B1734373800796N00300012WA0080400878
B1734383800796N00300012WA0080400878
B1734393800796N00300013WA0080400878
B1734403800797N00300013WA0080400878
B1734413800797N00300013WA0080400878
B1734423800798N00300014WA0080400878
B1734433800797N00300015WA0080400878
B1734443800797N00300015WA0080400878
B1734453800797N00300015WA0080400878
B1734463800798N00300015WA0080400878
B1734473800798N00300014WA0080400877
B1734483800798N00300014WA0080400877
B1734493800797N00300015WA0080400877
B1734503800798N00300015WA0080400877
B1734513800798N00300014WA0080400877
B1734523800797N00300014WA0080400877
B1734533800797N00300015WA0080400877
B1734543800796N00300015WA0080400877
B1734553800796N00300015WA0080400877
B1734563800796N00300015WA0080400877
B1734573800796N00300015WA0080400877
B1734583800795N00300014WA0080400877
B1734593800795N00300014WA0080400877
B1735003800795N00300014WA0080400877
B1735013800795N00300015WA0080300877
B1735023800795N00300016WA0080400877
B1735033800795N00300017WA0080300877
B1735043800794N00300017WA0080300877
B1735053800795N00300017WA0080300877
B1735063800795N00300017WA0080300877
B1735073800795N00300016WA0080300877
B1735083800796N00300015WA0080300877
B1735093800796N00300015WA0080300877
B1735103800796N00300014WA0080400877
B1735113800795N00300015WA0080400877
B1735123800793N00300015WA0080400877
B1735133800793N00300015WA0080400877
B1735143800792N00300015WA0080400877
B1735153800792N00300016WA0080400877
B1735163800792N00300016WA0080400877
B1735173800792N00300016WA0080300877
B1735183800793N00300016WA0080300877
B1735193800793N00300016WA0080300877
B1735203800793N00300016WA0080300877
B1735213800794N00300015WA0080300877
B1735223800794N00300015WA0080300876
B1735233800793N00300015WA0080400876
B1735243800793N00300015WA0080300876
B1735253800792N00300013WA0080300877
B1735263800793N00300016WA0080400877
B1735273800793N00300016WA0080300877
B1735283800794N00300017WA0080400877
B1735293800794N00300017WA0080300877
B1735303800794N00300016WA0080300877
B1735313800793N00300016WA0080300877
B1735323800792N00300016WA0080300877
B1735333800791N00300016WA0080300877
B1735343800791N00300017WA0080300876
B1735353800791N00300016WA0080300876
B1735363800790N00300016WA0080300876
B1735373800791N00300016WA0080300876
B1735383800791N00300016WA0080300876
B1735393800791N00300015WA0080300876
B1735403800791N00300015WA0080300876
B1735413800792N00300015WA0080300876
B1735423800791N00300017WA0080300876
B1735433800792N00300016WA0080300876
B1735443800793N00300016WA0080300876
B1735453800793N00300016WA0080300876
B1735463800793N00300016WA0080300876
B1735473800793N00300015WA0080300876
B1735483800793N00300015WA0080300876
B1735493800792N00300015WA0080300876
B1735503800792N00300015WA0080300876
B1735513800792N00300015WA0080300876
B1735523800792N00300016WA0080300876
B1735533800792N00300016WA0080300876
B1735543800791N00300017WA0080300876
B1735553800792N00300015WA0080300876
B1735563800792N00300016WA0080300876
B1735573800793N00300016WA0080300876
B1735583800793N00300017WA0080300876
B1735593800793N00300017WA0080300876
B1736003800793N00300017WA0080300876
B1736013800793N00300017WA0080300876
B1736023800794N00300017WA0080200876
B1736033800793N00300018WA0080300876
B1736043800794N00300018WA0080300876
B1736053800793N00300018WA0080300876
B1736063800793N00300018WA0080300875
B1736073800793N00300018WA0080300875
B1736083800793N00300018WA0080300875
B1736093800793N00300018WA0080300875
B1736103800794N00300018WA0080300875
B1736113800795N00300017WA0080200875
B1736123800794N00300018WA0080300875
B1736133800794N00300018WA0080300875
LXGD GpsDump version 4.66
LXGD Downloaded 2012-06-15  17:11:03
G5DE896BFD0A2CE54
